<?xml version="1.0" encoding="UTF-8" standalone="no" ?>
<gpx xmlns="http://www.topografix.com/GPX/1/1" xmlns:xsi="http://www.w3.org/2001/XMLSchema-instance" xsi:schemaLocation="http://www.topografix.com/GPX/1/1 http://www.topografix.com/GPX/1/1/gpx.xsd" version="1.1" creator="VisuGPX - https://www.visugpx.com">
  <metadata>
    <name>SaintéLyon-2015</name>
    <desc><![CDATA[Epreuve longue de la saintéLyon2015]]></desc>
  </metadata>
  <trk>
    <name><![CDATA[Saint-Étienne Course à pied]]></name>
    <trkseg>
      <trkpt lat="45.45037" lon="4.39834">
        <ele>491.20001220703</ele>
        <time>2015-12-05T23:02:24.000Z</time>
      </trkpt>
      <trkpt lat="45.45055" lon="4.39841">
        <ele>491</ele>
        <time>2015-12-05T23:02:47.000Z</time>
      </trkpt>
      <trkpt lat="45.45074" lon="4.39842">
        <ele>491.20001220703</ele>
        <time>2015-12-05T23:02:58.000Z</time>
      </trkpt>
      <trkpt lat="45.45094" lon="4.39844">
        <ele>491.60000610352</ele>
        <time>2015-12-05T23:03:07.000Z</time>
      </trkpt>
      <trkpt lat="45.45113" lon="4.39848">
        <ele>491.79998779297</ele>
        <time>2015-12-05T23:03:15.000Z</time>
      </trkpt>
      <trkpt lat="45.45132" lon="4.3985">
        <ele>492</ele>
        <time>2015-12-05T23:03:23.000Z</time>
      </trkpt>
      <trkpt lat="45.4515" lon="4.39852">
        <ele>492.20001220703</ele>
        <time>2015-12-05T23:03:31.000Z</time>
      </trkpt>
      <trkpt lat="45.45155" lon="4.39851">
        <ele>492.20001220703</ele>
        <time>2015-12-05T23:03:33.000Z</time>
      </trkpt>
      <trkpt lat="45.45174" lon="4.39853">
        <ele>492.39999389648</ele>
        <time>2015-12-05T23:03:42.000Z</time>
      </trkpt>
      <trkpt lat="45.45193" lon="4.39856">
        <ele>492.79998779297</ele>
        <time>2015-12-05T23:03:50.000Z</time>
      </trkpt>
      <trkpt lat="45.45211" lon="4.39859">
        <ele>493</ele>
        <time>2015-12-05T23:03:57.000Z</time>
      </trkpt>
      <trkpt lat="45.45229" lon="4.39864">
        <ele>493.20001220703</ele>
        <time>2015-12-05T23:04:04.000Z</time>
      </trkpt>
      <trkpt lat="45.45248" lon="4.39869">
        <ele>493.39999389648</ele>
        <time>2015-12-05T23:04:13.000Z</time>
      </trkpt>
      <trkpt lat="45.45269" lon="4.39871">
        <ele>493.79998779297</ele>
        <time>2015-12-05T23:04:22.000Z</time>
      </trkpt>
      <trkpt lat="45.45287" lon="4.39878">
        <ele>494</ele>
        <time>2015-12-05T23:04:30.000Z</time>
      </trkpt>
      <trkpt lat="45.45306" lon="4.39882">
        <ele>494.39999389648</ele>
        <time>2015-12-05T23:04:37.000Z</time>
      </trkpt>
      <trkpt lat="45.45323" lon="4.39887">
        <ele>495</ele>
        <time>2015-12-05T23:04:44.000Z</time>
      </trkpt>
      <trkpt lat="45.45341" lon="4.39889">
        <ele>495.79998779297</ele>
        <time>2015-12-05T23:04:51.000Z</time>
      </trkpt>
      <trkpt lat="45.45361" lon="4.399">
        <ele>496.60000610352</ele>
        <time>2015-12-05T23:04:59.000Z</time>
      </trkpt>
      <trkpt lat="45.45376" lon="4.39913">
        <ele>497.20001220703</ele>
        <time>2015-12-05T23:05:06.000Z</time>
      </trkpt>
      <trkpt lat="45.45391" lon="4.39933">
        <ele>497.20001220703</ele>
        <time>2015-12-05T23:05:14.000Z</time>
      </trkpt>
      <trkpt lat="45.45406" lon="4.39952">
        <ele>497</ele>
        <time>2015-12-05T23:05:22.000Z</time>
      </trkpt>
      <trkpt lat="45.45421" lon="4.39971">
        <ele>497.60000610352</ele>
        <time>2015-12-05T23:05:30.000Z</time>
      </trkpt>
      <trkpt lat="45.45436" lon="4.39989">
        <ele>498</ele>
        <time>2015-12-05T23:05:38.000Z</time>
      </trkpt>
      <trkpt lat="45.45449" lon="4.40006">
        <ele>498.39999389648</ele>
        <time>2015-12-05T23:05:45.000Z</time>
      </trkpt>
      <trkpt lat="45.45463" lon="4.40024">
        <ele>498.79998779297</ele>
        <time>2015-12-05T23:05:53.000Z</time>
      </trkpt>
      <trkpt lat="45.45478" lon="4.40044">
        <ele>499.20001220703</ele>
        <time>2015-12-05T23:06:01.000Z</time>
      </trkpt>
      <trkpt lat="45.45493" lon="4.40062">
        <ele>499.39999389648</ele>
        <time>2015-12-05T23:06:09.000Z</time>
      </trkpt>
      <trkpt lat="45.45507" lon="4.40082">
        <ele>499.79998779297</ele>
        <time>2015-12-05T23:06:17.000Z</time>
      </trkpt>
      <trkpt lat="45.45522" lon="4.40102">
        <ele>500</ele>
        <time>2015-12-05T23:06:25.000Z</time>
      </trkpt>
      <trkpt lat="45.45537" lon="4.4012">
        <ele>500.20001220703</ele>
        <time>2015-12-05T23:06:33.000Z</time>
      </trkpt>
      <trkpt lat="45.45553" lon="4.40138">
        <ele>499.79998779297</ele>
        <time>2015-12-05T23:06:41.000Z</time>
      </trkpt>
      <trkpt lat="45.45566" lon="4.40158">
        <ele>499.39999389648</ele>
        <time>2015-12-05T23:06:49.000Z</time>
      </trkpt>
      <trkpt lat="45.4558" lon="4.40177">
        <ele>498.79998779297</ele>
        <time>2015-12-05T23:06:57.000Z</time>
      </trkpt>
      <trkpt lat="45.45594" lon="4.40198">
        <ele>498.39999389648</ele>
        <time>2015-12-05T23:07:05.000Z</time>
      </trkpt>
      <trkpt lat="45.45608" lon="4.40218">
        <ele>497.20001220703</ele>
        <time>2015-12-05T23:07:13.000Z</time>
      </trkpt>
      <trkpt lat="45.45621" lon="4.40238">
        <ele>496</ele>
        <time>2015-12-05T23:07:20.000Z</time>
      </trkpt>
      <trkpt lat="45.45633" lon="4.40257">
        <ele>494.79998779297</ele>
        <time>2015-12-05T23:07:27.000Z</time>
      </trkpt>
      <trkpt lat="45.45646" lon="4.40275">
        <ele>493.20001220703</ele>
        <time>2015-12-05T23:07:34.000Z</time>
      </trkpt>
      <trkpt lat="45.4566" lon="4.40296">
        <ele>492.39999389648</ele>
        <time>2015-12-05T23:07:42.000Z</time>
      </trkpt>
      <trkpt lat="45.45673" lon="4.40317">
        <ele>492</ele>
        <time>2015-12-05T23:07:49.000Z</time>
      </trkpt>
      <trkpt lat="45.45685" lon="4.40337">
        <ele>491.39999389648</ele>
        <time>2015-12-05T23:07:56.000Z</time>
      </trkpt>
      <trkpt lat="45.45697" lon="4.40357">
        <ele>490.79998779297</ele>
        <time>2015-12-05T23:08:03.000Z</time>
      </trkpt>
      <trkpt lat="45.45708" lon="4.40377">
        <ele>490.20001220703</ele>
        <time>2015-12-05T23:08:10.000Z</time>
      </trkpt>
      <trkpt lat="45.45721" lon="4.40398">
        <ele>489.39999389648</ele>
        <time>2015-12-05T23:08:17.000Z</time>
      </trkpt>
      <trkpt lat="45.45732" lon="4.40419">
        <ele>488.79998779297</ele>
        <time>2015-12-05T23:08:24.000Z</time>
      </trkpt>
      <trkpt lat="45.45714" lon="4.40466">
        <ele>489.79998779297</ele>
        <time>2015-12-05T23:08:38.000Z</time>
      </trkpt>
      <trkpt lat="45.45721" lon="4.40491">
        <ele>490.39999389648</ele>
        <time>2015-12-05T23:08:47.000Z</time>
      </trkpt>
      <trkpt lat="45.45728" lon="4.40517">
        <ele>491.20001220703</ele>
        <time>2015-12-05T23:08:55.000Z</time>
      </trkpt>
      <trkpt lat="45.45723" lon="4.40545">
        <ele>492.39999389648</ele>
        <time>2015-12-05T23:09:03.000Z</time>
      </trkpt>
      <trkpt lat="45.45717" lon="4.40571">
        <ele>493</ele>
        <time>2015-12-05T23:09:10.000Z</time>
      </trkpt>
      <trkpt lat="45.45706" lon="4.40593">
        <ele>493.39999389648</ele>
        <time>2015-12-05T23:09:16.000Z</time>
      </trkpt>
      <trkpt lat="45.45691" lon="4.40611">
        <ele>493</ele>
        <time>2015-12-05T23:09:24.000Z</time>
      </trkpt>
      <trkpt lat="45.45676" lon="4.4063">
        <ele>493.39999389648</ele>
        <time>2015-12-05T23:09:31.000Z</time>
      </trkpt>
      <trkpt lat="45.45661" lon="4.40648">
        <ele>493.79998779297</ele>
        <time>2015-12-05T23:09:38.000Z</time>
      </trkpt>
      <trkpt lat="45.45646" lon="4.40668">
        <ele>493.79998779297</ele>
        <time>2015-12-05T23:09:45.000Z</time>
      </trkpt>
      <trkpt lat="45.4563" lon="4.4068">
        <ele>493.39999389648</ele>
        <time>2015-12-05T23:09:53.000Z</time>
      </trkpt>
      <trkpt lat="45.45616" lon="4.40697">
        <ele>493.60000610352</ele>
        <time>2015-12-05T23:10:01.000Z</time>
      </trkpt>
      <trkpt lat="45.45603" lon="4.40717">
        <ele>495</ele>
        <time>2015-12-05T23:10:09.000Z</time>
      </trkpt>
      <trkpt lat="45.45584" lon="4.40731">
        <ele>496</ele>
        <time>2015-12-05T23:10:17.000Z</time>
      </trkpt>
      <trkpt lat="45.45567" lon="4.40742">
        <ele>494.39999389648</ele>
        <time>2015-12-05T23:10:24.000Z</time>
      </trkpt>
      <trkpt lat="45.45547" lon="4.4075">
        <ele>492.60000610352</ele>
        <time>2015-12-05T23:10:32.000Z</time>
      </trkpt>
      <trkpt lat="45.45532" lon="4.40765">
        <ele>492.79998779297</ele>
        <time>2015-12-05T23:10:40.000Z</time>
      </trkpt>
      <trkpt lat="45.45517" lon="4.4078">
        <ele>491.79998779297</ele>
        <time>2015-12-05T23:10:48.000Z</time>
      </trkpt>
      <trkpt lat="45.45503" lon="4.40799">
        <ele>492</ele>
        <time>2015-12-05T23:10:56.000Z</time>
      </trkpt>
      <trkpt lat="45.45486" lon="4.40811">
        <ele>491.60000610352</ele>
        <time>2015-12-05T23:11:04.000Z</time>
      </trkpt>
      <trkpt lat="45.45469" lon="4.40823">
        <ele>491.20001220703</ele>
        <time>2015-12-05T23:11:11.000Z</time>
      </trkpt>
      <trkpt lat="45.45454" lon="4.40839">
        <ele>491.79998779297</ele>
        <time>2015-12-05T23:11:19.000Z</time>
      </trkpt>
      <trkpt lat="45.4544" lon="4.4086">
        <ele>492.39999389648</ele>
        <time>2015-12-05T23:11:27.000Z</time>
      </trkpt>
      <trkpt lat="45.45423" lon="4.40874">
        <ele>492.60000610352</ele>
        <time>2015-12-05T23:11:34.000Z</time>
      </trkpt>
      <trkpt lat="45.45406" lon="4.40886">
        <ele>492.79998779297</ele>
        <time>2015-12-05T23:11:41.000Z</time>
      </trkpt>
      <trkpt lat="45.45389" lon="4.40898">
        <ele>492.60000610352</ele>
        <time>2015-12-05T23:11:48.000Z</time>
      </trkpt>
      <trkpt lat="45.45373" lon="4.40912">
        <ele>492.39999389648</ele>
        <time>2015-12-05T23:11:55.000Z</time>
      </trkpt>
      <trkpt lat="45.45356" lon="4.40925">
        <ele>492.20001220703</ele>
        <time>2015-12-05T23:12:02.000Z</time>
      </trkpt>
      <trkpt lat="45.45343" lon="4.40945">
        <ele>491.60000610352</ele>
        <time>2015-12-05T23:12:10.000Z</time>
      </trkpt>
      <trkpt lat="45.45328" lon="4.40965">
        <ele>490.79998779297</ele>
        <time>2015-12-05T23:12:18.000Z</time>
      </trkpt>
      <trkpt lat="45.45313" lon="4.40984">
        <ele>490.39999389648</ele>
        <time>2015-12-05T23:12:26.000Z</time>
      </trkpt>
      <trkpt lat="45.45307" lon="4.41009">
        <ele>490.20001220703</ele>
        <time>2015-12-05T23:12:34.000Z</time>
      </trkpt>
      <trkpt lat="45.45307" lon="4.41013">
        <ele>490.20001220703</ele>
        <time>2015-12-05T23:12:35.000Z</time>
      </trkpt>
      <trkpt lat="45.45317" lon="4.41037">
        <ele>489.79998779297</ele>
        <time>2015-12-05T23:12:42.000Z</time>
      </trkpt>
      <trkpt lat="45.45328" lon="4.41059">
        <ele>489.39999389648</ele>
        <time>2015-12-05T23:12:49.000Z</time>
      </trkpt>
      <trkpt lat="45.45341" lon="4.41078">
        <ele>489.20001220703</ele>
        <time>2015-12-05T23:12:56.000Z</time>
      </trkpt>
      <trkpt lat="45.45355" lon="4.41099">
        <ele>489</ele>
        <time>2015-12-05T23:13:04.000Z</time>
      </trkpt>
      <trkpt lat="45.45369" lon="4.41119">
        <ele>488.79998779297</ele>
        <time>2015-12-05T23:13:12.000Z</time>
      </trkpt>
      <trkpt lat="45.45383" lon="4.41138">
        <ele>488.79998779297</ele>
        <time>2015-12-05T23:13:20.000Z</time>
      </trkpt>
      <trkpt lat="45.45396" lon="4.41156">
        <ele>490</ele>
        <time>2015-12-05T23:13:27.000Z</time>
      </trkpt>
      <trkpt lat="45.45411" lon="4.41175">
        <ele>491.60000610352</ele>
        <time>2015-12-05T23:13:35.000Z</time>
      </trkpt>
      <trkpt lat="45.45426" lon="4.41191">
        <ele>492.79998779297</ele>
        <time>2015-12-05T23:13:43.000Z</time>
      </trkpt>
      <trkpt lat="45.45439" lon="4.41208">
        <ele>494</ele>
        <time>2015-12-05T23:13:50.000Z</time>
      </trkpt>
      <trkpt lat="45.45452" lon="4.41226">
        <ele>495</ele>
        <time>2015-12-05T23:13:58.000Z</time>
      </trkpt>
      <trkpt lat="45.45468" lon="4.41244">
        <ele>496</ele>
        <time>2015-12-05T23:14:06.000Z</time>
      </trkpt>
      <trkpt lat="45.45476" lon="4.41249">
        <ele>496.20001220703</ele>
        <time>2015-12-05T23:14:09.000Z</time>
      </trkpt>
      <trkpt lat="45.45489" lon="4.41261">
        <ele>496.39999389648</ele>
        <time>2015-12-05T23:14:15.000Z</time>
      </trkpt>
      <trkpt lat="45.45499" lon="4.41286">
        <ele>497.20001220703</ele>
        <time>2015-12-05T23:14:22.000Z</time>
      </trkpt>
      <trkpt lat="45.45511" lon="4.41307">
        <ele>498</ele>
        <time>2015-12-05T23:14:31.000Z</time>
      </trkpt>
      <trkpt lat="45.45522" lon="4.41329">
        <ele>498.60000610352</ele>
        <time>2015-12-05T23:14:40.000Z</time>
      </trkpt>
      <trkpt lat="45.45535" lon="4.4135">
        <ele>499.39999389648</ele>
        <time>2015-12-05T23:14:49.000Z</time>
      </trkpt>
      <trkpt lat="45.45546" lon="4.41371">
        <ele>500.39999389648</ele>
        <time>2015-12-05T23:14:57.000Z</time>
      </trkpt>
      <trkpt lat="45.45558" lon="4.41394">
        <ele>501</ele>
        <time>2015-12-05T23:15:07.000Z</time>
      </trkpt>
      <trkpt lat="45.45573" lon="4.41414">
        <ele>501.20001220703</ele>
        <time>2015-12-05T23:15:15.000Z</time>
      </trkpt>
      <trkpt lat="45.45586" lon="4.41431">
        <ele>501.39999389648</ele>
        <time>2015-12-05T23:15:22.000Z</time>
      </trkpt>
      <trkpt lat="45.456" lon="4.4145">
        <ele>501.60000610352</ele>
        <time>2015-12-05T23:15:29.000Z</time>
      </trkpt>
      <trkpt lat="45.45612" lon="4.41471">
        <ele>503.20001220703</ele>
        <time>2015-12-05T23:15:37.000Z</time>
      </trkpt>
      <trkpt lat="45.45626" lon="4.41489">
        <ele>504.20001220703</ele>
        <time>2015-12-05T23:15:45.000Z</time>
      </trkpt>
      <trkpt lat="45.45642" lon="4.41506">
        <ele>504.79998779297</ele>
        <time>2015-12-05T23:15:52.000Z</time>
      </trkpt>
      <trkpt lat="45.45657" lon="4.41527">
        <ele>505.39999389648</ele>
        <time>2015-12-05T23:15:59.000Z</time>
      </trkpt>
      <trkpt lat="45.45669" lon="4.41548">
        <ele>505.79998779297</ele>
        <time>2015-12-05T23:16:06.000Z</time>
      </trkpt>
      <trkpt lat="45.4568" lon="4.41572">
        <ele>506</ele>
        <time>2015-12-05T23:16:13.000Z</time>
      </trkpt>
      <trkpt lat="45.45689" lon="4.41597">
        <ele>506.79998779297</ele>
        <time>2015-12-05T23:16:20.000Z</time>
      </trkpt>
      <trkpt lat="45.45697" lon="4.41622">
        <ele>507.79998779297</ele>
        <time>2015-12-05T23:16:27.000Z</time>
      </trkpt>
      <trkpt lat="45.45696" lon="4.41652">
        <ele>507.79998779297</ele>
        <time>2015-12-05T23:16:36.000Z</time>
      </trkpt>
      <trkpt lat="45.45697" lon="4.4168">
        <ele>507.60000610352</ele>
        <time>2015-12-05T23:16:44.000Z</time>
      </trkpt>
      <trkpt lat="45.45696" lon="4.41706">
        <ele>508.39999389648</ele>
        <time>2015-12-05T23:16:52.000Z</time>
      </trkpt>
      <trkpt lat="45.45696" lon="4.41732">
        <ele>509.20001220703</ele>
        <time>2015-12-05T23:17:00.000Z</time>
      </trkpt>
      <trkpt lat="45.45695" lon="4.4176">
        <ele>510</ele>
        <time>2015-12-05T23:17:08.000Z</time>
      </trkpt>
      <trkpt lat="45.45696" lon="4.41786">
        <ele>510.20001220703</ele>
        <time>2015-12-05T23:17:15.000Z</time>
      </trkpt>
      <trkpt lat="45.45697" lon="4.41815">
        <ele>510.39999389648</ele>
        <time>2015-12-05T23:17:23.000Z</time>
      </trkpt>
      <trkpt lat="45.45699" lon="4.41841">
        <ele>510.39999389648</ele>
        <time>2015-12-05T23:17:30.000Z</time>
      </trkpt>
      <trkpt lat="45.45694" lon="4.4187">
        <ele>510.79998779297</ele>
        <time>2015-12-05T23:17:38.000Z</time>
      </trkpt>
      <trkpt lat="45.45696" lon="4.41896">
        <ele>509.79998779297</ele>
        <time>2015-12-05T23:17:45.000Z</time>
      </trkpt>
      <trkpt lat="45.457" lon="4.41921">
        <ele>508.79998779297</ele>
        <time>2015-12-05T23:17:52.000Z</time>
      </trkpt>
      <trkpt lat="45.45704" lon="4.41948">
        <ele>507.39999389648</ele>
        <time>2015-12-05T23:18:00.000Z</time>
      </trkpt>
      <trkpt lat="45.45709" lon="4.41975">
        <ele>507.39999389648</ele>
        <time>2015-12-05T23:18:07.000Z</time>
      </trkpt>
      <trkpt lat="45.45713" lon="4.42002">
        <ele>507.60000610352</ele>
        <time>2015-12-05T23:18:14.000Z</time>
      </trkpt>
      <trkpt lat="45.45719" lon="4.42031">
        <ele>507.60000610352</ele>
        <time>2015-12-05T23:18:21.000Z</time>
      </trkpt>
      <trkpt lat="45.4572" lon="4.42058">
        <ele>508.20001220703</ele>
        <time>2015-12-05T23:18:28.000Z</time>
      </trkpt>
      <trkpt lat="45.4572" lon="4.42086">
        <ele>509</ele>
        <time>2015-12-05T23:18:38.000Z</time>
      </trkpt>
      <trkpt lat="45.4572" lon="4.42099">
        <ele>509.20001220703</ele>
        <time>2015-12-05T23:18:45.000Z</time>
      </trkpt>
      <trkpt lat="45.45714" lon="4.42098">
        <ele>509.79998779297</ele>
        <time>2015-12-05T23:20:15.000Z</time>
      </trkpt>
      <trkpt lat="45.45717" lon="4.42119">
        <ele>509.79998779297</ele>
        <time>2015-12-05T23:21:03.000Z</time>
      </trkpt>
      <trkpt lat="45.45721" lon="4.42147">
        <ele>508.79998779297</ele>
        <time>2015-12-05T23:21:11.000Z</time>
      </trkpt>
      <trkpt lat="45.45726" lon="4.42173">
        <ele>507.60000610352</ele>
        <time>2015-12-05T23:21:18.000Z</time>
      </trkpt>
      <trkpt lat="45.4573" lon="4.42199">
        <ele>506.60000610352</ele>
        <time>2015-12-05T23:21:25.000Z</time>
      </trkpt>
      <trkpt lat="45.45736" lon="4.42225">
        <ele>507.20001220703</ele>
        <time>2015-12-05T23:21:33.000Z</time>
      </trkpt>
      <trkpt lat="45.45743" lon="4.42249">
        <ele>507.39999389648</ele>
        <time>2015-12-05T23:21:41.000Z</time>
      </trkpt>
      <trkpt lat="45.45744" lon="4.42249">
        <ele>507.39999389648</ele>
        <time>2015-12-05T23:21:42.000Z</time>
      </trkpt>
      <trkpt lat="45.45752" lon="4.42274">
        <ele>507.79998779297</ele>
        <time>2015-12-05T23:21:50.000Z</time>
      </trkpt>
      <trkpt lat="45.45763" lon="4.42297">
        <ele>507.60000610352</ele>
        <time>2015-12-05T23:21:59.000Z</time>
      </trkpt>
      <trkpt lat="45.45775" lon="4.42316">
        <ele>507.20001220703</ele>
        <time>2015-12-05T23:22:08.000Z</time>
      </trkpt>
      <trkpt lat="45.45789" lon="4.42332">
        <ele>506.60000610352</ele>
        <time>2015-12-05T23:22:15.000Z</time>
      </trkpt>
      <trkpt lat="45.45802" lon="4.42351">
        <ele>506</ele>
        <time>2015-12-05T23:22:23.000Z</time>
      </trkpt>
      <trkpt lat="45.45816" lon="4.42372">
        <ele>506.20001220703</ele>
        <time>2015-12-05T23:22:32.000Z</time>
      </trkpt>
      <trkpt lat="45.45831" lon="4.4239">
        <ele>505.79998779297</ele>
        <time>2015-12-05T23:22:38.000Z</time>
      </trkpt>
      <trkpt lat="45.45847" lon="4.42409">
        <ele>505.60000610352</ele>
        <time>2015-12-05T23:22:44.000Z</time>
      </trkpt>
      <trkpt lat="45.45859" lon="4.42429">
        <ele>505.60000610352</ele>
        <time>2015-12-05T23:22:50.000Z</time>
      </trkpt>
      <trkpt lat="45.45872" lon="4.4245">
        <ele>505.60000610352</ele>
        <time>2015-12-05T23:22:57.000Z</time>
      </trkpt>
      <trkpt lat="45.45884" lon="4.42472">
        <ele>506.39999389648</ele>
        <time>2015-12-05T23:23:06.000Z</time>
      </trkpt>
      <trkpt lat="45.45897" lon="4.42491">
        <ele>507.20001220703</ele>
        <time>2015-12-05T23:23:14.000Z</time>
      </trkpt>
      <trkpt lat="45.45911" lon="4.42508">
        <ele>507.79998779297</ele>
        <time>2015-12-05T23:23:22.000Z</time>
      </trkpt>
      <trkpt lat="45.45925" lon="4.42525">
        <ele>508.60000610352</ele>
        <time>2015-12-05T23:23:29.000Z</time>
      </trkpt>
      <trkpt lat="45.4594" lon="4.42541">
        <ele>509.20001220703</ele>
        <time>2015-12-05T23:23:35.000Z</time>
      </trkpt>
      <trkpt lat="45.45955" lon="4.42561">
        <ele>510.39999389648</ele>
        <time>2015-12-05T23:23:42.000Z</time>
      </trkpt>
      <trkpt lat="45.45971" lon="4.4258">
        <ele>511.39999389648</ele>
        <time>2015-12-05T23:23:49.000Z</time>
      </trkpt>
      <trkpt lat="45.45985" lon="4.42595">
        <ele>512</ele>
        <time>2015-12-05T23:23:55.000Z</time>
      </trkpt>
      <trkpt lat="45.46003" lon="4.42611">
        <ele>512.79998779297</ele>
        <time>2015-12-05T23:24:02.000Z</time>
      </trkpt>
      <trkpt lat="45.46019" lon="4.42627">
        <ele>513.20001220703</ele>
        <time>2015-12-05T23:24:08.000Z</time>
      </trkpt>
      <trkpt lat="45.46035" lon="4.42641">
        <ele>513.59997558594</ele>
        <time>2015-12-05T23:24:14.000Z</time>
      </trkpt>
      <trkpt lat="45.46046" lon="4.42664">
        <ele>514.40002441406</ele>
        <time>2015-12-05T23:24:24.000Z</time>
      </trkpt>
      <trkpt lat="45.46061" lon="4.42684">
        <ele>514.40002441406</ele>
        <time>2015-12-05T23:24:33.000Z</time>
      </trkpt>
      <trkpt lat="45.46079" lon="4.42696">
        <ele>513.79998779297</ele>
        <time>2015-12-05T23:24:39.000Z</time>
      </trkpt>
      <trkpt lat="45.46098" lon="4.4271">
        <ele>513.79998779297</ele>
        <time>2015-12-05T23:24:47.000Z</time>
      </trkpt>
      <trkpt lat="45.46113" lon="4.4272">
        <ele>513.59997558594</ele>
        <time>2015-12-05T23:25:01.000Z</time>
      </trkpt>
      <trkpt lat="45.46131" lon="4.42719">
        <ele>512.20001220703</ele>
        <time>2015-12-05T23:25:09.000Z</time>
      </trkpt>
      <trkpt lat="45.46151" lon="4.42723">
        <ele>512</ele>
        <time>2015-12-05T23:25:18.000Z</time>
      </trkpt>
      <trkpt lat="45.4617" lon="4.42726">
        <ele>511.60000610352</ele>
        <time>2015-12-05T23:25:26.000Z</time>
      </trkpt>
      <trkpt lat="45.46189" lon="4.42728">
        <ele>511.20001220703</ele>
        <time>2015-12-05T23:25:33.000Z</time>
      </trkpt>
      <trkpt lat="45.46209" lon="4.42727">
        <ele>510.39999389648</ele>
        <time>2015-12-05T23:25:42.000Z</time>
      </trkpt>
      <trkpt lat="45.46227" lon="4.42728">
        <ele>510.20001220703</ele>
        <time>2015-12-05T23:25:49.000Z</time>
      </trkpt>
      <trkpt lat="45.46248" lon="4.42725">
        <ele>509.79998779297</ele>
        <time>2015-12-05T23:25:57.000Z</time>
      </trkpt>
      <trkpt lat="45.46267" lon="4.42734">
        <ele>510.79998779297</ele>
        <time>2015-12-05T23:26:04.000Z</time>
      </trkpt>
      <trkpt lat="45.46285" lon="4.4274">
        <ele>511.39999389648</ele>
        <time>2015-12-05T23:26:11.000Z</time>
      </trkpt>
      <trkpt lat="45.46305" lon="4.42742">
        <ele>511.39999389648</ele>
        <time>2015-12-05T23:26:18.000Z</time>
      </trkpt>
      <trkpt lat="45.46325" lon="4.42746">
        <ele>510.60000610352</ele>
        <time>2015-12-05T23:26:26.000Z</time>
      </trkpt>
      <trkpt lat="45.46343" lon="4.4275">
        <ele>510</ele>
        <time>2015-12-05T23:26:33.000Z</time>
      </trkpt>
      <trkpt lat="45.46361" lon="4.42755">
        <ele>509.60000610352</ele>
        <time>2015-12-05T23:26:39.000Z</time>
      </trkpt>
      <trkpt lat="45.46378" lon="4.42764">
        <ele>510</ele>
        <time>2015-12-05T23:26:44.000Z</time>
      </trkpt>
      <trkpt lat="45.46398" lon="4.42772">
        <ele>509.79998779297</ele>
        <time>2015-12-05T23:26:50.000Z</time>
      </trkpt>
      <trkpt lat="45.46417" lon="4.42776">
        <ele>509.39999389648</ele>
        <time>2015-12-05T23:26:58.000Z</time>
      </trkpt>
      <trkpt lat="45.46436" lon="4.42784">
        <ele>509.20001220703</ele>
        <time>2015-12-05T23:27:03.000Z</time>
      </trkpt>
      <trkpt lat="45.46453" lon="4.42794">
        <ele>509.39999389648</ele>
        <time>2015-12-05T23:27:08.000Z</time>
      </trkpt>
      <trkpt lat="45.4647" lon="4.42805">
        <ele>509.60000610352</ele>
        <time>2015-12-05T23:27:14.000Z</time>
      </trkpt>
      <trkpt lat="45.46486" lon="4.42817">
        <ele>509.79998779297</ele>
        <time>2015-12-05T23:27:20.000Z</time>
      </trkpt>
      <trkpt lat="45.46505" lon="4.4283">
        <ele>510</ele>
        <time>2015-12-05T23:27:26.000Z</time>
      </trkpt>
      <trkpt lat="45.46521" lon="4.42842">
        <ele>510.20001220703</ele>
        <time>2015-12-05T23:27:32.000Z</time>
      </trkpt>
      <trkpt lat="45.4654" lon="4.42856">
        <ele>510.60000610352</ele>
        <time>2015-12-05T23:27:39.000Z</time>
      </trkpt>
      <trkpt lat="45.46555" lon="4.42873">
        <ele>511</ele>
        <time>2015-12-05T23:27:46.000Z</time>
      </trkpt>
      <trkpt lat="45.4657" lon="4.42894">
        <ele>511.39999389648</ele>
        <time>2015-12-05T23:27:54.000Z</time>
      </trkpt>
      <trkpt lat="45.46585" lon="4.42913">
        <ele>511.39999389648</ele>
        <time>2015-12-05T23:28:02.000Z</time>
      </trkpt>
      <trkpt lat="45.466" lon="4.42932">
        <ele>511.60000610352</ele>
        <time>2015-12-05T23:28:09.000Z</time>
      </trkpt>
      <trkpt lat="45.46614" lon="4.42951">
        <ele>511.79998779297</ele>
        <time>2015-12-05T23:28:15.000Z</time>
      </trkpt>
      <trkpt lat="45.46629" lon="4.42967">
        <ele>511.60000610352</ele>
        <time>2015-12-05T23:28:20.000Z</time>
      </trkpt>
      <trkpt lat="45.46643" lon="4.42988">
        <ele>512.20001220703</ele>
        <time>2015-12-05T23:28:26.000Z</time>
      </trkpt>
      <trkpt lat="45.46656" lon="4.4301">
        <ele>513</ele>
        <time>2015-12-05T23:28:32.000Z</time>
      </trkpt>
      <trkpt lat="45.46669" lon="4.43029">
        <ele>513.79998779297</ele>
        <time>2015-12-05T23:28:39.000Z</time>
      </trkpt>
      <trkpt lat="45.46682" lon="4.43048">
        <ele>515.20001220703</ele>
        <time>2015-12-05T23:28:46.000Z</time>
      </trkpt>
      <trkpt lat="45.46694" lon="4.43069">
        <ele>516.59997558594</ele>
        <time>2015-12-05T23:28:54.000Z</time>
      </trkpt>
      <trkpt lat="45.46707" lon="4.4309">
        <ele>518.20001220703</ele>
        <time>2015-12-05T23:29:02.000Z</time>
      </trkpt>
      <trkpt lat="45.46718" lon="4.43113">
        <ele>520</ele>
        <time>2015-12-05T23:29:10.000Z</time>
      </trkpt>
      <trkpt lat="45.46728" lon="4.43134">
        <ele>521</ele>
        <time>2015-12-05T23:29:18.000Z</time>
      </trkpt>
      <trkpt lat="45.4674" lon="4.43155">
        <ele>522</ele>
        <time>2015-12-05T23:29:26.000Z</time>
      </trkpt>
      <trkpt lat="45.4675" lon="4.43178">
        <ele>523</ele>
        <time>2015-12-05T23:29:34.000Z</time>
      </trkpt>
      <trkpt lat="45.4676" lon="4.43202">
        <ele>524</ele>
        <time>2015-12-05T23:29:42.000Z</time>
      </trkpt>
      <trkpt lat="45.4677" lon="4.43224">
        <ele>523</ele>
        <time>2015-12-05T23:29:51.000Z</time>
      </trkpt>
      <trkpt lat="45.46778" lon="4.43248">
        <ele>522.20001220703</ele>
        <time>2015-12-05T23:29:59.000Z</time>
      </trkpt>
      <trkpt lat="45.46787" lon="4.4327">
        <ele>521.20001220703</ele>
        <time>2015-12-05T23:30:06.000Z</time>
      </trkpt>
      <trkpt lat="45.46797" lon="4.43292">
        <ele>521</ele>
        <time>2015-12-05T23:30:13.000Z</time>
      </trkpt>
      <trkpt lat="45.4681" lon="4.43315">
        <ele>519.79998779297</ele>
        <time>2015-12-05T23:30:20.000Z</time>
      </trkpt>
      <trkpt lat="45.46824" lon="4.43337">
        <ele>518.59997558594</ele>
        <time>2015-12-05T23:30:27.000Z</time>
      </trkpt>
      <trkpt lat="45.46837" lon="4.43355">
        <ele>517.40002441406</ele>
        <time>2015-12-05T23:30:34.000Z</time>
      </trkpt>
      <trkpt lat="45.46853" lon="4.43374">
        <ele>516.20001220703</ele>
        <time>2015-12-05T23:30:41.000Z</time>
      </trkpt>
      <trkpt lat="45.46867" lon="4.4339">
        <ele>515.20001220703</ele>
        <time>2015-12-05T23:30:47.000Z</time>
      </trkpt>
      <trkpt lat="45.46883" lon="4.43406">
        <ele>514</ele>
        <time>2015-12-05T23:30:54.000Z</time>
      </trkpt>
      <trkpt lat="45.46901" lon="4.4342">
        <ele>512</ele>
        <time>2015-12-05T23:31:01.000Z</time>
      </trkpt>
      <trkpt lat="45.46916" lon="4.43433">
        <ele>510.39999389648</ele>
        <time>2015-12-05T23:31:07.000Z</time>
      </trkpt>
      <trkpt lat="45.46932" lon="4.43447">
        <ele>508.60000610352</ele>
        <time>2015-12-05T23:31:13.000Z</time>
      </trkpt>
      <trkpt lat="45.4695" lon="4.43461">
        <ele>507</ele>
        <time>2015-12-05T23:31:20.000Z</time>
      </trkpt>
      <trkpt lat="45.46966" lon="4.43478">
        <ele>505.39999389648</ele>
        <time>2015-12-05T23:31:27.000Z</time>
      </trkpt>
      <trkpt lat="45.46981" lon="4.43493">
        <ele>505</ele>
        <time>2015-12-05T23:31:33.000Z</time>
      </trkpt>
      <trkpt lat="45.46997" lon="4.4351">
        <ele>504.60000610352</ele>
        <time>2015-12-05T23:31:40.000Z</time>
      </trkpt>
      <trkpt lat="45.47014" lon="4.43527">
        <ele>504.20001220703</ele>
        <time>2015-12-05T23:31:47.000Z</time>
      </trkpt>
      <trkpt lat="45.47031" lon="4.43542">
        <ele>503.79998779297</ele>
        <time>2015-12-05T23:31:54.000Z</time>
      </trkpt>
      <trkpt lat="45.47047" lon="4.43557">
        <ele>503.60000610352</ele>
        <time>2015-12-05T23:32:01.000Z</time>
      </trkpt>
      <trkpt lat="45.47061" lon="4.43572">
        <ele>503.20001220703</ele>
        <time>2015-12-05T23:32:07.000Z</time>
      </trkpt>
      <trkpt lat="45.47074" lon="4.43593">
        <ele>503</ele>
        <time>2015-12-05T23:32:14.000Z</time>
      </trkpt>
      <trkpt lat="45.47085" lon="4.43614">
        <ele>502.79998779297</ele>
        <time>2015-12-05T23:32:21.000Z</time>
      </trkpt>
      <trkpt lat="45.47097" lon="4.43635">
        <ele>502.39999389648</ele>
        <time>2015-12-05T23:32:28.000Z</time>
      </trkpt>
      <trkpt lat="45.4711" lon="4.43657">
        <ele>501.79998779297</ele>
        <time>2015-12-05T23:32:35.000Z</time>
      </trkpt>
      <trkpt lat="45.47121" lon="4.43678">
        <ele>501.39999389648</ele>
        <time>2015-12-05T23:32:42.000Z</time>
      </trkpt>
      <trkpt lat="45.47131" lon="4.43701">
        <ele>501</ele>
        <time>2015-12-05T23:32:49.000Z</time>
      </trkpt>
      <trkpt lat="45.4714" lon="4.43726">
        <ele>501</ele>
        <time>2015-12-05T23:32:57.000Z</time>
      </trkpt>
      <trkpt lat="45.47145" lon="4.43743">
        <ele>501.20001220703</ele>
        <time>2015-12-05T23:33:03.000Z</time>
      </trkpt>
      <trkpt lat="45.47155" lon="4.43769">
        <ele>501.20001220703</ele>
        <time>2015-12-05T23:33:11.000Z</time>
      </trkpt>
      <trkpt lat="45.47165" lon="4.43794">
        <ele>501.20001220703</ele>
        <time>2015-12-05T23:33:18.000Z</time>
      </trkpt>
      <trkpt lat="45.47166" lon="4.43797">
        <ele>501</ele>
        <time>2015-12-05T23:33:20.000Z</time>
      </trkpt>
      <trkpt lat="45.47173" lon="4.43808">
        <ele>500.79998779297</ele>
        <time>2015-12-05T23:33:24.000Z</time>
      </trkpt>
      <trkpt lat="45.47182" lon="4.43835">
        <ele>500.39999389648</ele>
        <time>2015-12-05T23:33:31.000Z</time>
      </trkpt>
      <trkpt lat="45.47191" lon="4.43859">
        <ele>500</ele>
        <time>2015-12-05T23:33:38.000Z</time>
      </trkpt>
      <trkpt lat="45.47201" lon="4.43883">
        <ele>500.20001220703</ele>
        <time>2015-12-05T23:33:45.000Z</time>
      </trkpt>
      <trkpt lat="45.4721" lon="4.43909">
        <ele>500.60000610352</ele>
        <time>2015-12-05T23:33:53.000Z</time>
      </trkpt>
      <trkpt lat="45.47219" lon="4.43934">
        <ele>500.79998779297</ele>
        <time>2015-12-05T23:34:01.000Z</time>
      </trkpt>
      <trkpt lat="45.47229" lon="4.43956">
        <ele>500.79998779297</ele>
        <time>2015-12-05T23:34:08.000Z</time>
      </trkpt>
      <trkpt lat="45.47239" lon="4.43979">
        <ele>500.60000610352</ele>
        <time>2015-12-05T23:34:16.000Z</time>
      </trkpt>
      <trkpt lat="45.47249" lon="4.44002">
        <ele>500.39999389648</ele>
        <time>2015-12-05T23:34:24.000Z</time>
      </trkpt>
      <trkpt lat="45.47261" lon="4.44026">
        <ele>500.39999389648</ele>
        <time>2015-12-05T23:34:32.000Z</time>
      </trkpt>
      <trkpt lat="45.47273" lon="4.44045">
        <ele>500</ele>
        <time>2015-12-05T23:34:39.000Z</time>
      </trkpt>
      <trkpt lat="45.4729" lon="4.4406">
        <ele>499.39999389648</ele>
        <time>2015-12-05T23:34:47.000Z</time>
      </trkpt>
      <trkpt lat="45.473" lon="4.44082">
        <ele>499</ele>
        <time>2015-12-05T23:34:55.000Z</time>
      </trkpt>
      <trkpt lat="45.47309" lon="4.44105">
        <ele>499</ele>
        <time>2015-12-05T23:35:03.000Z</time>
      </trkpt>
      <trkpt lat="45.47323" lon="4.44125">
        <ele>499.20001220703</ele>
        <time>2015-12-05T23:35:11.000Z</time>
      </trkpt>
      <trkpt lat="45.47338" lon="4.44141">
        <ele>499.39999389648</ele>
        <time>2015-12-05T23:35:19.000Z</time>
      </trkpt>
      <trkpt lat="45.47354" lon="4.44155">
        <ele>499.39999389648</ele>
        <time>2015-12-05T23:35:26.000Z</time>
      </trkpt>
      <trkpt lat="45.4737" lon="4.44169">
        <ele>499.60000610352</ele>
        <time>2015-12-05T23:35:33.000Z</time>
      </trkpt>
      <trkpt lat="45.47387" lon="4.44181">
        <ele>499.60000610352</ele>
        <time>2015-12-05T23:35:40.000Z</time>
      </trkpt>
      <trkpt lat="45.47404" lon="4.44192">
        <ele>499.20001220703</ele>
        <time>2015-12-05T23:35:47.000Z</time>
      </trkpt>
      <trkpt lat="45.47421" lon="4.44203">
        <ele>498.60000610352</ele>
        <time>2015-12-05T23:35:54.000Z</time>
      </trkpt>
      <trkpt lat="45.47439" lon="4.44215">
        <ele>498</ele>
        <time>2015-12-05T23:36:02.000Z</time>
      </trkpt>
      <trkpt lat="45.47456" lon="4.44228">
        <ele>497.39999389648</ele>
        <time>2015-12-05T23:36:10.000Z</time>
      </trkpt>
      <trkpt lat="45.47474" lon="4.4424">
        <ele>497</ele>
        <time>2015-12-05T23:36:18.000Z</time>
      </trkpt>
      <trkpt lat="45.47491" lon="4.44249">
        <ele>496.79998779297</ele>
        <time>2015-12-05T23:36:25.000Z</time>
      </trkpt>
      <trkpt lat="45.47508" lon="4.4426">
        <ele>496.39999389648</ele>
        <time>2015-12-05T23:36:33.000Z</time>
      </trkpt>
      <trkpt lat="45.47525" lon="4.44271">
        <ele>496.20001220703</ele>
        <time>2015-12-05T23:36:41.000Z</time>
      </trkpt>
      <trkpt lat="45.47543" lon="4.44281">
        <ele>496</ele>
        <time>2015-12-05T23:36:49.000Z</time>
      </trkpt>
      <trkpt lat="45.4756" lon="4.44291">
        <ele>496.20001220703</ele>
        <time>2015-12-05T23:36:57.000Z</time>
      </trkpt>
      <trkpt lat="45.47578" lon="4.44303">
        <ele>496.79998779297</ele>
        <time>2015-12-05T23:37:06.000Z</time>
      </trkpt>
      <trkpt lat="45.47596" lon="4.44312">
        <ele>497</ele>
        <time>2015-12-05T23:37:14.000Z</time>
      </trkpt>
      <trkpt lat="45.47615" lon="4.4432">
        <ele>497.39999389648</ele>
        <time>2015-12-05T23:37:22.000Z</time>
      </trkpt>
      <trkpt lat="45.47634" lon="4.44325">
        <ele>497.60000610352</ele>
        <time>2015-12-05T23:37:30.000Z</time>
      </trkpt>
      <trkpt lat="45.47652" lon="4.44327">
        <ele>497.60000610352</ele>
        <time>2015-12-05T23:37:38.000Z</time>
      </trkpt>
      <trkpt lat="45.47671" lon="4.44329">
        <ele>497.60000610352</ele>
        <time>2015-12-05T23:37:46.000Z</time>
      </trkpt>
      <trkpt lat="45.47692" lon="4.44328">
        <ele>497.79998779297</ele>
        <time>2015-12-05T23:37:54.000Z</time>
      </trkpt>
      <trkpt lat="45.4771" lon="4.44327">
        <ele>498</ele>
        <time>2015-12-05T23:38:01.000Z</time>
      </trkpt>
      <trkpt lat="45.4773" lon="4.44323">
        <ele>498</ele>
        <time>2015-12-05T23:38:09.000Z</time>
      </trkpt>
      <trkpt lat="45.47748" lon="4.44322">
        <ele>498</ele>
        <time>2015-12-05T23:38:16.000Z</time>
      </trkpt>
      <trkpt lat="45.47767" lon="4.4432">
        <ele>498</ele>
        <time>2015-12-05T23:38:24.000Z</time>
      </trkpt>
      <trkpt lat="45.47787" lon="4.44326">
        <ele>498.39999389648</ele>
        <time>2015-12-05T23:38:32.000Z</time>
      </trkpt>
      <trkpt lat="45.47804" lon="4.44337">
        <ele>498.79998779297</ele>
        <time>2015-12-05T23:38:39.000Z</time>
      </trkpt>
      <trkpt lat="45.47822" lon="4.44332">
        <ele>498.79998779297</ele>
        <time>2015-12-05T23:38:47.000Z</time>
      </trkpt>
      <trkpt lat="45.4783" lon="4.44329">
        <ele>499</ele>
        <time>2015-12-05T23:38:51.000Z</time>
      </trkpt>
      <trkpt lat="45.4785" lon="4.44328">
        <ele>499.20001220703</ele>
        <time>2015-12-05T23:39:00.000Z</time>
      </trkpt>
      <trkpt lat="45.4787" lon="4.44331">
        <ele>499.39999389648</ele>
        <time>2015-12-05T23:39:08.000Z</time>
      </trkpt>
      <trkpt lat="45.47889" lon="4.44332">
        <ele>499.60000610352</ele>
        <time>2015-12-05T23:39:16.000Z</time>
      </trkpt>
      <trkpt lat="45.47909" lon="4.44332">
        <ele>499.79998779297</ele>
        <time>2015-12-05T23:39:25.000Z</time>
      </trkpt>
      <trkpt lat="45.47928" lon="4.44335">
        <ele>500.20001220703</ele>
        <time>2015-12-05T23:39:33.000Z</time>
      </trkpt>
      <trkpt lat="45.47946" lon="4.44337">
        <ele>500.39999389648</ele>
        <time>2015-12-05T23:39:41.000Z</time>
      </trkpt>
      <trkpt lat="45.47966" lon="4.4434">
        <ele>500.39999389648</ele>
        <time>2015-12-05T23:39:49.000Z</time>
      </trkpt>
      <trkpt lat="45.47983" lon="4.44346">
        <ele>500.79998779297</ele>
        <time>2015-12-05T23:39:57.000Z</time>
      </trkpt>
      <trkpt lat="45.48002" lon="4.44354">
        <ele>501.20001220703</ele>
        <time>2015-12-05T23:40:05.000Z</time>
      </trkpt>
      <trkpt lat="45.48019" lon="4.44362">
        <ele>501.60000610352</ele>
        <time>2015-12-05T23:40:12.000Z</time>
      </trkpt>
      <trkpt lat="45.48039" lon="4.44372">
        <ele>502</ele>
        <time>2015-12-05T23:40:20.000Z</time>
      </trkpt>
      <trkpt lat="45.48056" lon="4.44381">
        <ele>502.39999389648</ele>
        <time>2015-12-05T23:40:28.000Z</time>
      </trkpt>
      <trkpt lat="45.48075" lon="4.44394">
        <ele>503</ele>
        <time>2015-12-05T23:40:36.000Z</time>
      </trkpt>
      <trkpt lat="45.48094" lon="4.44405">
        <ele>503.60000610352</ele>
        <time>2015-12-05T23:40:44.000Z</time>
      </trkpt>
      <trkpt lat="45.4811" lon="4.44415">
        <ele>504</ele>
        <time>2015-12-05T23:40:51.000Z</time>
      </trkpt>
      <trkpt lat="45.48129" lon="4.44427">
        <ele>504.60000610352</ele>
        <time>2015-12-05T23:40:59.000Z</time>
      </trkpt>
      <trkpt lat="45.48147" lon="4.4444">
        <ele>505.39999389648</ele>
        <time>2015-12-05T23:41:07.000Z</time>
      </trkpt>
      <trkpt lat="45.48163" lon="4.44456">
        <ele>506.20001220703</ele>
        <time>2015-12-05T23:41:15.000Z</time>
      </trkpt>
      <trkpt lat="45.48177" lon="4.44475">
        <ele>507</ele>
        <time>2015-12-05T23:41:23.000Z</time>
      </trkpt>
      <trkpt lat="45.48192" lon="4.44492">
        <ele>507.60000610352</ele>
        <time>2015-12-05T23:41:31.000Z</time>
      </trkpt>
      <trkpt lat="45.48207" lon="4.4451">
        <ele>508.39999389648</ele>
        <time>2015-12-05T23:41:39.000Z</time>
      </trkpt>
      <trkpt lat="45.48219" lon="4.4453">
        <ele>509</ele>
        <time>2015-12-05T23:41:48.000Z</time>
      </trkpt>
      <trkpt lat="45.48231" lon="4.4455">
        <ele>509.39999389648</ele>
        <time>2015-12-05T23:41:57.000Z</time>
      </trkpt>
      <trkpt lat="45.48243" lon="4.4457">
        <ele>510</ele>
        <time>2015-12-05T23:42:06.000Z</time>
      </trkpt>
      <trkpt lat="45.48255" lon="4.4459">
        <ele>510.39999389648</ele>
        <time>2015-12-05T23:42:14.000Z</time>
      </trkpt>
      <trkpt lat="45.48263" lon="4.44614">
        <ele>511</ele>
        <time>2015-12-05T23:42:23.000Z</time>
      </trkpt>
      <trkpt lat="45.48274" lon="4.44639">
        <ele>512.20001220703</ele>
        <time>2015-12-05T23:42:32.000Z</time>
      </trkpt>
      <trkpt lat="45.48283" lon="4.44662">
        <ele>513.20001220703</ele>
        <time>2015-12-05T23:42:41.000Z</time>
      </trkpt>
      <trkpt lat="45.48293" lon="4.44686">
        <ele>514.40002441406</ele>
        <time>2015-12-05T23:42:50.000Z</time>
      </trkpt>
      <trkpt lat="45.48303" lon="4.44707">
        <ele>515.40002441406</ele>
        <time>2015-12-05T23:42:58.000Z</time>
      </trkpt>
      <trkpt lat="45.48312" lon="4.4473">
        <ele>516.40002441406</ele>
        <time>2015-12-05T23:43:07.000Z</time>
      </trkpt>
      <trkpt lat="45.48322" lon="4.44751">
        <ele>517.40002441406</ele>
        <time>2015-12-05T23:43:16.000Z</time>
      </trkpt>
      <trkpt lat="45.48336" lon="4.44772">
        <ele>518.40002441406</ele>
        <time>2015-12-05T23:43:25.000Z</time>
      </trkpt>
      <trkpt lat="45.48349" lon="4.44792">
        <ele>519.40002441406</ele>
        <time>2015-12-05T23:43:34.000Z</time>
      </trkpt>
      <trkpt lat="45.48364" lon="4.4481">
        <ele>520.20001220703</ele>
        <time>2015-12-05T23:43:43.000Z</time>
      </trkpt>
      <trkpt lat="45.48377" lon="4.44828">
        <ele>521</ele>
        <time>2015-12-05T23:43:51.000Z</time>
      </trkpt>
      <trkpt lat="45.48391" lon="4.44847">
        <ele>521.79998779297</ele>
        <time>2015-12-05T23:44:00.000Z</time>
      </trkpt>
      <trkpt lat="45.48405" lon="4.44864">
        <ele>522.40002441406</ele>
        <time>2015-12-05T23:44:08.000Z</time>
      </trkpt>
      <trkpt lat="45.48422" lon="4.4488">
        <ele>523.20001220703</ele>
        <time>2015-12-05T23:44:16.000Z</time>
      </trkpt>
      <trkpt lat="45.48438" lon="4.44894">
        <ele>524</ele>
        <time>2015-12-05T23:44:25.000Z</time>
      </trkpt>
      <trkpt lat="45.48454" lon="4.4491">
        <ele>524.79998779297</ele>
        <time>2015-12-05T23:44:35.000Z</time>
      </trkpt>
      <trkpt lat="45.4847" lon="4.44926">
        <ele>525.59997558594</ele>
        <time>2015-12-05T23:44:44.000Z</time>
      </trkpt>
      <trkpt lat="45.48487" lon="4.4494">
        <ele>527</ele>
        <time>2015-12-05T23:44:53.000Z</time>
      </trkpt>
      <trkpt lat="45.48504" lon="4.44952">
        <ele>528.59997558594</ele>
        <time>2015-12-05T23:45:02.000Z</time>
      </trkpt>
      <trkpt lat="45.48523" lon="4.44959">
        <ele>530.59997558594</ele>
        <time>2015-12-05T23:45:11.000Z</time>
      </trkpt>
      <trkpt lat="45.48542" lon="4.44957">
        <ele>531.40002441406</ele>
        <time>2015-12-05T23:45:20.000Z</time>
      </trkpt>
      <trkpt lat="45.48561" lon="4.44951">
        <ele>532.79998779297</ele>
        <time>2015-12-05T23:45:30.000Z</time>
      </trkpt>
      <trkpt lat="45.48581" lon="4.44947">
        <ele>535</ele>
        <time>2015-12-05T23:45:39.000Z</time>
      </trkpt>
      <trkpt lat="45.48599" lon="4.44941">
        <ele>537.20001220703</ele>
        <time>2015-12-05T23:45:48.000Z</time>
      </trkpt>
      <trkpt lat="45.48618" lon="4.44938">
        <ele>539.40002441406</ele>
        <time>2015-12-05T23:45:56.000Z</time>
      </trkpt>
      <trkpt lat="45.48637" lon="4.44936">
        <ele>541</ele>
        <time>2015-12-05T23:46:04.000Z</time>
      </trkpt>
      <trkpt lat="45.48656" lon="4.44934">
        <ele>542.20001220703</ele>
        <time>2015-12-05T23:46:12.000Z</time>
      </trkpt>
      <trkpt lat="45.48675" lon="4.44929">
        <ele>543</ele>
        <time>2015-12-05T23:46:21.000Z</time>
      </trkpt>
      <trkpt lat="45.48694" lon="4.44921">
        <ele>543.59997558594</ele>
        <time>2015-12-05T23:46:30.000Z</time>
      </trkpt>
      <trkpt lat="45.48711" lon="4.44916">
        <ele>544</ele>
        <time>2015-12-05T23:46:39.000Z</time>
      </trkpt>
      <trkpt lat="45.4873" lon="4.44913">
        <ele>544.79998779297</ele>
        <time>2015-12-05T23:46:48.000Z</time>
      </trkpt>
      <trkpt lat="45.48749" lon="4.44913">
        <ele>545.79998779297</ele>
        <time>2015-12-05T23:46:57.000Z</time>
      </trkpt>
      <trkpt lat="45.48769" lon="4.44912">
        <ele>546.59997558594</ele>
        <time>2015-12-05T23:47:08.000Z</time>
      </trkpt>
      <trkpt lat="45.48788" lon="4.44914">
        <ele>547.79998779297</ele>
        <time>2015-12-05T23:47:17.000Z</time>
      </trkpt>
      <trkpt lat="45.48806" lon="4.44921">
        <ele>549.59997558594</ele>
        <time>2015-12-05T23:47:25.000Z</time>
      </trkpt>
      <trkpt lat="45.48823" lon="4.44932">
        <ele>551.40002441406</ele>
        <time>2015-12-05T23:47:34.000Z</time>
      </trkpt>
      <trkpt lat="45.48841" lon="4.44945">
        <ele>553.59997558594</ele>
        <time>2015-12-05T23:47:44.000Z</time>
      </trkpt>
      <trkpt lat="45.48852" lon="4.44963">
        <ele>555.40002441406</ele>
        <time>2015-12-05T23:47:53.000Z</time>
      </trkpt>
      <trkpt lat="45.48861" lon="4.44987">
        <ele>557.20001220703</ele>
        <time>2015-12-05T23:48:03.000Z</time>
      </trkpt>
      <trkpt lat="45.48875" lon="4.45005">
        <ele>559</ele>
        <time>2015-12-05T23:48:12.000Z</time>
      </trkpt>
      <trkpt lat="45.48888" lon="4.45022">
        <ele>560.59997558594</ele>
        <time>2015-12-05T23:48:20.000Z</time>
      </trkpt>
      <trkpt lat="45.48906" lon="4.45028">
        <ele>561.20001220703</ele>
        <time>2015-12-05T23:48:27.000Z</time>
      </trkpt>
      <trkpt lat="45.48925" lon="4.45033">
        <ele>562</ele>
        <time>2015-12-05T23:48:34.000Z</time>
      </trkpt>
      <trkpt lat="45.48944" lon="4.45034">
        <ele>562.40002441406</ele>
        <time>2015-12-05T23:48:43.000Z</time>
      </trkpt>
      <trkpt lat="45.48962" lon="4.45034">
        <ele>562.79998779297</ele>
        <time>2015-12-05T23:48:52.000Z</time>
      </trkpt>
      <trkpt lat="45.48981" lon="4.45033">
        <ele>563.59997558594</ele>
        <time>2015-12-05T23:49:01.000Z</time>
      </trkpt>
      <trkpt lat="45.49" lon="4.4503">
        <ele>564.59997558594</ele>
        <time>2015-12-05T23:49:09.000Z</time>
      </trkpt>
      <trkpt lat="45.49018" lon="4.45024">
        <ele>565.40002441406</ele>
        <time>2015-12-05T23:49:16.000Z</time>
      </trkpt>
      <trkpt lat="45.49036" lon="4.45018">
        <ele>566.20001220703</ele>
        <time>2015-12-05T23:49:24.000Z</time>
      </trkpt>
      <trkpt lat="45.49055" lon="4.45015">
        <ele>567.20001220703</ele>
        <time>2015-12-05T23:49:32.000Z</time>
      </trkpt>
      <trkpt lat="45.49075" lon="4.45016">
        <ele>568.40002441406</ele>
        <time>2015-12-05T23:49:41.000Z</time>
      </trkpt>
      <trkpt lat="45.49094" lon="4.45022">
        <ele>569.59997558594</ele>
        <time>2015-12-05T23:49:51.000Z</time>
      </trkpt>
      <trkpt lat="45.49113" lon="4.45026">
        <ele>570.79998779297</ele>
        <time>2015-12-05T23:50:01.000Z</time>
      </trkpt>
      <trkpt lat="45.49132" lon="4.45027">
        <ele>572.20001220703</ele>
        <time>2015-12-05T23:50:10.000Z</time>
      </trkpt>
      <trkpt lat="45.49146" lon="4.45012">
        <ele>575</ele>
        <time>2015-12-05T23:50:19.000Z</time>
      </trkpt>
      <trkpt lat="45.49161" lon="4.44993">
        <ele>578</ele>
        <time>2015-12-05T23:50:30.000Z</time>
      </trkpt>
      <trkpt lat="45.49176" lon="4.44973">
        <ele>580.59997558594</ele>
        <time>2015-12-05T23:50:40.000Z</time>
      </trkpt>
      <trkpt lat="45.49189" lon="4.44957">
        <ele>582.59997558594</ele>
        <time>2015-12-05T23:50:49.000Z</time>
      </trkpt>
      <trkpt lat="45.49203" lon="4.44941">
        <ele>584.40002441406</ele>
        <time>2015-12-05T23:50:59.000Z</time>
      </trkpt>
      <trkpt lat="45.49217" lon="4.44923">
        <ele>585.20001220703</ele>
        <time>2015-12-05T23:51:09.000Z</time>
      </trkpt>
      <trkpt lat="45.4923" lon="4.44904">
        <ele>586.40002441406</ele>
        <time>2015-12-05T23:51:20.000Z</time>
      </trkpt>
      <trkpt lat="45.49242" lon="4.44885">
        <ele>587.59997558594</ele>
        <time>2015-12-05T23:51:29.000Z</time>
      </trkpt>
      <trkpt lat="45.49254" lon="4.44865">
        <ele>588.40002441406</ele>
        <time>2015-12-05T23:51:38.000Z</time>
      </trkpt>
      <trkpt lat="45.49269" lon="4.44848">
        <ele>590.20001220703</ele>
        <time>2015-12-05T23:51:47.000Z</time>
      </trkpt>
      <trkpt lat="45.49286" lon="4.44834">
        <ele>591.79998779297</ele>
        <time>2015-12-05T23:51:56.000Z</time>
      </trkpt>
      <trkpt lat="45.493" lon="4.44817">
        <ele>592.79998779297</ele>
        <time>2015-12-05T23:52:07.000Z</time>
      </trkpt>
      <trkpt lat="45.49315" lon="4.44801">
        <ele>594</ele>
        <time>2015-12-05T23:52:18.000Z</time>
      </trkpt>
      <trkpt lat="45.4933" lon="4.44784">
        <ele>596</ele>
        <time>2015-12-05T23:52:30.000Z</time>
      </trkpt>
      <trkpt lat="45.49344" lon="4.44766">
        <ele>598.20001220703</ele>
        <time>2015-12-05T23:52:41.000Z</time>
      </trkpt>
      <trkpt lat="45.49358" lon="4.44749">
        <ele>600.20001220703</ele>
        <time>2015-12-05T23:52:53.000Z</time>
      </trkpt>
      <trkpt lat="45.49362" lon="4.44745">
        <ele>600.79998779297</ele>
        <time>2015-12-05T23:52:56.000Z</time>
      </trkpt>
      <trkpt lat="45.49375" lon="4.44727">
        <ele>602.40002441406</ele>
        <time>2015-12-05T23:53:09.000Z</time>
      </trkpt>
      <trkpt lat="45.49389" lon="4.44708">
        <ele>604.20001220703</ele>
        <time>2015-12-05T23:53:23.000Z</time>
      </trkpt>
      <trkpt lat="45.49393" lon="4.44703">
        <ele>604.79998779297</ele>
        <time>2015-12-05T23:53:28.000Z</time>
      </trkpt>
      <trkpt lat="45.49407" lon="4.44684">
        <ele>606.40002441406</ele>
        <time>2015-12-05T23:53:42.000Z</time>
      </trkpt>
      <trkpt lat="45.49422" lon="4.44667">
        <ele>608.59997558594</ele>
        <time>2015-12-05T23:53:56.000Z</time>
      </trkpt>
      <trkpt lat="45.49437" lon="4.44651">
        <ele>609.59997558594</ele>
        <time>2015-12-05T23:54:09.000Z</time>
      </trkpt>
      <trkpt lat="45.49451" lon="4.44635">
        <ele>609.79998779297</ele>
        <time>2015-12-05T23:54:22.000Z</time>
      </trkpt>
      <trkpt lat="45.49463" lon="4.44621">
        <ele>610</ele>
        <time>2015-12-05T23:54:32.000Z</time>
      </trkpt>
      <trkpt lat="45.49477" lon="4.44604">
        <ele>609</ele>
        <time>2015-12-05T23:54:45.000Z</time>
      </trkpt>
      <trkpt lat="45.49494" lon="4.44591">
        <ele>608.40002441406</ele>
        <time>2015-12-05T23:54:56.000Z</time>
      </trkpt>
      <trkpt lat="45.49512" lon="4.44578">
        <ele>607.59997558594</ele>
        <time>2015-12-05T23:55:04.000Z</time>
      </trkpt>
      <trkpt lat="45.4953" lon="4.44572">
        <ele>607.20001220703</ele>
        <time>2015-12-05T23:55:11.000Z</time>
      </trkpt>
      <trkpt lat="45.4955" lon="4.44571">
        <ele>607.59997558594</ele>
        <time>2015-12-05T23:55:18.000Z</time>
      </trkpt>
      <trkpt lat="45.4957" lon="4.44568">
        <ele>607</ele>
        <time>2015-12-05T23:55:26.000Z</time>
      </trkpt>
      <trkpt lat="45.49589" lon="4.44568">
        <ele>607</ele>
        <time>2015-12-05T23:55:34.000Z</time>
      </trkpt>
      <trkpt lat="45.49608" lon="4.44567">
        <ele>607</ele>
        <time>2015-12-05T23:55:42.000Z</time>
      </trkpt>
      <trkpt lat="45.49629" lon="4.44565">
        <ele>606.59997558594</ele>
        <time>2015-12-05T23:55:50.000Z</time>
      </trkpt>
      <trkpt lat="45.49648" lon="4.44563">
        <ele>606.79998779297</ele>
        <time>2015-12-05T23:55:57.000Z</time>
      </trkpt>
      <trkpt lat="45.49666" lon="4.44558">
        <ele>606.79998779297</ele>
        <time>2015-12-05T23:56:04.000Z</time>
      </trkpt>
      <trkpt lat="45.49686" lon="4.44554">
        <ele>606.40002441406</ele>
        <time>2015-12-05T23:56:12.000Z</time>
      </trkpt>
      <trkpt lat="45.49706" lon="4.44551">
        <ele>606</ele>
        <time>2015-12-05T23:56:20.000Z</time>
      </trkpt>
      <trkpt lat="45.49725" lon="4.44548">
        <ele>606</ele>
        <time>2015-12-05T23:56:28.000Z</time>
      </trkpt>
      <trkpt lat="45.49744" lon="4.44545">
        <ele>606.40002441406</ele>
        <time>2015-12-05T23:56:36.000Z</time>
      </trkpt>
      <trkpt lat="45.49763" lon="4.44542">
        <ele>606.79998779297</ele>
        <time>2015-12-05T23:56:44.000Z</time>
      </trkpt>
      <trkpt lat="45.49781" lon="4.4454">
        <ele>607.20001220703</ele>
        <time>2015-12-05T23:56:51.000Z</time>
      </trkpt>
      <trkpt lat="45.49801" lon="4.44537">
        <ele>607.79998779297</ele>
        <time>2015-12-05T23:56:59.000Z</time>
      </trkpt>
      <trkpt lat="45.49819" lon="4.44535">
        <ele>608.40002441406</ele>
        <time>2015-12-05T23:57:07.000Z</time>
      </trkpt>
      <trkpt lat="45.49838" lon="4.44538">
        <ele>609.59997558594</ele>
        <time>2015-12-05T23:57:15.000Z</time>
      </trkpt>
      <trkpt lat="45.49856" lon="4.44539">
        <ele>610.59997558594</ele>
        <time>2015-12-05T23:57:23.000Z</time>
      </trkpt>
      <trkpt lat="45.49874" lon="4.44537">
        <ele>611.20001220703</ele>
        <time>2015-12-05T23:57:31.000Z</time>
      </trkpt>
      <trkpt lat="45.49893" lon="4.44539">
        <ele>613.20001220703</ele>
        <time>2015-12-05T23:57:39.000Z</time>
      </trkpt>
      <trkpt lat="45.49912" lon="4.44546">
        <ele>616.59997558594</ele>
        <time>2015-12-05T23:57:47.000Z</time>
      </trkpt>
      <trkpt lat="45.4993" lon="4.44554">
        <ele>620</ele>
        <time>2015-12-05T23:57:56.000Z</time>
      </trkpt>
      <trkpt lat="45.4995" lon="4.44556">
        <ele>623.20001220703</ele>
        <time>2015-12-05T23:58:07.000Z</time>
      </trkpt>
      <trkpt lat="45.49957" lon="4.44559">
        <ele>624.40002441406</ele>
        <time>2015-12-05T23:58:11.000Z</time>
      </trkpt>
      <trkpt lat="45.49976" lon="4.44561">
        <ele>627.59997558594</ele>
        <time>2015-12-05T23:58:22.000Z</time>
      </trkpt>
      <trkpt lat="45.49981" lon="4.44561">
        <ele>628.59997558594</ele>
        <time>2015-12-05T23:58:27.000Z</time>
      </trkpt>
      <trkpt lat="45.49986" lon="4.44562">
        <ele>629.40002441406</ele>
        <time>2015-12-05T23:58:31.000Z</time>
      </trkpt>
      <trkpt lat="45.49998" lon="4.44562">
        <ele>631.40002441406</ele>
        <time>2015-12-05T23:58:40.000Z</time>
      </trkpt>
      <trkpt lat="45.50004" lon="4.44564">
        <ele>632.40002441406</ele>
        <time>2015-12-05T23:58:44.000Z</time>
      </trkpt>
      <trkpt lat="45.50012" lon="4.44565">
        <ele>633.59997558594</ele>
        <time>2015-12-05T23:58:50.000Z</time>
      </trkpt>
      <trkpt lat="45.5002" lon="4.44564">
        <ele>634.20001220703</ele>
        <time>2015-12-05T23:58:55.000Z</time>
      </trkpt>
      <trkpt lat="45.50038" lon="4.44558">
        <ele>635.40002441406</ele>
        <time>2015-12-05T23:59:09.000Z</time>
      </trkpt>
      <trkpt lat="45.50056" lon="4.44554">
        <ele>636.59997558594</ele>
        <time>2015-12-05T23:59:20.000Z</time>
      </trkpt>
      <trkpt lat="45.50068" lon="4.44552">
        <ele>636.40002441406</ele>
        <time>2015-12-05T23:59:29.000Z</time>
      </trkpt>
      <trkpt lat="45.50086" lon="4.44553">
        <ele>636.20001220703</ele>
        <time>2015-12-05T23:59:41.000Z</time>
      </trkpt>
      <trkpt lat="45.50087" lon="4.44553">
        <ele>636.20001220703</ele>
        <time>2015-12-05T23:59:42.000Z</time>
      </trkpt>
      <trkpt lat="45.50106" lon="4.44558">
        <ele>636.79998779297</ele>
        <time>2015-12-05T23:59:57.000Z</time>
      </trkpt>
      <trkpt lat="45.50123" lon="4.44561">
        <ele>637</ele>
        <time>2015-12-06T00:00:07.000Z</time>
      </trkpt>
      <trkpt lat="45.5014" lon="4.4457">
        <ele>638.20001220703</ele>
        <time>2015-12-06T00:00:18.000Z</time>
      </trkpt>
      <trkpt lat="45.50157" lon="4.4458">
        <ele>639.40002441406</ele>
        <time>2015-12-06T00:00:29.000Z</time>
      </trkpt>
      <trkpt lat="45.50174" lon="4.44591">
        <ele>640.59997558594</ele>
        <time>2015-12-06T00:00:41.000Z</time>
      </trkpt>
      <trkpt lat="45.50191" lon="4.44604">
        <ele>642</ele>
        <time>2015-12-06T00:00:54.000Z</time>
      </trkpt>
      <trkpt lat="45.50208" lon="4.44617">
        <ele>643.79998779297</ele>
        <time>2015-12-06T00:01:07.000Z</time>
      </trkpt>
      <trkpt lat="45.50224" lon="4.44631">
        <ele>646</ele>
        <time>2015-12-06T00:01:19.000Z</time>
      </trkpt>
      <trkpt lat="45.50241" lon="4.44644">
        <ele>649.79998779297</ele>
        <time>2015-12-06T00:01:31.000Z</time>
      </trkpt>
      <trkpt lat="45.50257" lon="4.44658">
        <ele>653.40002441406</ele>
        <time>2015-12-06T00:01:44.000Z</time>
      </trkpt>
      <trkpt lat="45.50272" lon="4.44672">
        <ele>657.20001220703</ele>
        <time>2015-12-06T00:01:57.000Z</time>
      </trkpt>
      <trkpt lat="45.50289" lon="4.44683">
        <ele>660.59997558594</ele>
        <time>2015-12-06T00:02:10.000Z</time>
      </trkpt>
      <trkpt lat="45.50306" lon="4.44693">
        <ele>663.59997558594</ele>
        <time>2015-12-06T00:02:23.000Z</time>
      </trkpt>
      <trkpt lat="45.50324" lon="4.44702">
        <ele>665.59997558594</ele>
        <time>2015-12-06T00:02:37.000Z</time>
      </trkpt>
      <trkpt lat="45.50337" lon="4.44709">
        <ele>666.59997558594</ele>
        <time>2015-12-06T00:02:47.000Z</time>
      </trkpt>
      <trkpt lat="45.50355" lon="4.44715">
        <ele>667.79998779297</ele>
        <time>2015-12-06T00:02:59.000Z</time>
      </trkpt>
      <trkpt lat="45.50373" lon="4.44723">
        <ele>669.20001220703</ele>
        <time>2015-12-06T00:03:14.000Z</time>
      </trkpt>
      <trkpt lat="45.50392" lon="4.44733">
        <ele>670.59997558594</ele>
        <time>2015-12-06T00:03:25.000Z</time>
      </trkpt>
      <trkpt lat="45.5041" lon="4.44744">
        <ele>671.79998779297</ele>
        <time>2015-12-06T00:03:34.000Z</time>
      </trkpt>
      <trkpt lat="45.50427" lon="4.44754">
        <ele>673</ele>
        <time>2015-12-06T00:03:42.000Z</time>
      </trkpt>
      <trkpt lat="45.50445" lon="4.44766">
        <ele>674.40002441406</ele>
        <time>2015-12-06T00:03:50.000Z</time>
      </trkpt>
      <trkpt lat="45.50463" lon="4.44777">
        <ele>675.59997558594</ele>
        <time>2015-12-06T00:03:59.000Z</time>
      </trkpt>
      <trkpt lat="45.5048" lon="4.44788">
        <ele>675</ele>
        <time>2015-12-06T00:04:07.000Z</time>
      </trkpt>
      <trkpt lat="45.50497" lon="4.44798">
        <ele>673.79998779297</ele>
        <time>2015-12-06T00:04:15.000Z</time>
      </trkpt>
      <trkpt lat="45.50516" lon="4.44804">
        <ele>672.40002441406</ele>
        <time>2015-12-06T00:04:23.000Z</time>
      </trkpt>
      <trkpt lat="45.50535" lon="4.44807">
        <ele>670.79998779297</ele>
        <time>2015-12-06T00:04:33.000Z</time>
      </trkpt>
      <trkpt lat="45.50554" lon="4.4481">
        <ele>669.79998779297</ele>
        <time>2015-12-06T00:04:41.000Z</time>
      </trkpt>
      <trkpt lat="45.50572" lon="4.44815">
        <ele>670.20001220703</ele>
        <time>2015-12-06T00:04:49.000Z</time>
      </trkpt>
      <trkpt lat="45.50591" lon="4.4482">
        <ele>670.59997558594</ele>
        <time>2015-12-06T00:04:58.000Z</time>
      </trkpt>
      <trkpt lat="45.5061" lon="4.44824">
        <ele>669.40002441406</ele>
        <time>2015-12-06T00:05:06.000Z</time>
      </trkpt>
      <trkpt lat="45.50628" lon="4.44826">
        <ele>668.20001220703</ele>
        <time>2015-12-06T00:05:14.000Z</time>
      </trkpt>
      <trkpt lat="45.50647" lon="4.44831">
        <ele>668.40002441406</ele>
        <time>2015-12-06T00:05:24.000Z</time>
      </trkpt>
      <trkpt lat="45.50665" lon="4.44823">
        <ele>667.40002441406</ele>
        <time>2015-12-06T00:05:33.000Z</time>
      </trkpt>
      <trkpt lat="45.50684" lon="4.44819">
        <ele>666.79998779297</ele>
        <time>2015-12-06T00:05:42.000Z</time>
      </trkpt>
      <trkpt lat="45.50703" lon="4.44823">
        <ele>667.40002441406</ele>
        <time>2015-12-06T00:05:52.000Z</time>
      </trkpt>
      <trkpt lat="45.50721" lon="4.44835">
        <ele>669.20001220703</ele>
        <time>2015-12-06T00:06:01.000Z</time>
      </trkpt>
      <trkpt lat="45.50738" lon="4.44844">
        <ele>671.20001220703</ele>
        <time>2015-12-06T00:06:09.000Z</time>
      </trkpt>
      <trkpt lat="45.50758" lon="4.4485">
        <ele>673</ele>
        <time>2015-12-06T00:06:18.000Z</time>
      </trkpt>
      <trkpt lat="45.50777" lon="4.44854">
        <ele>674.40002441406</ele>
        <time>2015-12-06T00:06:27.000Z</time>
      </trkpt>
      <trkpt lat="45.50796" lon="4.44854">
        <ele>675.40002441406</ele>
        <time>2015-12-06T00:06:36.000Z</time>
      </trkpt>
      <trkpt lat="45.50816" lon="4.44853">
        <ele>677.20001220703</ele>
        <time>2015-12-06T00:06:46.000Z</time>
      </trkpt>
      <trkpt lat="45.50835" lon="4.44849">
        <ele>679</ele>
        <time>2015-12-06T00:06:56.000Z</time>
      </trkpt>
      <trkpt lat="45.50855" lon="4.44847">
        <ele>680.79998779297</ele>
        <time>2015-12-06T00:07:06.000Z</time>
      </trkpt>
      <trkpt lat="45.50874" lon="4.44845">
        <ele>683</ele>
        <time>2015-12-06T00:07:16.000Z</time>
      </trkpt>
      <trkpt lat="45.50893" lon="4.44846">
        <ele>685.79998779297</ele>
        <time>2015-12-06T00:07:27.000Z</time>
      </trkpt>
      <trkpt lat="45.50911" lon="4.44841">
        <ele>688.20001220703</ele>
        <time>2015-12-06T00:07:41.000Z</time>
      </trkpt>
      <trkpt lat="45.50929" lon="4.44834">
        <ele>690.40002441406</ele>
        <time>2015-12-06T00:07:55.000Z</time>
      </trkpt>
      <trkpt lat="45.50947" lon="4.44828">
        <ele>692.79998779297</ele>
        <time>2015-12-06T00:08:10.000Z</time>
      </trkpt>
      <trkpt lat="45.50954" lon="4.44826">
        <ele>693.59997558594</ele>
        <time>2015-12-06T00:08:17.000Z</time>
      </trkpt>
      <trkpt lat="45.50959" lon="4.44825">
        <ele>694.40002441406</ele>
        <time>2015-12-06T00:08:21.000Z</time>
      </trkpt>
      <trkpt lat="45.50977" lon="4.44825">
        <ele>697</ele>
        <time>2015-12-06T00:08:37.000Z</time>
      </trkpt>
      <trkpt lat="45.50996" lon="4.44826">
        <ele>699.59997558594</ele>
        <time>2015-12-06T00:08:52.000Z</time>
      </trkpt>
      <trkpt lat="45.51013" lon="4.44828">
        <ele>701.79998779297</ele>
        <time>2015-12-06T00:09:05.000Z</time>
      </trkpt>
      <trkpt lat="45.5102" lon="4.44831">
        <ele>702.79998779297</ele>
        <time>2015-12-06T00:09:11.000Z</time>
      </trkpt>
      <trkpt lat="45.51022" lon="4.44833">
        <ele>703.40002441406</ele>
        <time>2015-12-06T00:09:14.000Z</time>
      </trkpt>
      <trkpt lat="45.5104" lon="4.44837">
        <ele>705.79998779297</ele>
        <time>2015-12-06T00:09:37.000Z</time>
      </trkpt>
      <trkpt lat="45.51058" lon="4.44841">
        <ele>707</ele>
        <time>2015-12-06T00:09:51.000Z</time>
      </trkpt>
      <trkpt lat="45.51077" lon="4.44846">
        <ele>706.79998779297</ele>
        <time>2015-12-06T00:10:04.000Z</time>
      </trkpt>
      <trkpt lat="45.51095" lon="4.4485">
        <ele>706.79998779297</ele>
        <time>2015-12-06T00:10:16.000Z</time>
      </trkpt>
      <trkpt lat="45.51112" lon="4.44857">
        <ele>706.79998779297</ele>
        <time>2015-12-06T00:10:24.000Z</time>
      </trkpt>
      <trkpt lat="45.5113" lon="4.44865">
        <ele>707</ele>
        <time>2015-12-06T00:10:32.000Z</time>
      </trkpt>
      <trkpt lat="45.51148" lon="4.44872">
        <ele>707.79998779297</ele>
        <time>2015-12-06T00:10:41.000Z</time>
      </trkpt>
      <trkpt lat="45.51165" lon="4.44877">
        <ele>708.20001220703</ele>
        <time>2015-12-06T00:10:51.000Z</time>
      </trkpt>
      <trkpt lat="45.51183" lon="4.44883">
        <ele>708.59997558594</ele>
        <time>2015-12-06T00:11:04.000Z</time>
      </trkpt>
      <trkpt lat="45.512" lon="4.44887">
        <ele>709</ele>
        <time>2015-12-06T00:11:17.000Z</time>
      </trkpt>
      <trkpt lat="45.51218" lon="4.44891">
        <ele>709</ele>
        <time>2015-12-06T00:11:27.000Z</time>
      </trkpt>
      <trkpt lat="45.51237" lon="4.44896">
        <ele>705.40002441406</ele>
        <time>2015-12-06T00:11:35.000Z</time>
      </trkpt>
      <trkpt lat="45.51255" lon="4.44905">
        <ele>702.40002441406</ele>
        <time>2015-12-06T00:11:43.000Z</time>
      </trkpt>
      <trkpt lat="45.51273" lon="4.44919">
        <ele>700.59997558594</ele>
        <time>2015-12-06T00:11:51.000Z</time>
      </trkpt>
      <trkpt lat="45.51289" lon="4.44935">
        <ele>699.59997558594</ele>
        <time>2015-12-06T00:11:58.000Z</time>
      </trkpt>
      <trkpt lat="45.51304" lon="4.44955">
        <ele>698.20001220703</ele>
        <time>2015-12-06T00:12:07.000Z</time>
      </trkpt>
      <trkpt lat="45.51319" lon="4.4497">
        <ele>694.40002441406</ele>
        <time>2015-12-06T00:12:14.000Z</time>
      </trkpt>
      <trkpt lat="45.51331" lon="4.4499">
        <ele>691.79998779297</ele>
        <time>2015-12-06T00:12:22.000Z</time>
      </trkpt>
      <trkpt lat="45.51344" lon="4.45011">
        <ele>688.79998779297</ele>
        <time>2015-12-06T00:12:31.000Z</time>
      </trkpt>
      <trkpt lat="45.51357" lon="4.45034">
        <ele>686</ele>
        <time>2015-12-06T00:12:39.000Z</time>
      </trkpt>
      <trkpt lat="45.51367" lon="4.45056">
        <ele>685.59997558594</ele>
        <time>2015-12-06T00:12:45.000Z</time>
      </trkpt>
      <trkpt lat="45.51376" lon="4.45078">
        <ele>685.20001220703</ele>
        <time>2015-12-06T00:12:52.000Z</time>
      </trkpt>
      <trkpt lat="45.51386" lon="4.45103">
        <ele>685</ele>
        <time>2015-12-06T00:13:00.000Z</time>
      </trkpt>
      <trkpt lat="45.51397" lon="4.45124">
        <ele>684.59997558594</ele>
        <time>2015-12-06T00:13:07.000Z</time>
      </trkpt>
      <trkpt lat="45.51412" lon="4.45144">
        <ele>682.79998779297</ele>
        <time>2015-12-06T00:13:14.000Z</time>
      </trkpt>
      <trkpt lat="45.51427" lon="4.45162">
        <ele>680.79998779297</ele>
        <time>2015-12-06T00:13:21.000Z</time>
      </trkpt>
      <trkpt lat="45.5144" lon="4.45183">
        <ele>679.20001220703</ele>
        <time>2015-12-06T00:13:27.000Z</time>
      </trkpt>
      <trkpt lat="45.51454" lon="4.45204">
        <ele>677.40002441406</ele>
        <time>2015-12-06T00:13:34.000Z</time>
      </trkpt>
      <trkpt lat="45.51468" lon="4.45225">
        <ele>675.59997558594</ele>
        <time>2015-12-06T00:13:41.000Z</time>
      </trkpt>
      <trkpt lat="45.51481" lon="4.45244">
        <ele>676.59997558594</ele>
        <time>2015-12-06T00:13:48.000Z</time>
      </trkpt>
      <trkpt lat="45.51492" lon="4.45264">
        <ele>677.40002441406</ele>
        <time>2015-12-06T00:13:55.000Z</time>
      </trkpt>
      <trkpt lat="45.51505" lon="4.45285">
        <ele>678.40002441406</ele>
        <time>2015-12-06T00:14:02.000Z</time>
      </trkpt>
      <trkpt lat="45.51519" lon="4.45305">
        <ele>680.20001220703</ele>
        <time>2015-12-06T00:14:10.000Z</time>
      </trkpt>
      <trkpt lat="45.51534" lon="4.4532">
        <ele>681.59997558594</ele>
        <time>2015-12-06T00:14:19.000Z</time>
      </trkpt>
      <trkpt lat="45.5155" lon="4.45334">
        <ele>683.20001220703</ele>
        <time>2015-12-06T00:14:29.000Z</time>
      </trkpt>
      <trkpt lat="45.51567" lon="4.45349">
        <ele>684.20001220703</ele>
        <time>2015-12-06T00:14:38.000Z</time>
      </trkpt>
      <trkpt lat="45.51583" lon="4.45361">
        <ele>685</ele>
        <time>2015-12-06T00:14:49.000Z</time>
      </trkpt>
      <trkpt lat="45.51599" lon="4.45375">
        <ele>686.20001220703</ele>
        <time>2015-12-06T00:15:02.000Z</time>
      </trkpt>
      <trkpt lat="45.51615" lon="4.45386">
        <ele>687.20001220703</ele>
        <time>2015-12-06T00:15:14.000Z</time>
      </trkpt>
      <trkpt lat="45.5163" lon="4.45402">
        <ele>688.59997558594</ele>
        <time>2015-12-06T00:15:25.000Z</time>
      </trkpt>
      <trkpt lat="45.51646" lon="4.45418">
        <ele>688.40002441406</ele>
        <time>2015-12-06T00:15:35.000Z</time>
      </trkpt>
      <trkpt lat="45.51662" lon="4.45436">
        <ele>688</ele>
        <time>2015-12-06T00:15:44.000Z</time>
      </trkpt>
      <trkpt lat="45.51677" lon="4.45456">
        <ele>688.20001220703</ele>
        <time>2015-12-06T00:15:53.000Z</time>
      </trkpt>
      <trkpt lat="45.51688" lon="4.45476">
        <ele>689.79998779297</ele>
        <time>2015-12-06T00:16:01.000Z</time>
      </trkpt>
      <trkpt lat="45.51697" lon="4.45502">
        <ele>692.20001220703</ele>
        <time>2015-12-06T00:16:10.000Z</time>
      </trkpt>
      <trkpt lat="45.51705" lon="4.45526">
        <ele>694</ele>
        <time>2015-12-06T00:16:19.000Z</time>
      </trkpt>
      <trkpt lat="45.51711" lon="4.45552">
        <ele>696.20001220703</ele>
        <time>2015-12-06T00:16:29.000Z</time>
      </trkpt>
      <trkpt lat="45.51716" lon="4.45578">
        <ele>699</ele>
        <time>2015-12-06T00:16:39.000Z</time>
      </trkpt>
      <trkpt lat="45.51722" lon="4.45605">
        <ele>702.20001220703</ele>
        <time>2015-12-06T00:16:49.000Z</time>
      </trkpt>
      <trkpt lat="45.51725" lon="4.4563">
        <ele>705.20001220703</ele>
        <time>2015-12-06T00:16:58.000Z</time>
      </trkpt>
      <trkpt lat="45.51728" lon="4.45656">
        <ele>708</ele>
        <time>2015-12-06T00:17:08.000Z</time>
      </trkpt>
      <trkpt lat="45.5173" lon="4.45682">
        <ele>710.79998779297</ele>
        <time>2015-12-06T00:17:21.000Z</time>
      </trkpt>
      <trkpt lat="45.51731" lon="4.45689">
        <ele>711.59997558594</ele>
        <time>2015-12-06T00:17:25.000Z</time>
      </trkpt>
      <trkpt lat="45.51736" lon="4.45715">
        <ele>713.20001220703</ele>
        <time>2015-12-06T00:17:38.000Z</time>
      </trkpt>
      <trkpt lat="45.5174" lon="4.45732">
        <ele>714.20001220703</ele>
        <time>2015-12-06T00:17:47.000Z</time>
      </trkpt>
      <trkpt lat="45.51741" lon="4.4574">
        <ele>714.40002441406</ele>
        <time>2015-12-06T00:17:51.000Z</time>
      </trkpt>
      <trkpt lat="45.51749" lon="4.45765">
        <ele>716</ele>
        <time>2015-12-06T00:18:04.000Z</time>
      </trkpt>
      <trkpt lat="45.51759" lon="4.45787">
        <ele>717.40002441406</ele>
        <time>2015-12-06T00:18:18.000Z</time>
      </trkpt>
      <trkpt lat="45.5177" lon="4.45809">
        <ele>718.20001220703</ele>
        <time>2015-12-06T00:18:32.000Z</time>
      </trkpt>
      <trkpt lat="45.51785" lon="4.45828">
        <ele>719.20001220703</ele>
        <time>2015-12-06T00:18:42.000Z</time>
      </trkpt>
      <trkpt lat="45.518" lon="4.45846">
        <ele>720.20001220703</ele>
        <time>2015-12-06T00:18:51.000Z</time>
      </trkpt>
      <trkpt lat="45.51815" lon="4.45863">
        <ele>719.59997558594</ele>
        <time>2015-12-06T00:18:59.000Z</time>
      </trkpt>
      <trkpt lat="45.5183" lon="4.4588">
        <ele>718.79998779297</ele>
        <time>2015-12-06T00:19:07.000Z</time>
      </trkpt>
      <trkpt lat="45.51845" lon="4.45897">
        <ele>718</ele>
        <time>2015-12-06T00:19:15.000Z</time>
      </trkpt>
      <trkpt lat="45.51861" lon="4.45913">
        <ele>717.20001220703</ele>
        <time>2015-12-06T00:19:23.000Z</time>
      </trkpt>
      <trkpt lat="45.51877" lon="4.45929">
        <ele>716.40002441406</ele>
        <time>2015-12-06T00:19:31.000Z</time>
      </trkpt>
      <trkpt lat="45.51891" lon="4.45945">
        <ele>715.79998779297</ele>
        <time>2015-12-06T00:19:38.000Z</time>
      </trkpt>
      <trkpt lat="45.51909" lon="4.4596">
        <ele>715.20001220703</ele>
        <time>2015-12-06T00:19:46.000Z</time>
      </trkpt>
      <trkpt lat="45.51925" lon="4.45971">
        <ele>714.40002441406</ele>
        <time>2015-12-06T00:19:53.000Z</time>
      </trkpt>
      <trkpt lat="45.51942" lon="4.45981">
        <ele>713.79998779297</ele>
        <time>2015-12-06T00:20:01.000Z</time>
      </trkpt>
      <trkpt lat="45.51959" lon="4.45992">
        <ele>713.20001220703</ele>
        <time>2015-12-06T00:20:08.000Z</time>
      </trkpt>
      <trkpt lat="45.51966" lon="4.46019">
        <ele>712.40002441406</ele>
        <time>2015-12-06T00:20:16.000Z</time>
      </trkpt>
      <trkpt lat="45.51971" lon="4.46046">
        <ele>711.59997558594</ele>
        <time>2015-12-06T00:20:24.000Z</time>
      </trkpt>
      <trkpt lat="45.5198" lon="4.4607">
        <ele>711.20001220703</ele>
        <time>2015-12-06T00:20:32.000Z</time>
      </trkpt>
      <trkpt lat="45.51989" lon="4.46095">
        <ele>710.59997558594</ele>
        <time>2015-12-06T00:20:40.000Z</time>
      </trkpt>
      <trkpt lat="45.51986" lon="4.4612">
        <ele>709.59997558594</ele>
        <time>2015-12-06T00:20:52.000Z</time>
      </trkpt>
      <trkpt lat="45.51982" lon="4.46148">
        <ele>710.40002441406</ele>
        <time>2015-12-06T00:21:01.000Z</time>
      </trkpt>
      <trkpt lat="45.51977" lon="4.46173">
        <ele>710.79998779297</ele>
        <time>2015-12-06T00:21:09.000Z</time>
      </trkpt>
      <trkpt lat="45.51973" lon="4.462">
        <ele>711.59997558594</ele>
        <time>2015-12-06T00:21:17.000Z</time>
      </trkpt>
      <trkpt lat="45.5197" lon="4.46226">
        <ele>712.59997558594</ele>
        <time>2015-12-06T00:21:25.000Z</time>
      </trkpt>
      <trkpt lat="45.51969" lon="4.46253">
        <ele>713.79998779297</ele>
        <time>2015-12-06T00:21:34.000Z</time>
      </trkpt>
      <trkpt lat="45.51968" lon="4.46279">
        <ele>715</ele>
        <time>2015-12-06T00:21:42.000Z</time>
      </trkpt>
      <trkpt lat="45.51969" lon="4.46307">
        <ele>714.79998779297</ele>
        <time>2015-12-06T00:21:51.000Z</time>
      </trkpt>
      <trkpt lat="45.51972" lon="4.46333">
        <ele>714.79998779297</ele>
        <time>2015-12-06T00:21:59.000Z</time>
      </trkpt>
      <trkpt lat="45.51979" lon="4.46359">
        <ele>715</ele>
        <time>2015-12-06T00:22:07.000Z</time>
      </trkpt>
      <trkpt lat="45.5199" lon="4.46381">
        <ele>714.79998779297</ele>
        <time>2015-12-06T00:22:15.000Z</time>
      </trkpt>
      <trkpt lat="45.52002" lon="4.46401">
        <ele>714.40002441406</ele>
        <time>2015-12-06T00:22:23.000Z</time>
      </trkpt>
      <trkpt lat="45.52015" lon="4.46422">
        <ele>714.20001220703</ele>
        <time>2015-12-06T00:22:31.000Z</time>
      </trkpt>
      <trkpt lat="45.52029" lon="4.46442">
        <ele>714</ele>
        <time>2015-12-06T00:22:39.000Z</time>
      </trkpt>
      <trkpt lat="45.52043" lon="4.46463">
        <ele>713.79998779297</ele>
        <time>2015-12-06T00:22:47.000Z</time>
      </trkpt>
      <trkpt lat="45.52057" lon="4.46483">
        <ele>713</ele>
        <time>2015-12-06T00:22:55.000Z</time>
      </trkpt>
      <trkpt lat="45.52071" lon="4.46499">
        <ele>712.20001220703</ele>
        <time>2015-12-06T00:23:02.000Z</time>
      </trkpt>
      <trkpt lat="45.52087" lon="4.46516">
        <ele>711.40002441406</ele>
        <time>2015-12-06T00:23:10.000Z</time>
      </trkpt>
      <trkpt lat="45.52102" lon="4.46533">
        <ele>710.59997558594</ele>
        <time>2015-12-06T00:23:18.000Z</time>
      </trkpt>
      <trkpt lat="45.52115" lon="4.4655">
        <ele>710.79998779297</ele>
        <time>2015-12-06T00:23:26.000Z</time>
      </trkpt>
      <trkpt lat="45.5213" lon="4.46569">
        <ele>711</ele>
        <time>2015-12-06T00:23:35.000Z</time>
      </trkpt>
      <trkpt lat="45.52142" lon="4.46592">
        <ele>710.20001220703</ele>
        <time>2015-12-06T00:23:44.000Z</time>
      </trkpt>
      <trkpt lat="45.52153" lon="4.46613">
        <ele>709.40002441406</ele>
        <time>2015-12-06T00:23:52.000Z</time>
      </trkpt>
      <trkpt lat="45.52165" lon="4.46633">
        <ele>710</ele>
        <time>2015-12-06T00:24:00.000Z</time>
      </trkpt>
      <trkpt lat="45.52179" lon="4.46653">
        <ele>710.79998779297</ele>
        <time>2015-12-06T00:24:09.000Z</time>
      </trkpt>
      <trkpt lat="45.52193" lon="4.46674">
        <ele>711.59997558594</ele>
        <time>2015-12-06T00:24:18.000Z</time>
      </trkpt>
      <trkpt lat="45.52206" lon="4.46692">
        <ele>712.20001220703</ele>
        <time>2015-12-06T00:24:26.000Z</time>
      </trkpt>
      <trkpt lat="45.52217" lon="4.46713">
        <ele>712</ele>
        <time>2015-12-06T00:24:34.000Z</time>
      </trkpt>
      <trkpt lat="45.52225" lon="4.46738">
        <ele>710</ele>
        <time>2015-12-06T00:24:42.000Z</time>
      </trkpt>
      <trkpt lat="45.52227" lon="4.46765">
        <ele>709.40002441406</ele>
        <time>2015-12-06T00:24:50.000Z</time>
      </trkpt>
      <trkpt lat="45.52228" lon="4.46793">
        <ele>710.40002441406</ele>
        <time>2015-12-06T00:24:58.000Z</time>
      </trkpt>
      <trkpt lat="45.52231" lon="4.4682">
        <ele>710.20001220703</ele>
        <time>2015-12-06T00:25:06.000Z</time>
      </trkpt>
      <trkpt lat="45.52236" lon="4.46846">
        <ele>709.79998779297</ele>
        <time>2015-12-06T00:25:14.000Z</time>
      </trkpt>
      <trkpt lat="45.52242" lon="4.46872">
        <ele>710</ele>
        <time>2015-12-06T00:25:22.000Z</time>
      </trkpt>
      <trkpt lat="45.52249" lon="4.46898">
        <ele>713</ele>
        <time>2015-12-06T00:25:30.000Z</time>
      </trkpt>
      <trkpt lat="45.52256" lon="4.46923">
        <ele>713.40002441406</ele>
        <time>2015-12-06T00:25:38.000Z</time>
      </trkpt>
      <trkpt lat="45.52262" lon="4.46949">
        <ele>714</ele>
        <time>2015-12-06T00:25:46.000Z</time>
      </trkpt>
      <trkpt lat="45.52268" lon="4.46974">
        <ele>717.20001220703</ele>
        <time>2015-12-06T00:25:54.000Z</time>
      </trkpt>
      <trkpt lat="45.52275" lon="4.46999">
        <ele>720.79998779297</ele>
        <time>2015-12-06T00:26:03.000Z</time>
      </trkpt>
      <trkpt lat="45.52283" lon="4.47024">
        <ele>723</ele>
        <time>2015-12-06T00:26:13.000Z</time>
      </trkpt>
      <trkpt lat="45.52289" lon="4.4705">
        <ele>725</ele>
        <time>2015-12-06T00:26:23.000Z</time>
      </trkpt>
      <trkpt lat="45.52293" lon="4.47076">
        <ele>727.20001220703</ele>
        <time>2015-12-06T00:26:34.000Z</time>
      </trkpt>
      <trkpt lat="45.52294" lon="4.47078">
        <ele>727.59997558594</ele>
        <time>2015-12-06T00:26:35.000Z</time>
      </trkpt>
      <trkpt lat="45.52303" lon="4.47101">
        <ele>730.20001220703</ele>
        <time>2015-12-06T00:26:45.000Z</time>
      </trkpt>
      <trkpt lat="45.5231" lon="4.47126">
        <ele>732.79998779297</ele>
        <time>2015-12-06T00:26:55.000Z</time>
      </trkpt>
      <trkpt lat="45.52318" lon="4.47149">
        <ele>734.59997558594</ele>
        <time>2015-12-06T00:27:06.000Z</time>
      </trkpt>
      <trkpt lat="45.52323" lon="4.47174">
        <ele>736</ele>
        <time>2015-12-06T00:27:20.000Z</time>
      </trkpt>
      <trkpt lat="45.52324" lon="4.47176">
        <ele>736.20001220703</ele>
        <time>2015-12-06T00:27:21.000Z</time>
      </trkpt>
      <trkpt lat="45.52328" lon="4.47191">
        <ele>737</ele>
        <time>2015-12-06T00:27:30.000Z</time>
      </trkpt>
      <trkpt lat="45.52331" lon="4.47217">
        <ele>737.20001220703</ele>
        <time>2015-12-06T00:27:43.000Z</time>
      </trkpt>
      <trkpt lat="45.52334" lon="4.47242">
        <ele>736.79998779297</ele>
        <time>2015-12-06T00:27:55.000Z</time>
      </trkpt>
      <trkpt lat="45.52338" lon="4.47269">
        <ele>736.79998779297</ele>
        <time>2015-12-06T00:28:08.000Z</time>
      </trkpt>
      <trkpt lat="45.52348" lon="4.47292">
        <ele>737.59997558594</ele>
        <time>2015-12-06T00:28:17.000Z</time>
      </trkpt>
      <trkpt lat="45.5236" lon="4.47314">
        <ele>738.40002441406</ele>
        <time>2015-12-06T00:28:26.000Z</time>
      </trkpt>
      <trkpt lat="45.52372" lon="4.47335">
        <ele>739.40002441406</ele>
        <time>2015-12-06T00:28:35.000Z</time>
      </trkpt>
      <trkpt lat="45.52383" lon="4.47357">
        <ele>740.20001220703</ele>
        <time>2015-12-06T00:28:44.000Z</time>
      </trkpt>
      <trkpt lat="45.52394" lon="4.47379">
        <ele>740.20001220703</ele>
        <time>2015-12-06T00:28:52.000Z</time>
      </trkpt>
      <trkpt lat="45.52402" lon="4.47403">
        <ele>740</ele>
        <time>2015-12-06T00:29:00.000Z</time>
      </trkpt>
      <trkpt lat="45.52406" lon="4.4743">
        <ele>739.59997558594</ele>
        <time>2015-12-06T00:29:09.000Z</time>
      </trkpt>
      <trkpt lat="45.52401" lon="4.47458">
        <ele>738.79998779297</ele>
        <time>2015-12-06T00:29:18.000Z</time>
      </trkpt>
      <trkpt lat="45.52395" lon="4.47484">
        <ele>738.59997558594</ele>
        <time>2015-12-06T00:29:26.000Z</time>
      </trkpt>
      <trkpt lat="45.52391" lon="4.47511">
        <ele>739</ele>
        <time>2015-12-06T00:29:34.000Z</time>
      </trkpt>
      <trkpt lat="45.5239" lon="4.4754">
        <ele>738.79998779297</ele>
        <time>2015-12-06T00:29:42.000Z</time>
      </trkpt>
      <trkpt lat="45.52391" lon="4.47568">
        <ele>737.79998779297</ele>
        <time>2015-12-06T00:29:50.000Z</time>
      </trkpt>
      <trkpt lat="45.52394" lon="4.47594">
        <ele>736.79998779297</ele>
        <time>2015-12-06T00:29:57.000Z</time>
      </trkpt>
      <trkpt lat="45.52398" lon="4.47621">
        <ele>735.59997558594</ele>
        <time>2015-12-06T00:30:04.000Z</time>
      </trkpt>
      <trkpt lat="45.52399" lon="4.47648">
        <ele>732.79998779297</ele>
        <time>2015-12-06T00:30:11.000Z</time>
      </trkpt>
      <trkpt lat="45.52399" lon="4.47675">
        <ele>730.20001220703</ele>
        <time>2015-12-06T00:30:18.000Z</time>
      </trkpt>
      <trkpt lat="45.52399" lon="4.47698">
        <ele>728</ele>
        <time>2015-12-06T00:30:25.000Z</time>
      </trkpt>
      <trkpt lat="45.52408" lon="4.47703">
        <ele>727.40002441406</ele>
        <time>2015-12-06T00:30:29.000Z</time>
      </trkpt>
      <trkpt lat="45.52427" lon="4.47705">
        <ele>727</ele>
        <time>2015-12-06T00:30:37.000Z</time>
      </trkpt>
      <trkpt lat="45.52447" lon="4.47707">
        <ele>726.79998779297</ele>
        <time>2015-12-06T00:30:45.000Z</time>
      </trkpt>
      <trkpt lat="45.52467" lon="4.47711">
        <ele>726.20001220703</ele>
        <time>2015-12-06T00:30:52.000Z</time>
      </trkpt>
      <trkpt lat="45.52487" lon="4.47718">
        <ele>723.20001220703</ele>
        <time>2015-12-06T00:30:59.000Z</time>
      </trkpt>
      <trkpt lat="45.52504" lon="4.47724">
        <ele>720.40002441406</ele>
        <time>2015-12-06T00:31:06.000Z</time>
      </trkpt>
      <trkpt lat="45.52524" lon="4.47726">
        <ele>717.59997558594</ele>
        <time>2015-12-06T00:31:13.000Z</time>
      </trkpt>
      <trkpt lat="45.52542" lon="4.47732">
        <ele>714.79998779297</ele>
        <time>2015-12-06T00:31:20.000Z</time>
      </trkpt>
      <trkpt lat="45.52561" lon="4.47736">
        <ele>712.79998779297</ele>
        <time>2015-12-06T00:31:27.000Z</time>
      </trkpt>
      <trkpt lat="45.5258" lon="4.47738">
        <ele>711.40002441406</ele>
        <time>2015-12-06T00:31:34.000Z</time>
      </trkpt>
      <trkpt lat="45.52597" lon="4.4775">
        <ele>709.59997558594</ele>
        <time>2015-12-06T00:31:41.000Z</time>
      </trkpt>
      <trkpt lat="45.52614" lon="4.47766">
        <ele>707.40002441406</ele>
        <time>2015-12-06T00:31:49.000Z</time>
      </trkpt>
      <trkpt lat="45.52628" lon="4.47785">
        <ele>705.40002441406</ele>
        <time>2015-12-06T00:31:56.000Z</time>
      </trkpt>
      <trkpt lat="45.52641" lon="4.47805">
        <ele>702.79998779297</ele>
        <time>2015-12-06T00:32:03.000Z</time>
      </trkpt>
      <trkpt lat="45.52656" lon="4.47825">
        <ele>699</ele>
        <time>2015-12-06T00:32:10.000Z</time>
      </trkpt>
      <trkpt lat="45.52669" lon="4.47845">
        <ele>695.59997558594</ele>
        <time>2015-12-06T00:32:17.000Z</time>
      </trkpt>
      <trkpt lat="45.52682" lon="4.47864">
        <ele>692.40002441406</ele>
        <time>2015-12-06T00:32:24.000Z</time>
      </trkpt>
      <trkpt lat="45.52695" lon="4.47884">
        <ele>690.20001220703</ele>
        <time>2015-12-06T00:32:31.000Z</time>
      </trkpt>
      <trkpt lat="45.52711" lon="4.47904">
        <ele>687.79998779297</ele>
        <time>2015-12-06T00:32:39.000Z</time>
      </trkpt>
      <trkpt lat="45.52724" lon="4.47922">
        <ele>686.59997558594</ele>
        <time>2015-12-06T00:32:48.000Z</time>
      </trkpt>
      <trkpt lat="45.52725" lon="4.4795">
        <ele>687.59997558594</ele>
        <time>2015-12-06T00:32:56.000Z</time>
      </trkpt>
      <trkpt lat="45.52722" lon="4.47976">
        <ele>688</ele>
        <time>2015-12-06T00:33:02.000Z</time>
      </trkpt>
      <trkpt lat="45.52726" lon="4.48001">
        <ele>688</ele>
        <time>2015-12-06T00:33:09.000Z</time>
      </trkpt>
      <trkpt lat="45.52737" lon="4.48023">
        <ele>688.40002441406</ele>
        <time>2015-12-06T00:33:16.000Z</time>
      </trkpt>
      <trkpt lat="45.52744" lon="4.48049">
        <ele>690.20001220703</ele>
        <time>2015-12-06T00:33:24.000Z</time>
      </trkpt>
      <trkpt lat="45.52749" lon="4.48075">
        <ele>692</ele>
        <time>2015-12-06T00:33:33.000Z</time>
      </trkpt>
      <trkpt lat="45.52756" lon="4.48099">
        <ele>693.40002441406</ele>
        <time>2015-12-06T00:33:44.000Z</time>
      </trkpt>
      <trkpt lat="45.52761" lon="4.48107">
        <ele>694.20001220703</ele>
        <time>2015-12-06T00:33:49.000Z</time>
      </trkpt>
      <trkpt lat="45.52768" lon="4.48117">
        <ele>695.40002441406</ele>
        <time>2015-12-06T00:33:57.000Z</time>
      </trkpt>
      <trkpt lat="45.52776" lon="4.48129">
        <ele>697.20001220703</ele>
        <time>2015-12-06T00:34:06.000Z</time>
      </trkpt>
      <trkpt lat="45.52789" lon="4.48148">
        <ele>700.40002441406</ele>
        <time>2015-12-06T00:34:22.000Z</time>
      </trkpt>
      <trkpt lat="45.52805" lon="4.48164">
        <ele>703.59997558594</ele>
        <time>2015-12-06T00:34:36.000Z</time>
      </trkpt>
      <trkpt lat="45.52807" lon="4.48165">
        <ele>704</ele>
        <time>2015-12-06T00:34:37.000Z</time>
      </trkpt>
      <trkpt lat="45.52812" lon="4.48171">
        <ele>705.20001220703</ele>
        <time>2015-12-06T00:34:42.000Z</time>
      </trkpt>
      <trkpt lat="45.52819" lon="4.48174">
        <ele>706.59997558594</ele>
        <time>2015-12-06T00:34:48.000Z</time>
      </trkpt>
      <trkpt lat="45.52828" lon="4.48159">
        <ele>707</ele>
        <time>2015-12-06T00:34:54.000Z</time>
      </trkpt>
      <trkpt lat="45.52838" lon="4.48136">
        <ele>706.59997558594</ele>
        <time>2015-12-06T00:35:03.000Z</time>
      </trkpt>
      <trkpt lat="45.52848" lon="4.48114">
        <ele>705.40002441406</ele>
        <time>2015-12-06T00:35:13.000Z</time>
      </trkpt>
      <trkpt lat="45.52859" lon="4.48092">
        <ele>704.79998779297</ele>
        <time>2015-12-06T00:35:26.000Z</time>
      </trkpt>
      <trkpt lat="45.5287" lon="4.48089">
        <ele>705.59997558594</ele>
        <time>2015-12-06T00:35:34.000Z</time>
      </trkpt>
      <trkpt lat="45.52876" lon="4.48114">
        <ele>708.79998779297</ele>
        <time>2015-12-06T00:35:49.000Z</time>
      </trkpt>
      <trkpt lat="45.52886" lon="4.48135">
        <ele>712.40002441406</ele>
        <time>2015-12-06T00:36:05.000Z</time>
      </trkpt>
      <trkpt lat="45.52887" lon="4.48136">
        <ele>712.79998779297</ele>
        <time>2015-12-06T00:36:06.000Z</time>
      </trkpt>
      <trkpt lat="45.52898" lon="4.48157">
        <ele>717.20001220703</ele>
        <time>2015-12-06T00:36:21.000Z</time>
      </trkpt>
      <trkpt lat="45.52901" lon="4.48164">
        <ele>718.40002441406</ele>
        <time>2015-12-06T00:36:25.000Z</time>
      </trkpt>
      <trkpt lat="45.52905" lon="4.48171">
        <ele>720</ele>
        <time>2015-12-06T00:36:30.000Z</time>
      </trkpt>
      <trkpt lat="45.52911" lon="4.48182">
        <ele>722.20001220703</ele>
        <time>2015-12-06T00:36:37.000Z</time>
      </trkpt>
      <trkpt lat="45.52914" lon="4.4819">
        <ele>723.79998779297</ele>
        <time>2015-12-06T00:36:43.000Z</time>
      </trkpt>
      <trkpt lat="45.52924" lon="4.48213">
        <ele>727.59997558594</ele>
        <time>2015-12-06T00:37:00.000Z</time>
      </trkpt>
      <trkpt lat="45.52926" lon="4.48219">
        <ele>728.40002441406</ele>
        <time>2015-12-06T00:37:05.000Z</time>
      </trkpt>
      <trkpt lat="45.52929" lon="4.48226">
        <ele>729.40002441406</ele>
        <time>2015-12-06T00:37:09.000Z</time>
      </trkpt>
      <trkpt lat="45.52935" lon="4.4825">
        <ele>732.59997558594</ele>
        <time>2015-12-06T00:37:24.000Z</time>
      </trkpt>
      <trkpt lat="45.52942" lon="4.48275">
        <ele>735.40002441406</ele>
        <time>2015-12-06T00:37:38.000Z</time>
      </trkpt>
      <trkpt lat="45.52949" lon="4.48299">
        <ele>737.40002441406</ele>
        <time>2015-12-06T00:37:53.000Z</time>
      </trkpt>
      <trkpt lat="45.52957" lon="4.48323">
        <ele>739.59997558594</ele>
        <time>2015-12-06T00:38:07.000Z</time>
      </trkpt>
      <trkpt lat="45.52964" lon="4.48338">
        <ele>741</ele>
        <time>2015-12-06T00:38:16.000Z</time>
      </trkpt>
      <trkpt lat="45.52969" lon="4.48346">
        <ele>742</ele>
        <time>2015-12-06T00:38:21.000Z</time>
      </trkpt>
      <trkpt lat="45.52979" lon="4.48368">
        <ele>744</ele>
        <time>2015-12-06T00:38:36.000Z</time>
      </trkpt>
      <trkpt lat="45.5299" lon="4.48389">
        <ele>745.59997558594</ele>
        <time>2015-12-06T00:38:49.000Z</time>
      </trkpt>
      <trkpt lat="45.53003" lon="4.48411">
        <ele>747.40002441406</ele>
        <time>2015-12-06T00:39:03.000Z</time>
      </trkpt>
      <trkpt lat="45.53014" lon="4.48433">
        <ele>748.79998779297</ele>
        <time>2015-12-06T00:39:18.000Z</time>
      </trkpt>
      <trkpt lat="45.53019" lon="4.48441">
        <ele>749.40002441406</ele>
        <time>2015-12-06T00:39:24.000Z</time>
      </trkpt>
      <trkpt lat="45.53022" lon="4.48445">
        <ele>750</ele>
        <time>2015-12-06T00:39:28.000Z</time>
      </trkpt>
      <trkpt lat="45.53037" lon="4.48462">
        <ele>752</ele>
        <time>2015-12-06T00:39:43.000Z</time>
      </trkpt>
      <trkpt lat="45.53052" lon="4.48477">
        <ele>753.79998779297</ele>
        <time>2015-12-06T00:39:56.000Z</time>
      </trkpt>
      <trkpt lat="45.53069" lon="4.48485">
        <ele>756.20001220703</ele>
        <time>2015-12-06T00:40:08.000Z</time>
      </trkpt>
      <trkpt lat="45.53085" lon="4.48496">
        <ele>758.20001220703</ele>
        <time>2015-12-06T00:40:19.000Z</time>
      </trkpt>
      <trkpt lat="45.53103" lon="4.48506">
        <ele>760.40002441406</ele>
        <time>2015-12-06T00:40:28.000Z</time>
      </trkpt>
      <trkpt lat="45.5312" lon="4.48516">
        <ele>762.59997558594</ele>
        <time>2015-12-06T00:40:38.000Z</time>
      </trkpt>
      <trkpt lat="45.53138" lon="4.48528">
        <ele>764.40002441406</ele>
        <time>2015-12-06T00:40:48.000Z</time>
      </trkpt>
      <trkpt lat="45.53155" lon="4.48537">
        <ele>765.59997558594</ele>
        <time>2015-12-06T00:40:58.000Z</time>
      </trkpt>
      <trkpt lat="45.53173" lon="4.48547">
        <ele>766.59997558594</ele>
        <time>2015-12-06T00:41:08.000Z</time>
      </trkpt>
      <trkpt lat="45.53191" lon="4.48554">
        <ele>767.79998779297</ele>
        <time>2015-12-06T00:41:19.000Z</time>
      </trkpt>
      <trkpt lat="45.53208" lon="4.48562">
        <ele>768.79998779297</ele>
        <time>2015-12-06T00:41:32.000Z</time>
      </trkpt>
      <trkpt lat="45.53226" lon="4.48573">
        <ele>768.79998779297</ele>
        <time>2015-12-06T00:41:43.000Z</time>
      </trkpt>
      <trkpt lat="45.53244" lon="4.4858">
        <ele>768.20001220703</ele>
        <time>2015-12-06T00:41:52.000Z</time>
      </trkpt>
      <trkpt lat="45.53263" lon="4.48583">
        <ele>767.40002441406</ele>
        <time>2015-12-06T00:42:00.000Z</time>
      </trkpt>
      <trkpt lat="45.53283" lon="4.48583">
        <ele>767</ele>
        <time>2015-12-06T00:42:09.000Z</time>
      </trkpt>
      <trkpt lat="45.53289" lon="4.48583">
        <ele>767</ele>
        <time>2015-12-06T00:42:12.000Z</time>
      </trkpt>
      <trkpt lat="45.53297" lon="4.48579">
        <ele>766.79998779297</ele>
        <time>2015-12-06T00:42:16.000Z</time>
      </trkpt>
      <trkpt lat="45.53316" lon="4.48577">
        <ele>766</ele>
        <time>2015-12-06T00:42:25.000Z</time>
      </trkpt>
      <trkpt lat="45.53336" lon="4.48584">
        <ele>764.40002441406</ele>
        <time>2015-12-06T00:42:33.000Z</time>
      </trkpt>
      <trkpt lat="45.53354" lon="4.4859">
        <ele>763</ele>
        <time>2015-12-06T00:42:40.000Z</time>
      </trkpt>
      <trkpt lat="45.53373" lon="4.48596">
        <ele>761.40002441406</ele>
        <time>2015-12-06T00:42:47.000Z</time>
      </trkpt>
      <trkpt lat="45.53392" lon="4.48603">
        <ele>759.40002441406</ele>
        <time>2015-12-06T00:42:54.000Z</time>
      </trkpt>
      <trkpt lat="45.53411" lon="4.48605">
        <ele>756.59997558594</ele>
        <time>2015-12-06T00:43:01.000Z</time>
      </trkpt>
      <trkpt lat="45.5343" lon="4.4861">
        <ele>754.20001220703</ele>
        <time>2015-12-06T00:43:08.000Z</time>
      </trkpt>
      <trkpt lat="45.53448" lon="4.48609">
        <ele>751.59997558594</ele>
        <time>2015-12-06T00:43:16.000Z</time>
      </trkpt>
      <trkpt lat="45.53466" lon="4.48605">
        <ele>748.79998779297</ele>
        <time>2015-12-06T00:43:24.000Z</time>
      </trkpt>
      <trkpt lat="45.53486" lon="4.4861">
        <ele>746.59997558594</ele>
        <time>2015-12-06T00:43:32.000Z</time>
      </trkpt>
      <trkpt lat="45.53502" lon="4.48625">
        <ele>745.59997558594</ele>
        <time>2015-12-06T00:43:40.000Z</time>
      </trkpt>
      <trkpt lat="45.53506" lon="4.48629">
        <ele>745.59997558594</ele>
        <time>2015-12-06T00:43:42.000Z</time>
      </trkpt>
      <trkpt lat="45.53523" lon="4.48639">
        <ele>744.59997558594</ele>
        <time>2015-12-06T00:43:49.000Z</time>
      </trkpt>
      <trkpt lat="45.5354" lon="4.48651">
        <ele>743.59997558594</ele>
        <time>2015-12-06T00:43:56.000Z</time>
      </trkpt>
      <trkpt lat="45.53559" lon="4.48657">
        <ele>742.20001220703</ele>
        <time>2015-12-06T00:44:04.000Z</time>
      </trkpt>
      <trkpt lat="45.53579" lon="4.48663">
        <ele>741</ele>
        <time>2015-12-06T00:44:13.000Z</time>
      </trkpt>
      <trkpt lat="45.53599" lon="4.48664">
        <ele>739.40002441406</ele>
        <time>2015-12-06T00:44:21.000Z</time>
      </trkpt>
      <trkpt lat="45.53617" lon="4.48665">
        <ele>737.59997558594</ele>
        <time>2015-12-06T00:44:28.000Z</time>
      </trkpt>
      <trkpt lat="45.53635" lon="4.48667">
        <ele>735.59997558594</ele>
        <time>2015-12-06T00:44:35.000Z</time>
      </trkpt>
      <trkpt lat="45.53653" lon="4.48667">
        <ele>733.59997558594</ele>
        <time>2015-12-06T00:44:42.000Z</time>
      </trkpt>
      <trkpt lat="45.53672" lon="4.48658">
        <ele>730.40002441406</ele>
        <time>2015-12-06T00:44:49.000Z</time>
      </trkpt>
      <trkpt lat="45.5369" lon="4.48658">
        <ele>729.40002441406</ele>
        <time>2015-12-06T00:44:56.000Z</time>
      </trkpt>
      <trkpt lat="45.53709" lon="4.48663">
        <ele>728.79998779297</ele>
        <time>2015-12-06T00:45:03.000Z</time>
      </trkpt>
      <trkpt lat="45.53727" lon="4.48669">
        <ele>728.79998779297</ele>
        <time>2015-12-06T00:45:10.000Z</time>
      </trkpt>
      <trkpt lat="45.53744" lon="4.48682">
        <ele>729.79998779297</ele>
        <time>2015-12-06T00:45:18.000Z</time>
      </trkpt>
      <trkpt lat="45.53761" lon="4.48692">
        <ele>730.40002441406</ele>
        <time>2015-12-06T00:45:25.000Z</time>
      </trkpt>
      <trkpt lat="45.53779" lon="4.48693">
        <ele>730.59997558594</ele>
        <time>2015-12-06T00:45:32.000Z</time>
      </trkpt>
      <trkpt lat="45.53798" lon="4.48685">
        <ele>730.40002441406</ele>
        <time>2015-12-06T00:45:40.000Z</time>
      </trkpt>
      <trkpt lat="45.53816" lon="4.4868">
        <ele>730</ele>
        <time>2015-12-06T00:45:47.000Z</time>
      </trkpt>
      <trkpt lat="45.53834" lon="4.48675">
        <ele>729.79998779297</ele>
        <time>2015-12-06T00:45:54.000Z</time>
      </trkpt>
      <trkpt lat="45.53855" lon="4.48672">
        <ele>729.40002441406</ele>
        <time>2015-12-06T00:46:02.000Z</time>
      </trkpt>
      <trkpt lat="45.53873" lon="4.48675">
        <ele>730.79998779297</ele>
        <time>2015-12-06T00:46:09.000Z</time>
      </trkpt>
      <trkpt lat="45.5389" lon="4.48682">
        <ele>732.20001220703</ele>
        <time>2015-12-06T00:46:16.000Z</time>
      </trkpt>
      <trkpt lat="45.5391" lon="4.48691">
        <ele>733.40002441406</ele>
        <time>2015-12-06T00:46:24.000Z</time>
      </trkpt>
      <trkpt lat="45.53927" lon="4.48701">
        <ele>734.59997558594</ele>
        <time>2015-12-06T00:46:32.000Z</time>
      </trkpt>
      <trkpt lat="45.53946" lon="4.48709">
        <ele>736.40002441406</ele>
        <time>2015-12-06T00:46:40.000Z</time>
      </trkpt>
      <trkpt lat="45.53963" lon="4.4872">
        <ele>738</ele>
        <time>2015-12-06T00:46:48.000Z</time>
      </trkpt>
      <trkpt lat="45.53979" lon="4.48733">
        <ele>739.20001220703</ele>
        <time>2015-12-06T00:46:56.000Z</time>
      </trkpt>
      <trkpt lat="45.53995" lon="4.4875">
        <ele>740</ele>
        <time>2015-12-06T00:47:04.000Z</time>
      </trkpt>
      <trkpt lat="45.54009" lon="4.48768">
        <ele>740.79998779297</ele>
        <time>2015-12-06T00:47:12.000Z</time>
      </trkpt>
      <trkpt lat="45.54023" lon="4.48787">
        <ele>741.59997558594</ele>
        <time>2015-12-06T00:47:20.000Z</time>
      </trkpt>
      <trkpt lat="45.54037" lon="4.48805">
        <ele>742.40002441406</ele>
        <time>2015-12-06T00:47:28.000Z</time>
      </trkpt>
      <trkpt lat="45.54052" lon="4.4882">
        <ele>743.40002441406</ele>
        <time>2015-12-06T00:47:36.000Z</time>
      </trkpt>
      <trkpt lat="45.54068" lon="4.48832">
        <ele>745.59997558594</ele>
        <time>2015-12-06T00:47:45.000Z</time>
      </trkpt>
      <trkpt lat="45.54086" lon="4.48841">
        <ele>748</ele>
        <time>2015-12-06T00:47:54.000Z</time>
      </trkpt>
      <trkpt lat="45.54103" lon="4.48853">
        <ele>750.40002441406</ele>
        <time>2015-12-06T00:48:04.000Z</time>
      </trkpt>
      <trkpt lat="45.5412" lon="4.48864">
        <ele>753</ele>
        <time>2015-12-06T00:48:18.000Z</time>
      </trkpt>
      <trkpt lat="45.54137" lon="4.48877">
        <ele>754.79998779297</ele>
        <time>2015-12-06T00:48:32.000Z</time>
      </trkpt>
      <trkpt lat="45.5414" lon="4.48881">
        <ele>755</ele>
        <time>2015-12-06T00:48:35.000Z</time>
      </trkpt>
      <trkpt lat="45.54154" lon="4.48898">
        <ele>756</ele>
        <time>2015-12-06T00:48:48.000Z</time>
      </trkpt>
      <trkpt lat="45.54168" lon="4.48917">
        <ele>756.79998779297</ele>
        <time>2015-12-06T00:49:02.000Z</time>
      </trkpt>
      <trkpt lat="45.54173" lon="4.48924">
        <ele>757.20001220703</ele>
        <time>2015-12-06T00:49:07.000Z</time>
      </trkpt>
      <trkpt lat="45.54189" lon="4.48935">
        <ele>758.79998779297</ele>
        <time>2015-12-06T00:49:21.000Z</time>
      </trkpt>
      <trkpt lat="45.54206" lon="4.48929">
        <ele>761.79998779297</ele>
        <time>2015-12-06T00:49:38.000Z</time>
      </trkpt>
      <trkpt lat="45.54222" lon="4.48914">
        <ele>765</ele>
        <time>2015-12-06T00:49:54.000Z</time>
      </trkpt>
      <trkpt lat="45.54223" lon="4.48912">
        <ele>765.40002441406</ele>
        <time>2015-12-06T00:49:56.000Z</time>
      </trkpt>
      <trkpt lat="45.54226" lon="4.48908">
        <ele>766</ele>
        <time>2015-12-06T00:50:01.000Z</time>
      </trkpt>
      <trkpt lat="45.54239" lon="4.48888">
        <ele>768.79998779297</ele>
        <time>2015-12-06T00:50:16.000Z</time>
      </trkpt>
      <trkpt lat="45.54252" lon="4.48869">
        <ele>773</ele>
        <time>2015-12-06T00:50:31.000Z</time>
      </trkpt>
      <trkpt lat="45.54266" lon="4.48851">
        <ele>776.40002441406</ele>
        <time>2015-12-06T00:50:48.000Z</time>
      </trkpt>
      <trkpt lat="45.5428" lon="4.48834">
        <ele>779.59997558594</ele>
        <time>2015-12-06T00:51:03.000Z</time>
      </trkpt>
      <trkpt lat="45.54294" lon="4.48817">
        <ele>782.79998779297</ele>
        <time>2015-12-06T00:51:18.000Z</time>
      </trkpt>
      <trkpt lat="45.54298" lon="4.48812">
        <ele>783.79998779297</ele>
        <time>2015-12-06T00:51:23.000Z</time>
      </trkpt>
      <trkpt lat="45.54306" lon="4.48801">
        <ele>785.20001220703</ele>
        <time>2015-12-06T00:51:32.000Z</time>
      </trkpt>
      <trkpt lat="45.54321" lon="4.48787">
        <ele>788.20001220703</ele>
        <time>2015-12-06T00:51:47.000Z</time>
      </trkpt>
      <trkpt lat="45.5433" lon="4.48779">
        <ele>790.20001220703</ele>
        <time>2015-12-06T00:51:56.000Z</time>
      </trkpt>
      <trkpt lat="45.54339" lon="4.4879">
        <ele>790.20001220703</ele>
        <time>2015-12-06T00:52:06.000Z</time>
      </trkpt>
      <trkpt lat="45.54348" lon="4.48815">
        <ele>788</ele>
        <time>2015-12-06T00:52:16.000Z</time>
      </trkpt>
      <trkpt lat="45.54357" lon="4.48839">
        <ele>786.20001220703</ele>
        <time>2015-12-06T00:52:23.000Z</time>
      </trkpt>
      <trkpt lat="45.54366" lon="4.48864">
        <ele>785</ele>
        <time>2015-12-06T00:52:30.000Z</time>
      </trkpt>
      <trkpt lat="45.54378" lon="4.48883">
        <ele>783.40002441406</ele>
        <time>2015-12-06T00:52:37.000Z</time>
      </trkpt>
      <trkpt lat="45.54394" lon="4.48897">
        <ele>783.20001220703</ele>
        <time>2015-12-06T00:52:44.000Z</time>
      </trkpt>
      <trkpt lat="45.54409" lon="4.48913">
        <ele>782.79998779297</ele>
        <time>2015-12-06T00:52:51.000Z</time>
      </trkpt>
      <trkpt lat="45.54422" lon="4.4893">
        <ele>782.20001220703</ele>
        <time>2015-12-06T00:52:58.000Z</time>
      </trkpt>
      <trkpt lat="45.54435" lon="4.48952">
        <ele>780.79998779297</ele>
        <time>2015-12-06T00:53:05.000Z</time>
      </trkpt>
      <trkpt lat="45.54442" lon="4.48977">
        <ele>779</ele>
        <time>2015-12-06T00:53:12.000Z</time>
      </trkpt>
      <trkpt lat="45.54441" lon="4.49006">
        <ele>775.79998779297</ele>
        <time>2015-12-06T00:53:19.000Z</time>
      </trkpt>
      <trkpt lat="45.54439" lon="4.49034">
        <ele>773</ele>
        <time>2015-12-06T00:53:26.000Z</time>
      </trkpt>
      <trkpt lat="45.54438" lon="4.49061">
        <ele>770.40002441406</ele>
        <time>2015-12-06T00:53:33.000Z</time>
      </trkpt>
      <trkpt lat="45.54439" lon="4.49088">
        <ele>768.40002441406</ele>
        <time>2015-12-06T00:53:40.000Z</time>
      </trkpt>
      <trkpt lat="45.54442" lon="4.49114">
        <ele>766.79998779297</ele>
        <time>2015-12-06T00:53:47.000Z</time>
      </trkpt>
      <trkpt lat="45.54448" lon="4.49142">
        <ele>765</ele>
        <time>2015-12-06T00:53:55.000Z</time>
      </trkpt>
      <trkpt lat="45.54456" lon="4.49166">
        <ele>763.79998779297</ele>
        <time>2015-12-06T00:54:02.000Z</time>
      </trkpt>
      <trkpt lat="45.54466" lon="4.49187">
        <ele>763</ele>
        <time>2015-12-06T00:54:09.000Z</time>
      </trkpt>
      <trkpt lat="45.54477" lon="4.49212">
        <ele>762.40002441406</ele>
        <time>2015-12-06T00:54:17.000Z</time>
      </trkpt>
      <trkpt lat="45.54483" lon="4.49236">
        <ele>762.40002441406</ele>
        <time>2015-12-06T00:54:24.000Z</time>
      </trkpt>
      <trkpt lat="45.54484" lon="4.49264">
        <ele>762</ele>
        <time>2015-12-06T00:54:32.000Z</time>
      </trkpt>
      <trkpt lat="45.54484" lon="4.4929">
        <ele>761.79998779297</ele>
        <time>2015-12-06T00:54:39.000Z</time>
      </trkpt>
      <trkpt lat="45.54484" lon="4.49319">
        <ele>761.59997558594</ele>
        <time>2015-12-06T00:54:47.000Z</time>
      </trkpt>
      <trkpt lat="45.54484" lon="4.49347">
        <ele>761.20001220703</ele>
        <time>2015-12-06T00:54:55.000Z</time>
      </trkpt>
      <trkpt lat="45.54483" lon="4.49375">
        <ele>761</ele>
        <time>2015-12-06T00:55:03.000Z</time>
      </trkpt>
      <trkpt lat="45.54483" lon="4.49403">
        <ele>761</ele>
        <time>2015-12-06T00:55:11.000Z</time>
      </trkpt>
      <trkpt lat="45.54486" lon="4.4943">
        <ele>761.40002441406</ele>
        <time>2015-12-06T00:55:19.000Z</time>
      </trkpt>
      <trkpt lat="45.54487" lon="4.49458">
        <ele>761</ele>
        <time>2015-12-06T00:55:27.000Z</time>
      </trkpt>
      <trkpt lat="45.54483" lon="4.49483">
        <ele>760.20001220703</ele>
        <time>2015-12-06T00:55:34.000Z</time>
      </trkpt>
      <trkpt lat="45.54476" lon="4.49509">
        <ele>759.59997558594</ele>
        <time>2015-12-06T00:55:42.000Z</time>
      </trkpt>
      <trkpt lat="45.54467" lon="4.49532">
        <ele>759</ele>
        <time>2015-12-06T00:55:50.000Z</time>
      </trkpt>
      <trkpt lat="45.54456" lon="4.49555">
        <ele>759.59997558594</ele>
        <time>2015-12-06T00:55:59.000Z</time>
      </trkpt>
      <trkpt lat="45.54445" lon="4.49577">
        <ele>760</ele>
        <time>2015-12-06T00:56:09.000Z</time>
      </trkpt>
      <trkpt lat="45.54435" lon="4.49602">
        <ele>761.59997558594</ele>
        <time>2015-12-06T00:56:19.000Z</time>
      </trkpt>
      <trkpt lat="45.54427" lon="4.49626">
        <ele>763.59997558594</ele>
        <time>2015-12-06T00:56:28.000Z</time>
      </trkpt>
      <trkpt lat="45.54419" lon="4.49651">
        <ele>765.79998779297</ele>
        <time>2015-12-06T00:56:37.000Z</time>
      </trkpt>
      <trkpt lat="45.54413" lon="4.49676">
        <ele>766.79998779297</ele>
        <time>2015-12-06T00:56:49.000Z</time>
      </trkpt>
      <trkpt lat="45.54408" lon="4.497">
        <ele>767.79998779297</ele>
        <time>2015-12-06T00:57:02.000Z</time>
      </trkpt>
      <trkpt lat="45.54401" lon="4.49724">
        <ele>769.79998779297</ele>
        <time>2015-12-06T00:57:11.000Z</time>
      </trkpt>
      <trkpt lat="45.54402" lon="4.49749">
        <ele>770.59997558594</ele>
        <time>2015-12-06T00:57:18.000Z</time>
      </trkpt>
      <trkpt lat="45.54412" lon="4.49774">
        <ele>772</ele>
        <time>2015-12-06T00:57:26.000Z</time>
      </trkpt>
      <trkpt lat="45.54421" lon="4.49797">
        <ele>774</ele>
        <time>2015-12-06T00:57:34.000Z</time>
      </trkpt>
      <trkpt lat="45.54429" lon="4.49823">
        <ele>776.40002441406</ele>
        <time>2015-12-06T00:57:43.000Z</time>
      </trkpt>
      <trkpt lat="45.54438" lon="4.49847">
        <ele>778</ele>
        <time>2015-12-06T00:57:52.000Z</time>
      </trkpt>
      <trkpt lat="45.54446" lon="4.49873">
        <ele>779.20001220703</ele>
        <time>2015-12-06T00:58:01.000Z</time>
      </trkpt>
      <trkpt lat="45.54453" lon="4.49897">
        <ele>781</ele>
        <time>2015-12-06T00:58:14.000Z</time>
      </trkpt>
      <trkpt lat="45.5446" lon="4.4992">
        <ele>782.79998779297</ele>
        <time>2015-12-06T00:58:27.000Z</time>
      </trkpt>
      <trkpt lat="45.54462" lon="4.49939">
        <ele>783.79998779297</ele>
        <time>2015-12-06T00:58:41.000Z</time>
      </trkpt>
      <trkpt lat="45.54469" lon="4.49964">
        <ele>785</ele>
        <time>2015-12-06T00:58:53.000Z</time>
      </trkpt>
      <trkpt lat="45.54478" lon="4.49988">
        <ele>786.20001220703</ele>
        <time>2015-12-06T00:59:05.000Z</time>
      </trkpt>
      <trkpt lat="45.54483" lon="4.50004">
        <ele>786.79998779297</ele>
        <time>2015-12-06T00:59:13.000Z</time>
      </trkpt>
      <trkpt lat="45.54489" lon="4.50028">
        <ele>787.20001220703</ele>
        <time>2015-12-06T00:59:24.000Z</time>
      </trkpt>
      <trkpt lat="45.54497" lon="4.50051">
        <ele>788.79998779297</ele>
        <time>2015-12-06T00:59:47.000Z</time>
      </trkpt>
      <trkpt lat="45.54504" lon="4.50075">
        <ele>789.79998779297</ele>
        <time>2015-12-06T00:59:59.000Z</time>
      </trkpt>
      <trkpt lat="45.54509" lon="4.50093">
        <ele>790</ele>
        <time>2015-12-06T01:00:09.000Z</time>
      </trkpt>
      <trkpt lat="45.54514" lon="4.50111">
        <ele>790</ele>
        <time>2015-12-06T01:00:19.000Z</time>
      </trkpt>
      <trkpt lat="45.54516" lon="4.50121">
        <ele>789.59997558594</ele>
        <time>2015-12-06T01:00:24.000Z</time>
      </trkpt>
      <trkpt lat="45.54517" lon="4.50146">
        <ele>786.79998779297</ele>
        <time>2015-12-06T01:00:36.000Z</time>
      </trkpt>
      <trkpt lat="45.54518" lon="4.50154">
        <ele>786.40002441406</ele>
        <time>2015-12-06T01:00:40.000Z</time>
      </trkpt>
      <trkpt lat="45.5452" lon="4.5016">
        <ele>786.40002441406</ele>
        <time>2015-12-06T01:00:43.000Z</time>
      </trkpt>
      <trkpt lat="45.54523" lon="4.50172">
        <ele>785.59997558594</ele>
        <time>2015-12-06T01:00:49.000Z</time>
      </trkpt>
      <trkpt lat="45.54532" lon="4.50196">
        <ele>785.59997558594</ele>
        <time>2015-12-06T01:01:01.000Z</time>
      </trkpt>
      <trkpt lat="45.54541" lon="4.5022">
        <ele>785.40002441406</ele>
        <time>2015-12-06T01:01:13.000Z</time>
      </trkpt>
      <trkpt lat="45.54551" lon="4.50242">
        <ele>785.79998779297</ele>
        <time>2015-12-06T01:01:26.000Z</time>
      </trkpt>
      <trkpt lat="45.54558" lon="4.5026">
        <ele>785.79998779297</ele>
        <time>2015-12-06T01:01:36.000Z</time>
      </trkpt>
      <trkpt lat="45.54561" lon="4.50268">
        <ele>785.40002441406</ele>
        <time>2015-12-06T01:01:40.000Z</time>
      </trkpt>
      <trkpt lat="45.5457" lon="4.50283">
        <ele>786</ele>
        <time>2015-12-06T01:01:49.000Z</time>
      </trkpt>
      <trkpt lat="45.5458" lon="4.50305">
        <ele>786.59997558594</ele>
        <time>2015-12-06T01:02:02.000Z</time>
      </trkpt>
      <trkpt lat="45.54584" lon="4.50314">
        <ele>786.79998779297</ele>
        <time>2015-12-06T01:02:07.000Z</time>
      </trkpt>
      <trkpt lat="45.54593" lon="4.50339">
        <ele>786.40002441406</ele>
        <time>2015-12-06T01:02:17.000Z</time>
      </trkpt>
      <trkpt lat="45.546" lon="4.50366">
        <ele>785.20001220703</ele>
        <time>2015-12-06T01:02:26.000Z</time>
      </trkpt>
      <trkpt lat="45.54606" lon="4.50391">
        <ele>784.20001220703</ele>
        <time>2015-12-06T01:02:35.000Z</time>
      </trkpt>
      <trkpt lat="45.54613" lon="4.50417">
        <ele>782.79998779297</ele>
        <time>2015-12-06T01:02:45.000Z</time>
      </trkpt>
      <trkpt lat="45.54613" lon="4.50421">
        <ele>782.40002441406</ele>
        <time>2015-12-06T01:02:47.000Z</time>
      </trkpt>
      <trkpt lat="45.54619" lon="4.50439">
        <ele>782.20001220703</ele>
        <time>2015-12-06T01:03:16.000Z</time>
      </trkpt>
      <trkpt lat="45.54633" lon="4.50456">
        <ele>783.40002441406</ele>
        <time>2015-12-06T01:03:32.000Z</time>
      </trkpt>
      <trkpt lat="45.54652" lon="4.50464">
        <ele>783.20001220703</ele>
        <time>2015-12-06T01:03:41.000Z</time>
      </trkpt>
      <trkpt lat="45.54672" lon="4.50461">
        <ele>785</ele>
        <time>2015-12-06T01:03:51.000Z</time>
      </trkpt>
      <trkpt lat="45.54691" lon="4.50459">
        <ele>786.59997558594</ele>
        <time>2015-12-06T01:04:00.000Z</time>
      </trkpt>
      <trkpt lat="45.5471" lon="4.50459">
        <ele>787.79998779297</ele>
        <time>2015-12-06T01:04:09.000Z</time>
      </trkpt>
      <trkpt lat="45.54729" lon="4.50464">
        <ele>787.20001220703</ele>
        <time>2015-12-06T01:04:18.000Z</time>
      </trkpt>
      <trkpt lat="45.54746" lon="4.50472">
        <ele>786.20001220703</ele>
        <time>2015-12-06T01:04:26.000Z</time>
      </trkpt>
      <trkpt lat="45.54765" lon="4.50474">
        <ele>785.79998779297</ele>
        <time>2015-12-06T01:04:34.000Z</time>
      </trkpt>
      <trkpt lat="45.54784" lon="4.50478">
        <ele>785</ele>
        <time>2015-12-06T01:04:46.000Z</time>
      </trkpt>
      <trkpt lat="45.54791" lon="4.5048">
        <ele>784.59997558594</ele>
        <time>2015-12-06T01:04:50.000Z</time>
      </trkpt>
      <trkpt lat="45.54798" lon="4.5048">
        <ele>784.79998779297</ele>
        <time>2015-12-06T01:04:54.000Z</time>
      </trkpt>
      <trkpt lat="45.54819" lon="4.5048">
        <ele>787.59997558594</ele>
        <time>2015-12-06T01:05:01.000Z</time>
      </trkpt>
      <trkpt lat="45.54835" lon="4.50492">
        <ele>788.20001220703</ele>
        <time>2015-12-06T01:05:08.000Z</time>
      </trkpt>
      <trkpt lat="45.54843" lon="4.50502">
        <ele>787.79998779297</ele>
        <time>2015-12-06T01:05:15.000Z</time>
      </trkpt>
      <trkpt lat="45.54857" lon="4.5052">
        <ele>787</ele>
        <time>2015-12-06T01:05:27.000Z</time>
      </trkpt>
      <trkpt lat="45.54867" lon="4.50543">
        <ele>785.20001220703</ele>
        <time>2015-12-06T01:05:35.000Z</time>
      </trkpt>
      <trkpt lat="45.54871" lon="4.50548">
        <ele>785.20001220703</ele>
        <time>2015-12-06T01:05:37.000Z</time>
      </trkpt>
      <trkpt lat="45.54875" lon="4.50555">
        <ele>785</ele>
        <time>2015-12-06T01:05:40.000Z</time>
      </trkpt>
      <trkpt lat="45.54882" lon="4.50565">
        <ele>785.20001220703</ele>
        <time>2015-12-06T01:05:44.000Z</time>
      </trkpt>
      <trkpt lat="45.54892" lon="4.50587">
        <ele>784</ele>
        <time>2015-12-06T01:05:51.000Z</time>
      </trkpt>
      <trkpt lat="45.54902" lon="4.50609">
        <ele>783</ele>
        <time>2015-12-06T01:05:58.000Z</time>
      </trkpt>
      <trkpt lat="45.54914" lon="4.50629">
        <ele>780.20001220703</ele>
        <time>2015-12-06T01:06:06.000Z</time>
      </trkpt>
      <trkpt lat="45.54933" lon="4.50635">
        <ele>780.59997558594</ele>
        <time>2015-12-06T01:06:16.000Z</time>
      </trkpt>
      <trkpt lat="45.54952" lon="4.50636">
        <ele>782.79998779297</ele>
        <time>2015-12-06T01:06:25.000Z</time>
      </trkpt>
      <trkpt lat="45.5497" lon="4.50633">
        <ele>785.59997558594</ele>
        <time>2015-12-06T01:06:33.000Z</time>
      </trkpt>
      <trkpt lat="45.54982" lon="4.50635">
        <ele>784.79998779297</ele>
        <time>2015-12-06T01:06:39.000Z</time>
      </trkpt>
      <trkpt lat="45.54995" lon="4.50633">
        <ele>784.20001220703</ele>
        <time>2015-12-06T01:06:44.000Z</time>
      </trkpt>
      <trkpt lat="45.55013" lon="4.50631">
        <ele>782.79998779297</ele>
        <time>2015-12-06T01:06:50.000Z</time>
      </trkpt>
      <trkpt lat="45.55033" lon="4.50635">
        <ele>780.20001220703</ele>
        <time>2015-12-06T01:06:57.000Z</time>
      </trkpt>
      <trkpt lat="45.55052" lon="4.50645">
        <ele>776.59997558594</ele>
        <time>2015-12-06T01:07:04.000Z</time>
      </trkpt>
      <trkpt lat="45.55068" lon="4.50657">
        <ele>775.20001220703</ele>
        <time>2015-12-06T01:07:11.000Z</time>
      </trkpt>
      <trkpt lat="45.55084" lon="4.50671">
        <ele>773.20001220703</ele>
        <time>2015-12-06T01:07:18.000Z</time>
      </trkpt>
      <trkpt lat="45.551" lon="4.50688">
        <ele>770.79998779297</ele>
        <time>2015-12-06T01:07:25.000Z</time>
      </trkpt>
      <trkpt lat="45.55119" lon="4.50693">
        <ele>770.59997558594</ele>
        <time>2015-12-06T01:07:33.000Z</time>
      </trkpt>
      <trkpt lat="45.55138" lon="4.50692">
        <ele>770.40002441406</ele>
        <time>2015-12-06T01:07:43.000Z</time>
      </trkpt>
      <trkpt lat="45.5515" lon="4.50694">
        <ele>768.59997558594</ele>
        <time>2015-12-06T01:07:49.000Z</time>
      </trkpt>
      <trkpt lat="45.55169" lon="4.50694">
        <ele>766</ele>
        <time>2015-12-06T01:07:58.000Z</time>
      </trkpt>
      <trkpt lat="45.55181" lon="4.50691">
        <ele>764.79998779297</ele>
        <time>2015-12-06T01:08:05.000Z</time>
      </trkpt>
      <trkpt lat="45.55181" lon="4.50686">
        <ele>765.40002441406</ele>
        <time>2015-12-06T01:08:09.000Z</time>
      </trkpt>
      <trkpt lat="45.55181" lon="4.50679">
        <ele>766.20001220703</ele>
        <time>2015-12-06T01:08:14.000Z</time>
      </trkpt>
      <trkpt lat="45.55179" lon="4.50676">
        <ele>766.79998779297</ele>
        <time>2015-12-06T01:08:17.000Z</time>
      </trkpt>
      <trkpt lat="45.5517" lon="4.50668">
        <ele>768.79998779297</ele>
        <time>2015-12-06T01:08:26.000Z</time>
      </trkpt>
      <trkpt lat="45.55162" lon="4.50658">
        <ele>771</ele>
        <time>2015-12-06T01:08:34.000Z</time>
      </trkpt>
      <trkpt lat="45.55155" lon="4.50653">
        <ele>772.40002441406</ele>
        <time>2015-12-06T01:08:41.000Z</time>
      </trkpt>
      <trkpt lat="45.55146" lon="4.50635">
        <ele>775.59997558594</ele>
        <time>2015-12-06T01:08:54.000Z</time>
      </trkpt>
      <trkpt lat="45.55144" lon="4.50609">
        <ele>779</ele>
        <time>2015-12-06T01:09:09.000Z</time>
      </trkpt>
      <trkpt lat="45.55144" lon="4.50607">
        <ele>779.40002441406</ele>
        <time>2015-12-06T01:09:10.000Z</time>
      </trkpt>
      <trkpt lat="45.55144" lon="4.50598">
        <ele>781.20001220703</ele>
        <time>2015-12-06T01:09:15.000Z</time>
      </trkpt>
      <trkpt lat="45.5515" lon="4.50572">
        <ele>785.79998779297</ele>
        <time>2015-12-06T01:09:30.000Z</time>
      </trkpt>
      <trkpt lat="45.55158" lon="4.50549">
        <ele>788.59997558594</ele>
        <time>2015-12-06T01:09:45.000Z</time>
      </trkpt>
      <trkpt lat="45.55165" lon="4.50534">
        <ele>788.40002441406</ele>
        <time>2015-12-06T01:09:55.000Z</time>
      </trkpt>
      <trkpt lat="45.55168" lon="4.50528">
        <ele>788.59997558594</ele>
        <time>2015-12-06T01:10:00.000Z</time>
      </trkpt>
      <trkpt lat="45.55168" lon="4.50522">
        <ele>789.20001220703</ele>
        <time>2015-12-06T01:10:04.000Z</time>
      </trkpt>
      <trkpt lat="45.55177" lon="4.50499">
        <ele>790.59997558594</ele>
        <time>2015-12-06T01:10:19.000Z</time>
      </trkpt>
      <trkpt lat="45.55187" lon="4.50477">
        <ele>791.40002441406</ele>
        <time>2015-12-06T01:10:35.000Z</time>
      </trkpt>
      <trkpt lat="45.55195" lon="4.50453">
        <ele>792.79998779297</ele>
        <time>2015-12-06T01:10:50.000Z</time>
      </trkpt>
      <trkpt lat="45.55198" lon="4.50427">
        <ele>794.59997558594</ele>
        <time>2015-12-06T01:11:04.000Z</time>
      </trkpt>
      <trkpt lat="45.55202" lon="4.504">
        <ele>798.59997558594</ele>
        <time>2015-12-06T01:11:18.000Z</time>
      </trkpt>
      <trkpt lat="45.5521" lon="4.50377">
        <ele>801.40002441406</ele>
        <time>2015-12-06T01:11:31.000Z</time>
      </trkpt>
      <trkpt lat="45.55218" lon="4.50353">
        <ele>803.40002441406</ele>
        <time>2015-12-06T01:11:46.000Z</time>
      </trkpt>
      <trkpt lat="45.55225" lon="4.50329">
        <ele>803.40002441406</ele>
        <time>2015-12-06T01:12:00.000Z</time>
      </trkpt>
      <trkpt lat="45.55233" lon="4.50307">
        <ele>802.59997558594</ele>
        <time>2015-12-06T01:12:14.000Z</time>
      </trkpt>
      <trkpt lat="45.55242" lon="4.50282">
        <ele>803.59997558594</ele>
        <time>2015-12-06T01:12:27.000Z</time>
      </trkpt>
      <trkpt lat="45.55248" lon="4.50257">
        <ele>802.79998779297</ele>
        <time>2015-12-06T01:12:41.000Z</time>
      </trkpt>
      <trkpt lat="45.55246" lon="4.50231">
        <ele>804.20001220703</ele>
        <time>2015-12-06T01:12:56.000Z</time>
      </trkpt>
      <trkpt lat="45.55246" lon="4.50221">
        <ele>805.59997558594</ele>
        <time>2015-12-06T01:13:01.000Z</time>
      </trkpt>
      <trkpt lat="45.5524" lon="4.50196">
        <ele>810.20001220703</ele>
        <time>2015-12-06T01:13:12.000Z</time>
      </trkpt>
      <trkpt lat="45.55237" lon="4.50168">
        <ele>811.79998779297</ele>
        <time>2015-12-06T01:13:21.000Z</time>
      </trkpt>
      <trkpt lat="45.55233" lon="4.50141">
        <ele>813.59997558594</ele>
        <time>2015-12-06T01:13:30.000Z</time>
      </trkpt>
      <trkpt lat="45.55233" lon="4.50114">
        <ele>816.59997558594</ele>
        <time>2015-12-06T01:13:39.000Z</time>
      </trkpt>
      <trkpt lat="45.55246" lon="4.50095">
        <ele>816.79998779297</ele>
        <time>2015-12-06T01:13:47.000Z</time>
      </trkpt>
      <trkpt lat="45.55262" lon="4.50078">
        <ele>816.79998779297</ele>
        <time>2015-12-06T01:13:56.000Z</time>
      </trkpt>
      <trkpt lat="45.55276" lon="4.50064">
        <ele>819.59997558594</ele>
        <time>2015-12-06T01:14:05.000Z</time>
      </trkpt>
      <trkpt lat="45.55291" lon="4.50046">
        <ele>822.79998779297</ele>
        <time>2015-12-06T01:14:15.000Z</time>
      </trkpt>
      <trkpt lat="45.55303" lon="4.50024">
        <ele>825.40002441406</ele>
        <time>2015-12-06T01:14:25.000Z</time>
      </trkpt>
      <trkpt lat="45.55313" lon="4.50001">
        <ele>825.79998779297</ele>
        <time>2015-12-06T01:14:36.000Z</time>
      </trkpt>
      <trkpt lat="45.55321" lon="4.49977">
        <ele>826.40002441406</ele>
        <time>2015-12-06T01:14:50.000Z</time>
      </trkpt>
      <trkpt lat="45.55329" lon="4.49952">
        <ele>830</ele>
        <time>2015-12-06T01:15:04.000Z</time>
      </trkpt>
      <trkpt lat="45.55343" lon="4.49934">
        <ele>830</ele>
        <time>2015-12-06T01:15:12.000Z</time>
      </trkpt>
      <trkpt lat="45.55356" lon="4.49918">
        <ele>830</ele>
        <time>2015-12-06T01:15:20.000Z</time>
      </trkpt>
      <trkpt lat="45.55361" lon="4.49928">
        <ele>829.59997558594</ele>
        <time>2015-12-06T01:15:24.000Z</time>
      </trkpt>
      <trkpt lat="45.55373" lon="4.49948">
        <ele>829.20001220703</ele>
        <time>2015-12-06T01:15:31.000Z</time>
      </trkpt>
      <trkpt lat="45.55392" lon="4.49957">
        <ele>827</ele>
        <time>2015-12-06T01:15:38.000Z</time>
      </trkpt>
      <trkpt lat="45.5541" lon="4.49961">
        <ele>825.59997558594</ele>
        <time>2015-12-06T01:15:45.000Z</time>
      </trkpt>
      <trkpt lat="45.55429" lon="4.49968">
        <ele>823.79998779297</ele>
        <time>2015-12-06T01:15:52.000Z</time>
      </trkpt>
      <trkpt lat="45.55446" lon="4.49975">
        <ele>821.59997558594</ele>
        <time>2015-12-06T01:15:59.000Z</time>
      </trkpt>
      <trkpt lat="45.55464" lon="4.49978">
        <ele>820.59997558594</ele>
        <time>2015-12-06T01:16:05.000Z</time>
      </trkpt>
      <trkpt lat="45.55485" lon="4.4998">
        <ele>819.40002441406</ele>
        <time>2015-12-06T01:16:13.000Z</time>
      </trkpt>
      <trkpt lat="45.55503" lon="4.49982">
        <ele>818.40002441406</ele>
        <time>2015-12-06T01:16:20.000Z</time>
      </trkpt>
      <trkpt lat="45.55525" lon="4.49981">
        <ele>820</ele>
        <time>2015-12-06T01:16:27.000Z</time>
      </trkpt>
      <trkpt lat="45.55545" lon="4.49985">
        <ele>819.40002441406</ele>
        <time>2015-12-06T01:16:34.000Z</time>
      </trkpt>
      <trkpt lat="45.55566" lon="4.49996">
        <ele>818.40002441406</ele>
        <time>2015-12-06T01:16:40.000Z</time>
      </trkpt>
      <trkpt lat="45.55587" lon="4.50006">
        <ele>818.20001220703</ele>
        <time>2015-12-06T01:16:46.000Z</time>
      </trkpt>
      <trkpt lat="45.55603" lon="4.50021">
        <ele>815.20001220703</ele>
        <time>2015-12-06T01:16:52.000Z</time>
      </trkpt>
      <trkpt lat="45.55622" lon="4.50031">
        <ele>815</ele>
        <time>2015-12-06T01:17:00.000Z</time>
      </trkpt>
      <trkpt lat="45.5564" lon="4.50039">
        <ele>815</ele>
        <time>2015-12-06T01:17:07.000Z</time>
      </trkpt>
      <trkpt lat="45.55659" lon="4.50047">
        <ele>814.59997558594</ele>
        <time>2015-12-06T01:17:15.000Z</time>
      </trkpt>
      <trkpt lat="45.55677" lon="4.50055">
        <ele>814.40002441406</ele>
        <time>2015-12-06T01:17:24.000Z</time>
      </trkpt>
      <trkpt lat="45.55695" lon="4.5006">
        <ele>815.20001220703</ele>
        <time>2015-12-06T01:17:34.000Z</time>
      </trkpt>
      <trkpt lat="45.55714" lon="4.50059">
        <ele>818.20001220703</ele>
        <time>2015-12-06T01:17:44.000Z</time>
      </trkpt>
      <trkpt lat="45.55733" lon="4.50057">
        <ele>820.79998779297</ele>
        <time>2015-12-06T01:17:53.000Z</time>
      </trkpt>
      <trkpt lat="45.55752" lon="4.50059">
        <ele>821.20001220703</ele>
        <time>2015-12-06T01:18:02.000Z</time>
      </trkpt>
      <trkpt lat="45.55772" lon="4.50054">
        <ele>824.20001220703</ele>
        <time>2015-12-06T01:18:11.000Z</time>
      </trkpt>
      <trkpt lat="45.55791" lon="4.5005">
        <ele>826.79998779297</ele>
        <time>2015-12-06T01:18:20.000Z</time>
      </trkpt>
      <trkpt lat="45.5581" lon="4.50048">
        <ele>829.40002441406</ele>
        <time>2015-12-06T01:18:29.000Z</time>
      </trkpt>
      <trkpt lat="45.55828" lon="4.50054">
        <ele>829</ele>
        <time>2015-12-06T01:18:38.000Z</time>
      </trkpt>
      <trkpt lat="45.55829" lon="4.50056">
        <ele>828.59997558594</ele>
        <time>2015-12-06T01:18:39.000Z</time>
      </trkpt>
      <trkpt lat="45.55843" lon="4.50075">
        <ele>824.59997558594</ele>
        <time>2015-12-06T01:18:48.000Z</time>
      </trkpt>
      <trkpt lat="45.5586" lon="4.5009">
        <ele>821.59997558594</ele>
        <time>2015-12-06T01:18:56.000Z</time>
      </trkpt>
      <trkpt lat="45.55878" lon="4.50104">
        <ele>818.79998779297</ele>
        <time>2015-12-06T01:19:04.000Z</time>
      </trkpt>
      <trkpt lat="45.55897" lon="4.5011">
        <ele>814.79998779297</ele>
        <time>2015-12-06T01:19:12.000Z</time>
      </trkpt>
      <trkpt lat="45.55915" lon="4.50104">
        <ele>811.59997558594</ele>
        <time>2015-12-06T01:19:20.000Z</time>
      </trkpt>
      <trkpt lat="45.55932" lon="4.50096">
        <ele>809.59997558594</ele>
        <time>2015-12-06T01:19:32.000Z</time>
      </trkpt>
      <trkpt lat="45.55949" lon="4.50083">
        <ele>808.79998779297</ele>
        <time>2015-12-06T01:19:47.000Z</time>
      </trkpt>
      <trkpt lat="45.55959" lon="4.50071">
        <ele>809.20001220703</ele>
        <time>2015-12-06T01:19:55.000Z</time>
      </trkpt>
      <trkpt lat="45.55976" lon="4.50063">
        <ele>805.79998779297</ele>
        <time>2015-12-06T01:20:04.000Z</time>
      </trkpt>
      <trkpt lat="45.55993" lon="4.50049">
        <ele>803.59997558594</ele>
        <time>2015-12-06T01:20:12.000Z</time>
      </trkpt>
      <trkpt lat="45.56012" lon="4.50041">
        <ele>799.40002441406</ele>
        <time>2015-12-06T01:20:20.000Z</time>
      </trkpt>
      <trkpt lat="45.56031" lon="4.50032">
        <ele>795.79998779297</ele>
        <time>2015-12-06T01:20:28.000Z</time>
      </trkpt>
      <trkpt lat="45.56045" lon="4.50017">
        <ele>795.40002441406</ele>
        <time>2015-12-06T01:20:37.000Z</time>
      </trkpt>
      <trkpt lat="45.56055" lon="4.50009">
        <ele>794.59997558594</ele>
        <time>2015-12-06T01:20:46.000Z</time>
      </trkpt>
      <trkpt lat="45.56065" lon="4.49997">
        <ele>794</ele>
        <time>2015-12-06T01:20:58.000Z</time>
      </trkpt>
      <trkpt lat="45.56081" lon="4.49979">
        <ele>793.40002441406</ele>
        <time>2015-12-06T01:21:07.000Z</time>
      </trkpt>
      <trkpt lat="45.56091" lon="4.49972">
        <ele>790.79998779297</ele>
        <time>2015-12-06T01:21:14.000Z</time>
      </trkpt>
      <trkpt lat="45.56109" lon="4.49963">
        <ele>785.59997558594</ele>
        <time>2015-12-06T01:21:21.000Z</time>
      </trkpt>
      <trkpt lat="45.56128" lon="4.49956">
        <ele>779.40002441406</ele>
        <time>2015-12-06T01:21:31.000Z</time>
      </trkpt>
      <trkpt lat="45.56145" lon="4.4995">
        <ele>776.59997558594</ele>
        <time>2015-12-06T01:21:42.000Z</time>
      </trkpt>
      <trkpt lat="45.56164" lon="4.49943">
        <ele>776.20001220703</ele>
        <time>2015-12-06T01:21:52.000Z</time>
      </trkpt>
      <trkpt lat="45.56183" lon="4.49931">
        <ele>777.20001220703</ele>
        <time>2015-12-06T01:22:01.000Z</time>
      </trkpt>
      <trkpt lat="45.56202" lon="4.49924">
        <ele>777.40002441406</ele>
        <time>2015-12-06T01:22:09.000Z</time>
      </trkpt>
      <trkpt lat="45.56205" lon="4.49923">
        <ele>777.20001220703</ele>
        <time>2015-12-06T01:22:11.000Z</time>
      </trkpt>
      <trkpt lat="45.56208" lon="4.49925">
        <ele>776.40002441406</ele>
        <time>2015-12-06T01:22:15.000Z</time>
      </trkpt>
      <trkpt lat="45.56228" lon="4.49929">
        <ele>777</ele>
        <time>2015-12-06T01:22:32.000Z</time>
      </trkpt>
      <trkpt lat="45.56237" lon="4.49931">
        <ele>778.59997558594</ele>
        <time>2015-12-06T01:22:39.000Z</time>
      </trkpt>
      <trkpt lat="45.56256" lon="4.4994">
        <ele>780.20001220703</ele>
        <time>2015-12-06T01:22:52.000Z</time>
      </trkpt>
      <trkpt lat="45.56274" lon="4.49945">
        <ele>783</ele>
        <time>2015-12-06T01:23:01.000Z</time>
      </trkpt>
      <trkpt lat="45.56292" lon="4.49955">
        <ele>784.20001220703</ele>
        <time>2015-12-06T01:23:09.000Z</time>
      </trkpt>
      <trkpt lat="45.56295" lon="4.49956">
        <ele>784.20001220703</ele>
        <time>2015-12-06T01:23:10.000Z</time>
      </trkpt>
      <trkpt lat="45.56312" lon="4.4997">
        <ele>784.79998779297</ele>
        <time>2015-12-06T01:23:18.000Z</time>
      </trkpt>
      <trkpt lat="45.56327" lon="4.49983">
        <ele>785.20001220703</ele>
        <time>2015-12-06T01:23:26.000Z</time>
      </trkpt>
      <trkpt lat="45.56343" lon="4.49998">
        <ele>785.20001220703</ele>
        <time>2015-12-06T01:23:35.000Z</time>
      </trkpt>
      <trkpt lat="45.56359" lon="4.5001">
        <ele>786.40002441406</ele>
        <time>2015-12-06T01:23:46.000Z</time>
      </trkpt>
      <trkpt lat="45.56376" lon="4.50024">
        <ele>787.40002441406</ele>
        <time>2015-12-06T01:24:00.000Z</time>
      </trkpt>
      <trkpt lat="45.56387" lon="4.50034">
        <ele>787.40002441406</ele>
        <time>2015-12-06T01:24:09.000Z</time>
      </trkpt>
      <trkpt lat="45.56402" lon="4.50049">
        <ele>787</ele>
        <time>2015-12-06T01:24:22.000Z</time>
      </trkpt>
      <trkpt lat="45.56416" lon="4.50066">
        <ele>785.79998779297</ele>
        <time>2015-12-06T01:24:36.000Z</time>
      </trkpt>
      <trkpt lat="45.56423" lon="4.50073">
        <ele>785.79998779297</ele>
        <time>2015-12-06T01:24:42.000Z</time>
      </trkpt>
      <trkpt lat="45.56438" lon="4.50076">
        <ele>788.40002441406</ele>
        <time>2015-12-06T01:24:53.000Z</time>
      </trkpt>
      <trkpt lat="45.56457" lon="4.50074">
        <ele>793</ele>
        <time>2015-12-06T01:25:08.000Z</time>
      </trkpt>
      <trkpt lat="45.56466" lon="4.50071">
        <ele>795.59997558594</ele>
        <time>2015-12-06T01:25:17.000Z</time>
      </trkpt>
      <trkpt lat="45.56471" lon="4.5007">
        <ele>796.79998779297</ele>
        <time>2015-12-06T01:25:22.000Z</time>
      </trkpt>
      <trkpt lat="45.5649" lon="4.50072">
        <ele>800</ele>
        <time>2015-12-06T01:25:38.000Z</time>
      </trkpt>
      <trkpt lat="45.56498" lon="4.50075">
        <ele>800.79998779297</ele>
        <time>2015-12-06T01:25:44.000Z</time>
      </trkpt>
      <trkpt lat="45.56503" lon="4.50077">
        <ele>801.20001220703</ele>
        <time>2015-12-06T01:25:49.000Z</time>
      </trkpt>
      <trkpt lat="45.56516" lon="4.50082">
        <ele>802.59997558594</ele>
        <time>2015-12-06T01:25:59.000Z</time>
      </trkpt>
      <trkpt lat="45.5653" lon="4.50087">
        <ele>803.59997558594</ele>
        <time>2015-12-06T01:26:11.000Z</time>
      </trkpt>
      <trkpt lat="45.56536" lon="4.50088">
        <ele>804.20001220703</ele>
        <time>2015-12-06T01:26:16.000Z</time>
      </trkpt>
      <trkpt lat="45.56554" lon="4.50091">
        <ele>806.40002441406</ele>
        <time>2015-12-06T01:26:31.000Z</time>
      </trkpt>
      <trkpt lat="45.56559" lon="4.50092">
        <ele>807.20001220703</ele>
        <time>2015-12-06T01:26:36.000Z</time>
      </trkpt>
      <trkpt lat="45.56563" lon="4.50094">
        <ele>807.59997558594</ele>
        <time>2015-12-06T01:26:40.000Z</time>
      </trkpt>
      <trkpt lat="45.56581" lon="4.501">
        <ele>809.59997558594</ele>
        <time>2015-12-06T01:26:56.000Z</time>
      </trkpt>
      <trkpt lat="45.566" lon="4.50107">
        <ele>811.59997558594</ele>
        <time>2015-12-06T01:27:12.000Z</time>
      </trkpt>
      <trkpt lat="45.56618" lon="4.50108">
        <ele>814.79998779297</ele>
        <time>2015-12-06T01:27:27.000Z</time>
      </trkpt>
      <trkpt lat="45.56637" lon="4.50108">
        <ele>817</ele>
        <time>2015-12-06T01:27:43.000Z</time>
      </trkpt>
      <trkpt lat="45.56655" lon="4.50109">
        <ele>819.20001220703</ele>
        <time>2015-12-06T01:27:59.000Z</time>
      </trkpt>
      <trkpt lat="45.5666" lon="4.50109">
        <ele>819.79998779297</ele>
        <time>2015-12-06T01:28:03.000Z</time>
      </trkpt>
      <trkpt lat="45.56678" lon="4.50109">
        <ele>821.79998779297</ele>
        <time>2015-12-06T01:28:19.000Z</time>
      </trkpt>
      <trkpt lat="45.56696" lon="4.50105">
        <ele>824.40002441406</ele>
        <time>2015-12-06T01:28:37.000Z</time>
      </trkpt>
      <trkpt lat="45.56714" lon="4.50096">
        <ele>825.59997558594</ele>
        <time>2015-12-06T01:28:52.000Z</time>
      </trkpt>
      <trkpt lat="45.56731" lon="4.50084">
        <ele>825.20001220703</ele>
        <time>2015-12-06T01:29:05.000Z</time>
      </trkpt>
      <trkpt lat="45.56748" lon="4.50073">
        <ele>824.40002441406</ele>
        <time>2015-12-06T01:29:18.000Z</time>
      </trkpt>
      <trkpt lat="45.56765" lon="4.50065">
        <ele>822.79998779297</ele>
        <time>2015-12-06T01:29:31.000Z</time>
      </trkpt>
      <trkpt lat="45.56769" lon="4.50068">
        <ele>822.59997558594</ele>
        <time>2015-12-06T01:29:35.000Z</time>
      </trkpt>
      <trkpt lat="45.56772" lon="4.50072">
        <ele>822.59997558594</ele>
        <time>2015-12-06T01:29:39.000Z</time>
      </trkpt>
      <trkpt lat="45.56787" lon="4.50087">
        <ele>822.20001220703</ele>
        <time>2015-12-06T01:29:55.000Z</time>
      </trkpt>
      <trkpt lat="45.56798" lon="4.50109">
        <ele>822.79998779297</ele>
        <time>2015-12-06T01:30:08.000Z</time>
      </trkpt>
      <trkpt lat="45.568" lon="4.50113">
        <ele>822.79998779297</ele>
        <time>2015-12-06T01:30:11.000Z</time>
      </trkpt>
      <trkpt lat="45.56805" lon="4.50122">
        <ele>823.59997558594</ele>
        <time>2015-12-06T01:30:16.000Z</time>
      </trkpt>
      <trkpt lat="45.56818" lon="4.50142">
        <ele>825.40002441406</ele>
        <time>2015-12-06T01:30:26.000Z</time>
      </trkpt>
      <trkpt lat="45.5683" lon="4.50161">
        <ele>827</ele>
        <time>2015-12-06T01:30:36.000Z</time>
      </trkpt>
      <trkpt lat="45.56841" lon="4.50182">
        <ele>829</ele>
        <time>2015-12-06T01:30:45.000Z</time>
      </trkpt>
      <trkpt lat="45.56852" lon="4.50203">
        <ele>831</ele>
        <time>2015-12-06T01:30:55.000Z</time>
      </trkpt>
      <trkpt lat="45.56862" lon="4.50226">
        <ele>834.79998779297</ele>
        <time>2015-12-06T01:31:10.000Z</time>
      </trkpt>
      <trkpt lat="45.56863" lon="4.50229">
        <ele>835.20001220703</ele>
        <time>2015-12-06T01:31:12.000Z</time>
      </trkpt>
      <trkpt lat="45.5687" lon="4.50253">
        <ele>839</ele>
        <time>2015-12-06T01:31:26.000Z</time>
      </trkpt>
      <trkpt lat="45.56874" lon="4.50277">
        <ele>842.59997558594</ele>
        <time>2015-12-06T01:31:41.000Z</time>
      </trkpt>
      <trkpt lat="45.56876" lon="4.50293">
        <ele>843.79998779297</ele>
        <time>2015-12-06T01:31:51.000Z</time>
      </trkpt>
      <trkpt lat="45.56876" lon="4.5031">
        <ele>844.79998779297</ele>
        <time>2015-12-06T01:32:00.000Z</time>
      </trkpt>
      <trkpt lat="45.56875" lon="4.50316">
        <ele>845.20001220703</ele>
        <time>2015-12-06T01:32:04.000Z</time>
      </trkpt>
      <trkpt lat="45.56876" lon="4.50343">
        <ele>846.79998779297</ele>
        <time>2015-12-06T01:32:20.000Z</time>
      </trkpt>
      <trkpt lat="45.56879" lon="4.50369">
        <ele>848.79998779297</ele>
        <time>2015-12-06T01:32:36.000Z</time>
      </trkpt>
      <trkpt lat="45.56881" lon="4.50387">
        <ele>850.79998779297</ele>
        <time>2015-12-06T01:32:47.000Z</time>
      </trkpt>
      <trkpt lat="45.56881" lon="4.50397">
        <ele>852</ele>
        <time>2015-12-06T01:32:56.000Z</time>
      </trkpt>
      <trkpt lat="45.56881" lon="4.50407">
        <ele>853</ele>
        <time>2015-12-06T01:33:03.000Z</time>
      </trkpt>
      <trkpt lat="45.56881" lon="4.50416">
        <ele>854</ele>
        <time>2015-12-06T01:33:09.000Z</time>
      </trkpt>
      <trkpt lat="45.56884" lon="4.50441">
        <ele>857</ele>
        <time>2015-12-06T01:33:28.000Z</time>
      </trkpt>
      <trkpt lat="45.56888" lon="4.50466">
        <ele>860</ele>
        <time>2015-12-06T01:33:45.000Z</time>
      </trkpt>
      <trkpt lat="45.56893" lon="4.50481">
        <ele>861.79998779297</ele>
        <time>2015-12-06T01:33:55.000Z</time>
      </trkpt>
      <trkpt lat="45.56895" lon="4.50489">
        <ele>862.59997558594</ele>
        <time>2015-12-06T01:34:00.000Z</time>
      </trkpt>
      <trkpt lat="45.56899" lon="4.50514">
        <ele>865.59997558594</ele>
        <time>2015-12-06T01:34:15.000Z</time>
      </trkpt>
      <trkpt lat="45.56901" lon="4.50524">
        <ele>866.79998779297</ele>
        <time>2015-12-06T01:34:21.000Z</time>
      </trkpt>
      <trkpt lat="45.56904" lon="4.50537">
        <ele>868.20001220703</ele>
        <time>2015-12-06T01:34:29.000Z</time>
      </trkpt>
      <trkpt lat="45.56905" lon="4.50542">
        <ele>868.59997558594</ele>
        <time>2015-12-06T01:34:33.000Z</time>
      </trkpt>
      <trkpt lat="45.56911" lon="4.50567">
        <ele>870.79998779297</ele>
        <time>2015-12-06T01:34:47.000Z</time>
      </trkpt>
      <trkpt lat="45.56916" lon="4.50585">
        <ele>872.59997558594</ele>
        <time>2015-12-06T01:34:57.000Z</time>
      </trkpt>
      <trkpt lat="45.56922" lon="4.50609">
        <ele>875.20001220703</ele>
        <time>2015-12-06T01:35:10.000Z</time>
      </trkpt>
      <trkpt lat="45.56927" lon="4.50635">
        <ele>876.59997558594</ele>
        <time>2015-12-06T01:35:23.000Z</time>
      </trkpt>
      <trkpt lat="45.5693" lon="4.50662">
        <ele>877.79998779297</ele>
        <time>2015-12-06T01:35:36.000Z</time>
      </trkpt>
      <trkpt lat="45.56932" lon="4.5069">
        <ele>879</ele>
        <time>2015-12-06T01:35:47.000Z</time>
      </trkpt>
      <trkpt lat="45.56932" lon="4.50717">
        <ele>879</ele>
        <time>2015-12-06T01:35:55.000Z</time>
      </trkpt>
      <trkpt lat="45.56931" lon="4.50748">
        <ele>877.79998779297</ele>
        <time>2015-12-06T01:36:04.000Z</time>
      </trkpt>
      <trkpt lat="45.56936" lon="4.50773">
        <ele>877</ele>
        <time>2015-12-06T01:36:12.000Z</time>
      </trkpt>
      <trkpt lat="45.56943" lon="4.50798">
        <ele>875.59997558594</ele>
        <time>2015-12-06T01:36:20.000Z</time>
      </trkpt>
      <trkpt lat="45.56951" lon="4.50824">
        <ele>874</ele>
        <time>2015-12-06T01:36:28.000Z</time>
      </trkpt>
      <trkpt lat="45.56957" lon="4.50848">
        <ele>872.20001220703</ele>
        <time>2015-12-06T01:36:35.000Z</time>
      </trkpt>
      <trkpt lat="45.56965" lon="4.50875">
        <ele>870.20001220703</ele>
        <time>2015-12-06T01:36:43.000Z</time>
      </trkpt>
      <trkpt lat="45.56971" lon="4.50899">
        <ele>868.40002441406</ele>
        <time>2015-12-06T01:36:50.000Z</time>
      </trkpt>
      <trkpt lat="45.56975" lon="4.50926">
        <ele>866.20001220703</ele>
        <time>2015-12-06T01:36:58.000Z</time>
      </trkpt>
      <trkpt lat="45.56979" lon="4.50952">
        <ele>864.20001220703</ele>
        <time>2015-12-06T01:37:06.000Z</time>
      </trkpt>
      <trkpt lat="45.56981" lon="4.50979">
        <ele>863.20001220703</ele>
        <time>2015-12-06T01:37:14.000Z</time>
      </trkpt>
      <trkpt lat="45.56983" lon="4.51006">
        <ele>862.79998779297</ele>
        <time>2015-12-06T01:37:22.000Z</time>
      </trkpt>
      <trkpt lat="45.56985" lon="4.51032">
        <ele>862.40002441406</ele>
        <time>2015-12-06T01:37:30.000Z</time>
      </trkpt>
      <trkpt lat="45.5699" lon="4.51057">
        <ele>862</ele>
        <time>2015-12-06T01:37:38.000Z</time>
      </trkpt>
      <trkpt lat="45.56995" lon="4.51083">
        <ele>862</ele>
        <time>2015-12-06T01:37:46.000Z</time>
      </trkpt>
      <trkpt lat="45.57" lon="4.51109">
        <ele>862</ele>
        <time>2015-12-06T01:37:55.000Z</time>
      </trkpt>
      <trkpt lat="45.57006" lon="4.51135">
        <ele>862.20001220703</ele>
        <time>2015-12-06T01:38:04.000Z</time>
      </trkpt>
      <trkpt lat="45.57013" lon="4.51158">
        <ele>862.20001220703</ele>
        <time>2015-12-06T01:38:12.000Z</time>
      </trkpt>
      <trkpt lat="45.5702" lon="4.51184">
        <ele>863.20001220703</ele>
        <time>2015-12-06T01:38:21.000Z</time>
      </trkpt>
      <trkpt lat="45.57025" lon="4.51209">
        <ele>864.20001220703</ele>
        <time>2015-12-06T01:38:29.000Z</time>
      </trkpt>
      <trkpt lat="45.57028" lon="4.51236">
        <ele>864.79998779297</ele>
        <time>2015-12-06T01:38:38.000Z</time>
      </trkpt>
      <trkpt lat="45.5703" lon="4.51263">
        <ele>865.59997558594</ele>
        <time>2015-12-06T01:38:47.000Z</time>
      </trkpt>
      <trkpt lat="45.57031" lon="4.51289">
        <ele>865.59997558594</ele>
        <time>2015-12-06T01:38:56.000Z</time>
      </trkpt>
      <trkpt lat="45.57032" lon="4.51317">
        <ele>865.20001220703</ele>
        <time>2015-12-06T01:39:05.000Z</time>
      </trkpt>
      <trkpt lat="45.5703" lon="4.51344">
        <ele>865</ele>
        <time>2015-12-06T01:39:13.000Z</time>
      </trkpt>
      <trkpt lat="45.57025" lon="4.51369">
        <ele>863.79998779297</ele>
        <time>2015-12-06T01:39:21.000Z</time>
      </trkpt>
      <trkpt lat="45.57022" lon="4.51395">
        <ele>863</ele>
        <time>2015-12-06T01:39:29.000Z</time>
      </trkpt>
      <trkpt lat="45.57018" lon="4.5142">
        <ele>862.20001220703</ele>
        <time>2015-12-06T01:39:37.000Z</time>
      </trkpt>
      <trkpt lat="45.57005" lon="4.51437">
        <ele>861.79998779297</ele>
        <time>2015-12-06T01:39:45.000Z</time>
      </trkpt>
      <trkpt lat="45.56997" lon="4.51462">
        <ele>861.20001220703</ele>
        <time>2015-12-06T01:39:54.000Z</time>
      </trkpt>
      <trkpt lat="45.56996" lon="4.51489">
        <ele>861.20001220703</ele>
        <time>2015-12-06T01:40:03.000Z</time>
      </trkpt>
      <trkpt lat="45.56993" lon="4.51516">
        <ele>861</ele>
        <time>2015-12-06T01:40:12.000Z</time>
      </trkpt>
      <trkpt lat="45.56994" lon="4.51541">
        <ele>860.59997558594</ele>
        <time>2015-12-06T01:40:26.000Z</time>
      </trkpt>
      <trkpt lat="45.56993" lon="4.51567">
        <ele>860.59997558594</ele>
        <time>2015-12-06T01:40:40.000Z</time>
      </trkpt>
      <trkpt lat="45.56991" lon="4.51593">
        <ele>860.79998779297</ele>
        <time>2015-12-06T01:40:48.000Z</time>
      </trkpt>
      <trkpt lat="45.56989" lon="4.5162">
        <ele>860.79998779297</ele>
        <time>2015-12-06T01:40:57.000Z</time>
      </trkpt>
      <trkpt lat="45.56986" lon="4.51645">
        <ele>862</ele>
        <time>2015-12-06T01:41:06.000Z</time>
      </trkpt>
      <trkpt lat="45.56983" lon="4.51673">
        <ele>863</ele>
        <time>2015-12-06T01:41:16.000Z</time>
      </trkpt>
      <trkpt lat="45.56982" lon="4.51699">
        <ele>864</ele>
        <time>2015-12-06T01:41:25.000Z</time>
      </trkpt>
      <trkpt lat="45.56983" lon="4.51723">
        <ele>865.79998779297</ele>
        <time>2015-12-06T01:41:37.000Z</time>
      </trkpt>
      <trkpt lat="45.56985" lon="4.5175">
        <ele>867.40002441406</ele>
        <time>2015-12-06T01:42:00.000Z</time>
      </trkpt>
      <trkpt lat="45.56988" lon="4.51775">
        <ele>869</ele>
        <time>2015-12-06T01:42:21.000Z</time>
      </trkpt>
      <trkpt lat="45.56992" lon="4.518">
        <ele>871.40002441406</ele>
        <time>2015-12-06T01:42:38.000Z</time>
      </trkpt>
      <trkpt lat="45.56993" lon="4.51825">
        <ele>874</ele>
        <time>2015-12-06T01:42:59.000Z</time>
      </trkpt>
      <trkpt lat="45.57" lon="4.5185">
        <ele>877</ele>
        <time>2015-12-06T01:43:26.000Z</time>
      </trkpt>
      <trkpt lat="45.57005" lon="4.51874">
        <ele>879.20001220703</ele>
        <time>2015-12-06T01:43:41.000Z</time>
      </trkpt>
      <trkpt lat="45.5701" lon="4.51899">
        <ele>881</ele>
        <time>2015-12-06T01:43:59.000Z</time>
      </trkpt>
      <trkpt lat="45.57005" lon="4.51924">
        <ele>882.79998779297</ele>
        <time>2015-12-06T01:44:16.000Z</time>
      </trkpt>
      <trkpt lat="45.56999" lon="4.51949">
        <ele>884.79998779297</ele>
        <time>2015-12-06T01:44:29.000Z</time>
      </trkpt>
      <trkpt lat="45.56993" lon="4.51974">
        <ele>884.40002441406</ele>
        <time>2015-12-06T01:44:38.000Z</time>
      </trkpt>
      <trkpt lat="45.56989" lon="4.52002">
        <ele>886</ele>
        <time>2015-12-06T01:44:46.000Z</time>
      </trkpt>
      <trkpt lat="45.56987" lon="4.52028">
        <ele>887.40002441406</ele>
        <time>2015-12-06T01:44:53.000Z</time>
      </trkpt>
      <trkpt lat="45.56986" lon="4.52054">
        <ele>887</ele>
        <time>2015-12-06T01:45:01.000Z</time>
      </trkpt>
      <trkpt lat="45.5698" lon="4.52081">
        <ele>886</ele>
        <time>2015-12-06T01:45:10.000Z</time>
      </trkpt>
      <trkpt lat="45.5698" lon="4.52092">
        <ele>885.59997558594</ele>
        <time>2015-12-06T01:45:14.000Z</time>
      </trkpt>
      <trkpt lat="45.56983" lon="4.52118">
        <ele>884</ele>
        <time>2015-12-06T01:45:23.000Z</time>
      </trkpt>
      <trkpt lat="45.56986" lon="4.52127">
        <ele>883.40002441406</ele>
        <time>2015-12-06T01:45:26.000Z</time>
      </trkpt>
      <trkpt lat="45.56995" lon="4.52146">
        <ele>881.79998779297</ele>
        <time>2015-12-06T01:45:33.000Z</time>
      </trkpt>
      <trkpt lat="45.57001" lon="4.52172">
        <ele>881.20001220703</ele>
        <time>2015-12-06T01:45:41.000Z</time>
      </trkpt>
      <trkpt lat="45.57003" lon="4.52198">
        <ele>881.40002441406</ele>
        <time>2015-12-06T01:45:49.000Z</time>
      </trkpt>
      <trkpt lat="45.56999" lon="4.52225">
        <ele>879.79998779297</ele>
        <time>2015-12-06T01:45:58.000Z</time>
      </trkpt>
      <trkpt lat="45.56999" lon="4.52252">
        <ele>879.59997558594</ele>
        <time>2015-12-06T01:46:07.000Z</time>
      </trkpt>
      <trkpt lat="45.57003" lon="4.52279">
        <ele>878.79998779297</ele>
        <time>2015-12-06T01:46:16.000Z</time>
      </trkpt>
      <trkpt lat="45.5701" lon="4.52305">
        <ele>877.20001220703</ele>
        <time>2015-12-06T01:46:24.000Z</time>
      </trkpt>
      <trkpt lat="45.57016" lon="4.52332">
        <ele>875.40002441406</ele>
        <time>2015-12-06T01:46:31.000Z</time>
      </trkpt>
      <trkpt lat="45.57021" lon="4.52359">
        <ele>872.59997558594</ele>
        <time>2015-12-06T01:46:38.000Z</time>
      </trkpt>
      <trkpt lat="45.5703" lon="4.52384">
        <ele>870.79998779297</ele>
        <time>2015-12-06T01:46:45.000Z</time>
      </trkpt>
      <trkpt lat="45.57042" lon="4.52405">
        <ele>869</ele>
        <time>2015-12-06T01:46:52.000Z</time>
      </trkpt>
      <trkpt lat="45.57055" lon="4.52426">
        <ele>867.40002441406</ele>
        <time>2015-12-06T01:46:59.000Z</time>
      </trkpt>
      <trkpt lat="45.57065" lon="4.52447">
        <ele>867</ele>
        <time>2015-12-06T01:47:06.000Z</time>
      </trkpt>
      <trkpt lat="45.57073" lon="4.52473">
        <ele>867.40002441406</ele>
        <time>2015-12-06T01:47:14.000Z</time>
      </trkpt>
      <trkpt lat="45.5708" lon="4.52499">
        <ele>867.59997558594</ele>
        <time>2015-12-06T01:47:22.000Z</time>
      </trkpt>
      <trkpt lat="45.57094" lon="4.52517">
        <ele>867.20001220703</ele>
        <time>2015-12-06T01:47:30.000Z</time>
      </trkpt>
      <trkpt lat="45.57108" lon="4.52535">
        <ele>867</ele>
        <time>2015-12-06T01:47:38.000Z</time>
      </trkpt>
      <trkpt lat="45.57122" lon="4.52554">
        <ele>868.20001220703</ele>
        <time>2015-12-06T01:47:50.000Z</time>
      </trkpt>
      <trkpt lat="45.57133" lon="4.52574">
        <ele>869.40002441406</ele>
        <time>2015-12-06T01:48:02.000Z</time>
      </trkpt>
      <trkpt lat="45.57144" lon="4.52595">
        <ele>870.59997558594</ele>
        <time>2015-12-06T01:48:10.000Z</time>
      </trkpt>
      <trkpt lat="45.57157" lon="4.52615">
        <ele>871.79998779297</ele>
        <time>2015-12-06T01:48:18.000Z</time>
      </trkpt>
      <trkpt lat="45.57167" lon="4.52636">
        <ele>873.20001220703</ele>
        <time>2015-12-06T01:48:26.000Z</time>
      </trkpt>
      <trkpt lat="45.57174" lon="4.52663">
        <ele>875</ele>
        <time>2015-12-06T01:48:35.000Z</time>
      </trkpt>
      <trkpt lat="45.57181" lon="4.52689">
        <ele>875.59997558594</ele>
        <time>2015-12-06T01:48:46.000Z</time>
      </trkpt>
      <trkpt lat="45.57187" lon="4.52714">
        <ele>876.20001220703</ele>
        <time>2015-12-06T01:48:57.000Z</time>
      </trkpt>
      <trkpt lat="45.57189" lon="4.5274">
        <ele>877</ele>
        <time>2015-12-06T01:49:10.000Z</time>
      </trkpt>
      <trkpt lat="45.57196" lon="4.52765">
        <ele>877.40002441406</ele>
        <time>2015-12-06T01:49:22.000Z</time>
      </trkpt>
      <trkpt lat="45.57206" lon="4.52787">
        <ele>877.40002441406</ele>
        <time>2015-12-06T01:49:32.000Z</time>
      </trkpt>
      <trkpt lat="45.57206" lon="4.52789">
        <ele>877.20001220703</ele>
        <time>2015-12-06T01:49:33.000Z</time>
      </trkpt>
      <trkpt lat="45.57212" lon="4.52815">
        <ele>877.59997558594</ele>
        <time>2015-12-06T01:49:42.000Z</time>
      </trkpt>
      <trkpt lat="45.57224" lon="4.52836">
        <ele>877.40002441406</ele>
        <time>2015-12-06T01:49:51.000Z</time>
      </trkpt>
      <trkpt lat="45.57238" lon="4.52854">
        <ele>876.20001220703</ele>
        <time>2015-12-06T01:49:59.000Z</time>
      </trkpt>
      <trkpt lat="45.57252" lon="4.5287">
        <ele>875.20001220703</ele>
        <time>2015-12-06T01:50:08.000Z</time>
      </trkpt>
      <trkpt lat="45.57268" lon="4.52887">
        <ele>875.20001220703</ele>
        <time>2015-12-06T01:50:17.000Z</time>
      </trkpt>
      <trkpt lat="45.57276" lon="4.52911">
        <ele>876.20001220703</ele>
        <time>2015-12-06T01:50:24.000Z</time>
      </trkpt>
      <trkpt lat="45.57281" lon="4.52937">
        <ele>876.59997558594</ele>
        <time>2015-12-06T01:50:31.000Z</time>
      </trkpt>
      <trkpt lat="45.57285" lon="4.52963">
        <ele>876.79998779297</ele>
        <time>2015-12-06T01:50:38.000Z</time>
      </trkpt>
      <trkpt lat="45.57288" lon="4.5299">
        <ele>877.79998779297</ele>
        <time>2015-12-06T01:50:45.000Z</time>
      </trkpt>
      <trkpt lat="45.57289" lon="4.53016">
        <ele>878.79998779297</ele>
        <time>2015-12-06T01:50:52.000Z</time>
      </trkpt>
      <trkpt lat="45.5729" lon="4.53043">
        <ele>878</ele>
        <time>2015-12-06T01:50:59.000Z</time>
      </trkpt>
      <trkpt lat="45.57292" lon="4.53069">
        <ele>879.20001220703</ele>
        <time>2015-12-06T01:51:06.000Z</time>
      </trkpt>
      <trkpt lat="45.57293" lon="4.53095">
        <ele>879.79998779297</ele>
        <time>2015-12-06T01:51:13.000Z</time>
      </trkpt>
      <trkpt lat="45.57293" lon="4.53122">
        <ele>879.79998779297</ele>
        <time>2015-12-06T01:51:20.000Z</time>
      </trkpt>
      <trkpt lat="45.57292" lon="4.53151">
        <ele>879</ele>
        <time>2015-12-06T01:51:28.000Z</time>
      </trkpt>
      <trkpt lat="45.57291" lon="4.5318">
        <ele>878.40002441406</ele>
        <time>2015-12-06T01:51:36.000Z</time>
      </trkpt>
      <trkpt lat="45.5729" lon="4.53208">
        <ele>878.20001220703</ele>
        <time>2015-12-06T01:51:44.000Z</time>
      </trkpt>
      <trkpt lat="45.57289" lon="4.53237">
        <ele>878</ele>
        <time>2015-12-06T01:51:52.000Z</time>
      </trkpt>
      <trkpt lat="45.57287" lon="4.53269">
        <ele>877.40002441406</ele>
        <time>2015-12-06T01:52:01.000Z</time>
      </trkpt>
      <trkpt lat="45.57284" lon="4.53297">
        <ele>877</ele>
        <time>2015-12-06T01:52:09.000Z</time>
      </trkpt>
      <trkpt lat="45.57279" lon="4.53325">
        <ele>875.59997558594</ele>
        <time>2015-12-06T01:52:17.000Z</time>
      </trkpt>
      <trkpt lat="45.57273" lon="4.53352">
        <ele>875</ele>
        <time>2015-12-06T01:52:25.000Z</time>
      </trkpt>
      <trkpt lat="45.57273" lon="4.53378">
        <ele>875</ele>
        <time>2015-12-06T01:52:32.000Z</time>
      </trkpt>
      <trkpt lat="45.57277" lon="4.53403">
        <ele>873.40002441406</ele>
        <time>2015-12-06T01:52:39.000Z</time>
      </trkpt>
      <trkpt lat="45.57283" lon="4.53428">
        <ele>872.20001220703</ele>
        <time>2015-12-06T01:52:46.000Z</time>
      </trkpt>
      <trkpt lat="45.5729" lon="4.53454">
        <ele>872</ele>
        <time>2015-12-06T01:52:53.000Z</time>
      </trkpt>
      <trkpt lat="45.57298" lon="4.53477">
        <ele>871.59997558594</ele>
        <time>2015-12-06T01:53:00.000Z</time>
      </trkpt>
      <trkpt lat="45.57311" lon="4.53498">
        <ele>871.20001220703</ele>
        <time>2015-12-06T01:53:08.000Z</time>
      </trkpt>
      <trkpt lat="45.57322" lon="4.53522">
        <ele>870.79998779297</ele>
        <time>2015-12-06T01:53:17.000Z</time>
      </trkpt>
      <trkpt lat="45.57328" lon="4.53546">
        <ele>869.79998779297</ele>
        <time>2015-12-06T01:53:25.000Z</time>
      </trkpt>
      <trkpt lat="45.57332" lon="4.53574">
        <ele>868.20001220703</ele>
        <time>2015-12-06T01:53:33.000Z</time>
      </trkpt>
      <trkpt lat="45.5734" lon="4.536">
        <ele>867.59997558594</ele>
        <time>2015-12-06T01:53:42.000Z</time>
      </trkpt>
      <trkpt lat="45.57351" lon="4.53623">
        <ele>867</ele>
        <time>2015-12-06T01:53:50.000Z</time>
      </trkpt>
      <trkpt lat="45.57362" lon="4.53645">
        <ele>866.40002441406</ele>
        <time>2015-12-06T01:53:58.000Z</time>
      </trkpt>
      <trkpt lat="45.57371" lon="4.53668">
        <ele>865.79998779297</ele>
        <time>2015-12-06T01:54:06.000Z</time>
      </trkpt>
      <trkpt lat="45.57384" lon="4.53689">
        <ele>865.40002441406</ele>
        <time>2015-12-06T01:54:14.000Z</time>
      </trkpt>
      <trkpt lat="45.57398" lon="4.53707">
        <ele>864.59997558594</ele>
        <time>2015-12-06T01:54:22.000Z</time>
      </trkpt>
      <trkpt lat="45.57412" lon="4.53724">
        <ele>863.59997558594</ele>
        <time>2015-12-06T01:54:30.000Z</time>
      </trkpt>
      <trkpt lat="45.57427" lon="4.53743">
        <ele>862.40002441406</ele>
        <time>2015-12-06T01:54:38.000Z</time>
      </trkpt>
      <trkpt lat="45.57441" lon="4.53762">
        <ele>861.59997558594</ele>
        <time>2015-12-06T01:54:46.000Z</time>
      </trkpt>
      <trkpt lat="45.57453" lon="4.53781">
        <ele>860.79998779297</ele>
        <time>2015-12-06T01:54:54.000Z</time>
      </trkpt>
      <trkpt lat="45.57467" lon="4.53801">
        <ele>859.59997558594</ele>
        <time>2015-12-06T01:55:02.000Z</time>
      </trkpt>
      <trkpt lat="45.5748" lon="4.53822">
        <ele>858.59997558594</ele>
        <time>2015-12-06T01:55:10.000Z</time>
      </trkpt>
      <trkpt lat="45.57493" lon="4.53842">
        <ele>857.79998779297</ele>
        <time>2015-12-06T01:55:18.000Z</time>
      </trkpt>
      <trkpt lat="45.57505" lon="4.53861">
        <ele>856.79998779297</ele>
        <time>2015-12-06T01:55:25.000Z</time>
      </trkpt>
      <trkpt lat="45.57516" lon="4.53883">
        <ele>855.59997558594</ele>
        <time>2015-12-06T01:55:33.000Z</time>
      </trkpt>
      <trkpt lat="45.57528" lon="4.53903">
        <ele>854.20001220703</ele>
        <time>2015-12-06T01:55:40.000Z</time>
      </trkpt>
      <trkpt lat="45.57538" lon="4.53924">
        <ele>852.79998779297</ele>
        <time>2015-12-06T01:55:47.000Z</time>
      </trkpt>
      <trkpt lat="45.57549" lon="4.53944">
        <ele>851.40002441406</ele>
        <time>2015-12-06T01:55:54.000Z</time>
      </trkpt>
      <trkpt lat="45.5756" lon="4.53969">
        <ele>850.59997558594</ele>
        <time>2015-12-06T01:56:02.000Z</time>
      </trkpt>
      <trkpt lat="45.57567" lon="4.53995">
        <ele>850</ele>
        <time>2015-12-06T01:56:10.000Z</time>
      </trkpt>
      <trkpt lat="45.57574" lon="4.54022">
        <ele>849.59997558594</ele>
        <time>2015-12-06T01:56:18.000Z</time>
      </trkpt>
      <trkpt lat="45.57582" lon="4.54049">
        <ele>849.40002441406</ele>
        <time>2015-12-06T01:56:26.000Z</time>
      </trkpt>
      <trkpt lat="45.57588" lon="4.54077">
        <ele>849.40002441406</ele>
        <time>2015-12-06T01:56:34.000Z</time>
      </trkpt>
      <trkpt lat="45.57591" lon="4.54103">
        <ele>850.20001220703</ele>
        <time>2015-12-06T01:56:42.000Z</time>
      </trkpt>
      <trkpt lat="45.576" lon="4.54127">
        <ele>850</ele>
        <time>2015-12-06T01:56:50.000Z</time>
      </trkpt>
      <trkpt lat="45.57609" lon="4.54151">
        <ele>849.59997558594</ele>
        <time>2015-12-06T01:56:58.000Z</time>
      </trkpt>
      <trkpt lat="45.57621" lon="4.5417">
        <ele>848.79998779297</ele>
        <time>2015-12-06T01:57:06.000Z</time>
      </trkpt>
      <trkpt lat="45.57636" lon="4.54188">
        <ele>847.79998779297</ele>
        <time>2015-12-06T01:57:14.000Z</time>
      </trkpt>
      <trkpt lat="45.57651" lon="4.54203">
        <ele>846.59997558594</ele>
        <time>2015-12-06T01:57:21.000Z</time>
      </trkpt>
      <trkpt lat="45.57667" lon="4.54218">
        <ele>845.79998779297</ele>
        <time>2015-12-06T01:57:30.000Z</time>
      </trkpt>
      <trkpt lat="45.57681" lon="4.5423">
        <ele>845.20001220703</ele>
        <time>2015-12-06T01:57:37.000Z</time>
      </trkpt>
      <trkpt lat="45.57687" lon="4.54239">
        <ele>845</ele>
        <time>2015-12-06T01:57:41.000Z</time>
      </trkpt>
      <trkpt lat="45.57702" lon="4.54254">
        <ele>844.20001220703</ele>
        <time>2015-12-06T01:57:48.000Z</time>
      </trkpt>
      <trkpt lat="45.57709" lon="4.54263">
        <ele>844</ele>
        <time>2015-12-06T01:57:53.000Z</time>
      </trkpt>
      <trkpt lat="45.57726" lon="4.54275">
        <ele>843</ele>
        <time>2015-12-06T01:58:01.000Z</time>
      </trkpt>
      <trkpt lat="45.57742" lon="4.54286">
        <ele>842</ele>
        <time>2015-12-06T01:58:08.000Z</time>
      </trkpt>
      <trkpt lat="45.57756" lon="4.54303">
        <ele>841.59997558594</ele>
        <time>2015-12-06T01:58:16.000Z</time>
      </trkpt>
      <trkpt lat="45.57772" lon="4.5432">
        <ele>841.20001220703</ele>
        <time>2015-12-06T01:58:24.000Z</time>
      </trkpt>
      <trkpt lat="45.57789" lon="4.54334">
        <ele>840.40002441406</ele>
        <time>2015-12-06T01:58:32.000Z</time>
      </trkpt>
      <trkpt lat="45.57796" lon="4.54343">
        <ele>840.20001220703</ele>
        <time>2015-12-06T01:58:37.000Z</time>
      </trkpt>
      <trkpt lat="45.57813" lon="4.54359">
        <ele>839.40002441406</ele>
        <time>2015-12-06T01:58:46.000Z</time>
      </trkpt>
      <trkpt lat="45.5783" lon="4.54373">
        <ele>838</ele>
        <time>2015-12-06T01:58:54.000Z</time>
      </trkpt>
      <trkpt lat="45.57844" lon="4.54387">
        <ele>836.79998779297</ele>
        <time>2015-12-06T01:59:02.000Z</time>
      </trkpt>
      <trkpt lat="45.57855" lon="4.54409">
        <ele>836.20001220703</ele>
        <time>2015-12-06T01:59:12.000Z</time>
      </trkpt>
      <trkpt lat="45.57866" lon="4.54429">
        <ele>835.40002441406</ele>
        <time>2015-12-06T01:59:19.000Z</time>
      </trkpt>
      <trkpt lat="45.57879" lon="4.54449">
        <ele>835</ele>
        <time>2015-12-06T01:59:27.000Z</time>
      </trkpt>
      <trkpt lat="45.57886" lon="4.54459">
        <ele>834</ele>
        <time>2015-12-06T01:59:31.000Z</time>
      </trkpt>
      <trkpt lat="45.57891" lon="4.54485">
        <ele>833.59997558594</ele>
        <time>2015-12-06T01:59:39.000Z</time>
      </trkpt>
      <trkpt lat="45.57897" lon="4.54511">
        <ele>833</ele>
        <time>2015-12-06T01:59:46.000Z</time>
      </trkpt>
      <trkpt lat="45.57905" lon="4.54537">
        <ele>832</ele>
        <time>2015-12-06T01:59:53.000Z</time>
      </trkpt>
      <trkpt lat="45.57915" lon="4.54558">
        <ele>830.59997558594</ele>
        <time>2015-12-06T01:59:59.000Z</time>
      </trkpt>
      <trkpt lat="45.57915" lon="4.54568">
        <ele>830.79998779297</ele>
        <time>2015-12-06T02:00:02.000Z</time>
      </trkpt>
      <trkpt lat="45.57913" lon="4.54584">
        <ele>832.40002441406</ele>
        <time>2015-12-06T02:00:06.000Z</time>
      </trkpt>
      <trkpt lat="45.57915" lon="4.54613">
        <ele>833.59997558594</ele>
        <time>2015-12-06T02:00:13.000Z</time>
      </trkpt>
      <trkpt lat="45.57914" lon="4.54616">
        <ele>833.79998779297</ele>
        <time>2015-12-06T02:00:14.000Z</time>
      </trkpt>
      <trkpt lat="45.57916" lon="4.54643">
        <ele>833.40002441406</ele>
        <time>2015-12-06T02:00:22.000Z</time>
      </trkpt>
      <trkpt lat="45.57916" lon="4.54647">
        <ele>833.20001220703</ele>
        <time>2015-12-06T02:00:23.000Z</time>
      </trkpt>
      <trkpt lat="45.57917" lon="4.54657">
        <ele>832.79998779297</ele>
        <time>2015-12-06T02:00:26.000Z</time>
      </trkpt>
      <trkpt lat="45.5791" lon="4.54676">
        <ele>833.20001220703</ele>
        <time>2015-12-06T02:00:31.000Z</time>
      </trkpt>
      <trkpt lat="45.57903" lon="4.54702">
        <ele>833.79998779297</ele>
        <time>2015-12-06T02:00:39.000Z</time>
      </trkpt>
      <trkpt lat="45.57903" lon="4.54729">
        <ele>832.40002441406</ele>
        <time>2015-12-06T02:00:51.000Z</time>
      </trkpt>
      <trkpt lat="45.57901" lon="4.54736">
        <ele>832</ele>
        <time>2015-12-06T02:00:55.000Z</time>
      </trkpt>
      <trkpt lat="45.57901" lon="4.54757">
        <ele>830.40002441406</ele>
        <time>2015-12-06T02:01:04.000Z</time>
      </trkpt>
      <trkpt lat="45.57898" lon="4.54764">
        <ele>830</ele>
        <time>2015-12-06T02:01:07.000Z</time>
      </trkpt>
      <trkpt lat="45.57902" lon="4.54791">
        <ele>827.79998779297</ele>
        <time>2015-12-06T02:01:16.000Z</time>
      </trkpt>
      <trkpt lat="45.57895" lon="4.54815">
        <ele>827.59997558594</ele>
        <time>2015-12-06T02:01:24.000Z</time>
      </trkpt>
      <trkpt lat="45.57896" lon="4.54843">
        <ele>826.40002441406</ele>
        <time>2015-12-06T02:01:32.000Z</time>
      </trkpt>
      <trkpt lat="45.57895" lon="4.54857">
        <ele>826.20001220703</ele>
        <time>2015-12-06T02:01:36.000Z</time>
      </trkpt>
      <trkpt lat="45.57894" lon="4.54885">
        <ele>825</ele>
        <time>2015-12-06T02:01:44.000Z</time>
      </trkpt>
      <trkpt lat="45.57896" lon="4.54911">
        <ele>823.40002441406</ele>
        <time>2015-12-06T02:01:52.000Z</time>
      </trkpt>
      <trkpt lat="45.57896" lon="4.54919">
        <ele>822.79998779297</ele>
        <time>2015-12-06T02:01:56.000Z</time>
      </trkpt>
      <trkpt lat="45.57896" lon="4.54944">
        <ele>821.20001220703</ele>
        <time>2015-12-06T02:02:21.000Z</time>
      </trkpt>
      <trkpt lat="45.57894" lon="4.54971">
        <ele>820.40002441406</ele>
        <time>2015-12-06T02:02:36.000Z</time>
      </trkpt>
      <trkpt lat="45.57889" lon="4.54997">
        <ele>819</ele>
        <time>2015-12-06T02:02:50.000Z</time>
      </trkpt>
      <trkpt lat="45.57884" lon="4.55022">
        <ele>818</ele>
        <time>2015-12-06T02:03:06.000Z</time>
      </trkpt>
      <trkpt lat="45.57878" lon="4.55048">
        <ele>817.59997558594</ele>
        <time>2015-12-06T02:03:21.000Z</time>
      </trkpt>
      <trkpt lat="45.57872" lon="4.55073">
        <ele>817.40002441406</ele>
        <time>2015-12-06T02:03:36.000Z</time>
      </trkpt>
      <trkpt lat="45.57865" lon="4.55098">
        <ele>817.59997558594</ele>
        <time>2015-12-06T02:03:51.000Z</time>
      </trkpt>
      <trkpt lat="45.5786" lon="4.55124">
        <ele>815.79998779297</ele>
        <time>2015-12-06T02:04:07.000Z</time>
      </trkpt>
      <trkpt lat="45.57857" lon="4.5515">
        <ele>814.79998779297</ele>
        <time>2015-12-06T02:04:16.000Z</time>
      </trkpt>
      <trkpt lat="45.57856" lon="4.55177">
        <ele>813.59997558594</ele>
        <time>2015-12-06T02:04:25.000Z</time>
      </trkpt>
      <trkpt lat="45.57855" lon="4.55204">
        <ele>813</ele>
        <time>2015-12-06T02:04:33.000Z</time>
      </trkpt>
      <trkpt lat="45.57853" lon="4.55232">
        <ele>811.59997558594</ele>
        <time>2015-12-06T02:04:42.000Z</time>
      </trkpt>
      <trkpt lat="45.57849" lon="4.55259">
        <ele>810.40002441406</ele>
        <time>2015-12-06T02:04:52.000Z</time>
      </trkpt>
      <trkpt lat="45.57854" lon="4.55284">
        <ele>808.40002441406</ele>
        <time>2015-12-06T02:05:06.000Z</time>
      </trkpt>
      <trkpt lat="45.57854" lon="4.55295">
        <ele>808.20001220703</ele>
        <time>2015-12-06T02:05:12.000Z</time>
      </trkpt>
      <trkpt lat="45.57858" lon="4.55323">
        <ele>808</ele>
        <time>2015-12-06T02:05:22.000Z</time>
      </trkpt>
      <trkpt lat="45.57861" lon="4.55349">
        <ele>807.20001220703</ele>
        <time>2015-12-06T02:05:30.000Z</time>
      </trkpt>
      <trkpt lat="45.57868" lon="4.55375">
        <ele>806</ele>
        <time>2015-12-06T02:05:38.000Z</time>
      </trkpt>
      <trkpt lat="45.57876" lon="4.554">
        <ele>805.79998779297</ele>
        <time>2015-12-06T02:05:46.000Z</time>
      </trkpt>
      <trkpt lat="45.57887" lon="4.55422">
        <ele>805.59997558594</ele>
        <time>2015-12-06T02:05:54.000Z</time>
      </trkpt>
      <trkpt lat="45.57899" lon="4.55443">
        <ele>805.40002441406</ele>
        <time>2015-12-06T02:06:03.000Z</time>
      </trkpt>
      <trkpt lat="45.57907" lon="4.55467">
        <ele>806.20001220703</ele>
        <time>2015-12-06T02:06:12.000Z</time>
      </trkpt>
      <trkpt lat="45.5791" lon="4.55495">
        <ele>807</ele>
        <time>2015-12-06T02:06:21.000Z</time>
      </trkpt>
      <trkpt lat="45.57915" lon="4.55521">
        <ele>807.59997558594</ele>
        <time>2015-12-06T02:06:30.000Z</time>
      </trkpt>
      <trkpt lat="45.5792" lon="4.55548">
        <ele>807.59997558594</ele>
        <time>2015-12-06T02:06:38.000Z</time>
      </trkpt>
      <trkpt lat="45.57921" lon="4.55574">
        <ele>807</ele>
        <time>2015-12-06T02:06:46.000Z</time>
      </trkpt>
      <trkpt lat="45.57927" lon="4.55597">
        <ele>806</ele>
        <time>2015-12-06T02:06:54.000Z</time>
      </trkpt>
      <trkpt lat="45.57932" lon="4.55611">
        <ele>805.40002441406</ele>
        <time>2015-12-06T02:06:59.000Z</time>
      </trkpt>
      <trkpt lat="45.5794" lon="4.55636">
        <ele>805.20001220703</ele>
        <time>2015-12-06T02:07:08.000Z</time>
      </trkpt>
      <trkpt lat="45.57948" lon="4.55661">
        <ele>805</ele>
        <time>2015-12-06T02:07:17.000Z</time>
      </trkpt>
      <trkpt lat="45.57955" lon="4.55685">
        <ele>804.79998779297</ele>
        <time>2015-12-06T02:07:25.000Z</time>
      </trkpt>
      <trkpt lat="45.57964" lon="4.55707">
        <ele>805.20001220703</ele>
        <time>2015-12-06T02:07:33.000Z</time>
      </trkpt>
      <trkpt lat="45.57968" lon="4.55735">
        <ele>806.59997558594</ele>
        <time>2015-12-06T02:07:42.000Z</time>
      </trkpt>
      <trkpt lat="45.57976" lon="4.55762">
        <ele>807</ele>
        <time>2015-12-06T02:07:51.000Z</time>
      </trkpt>
      <trkpt lat="45.57983" lon="4.55787">
        <ele>807.40002441406</ele>
        <time>2015-12-06T02:08:00.000Z</time>
      </trkpt>
      <trkpt lat="45.57987" lon="4.55812">
        <ele>808</ele>
        <time>2015-12-06T02:08:09.000Z</time>
      </trkpt>
      <trkpt lat="45.57987" lon="4.55817">
        <ele>808.20001220703</ele>
        <time>2015-12-06T02:08:12.000Z</time>
      </trkpt>
      <trkpt lat="45.57985" lon="4.55843">
        <ele>809.79998779297</ele>
        <time>2015-12-06T02:08:27.000Z</time>
      </trkpt>
      <trkpt lat="45.57986" lon="4.55845">
        <ele>809.79998779297</ele>
        <time>2015-12-06T02:08:28.000Z</time>
      </trkpt>
      <trkpt lat="45.5799" lon="4.55868">
        <ele>810.40002441406</ele>
        <time>2015-12-06T02:08:41.000Z</time>
      </trkpt>
      <trkpt lat="45.58" lon="4.55884">
        <ele>810.59997558594</ele>
        <time>2015-12-06T02:08:51.000Z</time>
      </trkpt>
      <trkpt lat="45.58" lon="4.55888">
        <ele>810.79998779297</ele>
        <time>2015-12-06T02:08:55.000Z</time>
      </trkpt>
      <trkpt lat="45.58" lon="4.55893">
        <ele>811.20001220703</ele>
        <time>2015-12-06T02:08:59.000Z</time>
      </trkpt>
      <trkpt lat="45.58" lon="4.5591">
        <ele>812.40002441406</ele>
        <time>2015-12-06T02:09:11.000Z</time>
      </trkpt>
      <trkpt lat="45.58004" lon="4.55923">
        <ele>813</ele>
        <time>2015-12-06T02:09:22.000Z</time>
      </trkpt>
      <trkpt lat="45.58005" lon="4.55938">
        <ele>813.79998779297</ele>
        <time>2015-12-06T02:09:33.000Z</time>
      </trkpt>
      <trkpt lat="45.58007" lon="4.55945">
        <ele>813.79998779297</ele>
        <time>2015-12-06T02:09:38.000Z</time>
      </trkpt>
      <trkpt lat="45.58008" lon="4.55949">
        <ele>814</ele>
        <time>2015-12-06T02:09:41.000Z</time>
      </trkpt>
      <trkpt lat="45.5801" lon="4.55956">
        <ele>814.20001220703</ele>
        <time>2015-12-06T02:09:45.000Z</time>
      </trkpt>
      <trkpt lat="45.58013" lon="4.55965">
        <ele>814.40002441406</ele>
        <time>2015-12-06T02:09:50.000Z</time>
      </trkpt>
      <trkpt lat="45.58018" lon="4.55982">
        <ele>814.59997558594</ele>
        <time>2015-12-06T02:09:59.000Z</time>
      </trkpt>
      <trkpt lat="45.58021" lon="4.55989">
        <ele>814.79998779297</ele>
        <time>2015-12-06T02:10:03.000Z</time>
      </trkpt>
      <trkpt lat="45.58034" lon="4.56012">
        <ele>814.59997558594</ele>
        <time>2015-12-06T02:10:16.000Z</time>
      </trkpt>
      <trkpt lat="45.58037" lon="4.56023">
        <ele>814.79998779297</ele>
        <time>2015-12-06T02:10:22.000Z</time>
      </trkpt>
      <trkpt lat="45.58039" lon="4.56031">
        <ele>815</ele>
        <time>2015-12-06T02:10:26.000Z</time>
      </trkpt>
      <trkpt lat="45.5804" lon="4.56033">
        <ele>815</ele>
        <time>2015-12-06T02:10:27.000Z</time>
      </trkpt>
      <trkpt lat="45.58042" lon="4.56042">
        <ele>815.59997558594</ele>
        <time>2015-12-06T02:10:32.000Z</time>
      </trkpt>
      <trkpt lat="45.58047" lon="4.56067">
        <ele>817.59997558594</ele>
        <time>2015-12-06T02:10:45.000Z</time>
      </trkpt>
      <trkpt lat="45.58047" lon="4.56069">
        <ele>817.79998779297</ele>
        <time>2015-12-06T02:10:46.000Z</time>
      </trkpt>
      <trkpt lat="45.58045" lon="4.56088">
        <ele>819.79998779297</ele>
        <time>2015-12-06T02:10:58.000Z</time>
      </trkpt>
      <trkpt lat="45.58043" lon="4.56096">
        <ele>820.59997558594</ele>
        <time>2015-12-06T02:11:03.000Z</time>
      </trkpt>
      <trkpt lat="45.58035" lon="4.5612">
        <ele>821.79998779297</ele>
        <time>2015-12-06T02:11:15.000Z</time>
      </trkpt>
      <trkpt lat="45.58038" lon="4.56146">
        <ele>824</ele>
        <time>2015-12-06T02:11:23.000Z</time>
      </trkpt>
      <trkpt lat="45.58045" lon="4.56174">
        <ele>826.59997558594</ele>
        <time>2015-12-06T02:11:32.000Z</time>
      </trkpt>
      <trkpt lat="45.58054" lon="4.56199">
        <ele>828.20001220703</ele>
        <time>2015-12-06T02:11:41.000Z</time>
      </trkpt>
      <trkpt lat="45.58064" lon="4.56223">
        <ele>827.40002441406</ele>
        <time>2015-12-06T02:11:50.000Z</time>
      </trkpt>
      <trkpt lat="45.58075" lon="4.56246">
        <ele>826</ele>
        <time>2015-12-06T02:11:58.000Z</time>
      </trkpt>
      <trkpt lat="45.58086" lon="4.56268">
        <ele>824.79998779297</ele>
        <time>2015-12-06T02:12:07.000Z</time>
      </trkpt>
      <trkpt lat="45.58098" lon="4.56291">
        <ele>823.59997558594</ele>
        <time>2015-12-06T02:12:16.000Z</time>
      </trkpt>
      <trkpt lat="45.58103" lon="4.56314">
        <ele>825</ele>
        <time>2015-12-06T02:12:25.000Z</time>
      </trkpt>
      <trkpt lat="45.58118" lon="4.5634">
        <ele>824.59997558594</ele>
        <time>2015-12-06T02:12:34.000Z</time>
      </trkpt>
      <trkpt lat="45.58127" lon="4.56364">
        <ele>824.59997558594</ele>
        <time>2015-12-06T02:12:43.000Z</time>
      </trkpt>
      <trkpt lat="45.58128" lon="4.56373">
        <ele>824.79998779297</ele>
        <time>2015-12-06T02:12:47.000Z</time>
      </trkpt>
      <trkpt lat="45.58143" lon="4.56382">
        <ele>823.59997558594</ele>
        <time>2015-12-06T02:12:56.000Z</time>
      </trkpt>
      <trkpt lat="45.58153" lon="4.56389">
        <ele>822.79998779297</ele>
        <time>2015-12-06T02:13:01.000Z</time>
      </trkpt>
      <trkpt lat="45.58165" lon="4.56404">
        <ele>822</ele>
        <time>2015-12-06T02:13:10.000Z</time>
      </trkpt>
      <trkpt lat="45.58178" lon="4.56424">
        <ele>821.59997558594</ele>
        <time>2015-12-06T02:13:18.000Z</time>
      </trkpt>
      <trkpt lat="45.58195" lon="4.56438">
        <ele>820.20001220703</ele>
        <time>2015-12-06T02:13:25.000Z</time>
      </trkpt>
      <trkpt lat="45.5821" lon="4.56458">
        <ele>819.40002441406</ele>
        <time>2015-12-06T02:13:33.000Z</time>
      </trkpt>
      <trkpt lat="45.5822" lon="4.56481">
        <ele>819.79998779297</ele>
        <time>2015-12-06T02:13:42.000Z</time>
      </trkpt>
      <trkpt lat="45.58224" lon="4.56508">
        <ele>821</ele>
        <time>2015-12-06T02:13:52.000Z</time>
      </trkpt>
      <trkpt lat="45.58238" lon="4.56527">
        <ele>819.79998779297</ele>
        <time>2015-12-06T02:14:00.000Z</time>
      </trkpt>
      <trkpt lat="45.58245" lon="4.56534">
        <ele>819</ele>
        <time>2015-12-06T02:14:03.000Z</time>
      </trkpt>
      <trkpt lat="45.58253" lon="4.56547">
        <ele>818.40002441406</ele>
        <time>2015-12-06T02:14:09.000Z</time>
      </trkpt>
      <trkpt lat="45.5826" lon="4.56573">
        <ele>818.79998779297</ele>
        <time>2015-12-06T02:14:20.000Z</time>
      </trkpt>
      <trkpt lat="45.58275" lon="4.5659">
        <ele>817.20001220703</ele>
        <time>2015-12-06T02:14:26.000Z</time>
      </trkpt>
      <trkpt lat="45.58292" lon="4.56604">
        <ele>814.79998779297</ele>
        <time>2015-12-06T02:14:31.000Z</time>
      </trkpt>
      <trkpt lat="45.58307" lon="4.56622">
        <ele>813.20001220703</ele>
        <time>2015-12-06T02:14:39.000Z</time>
      </trkpt>
      <trkpt lat="45.58317" lon="4.56645">
        <ele>811.40002441406</ele>
        <time>2015-12-06T02:14:49.000Z</time>
      </trkpt>
      <trkpt lat="45.58332" lon="4.56663">
        <ele>809.20001220703</ele>
        <time>2015-12-06T02:14:57.000Z</time>
      </trkpt>
      <trkpt lat="45.58348" lon="4.56678">
        <ele>807</ele>
        <time>2015-12-06T02:15:05.000Z</time>
      </trkpt>
      <trkpt lat="45.58356" lon="4.56689">
        <ele>805.79998779297</ele>
        <time>2015-12-06T02:15:10.000Z</time>
      </trkpt>
      <trkpt lat="45.58357" lon="4.56693">
        <ele>805.59997558594</ele>
        <time>2015-12-06T02:15:12.000Z</time>
      </trkpt>
      <trkpt lat="45.58362" lon="4.56717">
        <ele>804.20001220703</ele>
        <time>2015-12-06T02:15:20.000Z</time>
      </trkpt>
      <trkpt lat="45.58372" lon="4.56739">
        <ele>802.20001220703</ele>
        <time>2015-12-06T02:15:27.000Z</time>
      </trkpt>
      <trkpt lat="45.58375" lon="4.56768">
        <ele>800.79998779297</ele>
        <time>2015-12-06T02:15:35.000Z</time>
      </trkpt>
      <trkpt lat="45.58369" lon="4.56793">
        <ele>799.59997558594</ele>
        <time>2015-12-06T02:15:43.000Z</time>
      </trkpt>
      <trkpt lat="45.58364" lon="4.5682">
        <ele>799.59997558594</ele>
        <time>2015-12-06T02:15:52.000Z</time>
      </trkpt>
      <trkpt lat="45.58367" lon="4.56845">
        <ele>799.20001220703</ele>
        <time>2015-12-06T02:16:00.000Z</time>
      </trkpt>
      <trkpt lat="45.58384" lon="4.56857">
        <ele>798.20001220703</ele>
        <time>2015-12-06T02:16:09.000Z</time>
      </trkpt>
      <trkpt lat="45.58401" lon="4.56867">
        <ele>799</ele>
        <time>2015-12-06T02:16:17.000Z</time>
      </trkpt>
      <trkpt lat="45.58416" lon="4.56882">
        <ele>800.59997558594</ele>
        <time>2015-12-06T02:16:26.000Z</time>
      </trkpt>
      <trkpt lat="45.58431" lon="4.56896">
        <ele>802.20001220703</ele>
        <time>2015-12-06T02:16:35.000Z</time>
      </trkpt>
      <trkpt lat="45.58445" lon="4.56912">
        <ele>803.79998779297</ele>
        <time>2015-12-06T02:16:44.000Z</time>
      </trkpt>
      <trkpt lat="45.58451" lon="4.56925">
        <ele>804.79998779297</ele>
        <time>2015-12-06T02:16:54.000Z</time>
      </trkpt>
      <trkpt lat="45.58465" lon="4.56929">
        <ele>805.79998779297</ele>
        <time>2015-12-06T02:17:04.000Z</time>
      </trkpt>
      <trkpt lat="45.58474" lon="4.56929">
        <ele>806.59997558594</ele>
        <time>2015-12-06T02:17:10.000Z</time>
      </trkpt>
      <trkpt lat="45.58481" lon="4.56931">
        <ele>807.79998779297</ele>
        <time>2015-12-06T02:17:15.000Z</time>
      </trkpt>
      <trkpt lat="45.58496" lon="4.56946">
        <ele>810.40002441406</ele>
        <time>2015-12-06T02:17:27.000Z</time>
      </trkpt>
      <trkpt lat="45.58512" lon="4.56959">
        <ele>813</ele>
        <time>2015-12-06T02:17:41.000Z</time>
      </trkpt>
      <trkpt lat="45.58517" lon="4.56963">
        <ele>813.79998779297</ele>
        <time>2015-12-06T02:17:46.000Z</time>
      </trkpt>
      <trkpt lat="45.58524" lon="4.5697">
        <ele>814.79998779297</ele>
        <time>2015-12-06T02:17:53.000Z</time>
      </trkpt>
      <trkpt lat="45.58541" lon="4.56982">
        <ele>817.40002441406</ele>
        <time>2015-12-06T02:18:06.000Z</time>
      </trkpt>
      <trkpt lat="45.58557" lon="4.5699">
        <ele>820</ele>
        <time>2015-12-06T02:18:20.000Z</time>
      </trkpt>
      <trkpt lat="45.58572" lon="4.57004">
        <ele>823</ele>
        <time>2015-12-06T02:18:29.000Z</time>
      </trkpt>
      <trkpt lat="45.58584" lon="4.57024">
        <ele>825.59997558594</ele>
        <time>2015-12-06T02:18:38.000Z</time>
      </trkpt>
      <trkpt lat="45.58594" lon="4.57046">
        <ele>827.20001220703</ele>
        <time>2015-12-06T02:18:50.000Z</time>
      </trkpt>
      <trkpt lat="45.58604" lon="4.57071">
        <ele>827.59997558594</ele>
        <time>2015-12-06T02:19:05.000Z</time>
      </trkpt>
      <trkpt lat="45.58616" lon="4.57093">
        <ele>828.79998779297</ele>
        <time>2015-12-06T02:19:13.000Z</time>
      </trkpt>
      <trkpt lat="45.58627" lon="4.57115">
        <ele>829.79998779297</ele>
        <time>2015-12-06T02:19:21.000Z</time>
      </trkpt>
      <trkpt lat="45.5864" lon="4.57136">
        <ele>828.40002441406</ele>
        <time>2015-12-06T02:19:29.000Z</time>
      </trkpt>
      <trkpt lat="45.58653" lon="4.57157">
        <ele>826.20001220703</ele>
        <time>2015-12-06T02:19:38.000Z</time>
      </trkpt>
      <trkpt lat="45.58667" lon="4.57178">
        <ele>824</ele>
        <time>2015-12-06T02:19:46.000Z</time>
      </trkpt>
      <trkpt lat="45.5868" lon="4.57199">
        <ele>821.59997558594</ele>
        <time>2015-12-06T02:19:55.000Z</time>
      </trkpt>
      <trkpt lat="45.58694" lon="4.57218">
        <ele>820.40002441406</ele>
        <time>2015-12-06T02:20:03.000Z</time>
      </trkpt>
      <trkpt lat="45.5871" lon="4.57233">
        <ele>819.59997558594</ele>
        <time>2015-12-06T02:20:11.000Z</time>
      </trkpt>
      <trkpt lat="45.58726" lon="4.57247">
        <ele>817.79998779297</ele>
        <time>2015-12-06T02:20:19.000Z</time>
      </trkpt>
      <trkpt lat="45.58745" lon="4.57255">
        <ele>814.79998779297</ele>
        <time>2015-12-06T02:20:28.000Z</time>
      </trkpt>
      <trkpt lat="45.58764" lon="4.57261">
        <ele>812.40002441406</ele>
        <time>2015-12-06T02:20:36.000Z</time>
      </trkpt>
      <trkpt lat="45.58784" lon="4.5727">
        <ele>809.40002441406</ele>
        <time>2015-12-06T02:20:44.000Z</time>
      </trkpt>
      <trkpt lat="45.58802" lon="4.57272">
        <ele>806.40002441406</ele>
        <time>2015-12-06T02:20:53.000Z</time>
      </trkpt>
      <trkpt lat="45.58819" lon="4.57263">
        <ele>804.20001220703</ele>
        <time>2015-12-06T02:21:01.000Z</time>
      </trkpt>
      <trkpt lat="45.58837" lon="4.57262">
        <ele>801.59997558594</ele>
        <time>2015-12-06T02:21:08.000Z</time>
      </trkpt>
      <trkpt lat="45.58856" lon="4.57269">
        <ele>798.79998779297</ele>
        <time>2015-12-06T02:21:16.000Z</time>
      </trkpt>
      <trkpt lat="45.58875" lon="4.57272">
        <ele>795.79998779297</ele>
        <time>2015-12-06T02:21:25.000Z</time>
      </trkpt>
      <trkpt lat="45.58893" lon="4.57272">
        <ele>792.59997558594</ele>
        <time>2015-12-06T02:21:33.000Z</time>
      </trkpt>
      <trkpt lat="45.58912" lon="4.57276">
        <ele>789.40002441406</ele>
        <time>2015-12-06T02:21:51.000Z</time>
      </trkpt>
      <trkpt lat="45.58914" lon="4.57278">
        <ele>789</ele>
        <time>2015-12-06T02:21:53.000Z</time>
      </trkpt>
      <trkpt lat="45.58929" lon="4.57276">
        <ele>786.40002441406</ele>
        <time>2015-12-06T02:22:04.000Z</time>
      </trkpt>
      <trkpt lat="45.58948" lon="4.57279">
        <ele>783.40002441406</ele>
        <time>2015-12-06T02:22:20.000Z</time>
      </trkpt>
      <trkpt lat="45.58966" lon="4.57274">
        <ele>780.40002441406</ele>
        <time>2015-12-06T02:22:37.000Z</time>
      </trkpt>
      <trkpt lat="45.58983" lon="4.57262">
        <ele>778.59997558594</ele>
        <time>2015-12-06T02:22:51.000Z</time>
      </trkpt>
      <trkpt lat="45.58992" lon="4.57256">
        <ele>777.59997558594</ele>
        <time>2015-12-06T02:23:00.000Z</time>
      </trkpt>
      <trkpt lat="45.58998" lon="4.57254">
        <ele>776.79998779297</ele>
        <time>2015-12-06T02:23:05.000Z</time>
      </trkpt>
      <trkpt lat="45.58999" lon="4.57253">
        <ele>776.79998779297</ele>
        <time>2015-12-06T02:23:07.000Z</time>
      </trkpt>
      <trkpt lat="45.59003" lon="4.57251">
        <ele>776.20001220703</ele>
        <time>2015-12-06T02:23:11.000Z</time>
      </trkpt>
      <trkpt lat="45.59009" lon="4.57245">
        <ele>775.59997558594</ele>
        <time>2015-12-06T02:23:17.000Z</time>
      </trkpt>
      <trkpt lat="45.59012" lon="4.57244">
        <ele>775.20001220703</ele>
        <time>2015-12-06T02:23:18.000Z</time>
      </trkpt>
      <trkpt lat="45.59018" lon="4.57238">
        <ele>774</ele>
        <time>2015-12-06T02:23:25.000Z</time>
      </trkpt>
      <trkpt lat="45.59024" lon="4.57235">
        <ele>773</ele>
        <time>2015-12-06T02:23:28.000Z</time>
      </trkpt>
      <trkpt lat="45.59027" lon="4.57232">
        <ele>772.40002441406</ele>
        <time>2015-12-06T02:23:32.000Z</time>
      </trkpt>
      <trkpt lat="45.59029" lon="4.5723">
        <ele>772.20001220703</ele>
        <time>2015-12-06T02:23:34.000Z</time>
      </trkpt>
      <trkpt lat="45.59033" lon="4.57225">
        <ele>771.40002441406</ele>
        <time>2015-12-06T02:23:38.000Z</time>
      </trkpt>
      <trkpt lat="45.59035" lon="4.57223">
        <ele>771.20001220703</ele>
        <time>2015-12-06T02:23:40.000Z</time>
      </trkpt>
      <trkpt lat="45.59052" lon="4.5721">
        <ele>768</ele>
        <time>2015-12-06T02:23:56.000Z</time>
      </trkpt>
      <trkpt lat="45.59056" lon="4.57208">
        <ele>767.59997558594</ele>
        <time>2015-12-06T02:23:59.000Z</time>
      </trkpt>
      <trkpt lat="45.59062" lon="4.57206">
        <ele>766.40002441406</ele>
        <time>2015-12-06T02:24:03.000Z</time>
      </trkpt>
      <trkpt lat="45.59079" lon="4.57192">
        <ele>762.59997558594</ele>
        <time>2015-12-06T02:24:15.000Z</time>
      </trkpt>
      <trkpt lat="45.59095" lon="4.57177">
        <ele>759.40002441406</ele>
        <time>2015-12-06T02:24:25.000Z</time>
      </trkpt>
      <trkpt lat="45.59112" lon="4.57165">
        <ele>755.59997558594</ele>
        <time>2015-12-06T02:24:37.000Z</time>
      </trkpt>
      <trkpt lat="45.59133" lon="4.57171">
        <ele>751.40002441406</ele>
        <time>2015-12-06T02:24:45.000Z</time>
      </trkpt>
      <trkpt lat="45.59145" lon="4.57181">
        <ele>750.59997558594</ele>
        <time>2015-12-06T02:24:51.000Z</time>
      </trkpt>
      <trkpt lat="45.59162" lon="4.57192">
        <ele>750</ele>
        <time>2015-12-06T02:24:57.000Z</time>
      </trkpt>
      <trkpt lat="45.5918" lon="4.57205">
        <ele>749.40002441406</ele>
        <time>2015-12-06T02:25:05.000Z</time>
      </trkpt>
      <trkpt lat="45.592" lon="4.57199">
        <ele>748</ele>
        <time>2015-12-06T02:25:14.000Z</time>
      </trkpt>
      <trkpt lat="45.59219" lon="4.57191">
        <ele>746</ele>
        <time>2015-12-06T02:25:22.000Z</time>
      </trkpt>
      <trkpt lat="45.59227" lon="4.57189">
        <ele>744.40002441406</ele>
        <time>2015-12-06T02:25:26.000Z</time>
      </trkpt>
      <trkpt lat="45.59239" lon="4.57183">
        <ele>742</ele>
        <time>2015-12-06T02:25:32.000Z</time>
      </trkpt>
      <trkpt lat="45.59256" lon="4.57172">
        <ele>738.20001220703</ele>
        <time>2015-12-06T02:25:42.000Z</time>
      </trkpt>
      <trkpt lat="45.59275" lon="4.57163">
        <ele>735.40002441406</ele>
        <time>2015-12-06T02:25:52.000Z</time>
      </trkpt>
      <trkpt lat="45.59293" lon="4.57158">
        <ele>734.20001220703</ele>
        <time>2015-12-06T02:26:01.000Z</time>
      </trkpt>
      <trkpt lat="45.593" lon="4.57146">
        <ele>733.79998779297</ele>
        <time>2015-12-06T02:26:07.000Z</time>
      </trkpt>
      <trkpt lat="45.59304" lon="4.57137">
        <ele>733.20001220703</ele>
        <time>2015-12-06T02:26:11.000Z</time>
      </trkpt>
      <trkpt lat="45.59308" lon="4.57132">
        <ele>732.59997558594</ele>
        <time>2015-12-06T02:26:13.000Z</time>
      </trkpt>
      <trkpt lat="45.59316" lon="4.57108">
        <ele>730.79998779297</ele>
        <time>2015-12-06T02:26:23.000Z</time>
      </trkpt>
      <trkpt lat="45.59327" lon="4.57087">
        <ele>727.40002441406</ele>
        <time>2015-12-06T02:26:32.000Z</time>
      </trkpt>
      <trkpt lat="45.59336" lon="4.57063">
        <ele>724.79998779297</ele>
        <time>2015-12-06T02:26:41.000Z</time>
      </trkpt>
      <trkpt lat="45.59345" lon="4.57039">
        <ele>723.79998779297</ele>
        <time>2015-12-06T02:26:50.000Z</time>
      </trkpt>
      <trkpt lat="45.59353" lon="4.57015">
        <ele>721.79998779297</ele>
        <time>2015-12-06T02:26:58.000Z</time>
      </trkpt>
      <trkpt lat="45.59366" lon="4.56993">
        <ele>721.20001220703</ele>
        <time>2015-12-06T02:27:05.000Z</time>
      </trkpt>
      <trkpt lat="45.59375" lon="4.5697">
        <ele>721.59997558594</ele>
        <time>2015-12-06T02:27:12.000Z</time>
      </trkpt>
      <trkpt lat="45.59381" lon="4.56944">
        <ele>721.20001220703</ele>
        <time>2015-12-06T02:27:20.000Z</time>
      </trkpt>
      <trkpt lat="45.5939" lon="4.56917">
        <ele>717.59997558594</ele>
        <time>2015-12-06T02:27:28.000Z</time>
      </trkpt>
      <trkpt lat="45.594" lon="4.56892">
        <ele>713.20001220703</ele>
        <time>2015-12-06T02:27:36.000Z</time>
      </trkpt>
      <trkpt lat="45.59417" lon="4.56882">
        <ele>710.20001220703</ele>
        <time>2015-12-06T02:27:43.000Z</time>
      </trkpt>
      <trkpt lat="45.59436" lon="4.56892">
        <ele>708.59997558594</ele>
        <time>2015-12-06T02:27:50.000Z</time>
      </trkpt>
      <trkpt lat="45.59451" lon="4.56907">
        <ele>707.59997558594</ele>
        <time>2015-12-06T02:27:59.000Z</time>
      </trkpt>
      <trkpt lat="45.5947" lon="4.56904">
        <ele>705.40002441406</ele>
        <time>2015-12-06T02:28:11.000Z</time>
      </trkpt>
      <trkpt lat="45.59486" lon="4.56891">
        <ele>702.20001220703</ele>
        <time>2015-12-06T02:28:19.000Z</time>
      </trkpt>
      <trkpt lat="45.595" lon="4.56876">
        <ele>699.59997558594</ele>
        <time>2015-12-06T02:28:26.000Z</time>
      </trkpt>
      <trkpt lat="45.59512" lon="4.56854">
        <ele>696.59997558594</ele>
        <time>2015-12-06T02:28:34.000Z</time>
      </trkpt>
      <trkpt lat="45.59523" lon="4.56833">
        <ele>694</ele>
        <time>2015-12-06T02:28:42.000Z</time>
      </trkpt>
      <trkpt lat="45.59532" lon="4.5681">
        <ele>693</ele>
        <time>2015-12-06T02:28:52.000Z</time>
      </trkpt>
      <trkpt lat="45.59532" lon="4.56808">
        <ele>693</ele>
        <time>2015-12-06T02:28:53.000Z</time>
      </trkpt>
      <trkpt lat="45.59539" lon="4.56782">
        <ele>692.20001220703</ele>
        <time>2015-12-06T02:29:05.000Z</time>
      </trkpt>
      <trkpt lat="45.59538" lon="4.56774">
        <ele>692.59997558594</ele>
        <time>2015-12-06T02:29:07.000Z</time>
      </trkpt>
      <trkpt lat="45.59527" lon="4.56751">
        <ele>694.40002441406</ele>
        <time>2015-12-06T02:29:16.000Z</time>
      </trkpt>
      <trkpt lat="45.59535" lon="4.56728">
        <ele>694.20001220703</ele>
        <time>2015-12-06T02:29:24.000Z</time>
      </trkpt>
      <trkpt lat="45.59553" lon="4.5672">
        <ele>692.40002441406</ele>
        <time>2015-12-06T02:29:32.000Z</time>
      </trkpt>
      <trkpt lat="45.59565" lon="4.56723">
        <ele>691.79998779297</ele>
        <time>2015-12-06T02:29:37.000Z</time>
      </trkpt>
      <trkpt lat="45.59582" lon="4.5673">
        <ele>690.40002441406</ele>
        <time>2015-12-06T02:29:46.000Z</time>
      </trkpt>
      <trkpt lat="45.59593" lon="4.56746">
        <ele>689.40002441406</ele>
        <time>2015-12-06T02:30:32.000Z</time>
      </trkpt>
      <trkpt lat="45.59595" lon="4.56747">
        <ele>689.20001220703</ele>
        <time>2015-12-06T02:31:17.000Z</time>
      </trkpt>
      <trkpt lat="45.59596" lon="4.56747">
        <ele>689.20001220703</ele>
        <time>2015-12-06T02:31:19.000Z</time>
      </trkpt>
      <trkpt lat="45.59587" lon="4.56753">
        <ele>689.59997558594</ele>
        <time>2015-12-06T02:32:26.000Z</time>
      </trkpt>
      <trkpt lat="45.59588" lon="4.56783">
        <ele>688.79998779297</ele>
        <time>2015-12-06T03:03:39.000Z</time>
      </trkpt>
      <trkpt lat="45.59588" lon="4.56794">
        <ele>688.79998779297</ele>
        <time>2015-12-06T03:03:41.000Z</time>
      </trkpt>
      <trkpt lat="45.5959" lon="4.56802">
        <ele>688.59997558594</ele>
        <time>2015-12-06T03:03:47.000Z</time>
      </trkpt>
      <trkpt lat="45.59588" lon="4.56808">
        <ele>688.79998779297</ele>
        <time>2015-12-06T03:03:52.000Z</time>
      </trkpt>
      <trkpt lat="45.59588" lon="4.56814">
        <ele>688.79998779297</ele>
        <time>2015-12-06T03:03:56.000Z</time>
      </trkpt>
      <trkpt lat="45.59588" lon="4.5682">
        <ele>688.79998779297</ele>
        <time>2015-12-06T03:04:06.000Z</time>
      </trkpt>
      <trkpt lat="45.59588" lon="4.56822">
        <ele>688.79998779297</ele>
        <time>2015-12-06T03:04:07.000Z</time>
      </trkpt>
      <trkpt lat="45.5959" lon="4.56828">
        <ele>688.79998779297</ele>
        <time>2015-12-06T03:04:11.000Z</time>
      </trkpt>
      <trkpt lat="45.59595" lon="4.56854">
        <ele>688.79998779297</ele>
        <time>2015-12-06T03:04:26.000Z</time>
      </trkpt>
      <trkpt lat="45.59602" lon="4.5688">
        <ele>688.79998779297</ele>
        <time>2015-12-06T03:04:35.000Z</time>
      </trkpt>
      <trkpt lat="45.59606" lon="4.56905">
        <ele>689.40002441406</ele>
        <time>2015-12-06T03:04:44.000Z</time>
      </trkpt>
      <trkpt lat="45.59608" lon="4.56931">
        <ele>690.20001220703</ele>
        <time>2015-12-06T03:04:53.000Z</time>
      </trkpt>
      <trkpt lat="45.59613" lon="4.56958">
        <ele>690.40002441406</ele>
        <time>2015-12-06T03:05:03.000Z</time>
      </trkpt>
      <trkpt lat="45.5962" lon="4.56984">
        <ele>690.59997558594</ele>
        <time>2015-12-06T03:05:12.000Z</time>
      </trkpt>
      <trkpt lat="45.59629" lon="4.57009">
        <ele>690.79998779297</ele>
        <time>2015-12-06T03:05:21.000Z</time>
      </trkpt>
      <trkpt lat="45.59636" lon="4.57033">
        <ele>691</ele>
        <time>2015-12-06T03:05:30.000Z</time>
      </trkpt>
      <trkpt lat="45.59652" lon="4.57049">
        <ele>691.20001220703</ele>
        <time>2015-12-06T03:05:40.000Z</time>
      </trkpt>
      <trkpt lat="45.59668" lon="4.57064">
        <ele>691.40002441406</ele>
        <time>2015-12-06T03:05:50.000Z</time>
      </trkpt>
      <trkpt lat="45.59684" lon="4.57079">
        <ele>691.40002441406</ele>
        <time>2015-12-06T03:06:00.000Z</time>
      </trkpt>
      <trkpt lat="45.59701" lon="4.57092">
        <ele>691.59997558594</ele>
        <time>2015-12-06T03:06:10.000Z</time>
      </trkpt>
      <trkpt lat="45.59719" lon="4.57104">
        <ele>691.59997558594</ele>
        <time>2015-12-06T03:06:20.000Z</time>
      </trkpt>
      <trkpt lat="45.59738" lon="4.57106">
        <ele>692.40002441406</ele>
        <time>2015-12-06T03:06:29.000Z</time>
      </trkpt>
      <trkpt lat="45.59757" lon="4.57109">
        <ele>693.20001220703</ele>
        <time>2015-12-06T03:06:39.000Z</time>
      </trkpt>
      <trkpt lat="45.59775" lon="4.57111">
        <ele>693.79998779297</ele>
        <time>2015-12-06T03:06:49.000Z</time>
      </trkpt>
      <trkpt lat="45.59794" lon="4.57115">
        <ele>694.59997558594</ele>
        <time>2015-12-06T03:07:02.000Z</time>
      </trkpt>
      <trkpt lat="45.59799" lon="4.57113">
        <ele>694.79998779297</ele>
        <time>2015-12-06T03:07:05.000Z</time>
      </trkpt>
      <trkpt lat="45.5981" lon="4.57105">
        <ele>695</ele>
        <time>2015-12-06T03:07:11.000Z</time>
      </trkpt>
      <trkpt lat="45.59826" lon="4.57093">
        <ele>695</ele>
        <time>2015-12-06T03:07:21.000Z</time>
      </trkpt>
      <trkpt lat="45.59845" lon="4.57084">
        <ele>695.20001220703</ele>
        <time>2015-12-06T03:07:31.000Z</time>
      </trkpt>
      <trkpt lat="45.59862" lon="4.57077">
        <ele>696.40002441406</ele>
        <time>2015-12-06T03:07:40.000Z</time>
      </trkpt>
      <trkpt lat="45.5988" lon="4.57075">
        <ele>697.79998779297</ele>
        <time>2015-12-06T03:07:49.000Z</time>
      </trkpt>
      <trkpt lat="45.59896" lon="4.57068">
        <ele>699.59997558594</ele>
        <time>2015-12-06T03:07:57.000Z</time>
      </trkpt>
      <trkpt lat="45.5991" lon="4.57051">
        <ele>701.40002441406</ele>
        <time>2015-12-06T03:08:06.000Z</time>
      </trkpt>
      <trkpt lat="45.59924" lon="4.57036">
        <ele>702</ele>
        <time>2015-12-06T03:08:15.000Z</time>
      </trkpt>
      <trkpt lat="45.59941" lon="4.57025">
        <ele>702.20001220703</ele>
        <time>2015-12-06T03:08:24.000Z</time>
      </trkpt>
      <trkpt lat="45.59957" lon="4.57042">
        <ele>703.59997558594</ele>
        <time>2015-12-06T03:08:33.000Z</time>
      </trkpt>
      <trkpt lat="45.59972" lon="4.57054">
        <ele>705</ele>
        <time>2015-12-06T03:08:45.000Z</time>
      </trkpt>
      <trkpt lat="45.59973" lon="4.57054">
        <ele>705.20001220703</ele>
        <time>2015-12-06T03:08:46.000Z</time>
      </trkpt>
      <trkpt lat="45.59977" lon="4.57055">
        <ele>706.40002441406</ele>
        <time>2015-12-06T03:08:52.000Z</time>
      </trkpt>
      <trkpt lat="45.59994" lon="4.57065">
        <ele>710.59997558594</ele>
        <time>2015-12-06T03:09:06.000Z</time>
      </trkpt>
      <trkpt lat="45.60003" lon="4.57089">
        <ele>713</ele>
        <time>2015-12-06T03:09:16.000Z</time>
      </trkpt>
      <trkpt lat="45.60014" lon="4.5711">
        <ele>715.79998779297</ele>
        <time>2015-12-06T03:09:29.000Z</time>
      </trkpt>
      <trkpt lat="45.60023" lon="4.57132">
        <ele>718.40002441406</ele>
        <time>2015-12-06T03:09:43.000Z</time>
      </trkpt>
      <trkpt lat="45.60032" lon="4.57155">
        <ele>721.20001220703</ele>
        <time>2015-12-06T03:09:57.000Z</time>
      </trkpt>
      <trkpt lat="45.60041" lon="4.57179">
        <ele>723.79998779297</ele>
        <time>2015-12-06T03:10:13.000Z</time>
      </trkpt>
      <trkpt lat="45.60048" lon="4.57203">
        <ele>726</ele>
        <time>2015-12-06T03:10:28.000Z</time>
      </trkpt>
      <trkpt lat="45.60056" lon="4.57226">
        <ele>728.79998779297</ele>
        <time>2015-12-06T03:10:42.000Z</time>
      </trkpt>
      <trkpt lat="45.60059" lon="4.57234">
        <ele>729.79998779297</ele>
        <time>2015-12-06T03:10:47.000Z</time>
      </trkpt>
      <trkpt lat="45.60061" lon="4.57256">
        <ele>730.79998779297</ele>
        <time>2015-12-06T03:11:16.000Z</time>
      </trkpt>
      <trkpt lat="45.60062" lon="4.57265">
        <ele>731.40002441406</ele>
        <time>2015-12-06T03:11:21.000Z</time>
      </trkpt>
      <trkpt lat="45.60063" lon="4.57281">
        <ele>732</ele>
        <time>2015-12-06T03:11:30.000Z</time>
      </trkpt>
      <trkpt lat="45.60069" lon="4.57307">
        <ele>733.79998779297</ele>
        <time>2015-12-06T03:11:45.000Z</time>
      </trkpt>
      <trkpt lat="45.60072" lon="4.57315">
        <ele>734.59997558594</ele>
        <time>2015-12-06T03:11:51.000Z</time>
      </trkpt>
      <trkpt lat="45.60077" lon="4.57325">
        <ele>735.79998779297</ele>
        <time>2015-12-06T03:11:58.000Z</time>
      </trkpt>
      <trkpt lat="45.60083" lon="4.57344">
        <ele>737.59997558594</ele>
        <time>2015-12-06T03:12:13.000Z</time>
      </trkpt>
      <trkpt lat="45.60093" lon="4.57366">
        <ele>740.40002441406</ele>
        <time>2015-12-06T03:12:27.000Z</time>
      </trkpt>
      <trkpt lat="45.60102" lon="4.57387">
        <ele>744.20001220703</ele>
        <time>2015-12-06T03:12:46.000Z</time>
      </trkpt>
      <trkpt lat="45.60111" lon="4.57411">
        <ele>747.40002441406</ele>
        <time>2015-12-06T03:13:03.000Z</time>
      </trkpt>
      <trkpt lat="45.60119" lon="4.57435">
        <ele>750.59997558594</ele>
        <time>2015-12-06T03:13:18.000Z</time>
      </trkpt>
      <trkpt lat="45.60124" lon="4.57451">
        <ele>752.59997558594</ele>
        <time>2015-12-06T03:13:27.000Z</time>
      </trkpt>
      <trkpt lat="45.60127" lon="4.57459">
        <ele>753.20001220703</ele>
        <time>2015-12-06T03:13:31.000Z</time>
      </trkpt>
      <trkpt lat="45.60129" lon="4.57466">
        <ele>753.40002441406</ele>
        <time>2015-12-06T03:13:35.000Z</time>
      </trkpt>
      <trkpt lat="45.60139" lon="4.57489">
        <ele>755.59997558594</ele>
        <time>2015-12-06T03:13:49.000Z</time>
      </trkpt>
      <trkpt lat="45.60149" lon="4.57511">
        <ele>756.59997558594</ele>
        <time>2015-12-06T03:14:02.000Z</time>
      </trkpt>
      <trkpt lat="45.60156" lon="4.57521">
        <ele>757.79998779297</ele>
        <time>2015-12-06T03:14:09.000Z</time>
      </trkpt>
      <trkpt lat="45.60169" lon="4.57541">
        <ele>759.20001220703</ele>
        <time>2015-12-06T03:14:23.000Z</time>
      </trkpt>
      <trkpt lat="45.6017" lon="4.57544">
        <ele>759.20001220703</ele>
        <time>2015-12-06T03:14:25.000Z</time>
      </trkpt>
      <trkpt lat="45.60181" lon="4.57565">
        <ele>758.59997558594</ele>
        <time>2015-12-06T03:14:39.000Z</time>
      </trkpt>
      <trkpt lat="45.60193" lon="4.57586">
        <ele>758.20001220703</ele>
        <time>2015-12-06T03:14:52.000Z</time>
      </trkpt>
      <trkpt lat="45.60206" lon="4.57605">
        <ele>759</ele>
        <time>2015-12-06T03:15:07.000Z</time>
      </trkpt>
      <trkpt lat="45.60214" lon="4.57611">
        <ele>760</ele>
        <time>2015-12-06T03:15:15.000Z</time>
      </trkpt>
      <trkpt lat="45.60231" lon="4.57623">
        <ele>763</ele>
        <time>2015-12-06T03:15:30.000Z</time>
      </trkpt>
      <trkpt lat="45.60244" lon="4.57639">
        <ele>765.59997558594</ele>
        <time>2015-12-06T03:15:44.000Z</time>
      </trkpt>
      <trkpt lat="45.60246" lon="4.57655">
        <ele>765.20001220703</ele>
        <time>2015-12-06T03:15:50.000Z</time>
      </trkpt>
      <trkpt lat="45.60248" lon="4.57672">
        <ele>764.79998779297</ele>
        <time>2015-12-06T03:15:56.000Z</time>
      </trkpt>
      <trkpt lat="45.60252" lon="4.57698">
        <ele>764</ele>
        <time>2015-12-06T03:16:06.000Z</time>
      </trkpt>
      <trkpt lat="45.60254" lon="4.57724">
        <ele>764</ele>
        <time>2015-12-06T03:16:14.000Z</time>
      </trkpt>
      <trkpt lat="45.60253" lon="4.5775">
        <ele>763.40002441406</ele>
        <time>2015-12-06T03:16:23.000Z</time>
      </trkpt>
      <trkpt lat="45.60248" lon="4.57775">
        <ele>762</ele>
        <time>2015-12-06T03:16:32.000Z</time>
      </trkpt>
      <trkpt lat="45.60251" lon="4.57801">
        <ele>761.20001220703</ele>
        <time>2015-12-06T03:16:41.000Z</time>
      </trkpt>
      <trkpt lat="45.60259" lon="4.57824">
        <ele>761</ele>
        <time>2015-12-06T03:16:50.000Z</time>
      </trkpt>
      <trkpt lat="45.60268" lon="4.57847">
        <ele>761.59997558594</ele>
        <time>2015-12-06T03:16:58.000Z</time>
      </trkpt>
      <trkpt lat="45.60276" lon="4.57871">
        <ele>762</ele>
        <time>2015-12-06T03:17:07.000Z</time>
      </trkpt>
      <trkpt lat="45.60285" lon="4.57895">
        <ele>763</ele>
        <time>2015-12-06T03:17:17.000Z</time>
      </trkpt>
      <trkpt lat="45.60294" lon="4.5792">
        <ele>764.20001220703</ele>
        <time>2015-12-06T03:17:27.000Z</time>
      </trkpt>
      <trkpt lat="45.60302" lon="4.57943">
        <ele>765.20001220703</ele>
        <time>2015-12-06T03:17:36.000Z</time>
      </trkpt>
      <trkpt lat="45.60308" lon="4.5797">
        <ele>765.59997558594</ele>
        <time>2015-12-06T03:17:46.000Z</time>
      </trkpt>
      <trkpt lat="45.60313" lon="4.57997">
        <ele>765.79998779297</ele>
        <time>2015-12-06T03:17:56.000Z</time>
      </trkpt>
      <trkpt lat="45.6032" lon="4.58022">
        <ele>766.40002441406</ele>
        <time>2015-12-06T03:18:06.000Z</time>
      </trkpt>
      <trkpt lat="45.60328" lon="4.58046">
        <ele>767</ele>
        <time>2015-12-06T03:18:15.000Z</time>
      </trkpt>
      <trkpt lat="45.60336" lon="4.5807">
        <ele>768.20001220703</ele>
        <time>2015-12-06T03:18:24.000Z</time>
      </trkpt>
      <trkpt lat="45.60345" lon="4.58095">
        <ele>769.20001220703</ele>
        <time>2015-12-06T03:18:34.000Z</time>
      </trkpt>
      <trkpt lat="45.60354" lon="4.58118">
        <ele>770.20001220703</ele>
        <time>2015-12-06T03:18:43.000Z</time>
      </trkpt>
      <trkpt lat="45.60358" lon="4.58136">
        <ele>770.20001220703</ele>
        <time>2015-12-06T03:18:49.000Z</time>
      </trkpt>
      <trkpt lat="45.60364" lon="4.58162">
        <ele>769.79998779297</ele>
        <time>2015-12-06T03:18:58.000Z</time>
      </trkpt>
      <trkpt lat="45.6037" lon="4.58186">
        <ele>769.79998779297</ele>
        <time>2015-12-06T03:19:06.000Z</time>
      </trkpt>
      <trkpt lat="45.60377" lon="4.5821">
        <ele>770</ele>
        <time>2015-12-06T03:19:14.000Z</time>
      </trkpt>
      <trkpt lat="45.60382" lon="4.58238">
        <ele>769.79998779297</ele>
        <time>2015-12-06T03:19:23.000Z</time>
      </trkpt>
      <trkpt lat="45.60386" lon="4.58263">
        <ele>769.79998779297</ele>
        <time>2015-12-06T03:19:31.000Z</time>
      </trkpt>
      <trkpt lat="45.60394" lon="4.5829">
        <ele>770.20001220703</ele>
        <time>2015-12-06T03:19:40.000Z</time>
      </trkpt>
      <trkpt lat="45.60404" lon="4.58313">
        <ele>771.20001220703</ele>
        <time>2015-12-06T03:19:49.000Z</time>
      </trkpt>
      <trkpt lat="45.60416" lon="4.58333">
        <ele>772.59997558594</ele>
        <time>2015-12-06T03:19:58.000Z</time>
      </trkpt>
      <trkpt lat="45.60424" lon="4.58357">
        <ele>773.40002441406</ele>
        <time>2015-12-06T03:20:07.000Z</time>
      </trkpt>
      <trkpt lat="45.60431" lon="4.58381">
        <ele>773.79998779297</ele>
        <time>2015-12-06T03:20:16.000Z</time>
      </trkpt>
      <trkpt lat="45.60441" lon="4.58405">
        <ele>774.79998779297</ele>
        <time>2015-12-06T03:20:26.000Z</time>
      </trkpt>
      <trkpt lat="45.60451" lon="4.58427">
        <ele>775.79998779297</ele>
        <time>2015-12-06T03:20:35.000Z</time>
      </trkpt>
      <trkpt lat="45.60462" lon="4.58448">
        <ele>777</ele>
        <time>2015-12-06T03:20:44.000Z</time>
      </trkpt>
      <trkpt lat="45.60472" lon="4.58469">
        <ele>777.79998779297</ele>
        <time>2015-12-06T03:20:53.000Z</time>
      </trkpt>
      <trkpt lat="45.60481" lon="4.58493">
        <ele>777.79998779297</ele>
        <time>2015-12-06T03:21:02.000Z</time>
      </trkpt>
      <trkpt lat="45.60487" lon="4.58519">
        <ele>777.40002441406</ele>
        <time>2015-12-06T03:21:11.000Z</time>
      </trkpt>
      <trkpt lat="45.60495" lon="4.58544">
        <ele>777.59997558594</ele>
        <time>2015-12-06T03:21:20.000Z</time>
      </trkpt>
      <trkpt lat="45.60503" lon="4.58568">
        <ele>777.79998779297</ele>
        <time>2015-12-06T03:21:29.000Z</time>
      </trkpt>
      <trkpt lat="45.60511" lon="4.58592">
        <ele>778</ele>
        <time>2015-12-06T03:21:38.000Z</time>
      </trkpt>
      <trkpt lat="45.60518" lon="4.58615">
        <ele>778.20001220703</ele>
        <time>2015-12-06T03:21:47.000Z</time>
      </trkpt>
      <trkpt lat="45.60524" lon="4.5864">
        <ele>778.20001220703</ele>
        <time>2015-12-06T03:21:56.000Z</time>
      </trkpt>
      <trkpt lat="45.60534" lon="4.58663">
        <ele>778.79998779297</ele>
        <time>2015-12-06T03:22:06.000Z</time>
      </trkpt>
      <trkpt lat="45.60547" lon="4.58684">
        <ele>780</ele>
        <time>2015-12-06T03:22:16.000Z</time>
      </trkpt>
      <trkpt lat="45.60562" lon="4.58701">
        <ele>780.79998779297</ele>
        <time>2015-12-06T03:22:26.000Z</time>
      </trkpt>
      <trkpt lat="45.60579" lon="4.58714">
        <ele>781.59997558594</ele>
        <time>2015-12-06T03:22:35.000Z</time>
      </trkpt>
      <trkpt lat="45.60595" lon="4.58728">
        <ele>782.40002441406</ele>
        <time>2015-12-06T03:22:44.000Z</time>
      </trkpt>
      <trkpt lat="45.6061" lon="4.58742">
        <ele>783</ele>
        <time>2015-12-06T03:22:53.000Z</time>
      </trkpt>
      <trkpt lat="45.60625" lon="4.58757">
        <ele>783.59997558594</ele>
        <time>2015-12-06T03:23:02.000Z</time>
      </trkpt>
      <trkpt lat="45.60642" lon="4.58772">
        <ele>784.20001220703</ele>
        <time>2015-12-06T03:23:11.000Z</time>
      </trkpt>
      <trkpt lat="45.60655" lon="4.58792">
        <ele>783.59997558594</ele>
        <time>2015-12-06T03:23:21.000Z</time>
      </trkpt>
      <trkpt lat="45.60663" lon="4.58817">
        <ele>781.59997558594</ele>
        <time>2015-12-06T03:23:30.000Z</time>
      </trkpt>
      <trkpt lat="45.60673" lon="4.58842">
        <ele>780</ele>
        <time>2015-12-06T03:23:38.000Z</time>
      </trkpt>
      <trkpt lat="45.60683" lon="4.58864">
        <ele>778.59997558594</ele>
        <time>2015-12-06T03:23:46.000Z</time>
      </trkpt>
      <trkpt lat="45.60693" lon="4.58886">
        <ele>776.79998779297</ele>
        <time>2015-12-06T03:23:54.000Z</time>
      </trkpt>
      <trkpt lat="45.60703" lon="4.58908">
        <ele>775</ele>
        <time>2015-12-06T03:24:02.000Z</time>
      </trkpt>
      <trkpt lat="45.60718" lon="4.58927">
        <ele>773.59997558594</ele>
        <time>2015-12-06T03:24:11.000Z</time>
      </trkpt>
      <trkpt lat="45.60734" lon="4.58944">
        <ele>771.59997558594</ele>
        <time>2015-12-06T03:24:20.000Z</time>
      </trkpt>
      <trkpt lat="45.6075" lon="4.5896">
        <ele>770.20001220703</ele>
        <time>2015-12-06T03:24:28.000Z</time>
      </trkpt>
      <trkpt lat="45.60765" lon="4.58974">
        <ele>769.40002441406</ele>
        <time>2015-12-06T03:24:35.000Z</time>
      </trkpt>
      <trkpt lat="45.6078" lon="4.58987">
        <ele>768.59997558594</ele>
        <time>2015-12-06T03:24:43.000Z</time>
      </trkpt>
      <trkpt lat="45.608" lon="4.58992">
        <ele>768</ele>
        <time>2015-12-06T03:24:53.000Z</time>
      </trkpt>
      <trkpt lat="45.6082" lon="4.58996">
        <ele>770</ele>
        <time>2015-12-06T03:25:02.000Z</time>
      </trkpt>
      <trkpt lat="45.60838" lon="4.59007">
        <ele>771.59997558594</ele>
        <time>2015-12-06T03:25:11.000Z</time>
      </trkpt>
      <trkpt lat="45.60851" lon="4.59025">
        <ele>772.40002441406</ele>
        <time>2015-12-06T03:25:20.000Z</time>
      </trkpt>
      <trkpt lat="45.60868" lon="4.59024">
        <ele>774.40002441406</ele>
        <time>2015-12-06T03:25:31.000Z</time>
      </trkpt>
      <trkpt lat="45.60887" lon="4.59025">
        <ele>776.20001220703</ele>
        <time>2015-12-06T03:25:43.000Z</time>
      </trkpt>
      <trkpt lat="45.60895" lon="4.59025">
        <ele>777</ele>
        <time>2015-12-06T03:25:50.000Z</time>
      </trkpt>
      <trkpt lat="45.60913" lon="4.59029">
        <ele>779</ele>
        <time>2015-12-06T03:26:06.000Z</time>
      </trkpt>
      <trkpt lat="45.60931" lon="4.59035">
        <ele>781</ele>
        <time>2015-12-06T03:26:21.000Z</time>
      </trkpt>
      <trkpt lat="45.6095" lon="4.5904">
        <ele>783</ele>
        <time>2015-12-06T03:26:36.000Z</time>
      </trkpt>
      <trkpt lat="45.60969" lon="4.59044">
        <ele>785</ele>
        <time>2015-12-06T03:26:51.000Z</time>
      </trkpt>
      <trkpt lat="45.60988" lon="4.59049">
        <ele>787.20001220703</ele>
        <time>2015-12-06T03:27:05.000Z</time>
      </trkpt>
      <trkpt lat="45.61006" lon="4.59053">
        <ele>789.20001220703</ele>
        <time>2015-12-06T03:27:19.000Z</time>
      </trkpt>
      <trkpt lat="45.61025" lon="4.59055">
        <ele>791.20001220703</ele>
        <time>2015-12-06T03:27:34.000Z</time>
      </trkpt>
      <trkpt lat="45.61043" lon="4.59064">
        <ele>793.40002441406</ele>
        <time>2015-12-06T03:27:48.000Z</time>
      </trkpt>
      <trkpt lat="45.6106" lon="4.59075">
        <ele>796.20001220703</ele>
        <time>2015-12-06T03:28:03.000Z</time>
      </trkpt>
      <trkpt lat="45.61075" lon="4.5909">
        <ele>799.79998779297</ele>
        <time>2015-12-06T03:28:18.000Z</time>
      </trkpt>
      <trkpt lat="45.61084" lon="4.591">
        <ele>801.59997558594</ele>
        <time>2015-12-06T03:28:27.000Z</time>
      </trkpt>
      <trkpt lat="45.611" lon="4.59112">
        <ele>805.20001220703</ele>
        <time>2015-12-06T03:28:43.000Z</time>
      </trkpt>
      <trkpt lat="45.61107" lon="4.59115">
        <ele>807</ele>
        <time>2015-12-06T03:28:50.000Z</time>
      </trkpt>
      <trkpt lat="45.61114" lon="4.59119">
        <ele>808.59997558594</ele>
        <time>2015-12-06T03:28:56.000Z</time>
      </trkpt>
      <trkpt lat="45.6113" lon="4.59131">
        <ele>812.20001220703</ele>
        <time>2015-12-06T03:29:11.000Z</time>
      </trkpt>
      <trkpt lat="45.61146" lon="4.59144">
        <ele>816</ele>
        <time>2015-12-06T03:29:27.000Z</time>
      </trkpt>
      <trkpt lat="45.61161" lon="4.59161">
        <ele>820</ele>
        <time>2015-12-06T03:29:43.000Z</time>
      </trkpt>
      <trkpt lat="45.61175" lon="4.59177">
        <ele>823.79998779297</ele>
        <time>2015-12-06T03:30:00.000Z</time>
      </trkpt>
      <trkpt lat="45.61189" lon="4.59196">
        <ele>827.40002441406</ele>
        <time>2015-12-06T03:30:19.000Z</time>
      </trkpt>
      <trkpt lat="45.61204" lon="4.59211">
        <ele>830.59997558594</ele>
        <time>2015-12-06T03:30:33.000Z</time>
      </trkpt>
      <trkpt lat="45.61218" lon="4.59229">
        <ele>832.79998779297</ele>
        <time>2015-12-06T03:30:50.000Z</time>
      </trkpt>
      <trkpt lat="45.61233" lon="4.59244">
        <ele>834.40002441406</ele>
        <time>2015-12-06T03:31:07.000Z</time>
      </trkpt>
      <trkpt lat="45.61252" lon="4.59245">
        <ele>837.40002441406</ele>
        <time>2015-12-06T03:31:23.000Z</time>
      </trkpt>
      <trkpt lat="45.61271" lon="4.59251">
        <ele>840.20001220703</ele>
        <time>2015-12-06T03:31:38.000Z</time>
      </trkpt>
      <trkpt lat="45.61287" lon="4.59256">
        <ele>843</ele>
        <time>2015-12-06T03:31:52.000Z</time>
      </trkpt>
      <trkpt lat="45.61305" lon="4.59262">
        <ele>845.79998779297</ele>
        <time>2015-12-06T03:32:08.000Z</time>
      </trkpt>
      <trkpt lat="45.61324" lon="4.59268">
        <ele>847.20001220703</ele>
        <time>2015-12-06T03:32:23.000Z</time>
      </trkpt>
      <trkpt lat="45.61342" lon="4.59275">
        <ele>848.40002441406</ele>
        <time>2015-12-06T03:32:37.000Z</time>
      </trkpt>
      <trkpt lat="45.61361" lon="4.59282">
        <ele>849.59997558594</ele>
        <time>2015-12-06T03:32:51.000Z</time>
      </trkpt>
      <trkpt lat="45.61379" lon="4.59289">
        <ele>850.59997558594</ele>
        <time>2015-12-06T03:33:04.000Z</time>
      </trkpt>
      <trkpt lat="45.61397" lon="4.59296">
        <ele>851.59997558594</ele>
        <time>2015-12-06T03:33:18.000Z</time>
      </trkpt>
      <trkpt lat="45.61415" lon="4.59303">
        <ele>851.59997558594</ele>
        <time>2015-12-06T03:33:33.000Z</time>
      </trkpt>
      <trkpt lat="45.61423" lon="4.59305">
        <ele>851.59997558594</ele>
        <time>2015-12-06T03:33:39.000Z</time>
      </trkpt>
      <trkpt lat="45.61442" lon="4.59309">
        <ele>851.79998779297</ele>
        <time>2015-12-06T03:33:53.000Z</time>
      </trkpt>
      <trkpt lat="45.6146" lon="4.59313">
        <ele>852.20001220703</ele>
        <time>2015-12-06T03:34:08.000Z</time>
      </trkpt>
      <trkpt lat="45.61479" lon="4.59312">
        <ele>853.40002441406</ele>
        <time>2015-12-06T03:34:23.000Z</time>
      </trkpt>
      <trkpt lat="45.61498" lon="4.59312">
        <ele>855</ele>
        <time>2015-12-06T03:34:39.000Z</time>
      </trkpt>
      <trkpt lat="45.61516" lon="4.59314">
        <ele>855.20001220703</ele>
        <time>2015-12-06T03:34:54.000Z</time>
      </trkpt>
      <trkpt lat="45.61535" lon="4.59316">
        <ele>855.59997558594</ele>
        <time>2015-12-06T03:35:08.000Z</time>
      </trkpt>
      <trkpt lat="45.61553" lon="4.5932">
        <ele>855.79998779297</ele>
        <time>2015-12-06T03:35:23.000Z</time>
      </trkpt>
      <trkpt lat="45.61571" lon="4.59326">
        <ele>856.20001220703</ele>
        <time>2015-12-06T03:35:37.000Z</time>
      </trkpt>
      <trkpt lat="45.6159" lon="4.59328">
        <ele>856.40002441406</ele>
        <time>2015-12-06T03:35:51.000Z</time>
      </trkpt>
      <trkpt lat="45.61608" lon="4.59329">
        <ele>856.40002441406</ele>
        <time>2015-12-06T03:36:04.000Z</time>
      </trkpt>
      <trkpt lat="45.61627" lon="4.5933">
        <ele>855.79998779297</ele>
        <time>2015-12-06T03:36:13.000Z</time>
      </trkpt>
      <trkpt lat="45.61646" lon="4.59333">
        <ele>855.40002441406</ele>
        <time>2015-12-06T03:36:21.000Z</time>
      </trkpt>
      <trkpt lat="45.61666" lon="4.59334">
        <ele>854.79998779297</ele>
        <time>2015-12-06T03:36:30.000Z</time>
      </trkpt>
      <trkpt lat="45.61686" lon="4.59337">
        <ele>854.40002441406</ele>
        <time>2015-12-06T03:36:39.000Z</time>
      </trkpt>
      <trkpt lat="45.61706" lon="4.59341">
        <ele>853.40002441406</ele>
        <time>2015-12-06T03:36:47.000Z</time>
      </trkpt>
      <trkpt lat="45.61724" lon="4.59345">
        <ele>852.79998779297</ele>
        <time>2015-12-06T03:36:55.000Z</time>
      </trkpt>
      <trkpt lat="45.61744" lon="4.59351">
        <ele>853.59997558594</ele>
        <time>2015-12-06T03:37:04.000Z</time>
      </trkpt>
      <trkpt lat="45.61762" lon="4.59355">
        <ele>854.20001220703</ele>
        <time>2015-12-06T03:37:13.000Z</time>
      </trkpt>
      <trkpt lat="45.6178" lon="4.59357">
        <ele>854.59997558594</ele>
        <time>2015-12-06T03:37:22.000Z</time>
      </trkpt>
      <trkpt lat="45.61799" lon="4.59357">
        <ele>855</ele>
        <time>2015-12-06T03:37:31.000Z</time>
      </trkpt>
      <trkpt lat="45.61818" lon="4.59358">
        <ele>856.40002441406</ele>
        <time>2015-12-06T03:37:40.000Z</time>
      </trkpt>
      <trkpt lat="45.61837" lon="4.59356">
        <ele>858</ele>
        <time>2015-12-06T03:37:49.000Z</time>
      </trkpt>
      <trkpt lat="45.61856" lon="4.59355">
        <ele>859.40002441406</ele>
        <time>2015-12-06T03:37:58.000Z</time>
      </trkpt>
      <trkpt lat="45.61874" lon="4.59352">
        <ele>860.79998779297</ele>
        <time>2015-12-06T03:38:07.000Z</time>
      </trkpt>
      <trkpt lat="45.61891" lon="4.59344">
        <ele>862.20001220703</ele>
        <time>2015-12-06T03:38:17.000Z</time>
      </trkpt>
      <trkpt lat="45.61904" lon="4.59325">
        <ele>862</ele>
        <time>2015-12-06T03:38:26.000Z</time>
      </trkpt>
      <trkpt lat="45.61916" lon="4.59303">
        <ele>861.79998779297</ele>
        <time>2015-12-06T03:38:35.000Z</time>
      </trkpt>
      <trkpt lat="45.61931" lon="4.59285">
        <ele>861.79998779297</ele>
        <time>2015-12-06T03:38:44.000Z</time>
      </trkpt>
      <trkpt lat="45.61947" lon="4.59269">
        <ele>861.40002441406</ele>
        <time>2015-12-06T03:38:53.000Z</time>
      </trkpt>
      <trkpt lat="45.61962" lon="4.59252">
        <ele>862.79998779297</ele>
        <time>2015-12-06T03:39:02.000Z</time>
      </trkpt>
      <trkpt lat="45.61979" lon="4.59236">
        <ele>862.79998779297</ele>
        <time>2015-12-06T03:39:11.000Z</time>
      </trkpt>
      <trkpt lat="45.61991" lon="4.59216">
        <ele>861.79998779297</ele>
        <time>2015-12-06T03:39:19.000Z</time>
      </trkpt>
      <trkpt lat="45.62001" lon="4.59193">
        <ele>860.79998779297</ele>
        <time>2015-12-06T03:39:27.000Z</time>
      </trkpt>
      <trkpt lat="45.6201" lon="4.59171">
        <ele>860.79998779297</ele>
        <time>2015-12-06T03:39:35.000Z</time>
      </trkpt>
      <trkpt lat="45.6202" lon="4.59147">
        <ele>859.40002441406</ele>
        <time>2015-12-06T03:39:44.000Z</time>
      </trkpt>
      <trkpt lat="45.62031" lon="4.59123">
        <ele>857.59997558594</ele>
        <time>2015-12-06T03:39:53.000Z</time>
      </trkpt>
      <trkpt lat="45.62041" lon="4.59099">
        <ele>855.59997558594</ele>
        <time>2015-12-06T03:40:02.000Z</time>
      </trkpt>
      <trkpt lat="45.6205" lon="4.59076">
        <ele>854.59997558594</ele>
        <time>2015-12-06T03:40:11.000Z</time>
      </trkpt>
      <trkpt lat="45.62055" lon="4.59058">
        <ele>853.59997558594</ele>
        <time>2015-12-06T03:40:17.000Z</time>
      </trkpt>
      <trkpt lat="45.62063" lon="4.59033">
        <ele>851.79998779297</ele>
        <time>2015-12-06T03:40:25.000Z</time>
      </trkpt>
      <trkpt lat="45.62072" lon="4.59009">
        <ele>849.40002441406</ele>
        <time>2015-12-06T03:40:32.000Z</time>
      </trkpt>
      <trkpt lat="45.62084" lon="4.58986">
        <ele>846.20001220703</ele>
        <time>2015-12-06T03:40:40.000Z</time>
      </trkpt>
      <trkpt lat="45.62097" lon="4.58965">
        <ele>845.79998779297</ele>
        <time>2015-12-06T03:40:48.000Z</time>
      </trkpt>
      <trkpt lat="45.6211" lon="4.58946">
        <ele>844.40002441406</ele>
        <time>2015-12-06T03:40:56.000Z</time>
      </trkpt>
      <trkpt lat="45.62118" lon="4.58935">
        <ele>841.79998779297</ele>
        <time>2015-12-06T03:41:01.000Z</time>
      </trkpt>
      <trkpt lat="45.62132" lon="4.58913">
        <ele>842</ele>
        <time>2015-12-06T03:41:09.000Z</time>
      </trkpt>
      <trkpt lat="45.62144" lon="4.58892">
        <ele>840.40002441406</ele>
        <time>2015-12-06T03:41:16.000Z</time>
      </trkpt>
      <trkpt lat="45.62159" lon="4.58872">
        <ele>840.40002441406</ele>
        <time>2015-12-06T03:41:23.000Z</time>
      </trkpt>
      <trkpt lat="45.62173" lon="4.58854">
        <ele>840.20001220703</ele>
        <time>2015-12-06T03:41:29.000Z</time>
      </trkpt>
      <trkpt lat="45.62186" lon="4.58832">
        <ele>840</ele>
        <time>2015-12-06T03:41:36.000Z</time>
      </trkpt>
      <trkpt lat="45.62195" lon="4.58808">
        <ele>842.59997558594</ele>
        <time>2015-12-06T03:41:43.000Z</time>
      </trkpt>
      <trkpt lat="45.62209" lon="4.5879">
        <ele>845</ele>
        <time>2015-12-06T03:41:51.000Z</time>
      </trkpt>
      <trkpt lat="45.62228" lon="4.58789">
        <ele>844.40002441406</ele>
        <time>2015-12-06T03:41:59.000Z</time>
      </trkpt>
      <trkpt lat="45.62247" lon="4.58795">
        <ele>841.59997558594</ele>
        <time>2015-12-06T03:42:07.000Z</time>
      </trkpt>
      <trkpt lat="45.62265" lon="4.58805">
        <ele>838.40002441406</ele>
        <time>2015-12-06T03:42:15.000Z</time>
      </trkpt>
      <trkpt lat="45.62283" lon="4.58817">
        <ele>835.40002441406</ele>
        <time>2015-12-06T03:42:22.000Z</time>
      </trkpt>
      <trkpt lat="45.623" lon="4.58829">
        <ele>832</ele>
        <time>2015-12-06T03:42:29.000Z</time>
      </trkpt>
      <trkpt lat="45.62319" lon="4.58827">
        <ele>827.59997558594</ele>
        <time>2015-12-06T03:42:36.000Z</time>
      </trkpt>
      <trkpt lat="45.62326" lon="4.58824">
        <ele>825.79998779297</ele>
        <time>2015-12-06T03:42:42.000Z</time>
      </trkpt>
      <trkpt lat="45.62334" lon="4.58821">
        <ele>824.20001220703</ele>
        <time>2015-12-06T03:42:48.000Z</time>
      </trkpt>
      <trkpt lat="45.62339" lon="4.58818">
        <ele>823.20001220703</ele>
        <time>2015-12-06T03:42:52.000Z</time>
      </trkpt>
      <trkpt lat="45.62357" lon="4.58807">
        <ele>821.20001220703</ele>
        <time>2015-12-06T03:43:03.000Z</time>
      </trkpt>
      <trkpt lat="45.62374" lon="4.58797">
        <ele>819.59997558594</ele>
        <time>2015-12-06T03:43:13.000Z</time>
      </trkpt>
      <trkpt lat="45.6239" lon="4.58785">
        <ele>817.59997558594</ele>
        <time>2015-12-06T03:43:22.000Z</time>
      </trkpt>
      <trkpt lat="45.62403" lon="4.58771">
        <ele>815</ele>
        <time>2015-12-06T03:43:29.000Z</time>
      </trkpt>
      <trkpt lat="45.62417" lon="4.58752">
        <ele>812.40002441406</ele>
        <time>2015-12-06T03:43:37.000Z</time>
      </trkpt>
      <trkpt lat="45.62422" lon="4.5874">
        <ele>811.79998779297</ele>
        <time>2015-12-06T03:43:45.000Z</time>
      </trkpt>
      <trkpt lat="45.62434" lon="4.58725">
        <ele>811.59997558594</ele>
        <time>2015-12-06T03:43:53.000Z</time>
      </trkpt>
      <trkpt lat="45.6244" lon="4.58716">
        <ele>811.59997558594</ele>
        <time>2015-12-06T03:43:57.000Z</time>
      </trkpt>
      <trkpt lat="45.62455" lon="4.58701">
        <ele>810.40002441406</ele>
        <time>2015-12-06T03:44:07.000Z</time>
      </trkpt>
      <trkpt lat="45.62457" lon="4.58699">
        <ele>809.79998779297</ele>
        <time>2015-12-06T03:44:08.000Z</time>
      </trkpt>
      <trkpt lat="45.62472" lon="4.58684">
        <ele>807</ele>
        <time>2015-12-06T03:44:16.000Z</time>
      </trkpt>
      <trkpt lat="45.62478" lon="4.58677">
        <ele>805.79998779297</ele>
        <time>2015-12-06T03:44:20.000Z</time>
      </trkpt>
      <trkpt lat="45.62486" lon="4.58667">
        <ele>803.59997558594</ele>
        <time>2015-12-06T03:44:24.000Z</time>
      </trkpt>
      <trkpt lat="45.62499" lon="4.58647">
        <ele>800.79998779297</ele>
        <time>2015-12-06T03:44:31.000Z</time>
      </trkpt>
      <trkpt lat="45.62507" lon="4.58624">
        <ele>800</ele>
        <time>2015-12-06T03:44:39.000Z</time>
      </trkpt>
      <trkpt lat="45.62517" lon="4.586">
        <ele>799</ele>
        <time>2015-12-06T03:44:49.000Z</time>
      </trkpt>
      <trkpt lat="45.62518" lon="4.58597">
        <ele>798.79998779297</ele>
        <time>2015-12-06T03:44:50.000Z</time>
      </trkpt>
      <trkpt lat="45.62527" lon="4.58571">
        <ele>797.79998779297</ele>
        <time>2015-12-06T03:44:58.000Z</time>
      </trkpt>
      <trkpt lat="45.62535" lon="4.58546">
        <ele>797</ele>
        <time>2015-12-06T03:45:06.000Z</time>
      </trkpt>
      <trkpt lat="45.62544" lon="4.58524">
        <ele>795.59997558594</ele>
        <time>2015-12-06T03:45:14.000Z</time>
      </trkpt>
      <trkpt lat="45.62558" lon="4.58501">
        <ele>792.20001220703</ele>
        <time>2015-12-06T03:45:22.000Z</time>
      </trkpt>
      <trkpt lat="45.62574" lon="4.58486">
        <ele>790.20001220703</ele>
        <time>2015-12-06T03:45:27.000Z</time>
      </trkpt>
      <trkpt lat="45.62589" lon="4.58469">
        <ele>787.79998779297</ele>
        <time>2015-12-06T03:45:33.000Z</time>
      </trkpt>
      <trkpt lat="45.62603" lon="4.58452">
        <ele>785.79998779297</ele>
        <time>2015-12-06T03:45:40.000Z</time>
      </trkpt>
      <trkpt lat="45.62616" lon="4.5843">
        <ele>784.20001220703</ele>
        <time>2015-12-06T03:45:48.000Z</time>
      </trkpt>
      <trkpt lat="45.62629" lon="4.5841">
        <ele>781.40002441406</ele>
        <time>2015-12-06T03:45:54.000Z</time>
      </trkpt>
      <trkpt lat="45.6264" lon="4.58388">
        <ele>779.20001220703</ele>
        <time>2015-12-06T03:46:02.000Z</time>
      </trkpt>
      <trkpt lat="45.62654" lon="4.58368">
        <ele>776</ele>
        <time>2015-12-06T03:46:14.000Z</time>
      </trkpt>
      <trkpt lat="45.62666" lon="4.5835">
        <ele>771.79998779297</ele>
        <time>2015-12-06T03:46:19.000Z</time>
      </trkpt>
      <trkpt lat="45.62681" lon="4.58333">
        <ele>767.20001220703</ele>
        <time>2015-12-06T03:46:27.000Z</time>
      </trkpt>
      <trkpt lat="45.62699" lon="4.58322">
        <ele>763</ele>
        <time>2015-12-06T03:46:34.000Z</time>
      </trkpt>
      <trkpt lat="45.62714" lon="4.58307">
        <ele>759.20001220703</ele>
        <time>2015-12-06T03:46:41.000Z</time>
      </trkpt>
      <trkpt lat="45.6273" lon="4.58289">
        <ele>755.79998779297</ele>
        <time>2015-12-06T03:46:48.000Z</time>
      </trkpt>
      <trkpt lat="45.62742" lon="4.58276">
        <ele>753.59997558594</ele>
        <time>2015-12-06T03:46:55.000Z</time>
      </trkpt>
      <trkpt lat="45.62747" lon="4.58268">
        <ele>752.40002441406</ele>
        <time>2015-12-06T03:47:01.000Z</time>
      </trkpt>
      <trkpt lat="45.62751" lon="4.58261">
        <ele>751.40002441406</ele>
        <time>2015-12-06T03:47:04.000Z</time>
      </trkpt>
      <trkpt lat="45.6277" lon="4.58261">
        <ele>749.20001220703</ele>
        <time>2015-12-06T03:47:11.000Z</time>
      </trkpt>
      <trkpt lat="45.62789" lon="4.58263">
        <ele>747.40002441406</ele>
        <time>2015-12-06T03:47:19.000Z</time>
      </trkpt>
      <trkpt lat="45.62807" lon="4.58263">
        <ele>746.59997558594</ele>
        <time>2015-12-06T03:47:27.000Z</time>
      </trkpt>
      <trkpt lat="45.62826" lon="4.58266">
        <ele>747.40002441406</ele>
        <time>2015-12-06T03:47:35.000Z</time>
      </trkpt>
      <trkpt lat="45.62845" lon="4.58277">
        <ele>748.40002441406</ele>
        <time>2015-12-06T03:47:42.000Z</time>
      </trkpt>
      <trkpt lat="45.62862" lon="4.58284">
        <ele>749.20001220703</ele>
        <time>2015-12-06T03:47:50.000Z</time>
      </trkpt>
      <trkpt lat="45.62881" lon="4.5828">
        <ele>749.79998779297</ele>
        <time>2015-12-06T03:47:58.000Z</time>
      </trkpt>
      <trkpt lat="45.62897" lon="4.58264">
        <ele>752</ele>
        <time>2015-12-06T03:48:07.000Z</time>
      </trkpt>
      <trkpt lat="45.62906" lon="4.58239">
        <ele>753.79998779297</ele>
        <time>2015-12-06T03:48:16.000Z</time>
      </trkpt>
      <trkpt lat="45.62914" lon="4.58215">
        <ele>755.59997558594</ele>
        <time>2015-12-06T03:48:25.000Z</time>
      </trkpt>
      <trkpt lat="45.62915" lon="4.58189">
        <ele>756.59997558594</ele>
        <time>2015-12-06T03:48:34.000Z</time>
      </trkpt>
      <trkpt lat="45.62912" lon="4.58162">
        <ele>756.59997558594</ele>
        <time>2015-12-06T03:48:43.000Z</time>
      </trkpt>
      <trkpt lat="45.62908" lon="4.58136">
        <ele>757</ele>
        <time>2015-12-06T03:48:52.000Z</time>
      </trkpt>
      <trkpt lat="45.62906" lon="4.5811">
        <ele>758.79998779297</ele>
        <time>2015-12-06T03:49:01.000Z</time>
      </trkpt>
      <trkpt lat="45.62903" lon="4.58083">
        <ele>759.79998779297</ele>
        <time>2015-12-06T03:49:10.000Z</time>
      </trkpt>
      <trkpt lat="45.62902" lon="4.58057">
        <ele>761</ele>
        <time>2015-12-06T03:49:19.000Z</time>
      </trkpt>
      <trkpt lat="45.62901" lon="4.5803">
        <ele>762.79998779297</ele>
        <time>2015-12-06T03:49:30.000Z</time>
      </trkpt>
      <trkpt lat="45.62899" lon="4.58002">
        <ele>763.79998779297</ele>
        <time>2015-12-06T03:49:43.000Z</time>
      </trkpt>
      <trkpt lat="45.62898" lon="4.57976">
        <ele>764.79998779297</ele>
        <time>2015-12-06T03:49:56.000Z</time>
      </trkpt>
      <trkpt lat="45.62896" lon="4.5795">
        <ele>765.79998779297</ele>
        <time>2015-12-06T03:50:09.000Z</time>
      </trkpt>
      <trkpt lat="45.62898" lon="4.57923">
        <ele>766.59997558594</ele>
        <time>2015-12-06T03:50:22.000Z</time>
      </trkpt>
      <trkpt lat="45.629" lon="4.57897">
        <ele>767.40002441406</ele>
        <time>2015-12-06T03:50:34.000Z</time>
      </trkpt>
      <trkpt lat="45.62905" lon="4.57871">
        <ele>768.79998779297</ele>
        <time>2015-12-06T03:50:48.000Z</time>
      </trkpt>
      <trkpt lat="45.62907" lon="4.57861">
        <ele>769</ele>
        <time>2015-12-06T03:50:54.000Z</time>
      </trkpt>
      <trkpt lat="45.62909" lon="4.57836">
        <ele>768.79998779297</ele>
        <time>2015-12-06T03:51:07.000Z</time>
      </trkpt>
      <trkpt lat="45.62911" lon="4.5781">
        <ele>768.40002441406</ele>
        <time>2015-12-06T03:51:19.000Z</time>
      </trkpt>
      <trkpt lat="45.62918" lon="4.57784">
        <ele>766.79998779297</ele>
        <time>2015-12-06T03:51:32.000Z</time>
      </trkpt>
      <trkpt lat="45.62927" lon="4.57762">
        <ele>766.20001220703</ele>
        <time>2015-12-06T03:51:44.000Z</time>
      </trkpt>
      <trkpt lat="45.62941" lon="4.57745">
        <ele>766.40002441406</ele>
        <time>2015-12-06T03:51:56.000Z</time>
      </trkpt>
      <trkpt lat="45.62954" lon="4.57726">
        <ele>765</ele>
        <time>2015-12-06T03:52:08.000Z</time>
      </trkpt>
      <trkpt lat="45.62957" lon="4.5772">
        <ele>764.40002441406</ele>
        <time>2015-12-06T03:52:12.000Z</time>
      </trkpt>
      <trkpt lat="45.62971" lon="4.57702">
        <ele>763.20001220703</ele>
        <time>2015-12-06T03:52:24.000Z</time>
      </trkpt>
      <trkpt lat="45.62987" lon="4.57687">
        <ele>762.79998779297</ele>
        <time>2015-12-06T03:52:33.000Z</time>
      </trkpt>
      <trkpt lat="45.63002" lon="4.57672">
        <ele>762.20001220703</ele>
        <time>2015-12-06T03:52:41.000Z</time>
      </trkpt>
      <trkpt lat="45.63018" lon="4.57655">
        <ele>762.20001220703</ele>
        <time>2015-12-06T03:52:49.000Z</time>
      </trkpt>
      <trkpt lat="45.63034" lon="4.57639">
        <ele>763.20001220703</ele>
        <time>2015-12-06T03:52:57.000Z</time>
      </trkpt>
      <trkpt lat="45.63048" lon="4.5762">
        <ele>763.59997558594</ele>
        <time>2015-12-06T03:53:06.000Z</time>
      </trkpt>
      <trkpt lat="45.6306" lon="4.576">
        <ele>763.59997558594</ele>
        <time>2015-12-06T03:53:14.000Z</time>
      </trkpt>
      <trkpt lat="45.63074" lon="4.57579">
        <ele>763.40002441406</ele>
        <time>2015-12-06T03:53:23.000Z</time>
      </trkpt>
      <trkpt lat="45.63089" lon="4.57565">
        <ele>763.20001220703</ele>
        <time>2015-12-06T03:53:32.000Z</time>
      </trkpt>
      <trkpt lat="45.63106" lon="4.57559">
        <ele>762.79998779297</ele>
        <time>2015-12-06T03:53:42.000Z</time>
      </trkpt>
      <trkpt lat="45.63124" lon="4.57567">
        <ele>763.40002441406</ele>
        <time>2015-12-06T03:53:53.000Z</time>
      </trkpt>
      <trkpt lat="45.63141" lon="4.57575">
        <ele>763.40002441406</ele>
        <time>2015-12-06T03:54:07.000Z</time>
      </trkpt>
      <trkpt lat="45.63149" lon="4.57599">
        <ele>764.20001220703</ele>
        <time>2015-12-06T03:54:20.000Z</time>
      </trkpt>
      <trkpt lat="45.63153" lon="4.57624">
        <ele>765.79998779297</ele>
        <time>2015-12-06T03:54:33.000Z</time>
      </trkpt>
      <trkpt lat="45.63154" lon="4.57651">
        <ele>767.40002441406</ele>
        <time>2015-12-06T03:54:47.000Z</time>
      </trkpt>
      <trkpt lat="45.63156" lon="4.57677">
        <ele>768.59997558594</ele>
        <time>2015-12-06T03:55:01.000Z</time>
      </trkpt>
      <trkpt lat="45.6316" lon="4.57703">
        <ele>769.79998779297</ele>
        <time>2015-12-06T03:55:17.000Z</time>
      </trkpt>
      <trkpt lat="45.63166" lon="4.57728">
        <ele>772.20001220703</ele>
        <time>2015-12-06T03:55:32.000Z</time>
      </trkpt>
      <trkpt lat="45.63166" lon="4.57731">
        <ele>772.40002441406</ele>
        <time>2015-12-06T03:55:34.000Z</time>
      </trkpt>
      <trkpt lat="45.63173" lon="4.57757">
        <ele>774.40002441406</ele>
        <time>2015-12-06T03:55:50.000Z</time>
      </trkpt>
      <trkpt lat="45.63178" lon="4.5778">
        <ele>776</ele>
        <time>2015-12-06T03:56:04.000Z</time>
      </trkpt>
      <trkpt lat="45.63181" lon="4.5779">
        <ele>777</ele>
        <time>2015-12-06T03:56:11.000Z</time>
      </trkpt>
      <trkpt lat="45.63188" lon="4.57814">
        <ele>780</ele>
        <time>2015-12-06T03:56:25.000Z</time>
      </trkpt>
      <trkpt lat="45.63194" lon="4.5784">
        <ele>783.20001220703</ele>
        <time>2015-12-06T03:56:41.000Z</time>
      </trkpt>
      <trkpt lat="45.63198" lon="4.5786">
        <ele>785.40002441406</ele>
        <time>2015-12-06T03:56:55.000Z</time>
      </trkpt>
      <trkpt lat="45.63199" lon="4.57863">
        <ele>785.79998779297</ele>
        <time>2015-12-06T03:56:58.000Z</time>
      </trkpt>
      <trkpt lat="45.63203" lon="4.57872">
        <ele>786.59997558594</ele>
        <time>2015-12-06T03:57:05.000Z</time>
      </trkpt>
      <trkpt lat="45.63212" lon="4.57894">
        <ele>789.59997558594</ele>
        <time>2015-12-06T03:57:21.000Z</time>
      </trkpt>
      <trkpt lat="45.6322" lon="4.57919">
        <ele>792.79998779297</ele>
        <time>2015-12-06T03:57:37.000Z</time>
      </trkpt>
      <trkpt lat="45.63225" lon="4.57934">
        <ele>795.40002441406</ele>
        <time>2015-12-06T03:57:47.000Z</time>
      </trkpt>
      <trkpt lat="45.63228" lon="4.57947">
        <ele>797.40002441406</ele>
        <time>2015-12-06T03:57:55.000Z</time>
      </trkpt>
      <trkpt lat="45.63232" lon="4.57956">
        <ele>798.79998779297</ele>
        <time>2015-12-06T03:58:01.000Z</time>
      </trkpt>
      <trkpt lat="45.63241" lon="4.57978">
        <ele>802</ele>
        <time>2015-12-06T03:58:16.000Z</time>
      </trkpt>
      <trkpt lat="45.63247" lon="4.57995">
        <ele>804.40002441406</ele>
        <time>2015-12-06T03:58:28.000Z</time>
      </trkpt>
      <trkpt lat="45.63256" lon="4.58018">
        <ele>807.79998779297</ele>
        <time>2015-12-06T03:58:45.000Z</time>
      </trkpt>
      <trkpt lat="45.63263" lon="4.58042">
        <ele>811</ele>
        <time>2015-12-06T03:59:05.000Z</time>
      </trkpt>
      <trkpt lat="45.63277" lon="4.58059">
        <ele>814.40002441406</ele>
        <time>2015-12-06T03:59:22.000Z</time>
      </trkpt>
      <trkpt lat="45.6329" lon="4.58078">
        <ele>818</ele>
        <time>2015-12-06T03:59:39.000Z</time>
      </trkpt>
      <trkpt lat="45.63296" lon="4.58088">
        <ele>819.79998779297</ele>
        <time>2015-12-06T03:59:48.000Z</time>
      </trkpt>
      <trkpt lat="45.63301" lon="4.58095">
        <ele>821.20001220703</ele>
        <time>2015-12-06T03:59:54.000Z</time>
      </trkpt>
      <trkpt lat="45.63305" lon="4.58104">
        <ele>822.59997558594</ele>
        <time>2015-12-06T04:00:01.000Z</time>
      </trkpt>
      <trkpt lat="45.63316" lon="4.58121">
        <ele>825</ele>
        <time>2015-12-06T04:00:35.000Z</time>
      </trkpt>
      <trkpt lat="45.63328" lon="4.5814">
        <ele>827.40002441406</ele>
        <time>2015-12-06T04:00:55.000Z</time>
      </trkpt>
      <trkpt lat="45.63345" lon="4.58151">
        <ele>829.40002441406</ele>
        <time>2015-12-06T04:01:17.000Z</time>
      </trkpt>
      <trkpt lat="45.63359" lon="4.58168">
        <ele>831.59997558594</ele>
        <time>2015-12-06T04:01:34.000Z</time>
      </trkpt>
      <trkpt lat="45.63369" lon="4.58186">
        <ele>833.79998779297</ele>
        <time>2015-12-06T04:01:49.000Z</time>
      </trkpt>
      <trkpt lat="45.63382" lon="4.58207">
        <ele>836</ele>
        <time>2015-12-06T04:02:07.000Z</time>
      </trkpt>
      <trkpt lat="45.63383" lon="4.58212">
        <ele>836.20001220703</ele>
        <time>2015-12-06T04:02:11.000Z</time>
      </trkpt>
      <trkpt lat="45.63385" lon="4.58216">
        <ele>836.59997558594</ele>
        <time>2015-12-06T04:02:15.000Z</time>
      </trkpt>
      <trkpt lat="45.63403" lon="4.58225">
        <ele>837.20001220703</ele>
        <time>2015-12-06T04:02:29.000Z</time>
      </trkpt>
      <trkpt lat="45.6342" lon="4.58235">
        <ele>838</ele>
        <time>2015-12-06T04:02:43.000Z</time>
      </trkpt>
      <trkpt lat="45.63437" lon="4.58248">
        <ele>838.59997558594</ele>
        <time>2015-12-06T04:02:56.000Z</time>
      </trkpt>
      <trkpt lat="45.63454" lon="4.58259">
        <ele>839</ele>
        <time>2015-12-06T04:03:09.000Z</time>
      </trkpt>
      <trkpt lat="45.63468" lon="4.58269">
        <ele>839.59997558594</ele>
        <time>2015-12-06T04:03:20.000Z</time>
      </trkpt>
      <trkpt lat="45.63483" lon="4.58285">
        <ele>840.40002441406</ele>
        <time>2015-12-06T04:03:34.000Z</time>
      </trkpt>
      <trkpt lat="45.63488" lon="4.5829">
        <ele>840.79998779297</ele>
        <time>2015-12-06T04:03:39.000Z</time>
      </trkpt>
      <trkpt lat="45.63494" lon="4.58295">
        <ele>841</ele>
        <time>2015-12-06T04:03:44.000Z</time>
      </trkpt>
      <trkpt lat="45.63509" lon="4.58309">
        <ele>842</ele>
        <time>2015-12-06T04:03:59.000Z</time>
      </trkpt>
      <trkpt lat="45.63522" lon="4.58328">
        <ele>843.59997558594</ele>
        <time>2015-12-06T04:04:13.000Z</time>
      </trkpt>
      <trkpt lat="45.63535" lon="4.58347">
        <ele>845.20001220703</ele>
        <time>2015-12-06T04:04:29.000Z</time>
      </trkpt>
      <trkpt lat="45.63549" lon="4.58364">
        <ele>846.59997558594</ele>
        <time>2015-12-06T04:04:43.000Z</time>
      </trkpt>
      <trkpt lat="45.63562" lon="4.58382">
        <ele>848.79998779297</ele>
        <time>2015-12-06T04:04:56.000Z</time>
      </trkpt>
      <trkpt lat="45.63576" lon="4.58398">
        <ele>851.20001220703</ele>
        <time>2015-12-06T04:05:10.000Z</time>
      </trkpt>
      <trkpt lat="45.63579" lon="4.58402">
        <ele>851.79998779297</ele>
        <time>2015-12-06T04:05:13.000Z</time>
      </trkpt>
      <trkpt lat="45.63595" lon="4.58416">
        <ele>854.20001220703</ele>
        <time>2015-12-06T04:05:27.000Z</time>
      </trkpt>
      <trkpt lat="45.63611" lon="4.5843">
        <ele>856.40002441406</ele>
        <time>2015-12-06T04:05:41.000Z</time>
      </trkpt>
      <trkpt lat="45.63625" lon="4.58442">
        <ele>858.40002441406</ele>
        <time>2015-12-06T04:05:54.000Z</time>
      </trkpt>
      <trkpt lat="45.63641" lon="4.58455">
        <ele>861</ele>
        <time>2015-12-06T04:06:10.000Z</time>
      </trkpt>
      <trkpt lat="45.63636" lon="4.58464">
        <ele>860.79998779297</ele>
        <time>2015-12-06T04:06:16.000Z</time>
      </trkpt>
      <trkpt lat="45.63627" lon="4.58487">
        <ele>861.59997558594</ele>
        <time>2015-12-06T04:06:30.000Z</time>
      </trkpt>
      <trkpt lat="45.63613" lon="4.58505">
        <ele>861.79998779297</ele>
        <time>2015-12-06T04:06:43.000Z</time>
      </trkpt>
      <trkpt lat="45.63613" lon="4.58531">
        <ele>863.79998779297</ele>
        <time>2015-12-06T04:06:58.000Z</time>
      </trkpt>
      <trkpt lat="45.63614" lon="4.58558">
        <ele>866.40002441406</ele>
        <time>2015-12-06T04:07:15.000Z</time>
      </trkpt>
      <trkpt lat="45.63609" lon="4.58583">
        <ele>868.59997558594</ele>
        <time>2015-12-06T04:07:29.000Z</time>
      </trkpt>
      <trkpt lat="45.636" lon="4.58607">
        <ele>870.40002441406</ele>
        <time>2015-12-06T04:07:44.000Z</time>
      </trkpt>
      <trkpt lat="45.63594" lon="4.58632">
        <ele>872.40002441406</ele>
        <time>2015-12-06T04:08:00.000Z</time>
      </trkpt>
      <trkpt lat="45.63593" lon="4.58645">
        <ele>873.59997558594</ele>
        <time>2015-12-06T04:08:08.000Z</time>
      </trkpt>
      <trkpt lat="45.63596" lon="4.58654">
        <ele>874.59997558594</ele>
        <time>2015-12-06T04:08:13.000Z</time>
      </trkpt>
      <trkpt lat="45.63604" lon="4.58677">
        <ele>877.20001220703</ele>
        <time>2015-12-06T04:08:27.000Z</time>
      </trkpt>
      <trkpt lat="45.63616" lon="4.58696">
        <ele>879.79998779297</ele>
        <time>2015-12-06T04:08:42.000Z</time>
      </trkpt>
      <trkpt lat="45.63635" lon="4.58702">
        <ele>881</ele>
        <time>2015-12-06T04:08:58.000Z</time>
      </trkpt>
      <trkpt lat="45.63653" lon="4.58705">
        <ele>883</ele>
        <time>2015-12-06T04:09:13.000Z</time>
      </trkpt>
      <trkpt lat="45.63672" lon="4.58708">
        <ele>884.79998779297</ele>
        <time>2015-12-06T04:09:29.000Z</time>
      </trkpt>
      <trkpt lat="45.63691" lon="4.5871">
        <ele>886.59997558594</ele>
        <time>2015-12-06T04:09:44.000Z</time>
      </trkpt>
      <trkpt lat="45.63709" lon="4.58712">
        <ele>888.40002441406</ele>
        <time>2015-12-06T04:09:59.000Z</time>
      </trkpt>
      <trkpt lat="45.63728" lon="4.58712">
        <ele>889</ele>
        <time>2015-12-06T04:10:14.000Z</time>
      </trkpt>
      <trkpt lat="45.63746" lon="4.58715">
        <ele>890.79998779297</ele>
        <time>2015-12-06T04:10:27.000Z</time>
      </trkpt>
      <trkpt lat="45.63764" lon="4.58709">
        <ele>893.20001220703</ele>
        <time>2015-12-06T04:10:40.000Z</time>
      </trkpt>
      <trkpt lat="45.63782" lon="4.58698">
        <ele>895.20001220703</ele>
        <time>2015-12-06T04:10:54.000Z</time>
      </trkpt>
      <trkpt lat="45.638" lon="4.58698">
        <ele>897.79998779297</ele>
        <time>2015-12-06T04:11:07.000Z</time>
      </trkpt>
      <trkpt lat="45.63817" lon="4.58707">
        <ele>898.79998779297</ele>
        <time>2015-12-06T04:11:20.000Z</time>
      </trkpt>
      <trkpt lat="45.63833" lon="4.58719">
        <ele>898.79998779297</ele>
        <time>2015-12-06T04:11:34.000Z</time>
      </trkpt>
      <trkpt lat="45.6385" lon="4.5873">
        <ele>899</ele>
        <time>2015-12-06T04:11:48.000Z</time>
      </trkpt>
      <trkpt lat="45.63867" lon="4.58741">
        <ele>899.20001220703</ele>
        <time>2015-12-06T04:12:01.000Z</time>
      </trkpt>
      <trkpt lat="45.63885" lon="4.5875">
        <ele>900</ele>
        <time>2015-12-06T04:12:11.000Z</time>
      </trkpt>
      <trkpt lat="45.63899" lon="4.58765">
        <ele>896.40002441406</ele>
        <time>2015-12-06T04:12:19.000Z</time>
      </trkpt>
      <trkpt lat="45.63913" lon="4.58783">
        <ele>892.59997558594</ele>
        <time>2015-12-06T04:12:27.000Z</time>
      </trkpt>
      <trkpt lat="45.6393" lon="4.58798">
        <ele>890.79998779297</ele>
        <time>2015-12-06T04:12:36.000Z</time>
      </trkpt>
      <trkpt lat="45.63948" lon="4.58806">
        <ele>889.20001220703</ele>
        <time>2015-12-06T04:12:44.000Z</time>
      </trkpt>
      <trkpt lat="45.63966" lon="4.5881">
        <ele>887.59997558594</ele>
        <time>2015-12-06T04:12:52.000Z</time>
      </trkpt>
      <trkpt lat="45.63985" lon="4.5881">
        <ele>884.59997558594</ele>
        <time>2015-12-06T04:13:00.000Z</time>
      </trkpt>
      <trkpt lat="45.64004" lon="4.58806">
        <ele>880.79998779297</ele>
        <time>2015-12-06T04:13:08.000Z</time>
      </trkpt>
      <trkpt lat="45.64024" lon="4.58807">
        <ele>876.40002441406</ele>
        <time>2015-12-06T04:13:15.000Z</time>
      </trkpt>
      <trkpt lat="45.64042" lon="4.58807">
        <ele>872.59997558594</ele>
        <time>2015-12-06T04:13:21.000Z</time>
      </trkpt>
      <trkpt lat="45.64062" lon="4.58807">
        <ele>869</ele>
        <time>2015-12-06T04:13:28.000Z</time>
      </trkpt>
      <trkpt lat="45.64078" lon="4.58812">
        <ele>866.79998779297</ele>
        <time>2015-12-06T04:13:37.000Z</time>
      </trkpt>
      <trkpt lat="45.64076" lon="4.5882">
        <ele>867.79998779297</ele>
        <time>2015-12-06T04:13:42.000Z</time>
      </trkpt>
      <trkpt lat="45.64066" lon="4.58842">
        <ele>870.59997558594</ele>
        <time>2015-12-06T04:14:00.000Z</time>
      </trkpt>
      <trkpt lat="45.64053" lon="4.58861">
        <ele>873.59997558594</ele>
        <time>2015-12-06T04:14:17.000Z</time>
      </trkpt>
      <trkpt lat="45.64053" lon="4.58863">
        <ele>873.59997558594</ele>
        <time>2015-12-06T04:14:18.000Z</time>
      </trkpt>
      <trkpt lat="45.64045" lon="4.58888">
        <ele>876.79998779297</ele>
        <time>2015-12-06T04:14:34.000Z</time>
      </trkpt>
      <trkpt lat="45.64043" lon="4.58893">
        <ele>877.40002441406</ele>
        <time>2015-12-06T04:14:38.000Z</time>
      </trkpt>
      <trkpt lat="45.64048" lon="4.58919">
        <ele>878.40002441406</ele>
        <time>2015-12-06T04:14:53.000Z</time>
      </trkpt>
      <trkpt lat="45.6405" lon="4.58928">
        <ele>878.79998779297</ele>
        <time>2015-12-06T04:14:57.000Z</time>
      </trkpt>
      <trkpt lat="45.64048" lon="4.58939">
        <ele>880</ele>
        <time>2015-12-06T04:15:04.000Z</time>
      </trkpt>
      <trkpt lat="45.64046" lon="4.58947">
        <ele>880.59997558594</ele>
        <time>2015-12-06T04:15:08.000Z</time>
      </trkpt>
      <trkpt lat="45.64044" lon="4.58974">
        <ele>881.59997558594</ele>
        <time>2015-12-06T04:15:22.000Z</time>
      </trkpt>
      <trkpt lat="45.64043" lon="4.58981">
        <ele>882.20001220703</ele>
        <time>2015-12-06T04:15:27.000Z</time>
      </trkpt>
      <trkpt lat="45.6404" lon="4.59008">
        <ele>883.40002441406</ele>
        <time>2015-12-06T04:15:42.000Z</time>
      </trkpt>
      <trkpt lat="45.6404" lon="4.59015">
        <ele>883.59997558594</ele>
        <time>2015-12-06T04:15:46.000Z</time>
      </trkpt>
      <trkpt lat="45.64034" lon="4.59041">
        <ele>885.20001220703</ele>
        <time>2015-12-06T04:16:01.000Z</time>
      </trkpt>
      <trkpt lat="45.64034" lon="4.59043">
        <ele>885.40002441406</ele>
        <time>2015-12-06T04:16:02.000Z</time>
      </trkpt>
      <trkpt lat="45.64029" lon="4.59052">
        <ele>886.20001220703</ele>
        <time>2015-12-06T04:16:08.000Z</time>
      </trkpt>
      <trkpt lat="45.64021" lon="4.59069">
        <ele>888</ele>
        <time>2015-12-06T04:16:20.000Z</time>
      </trkpt>
      <trkpt lat="45.64009" lon="4.59089">
        <ele>890.79998779297</ele>
        <time>2015-12-06T04:16:39.000Z</time>
      </trkpt>
      <trkpt lat="45.63998" lon="4.59112">
        <ele>894.20001220703</ele>
        <time>2015-12-06T04:16:55.000Z</time>
      </trkpt>
      <trkpt lat="45.63993" lon="4.59119">
        <ele>895.59997558594</ele>
        <time>2015-12-06T04:17:04.000Z</time>
      </trkpt>
      <trkpt lat="45.63976" lon="4.59129">
        <ele>898.40002441406</ele>
        <time>2015-12-06T04:17:18.000Z</time>
      </trkpt>
      <trkpt lat="45.6396" lon="4.59144">
        <ele>901.79998779297</ele>
        <time>2015-12-06T04:17:36.000Z</time>
      </trkpt>
      <trkpt lat="45.63948" lon="4.59165">
        <ele>904.79998779297</ele>
        <time>2015-12-06T04:17:58.000Z</time>
      </trkpt>
      <trkpt lat="45.63951" lon="4.59193">
        <ele>905.59997558594</ele>
        <time>2015-12-06T04:18:15.000Z</time>
      </trkpt>
      <trkpt lat="45.6396" lon="4.59217">
        <ele>905.40002441406</ele>
        <time>2015-12-06T04:18:29.000Z</time>
      </trkpt>
      <trkpt lat="45.63958" lon="4.59245">
        <ele>907.79998779297</ele>
        <time>2015-12-06T04:18:41.000Z</time>
      </trkpt>
      <trkpt lat="45.63959" lon="4.5925">
        <ele>908</ele>
        <time>2015-12-06T04:18:43.000Z</time>
      </trkpt>
      <trkpt lat="45.6396" lon="4.59278">
        <ele>909.79998779297</ele>
        <time>2015-12-06T04:18:54.000Z</time>
      </trkpt>
      <trkpt lat="45.63961" lon="4.59293">
        <ele>911</ele>
        <time>2015-12-06T04:19:00.000Z</time>
      </trkpt>
      <trkpt lat="45.63963" lon="4.5932">
        <ele>912.79998779297</ele>
        <time>2015-12-06T04:19:09.000Z</time>
      </trkpt>
      <trkpt lat="45.63961" lon="4.59329">
        <ele>913.79998779297</ele>
        <time>2015-12-06T04:19:15.000Z</time>
      </trkpt>
      <trkpt lat="45.6396" lon="4.59349">
        <ele>915.79998779297</ele>
        <time>2015-12-06T04:19:28.000Z</time>
      </trkpt>
      <trkpt lat="45.6396" lon="4.59353">
        <ele>916</ele>
        <time>2015-12-06T04:19:30.000Z</time>
      </trkpt>
      <trkpt lat="45.6396" lon="4.5936">
        <ele>916.59997558594</ele>
        <time>2015-12-06T04:19:34.000Z</time>
      </trkpt>
      <trkpt lat="45.63959" lon="4.59361">
        <ele>916.79998779297</ele>
        <time>2015-12-06T04:19:35.000Z</time>
      </trkpt>
      <trkpt lat="45.63954" lon="4.5938">
        <ele>918.79998779297</ele>
        <time>2015-12-06T04:19:48.000Z</time>
      </trkpt>
      <trkpt lat="45.63951" lon="4.594">
        <ele>920.59997558594</ele>
        <time>2015-12-06T04:20:00.000Z</time>
      </trkpt>
      <trkpt lat="45.63948" lon="4.59411">
        <ele>921.59997558594</ele>
        <time>2015-12-06T04:20:08.000Z</time>
      </trkpt>
      <trkpt lat="45.63946" lon="4.5942">
        <ele>922.40002441406</ele>
        <time>2015-12-06T04:20:15.000Z</time>
      </trkpt>
      <trkpt lat="45.63928" lon="4.59411">
        <ele>924.40002441406</ele>
        <time>2015-12-06T04:20:27.000Z</time>
      </trkpt>
      <trkpt lat="45.63927" lon="4.5941">
        <ele>924.59997558594</ele>
        <time>2015-12-06T04:20:28.000Z</time>
      </trkpt>
      <trkpt lat="45.63924" lon="4.59409">
        <ele>924.79998779297</ele>
        <time>2015-12-06T04:20:31.000Z</time>
      </trkpt>
      <trkpt lat="45.63921" lon="4.59411">
        <ele>925</ele>
        <time>2015-12-06T04:20:34.000Z</time>
      </trkpt>
      <trkpt lat="45.63915" lon="4.59427">
        <ele>925.20001220703</ele>
        <time>2015-12-06T04:20:41.000Z</time>
      </trkpt>
      <trkpt lat="45.63907" lon="4.59451">
        <ele>925.59997558594</ele>
        <time>2015-12-06T04:20:50.000Z</time>
      </trkpt>
      <trkpt lat="45.6389" lon="4.59461">
        <ele>926</ele>
        <time>2015-12-06T04:21:00.000Z</time>
      </trkpt>
      <trkpt lat="45.63872" lon="4.59465">
        <ele>926</ele>
        <time>2015-12-06T04:21:08.000Z</time>
      </trkpt>
      <trkpt lat="45.63853" lon="4.59463">
        <ele>926.79998779297</ele>
        <time>2015-12-06T04:21:17.000Z</time>
      </trkpt>
      <trkpt lat="45.63848" lon="4.59461">
        <ele>927.20001220703</ele>
        <time>2015-12-06T04:21:22.000Z</time>
      </trkpt>
      <trkpt lat="45.63838" lon="4.59462">
        <ele>927.40002441406</ele>
        <time>2015-12-06T04:21:27.000Z</time>
      </trkpt>
      <trkpt lat="45.63818" lon="4.59454">
        <ele>929.20001220703</ele>
        <time>2015-12-06T04:21:34.000Z</time>
      </trkpt>
      <trkpt lat="45.63804" lon="4.59444">
        <ele>930.59997558594</ele>
        <time>2015-12-06T04:21:45.000Z</time>
      </trkpt>
      <trkpt lat="45.63794" lon="4.59449">
        <ele>929.20001220703</ele>
        <time>2015-12-06T04:22:35.000Z</time>
      </trkpt>
      <trkpt lat="45.63791" lon="4.59434">
        <ele>930.20001220703</ele>
        <time>2015-12-06T04:22:45.000Z</time>
      </trkpt>
      <trkpt lat="45.63788" lon="4.59429">
        <ele>930.40002441406</ele>
        <time>2015-12-06T04:22:49.000Z</time>
      </trkpt>
      <trkpt lat="45.63776" lon="4.59409">
        <ele>930.79998779297</ele>
        <time>2015-12-06T04:23:04.000Z</time>
      </trkpt>
      <trkpt lat="45.63773" lon="4.59404">
        <ele>930.79998779297</ele>
        <time>2015-12-06T04:23:09.000Z</time>
      </trkpt>
      <trkpt lat="45.6377" lon="4.59399">
        <ele>930.79998779297</ele>
        <time>2015-12-06T04:23:13.000Z</time>
      </trkpt>
      <trkpt lat="45.63769" lon="4.59399">
        <ele>930.79998779297</ele>
        <time>2015-12-06T04:23:14.000Z</time>
      </trkpt>
      <trkpt lat="45.63758" lon="4.59387">
        <ele>930.59997558594</ele>
        <time>2015-12-06T04:23:25.000Z</time>
      </trkpt>
      <trkpt lat="45.63742" lon="4.59372">
        <ele>930.20001220703</ele>
        <time>2015-12-06T04:23:35.000Z</time>
      </trkpt>
      <trkpt lat="45.63728" lon="4.59356">
        <ele>928.40002441406</ele>
        <time>2015-12-06T04:23:43.000Z</time>
      </trkpt>
      <trkpt lat="45.63717" lon="4.59334">
        <ele>926.20001220703</ele>
        <time>2015-12-06T04:23:51.000Z</time>
      </trkpt>
      <trkpt lat="45.63705" lon="4.59313">
        <ele>922.20001220703</ele>
        <time>2015-12-06T04:23:59.000Z</time>
      </trkpt>
      <trkpt lat="45.63692" lon="4.59294">
        <ele>918</ele>
        <time>2015-12-06T04:24:06.000Z</time>
      </trkpt>
      <trkpt lat="45.63682" lon="4.59272">
        <ele>914.20001220703</ele>
        <time>2015-12-06T04:24:14.000Z</time>
      </trkpt>
      <trkpt lat="45.63682" lon="4.59244">
        <ele>912.40002441406</ele>
        <time>2015-12-06T04:24:21.000Z</time>
      </trkpt>
      <trkpt lat="45.63672" lon="4.59223">
        <ele>908.59997558594</ele>
        <time>2015-12-06T04:24:28.000Z</time>
      </trkpt>
      <trkpt lat="45.63662" lon="4.592">
        <ele>905</ele>
        <time>2015-12-06T04:24:35.000Z</time>
      </trkpt>
      <trkpt lat="45.63656" lon="4.59193">
        <ele>903</ele>
        <time>2015-12-06T04:24:38.000Z</time>
      </trkpt>
      <trkpt lat="45.63638" lon="4.59197">
        <ele>897.40002441406</ele>
        <time>2015-12-06T04:24:47.000Z</time>
      </trkpt>
      <trkpt lat="45.63622" lon="4.59216">
        <ele>894.40002441406</ele>
        <time>2015-12-06T04:24:56.000Z</time>
      </trkpt>
      <trkpt lat="45.63607" lon="4.59232">
        <ele>891.59997558594</ele>
        <time>2015-12-06T04:25:04.000Z</time>
      </trkpt>
      <trkpt lat="45.63592" lon="4.59247">
        <ele>888.79998779297</ele>
        <time>2015-12-06T04:25:11.000Z</time>
      </trkpt>
      <trkpt lat="45.63578" lon="4.59265">
        <ele>887</ele>
        <time>2015-12-06T04:25:19.000Z</time>
      </trkpt>
      <trkpt lat="45.63568" lon="4.59287">
        <ele>886.59997558594</ele>
        <time>2015-12-06T04:25:28.000Z</time>
      </trkpt>
      <trkpt lat="45.6356" lon="4.59311">
        <ele>884.79998779297</ele>
        <time>2015-12-06T04:25:36.000Z</time>
      </trkpt>
      <trkpt lat="45.6355" lon="4.59334">
        <ele>881.59997558594</ele>
        <time>2015-12-06T04:25:47.000Z</time>
      </trkpt>
      <trkpt lat="45.63541" lon="4.59358">
        <ele>878.79998779297</ele>
        <time>2015-12-06T04:26:00.000Z</time>
      </trkpt>
      <trkpt lat="45.63531" lon="4.59381">
        <ele>874.59997558594</ele>
        <time>2015-12-06T04:26:12.000Z</time>
      </trkpt>
      <trkpt lat="45.63518" lon="4.59403">
        <ele>869.20001220703</ele>
        <time>2015-12-06T04:26:24.000Z</time>
      </trkpt>
      <trkpt lat="45.63509" lon="4.59427">
        <ele>865.59997558594</ele>
        <time>2015-12-06T04:26:33.000Z</time>
      </trkpt>
      <trkpt lat="45.63509" lon="4.59454">
        <ele>864.20001220703</ele>
        <time>2015-12-06T04:26:41.000Z</time>
      </trkpt>
      <trkpt lat="45.63514" lon="4.5948">
        <ele>863</ele>
        <time>2015-12-06T04:26:50.000Z</time>
      </trkpt>
      <trkpt lat="45.63518" lon="4.59507">
        <ele>862.40002441406</ele>
        <time>2015-12-06T04:26:59.000Z</time>
      </trkpt>
      <trkpt lat="45.63521" lon="4.59534">
        <ele>863.20001220703</ele>
        <time>2015-12-06T04:27:08.000Z</time>
      </trkpt>
      <trkpt lat="45.63525" lon="4.59558">
        <ele>862.20001220703</ele>
        <time>2015-12-06T04:27:16.000Z</time>
      </trkpt>
      <trkpt lat="45.63527" lon="4.59575">
        <ele>861.59997558594</ele>
        <time>2015-12-06T04:27:22.000Z</time>
      </trkpt>
      <trkpt lat="45.6354" lon="4.59593">
        <ele>862.59997558594</ele>
        <time>2015-12-06T04:27:31.000Z</time>
      </trkpt>
      <trkpt lat="45.63553" lon="4.59611">
        <ele>863.40002441406</ele>
        <time>2015-12-06T04:27:39.000Z</time>
      </trkpt>
      <trkpt lat="45.63565" lon="4.59633">
        <ele>862</ele>
        <time>2015-12-06T04:27:47.000Z</time>
      </trkpt>
      <trkpt lat="45.63572" lon="4.59658">
        <ele>861</ele>
        <time>2015-12-06T04:27:55.000Z</time>
      </trkpt>
      <trkpt lat="45.63582" lon="4.5968">
        <ele>860.20001220703</ele>
        <time>2015-12-06T04:28:03.000Z</time>
      </trkpt>
      <trkpt lat="45.63598" lon="4.59695">
        <ele>859</ele>
        <time>2015-12-06T04:28:12.000Z</time>
      </trkpt>
      <trkpt lat="45.63607" lon="4.5972">
        <ele>856</ele>
        <time>2015-12-06T04:28:21.000Z</time>
      </trkpt>
      <trkpt lat="45.63612" lon="4.59746">
        <ele>852.20001220703</ele>
        <time>2015-12-06T04:28:29.000Z</time>
      </trkpt>
      <trkpt lat="45.63615" lon="4.59775">
        <ele>849.79998779297</ele>
        <time>2015-12-06T04:28:37.000Z</time>
      </trkpt>
      <trkpt lat="45.63618" lon="4.59802">
        <ele>847.79998779297</ele>
        <time>2015-12-06T04:28:45.000Z</time>
      </trkpt>
      <trkpt lat="45.63623" lon="4.59826">
        <ele>844.79998779297</ele>
        <time>2015-12-06T04:28:53.000Z</time>
      </trkpt>
      <trkpt lat="45.63628" lon="4.59853">
        <ele>841.59997558594</ele>
        <time>2015-12-06T04:29:01.000Z</time>
      </trkpt>
      <trkpt lat="45.63633" lon="4.5988">
        <ele>840.40002441406</ele>
        <time>2015-12-06T04:29:09.000Z</time>
      </trkpt>
      <trkpt lat="45.63643" lon="4.59903">
        <ele>839.59997558594</ele>
        <time>2015-12-06T04:29:17.000Z</time>
      </trkpt>
      <trkpt lat="45.63656" lon="4.59922">
        <ele>838.20001220703</ele>
        <time>2015-12-06T04:29:25.000Z</time>
      </trkpt>
      <trkpt lat="45.6367" lon="4.59942">
        <ele>836.40002441406</ele>
        <time>2015-12-06T04:29:33.000Z</time>
      </trkpt>
      <trkpt lat="45.63683" lon="4.5996">
        <ele>835.20001220703</ele>
        <time>2015-12-06T04:29:40.000Z</time>
      </trkpt>
      <trkpt lat="45.63696" lon="4.59982">
        <ele>834.20001220703</ele>
        <time>2015-12-06T04:29:48.000Z</time>
      </trkpt>
      <trkpt lat="45.63709" lon="4.60004">
        <ele>833.40002441406</ele>
        <time>2015-12-06T04:29:55.000Z</time>
      </trkpt>
      <trkpt lat="45.63723" lon="4.60021">
        <ele>831.59997558594</ele>
        <time>2015-12-06T04:30:03.000Z</time>
      </trkpt>
      <trkpt lat="45.63739" lon="4.60038">
        <ele>828.20001220703</ele>
        <time>2015-12-06T04:30:11.000Z</time>
      </trkpt>
      <trkpt lat="45.6375" lon="4.60058">
        <ele>826.20001220703</ele>
        <time>2015-12-06T04:30:18.000Z</time>
      </trkpt>
      <trkpt lat="45.63758" lon="4.60085">
        <ele>825.20001220703</ele>
        <time>2015-12-06T04:30:25.000Z</time>
      </trkpt>
      <trkpt lat="45.63768" lon="4.6011">
        <ele>823.79998779297</ele>
        <time>2015-12-06T04:30:33.000Z</time>
      </trkpt>
      <trkpt lat="45.63781" lon="4.60129">
        <ele>820.40002441406</ele>
        <time>2015-12-06T04:30:41.000Z</time>
      </trkpt>
      <trkpt lat="45.63793" lon="4.60152">
        <ele>817.79998779297</ele>
        <time>2015-12-06T04:30:49.000Z</time>
      </trkpt>
      <trkpt lat="45.63806" lon="4.60172">
        <ele>814</ele>
        <time>2015-12-06T04:30:56.000Z</time>
      </trkpt>
      <trkpt lat="45.63822" lon="4.60189">
        <ele>809.40002441406</ele>
        <time>2015-12-06T04:31:02.000Z</time>
      </trkpt>
      <trkpt lat="45.63835" lon="4.60211">
        <ele>806.59997558594</ele>
        <time>2015-12-06T04:31:08.000Z</time>
      </trkpt>
      <trkpt lat="45.63844" lon="4.60237">
        <ele>805.40002441406</ele>
        <time>2015-12-06T04:31:14.000Z</time>
      </trkpt>
      <trkpt lat="45.63855" lon="4.60257">
        <ele>803</ele>
        <time>2015-12-06T04:31:21.000Z</time>
      </trkpt>
      <trkpt lat="45.63866" lon="4.60273">
        <ele>800</ele>
        <time>2015-12-06T04:31:27.000Z</time>
      </trkpt>
      <trkpt lat="45.6387" lon="4.60277">
        <ele>799</ele>
        <time>2015-12-06T04:31:29.000Z</time>
      </trkpt>
      <trkpt lat="45.63884" lon="4.60296">
        <ele>796.40002441406</ele>
        <time>2015-12-06T04:31:37.000Z</time>
      </trkpt>
      <trkpt lat="45.63899" lon="4.60314">
        <ele>795.59997558594</ele>
        <time>2015-12-06T04:31:43.000Z</time>
      </trkpt>
      <trkpt lat="45.63914" lon="4.60329">
        <ele>795</ele>
        <time>2015-12-06T04:31:49.000Z</time>
      </trkpt>
      <trkpt lat="45.63928" lon="4.60348">
        <ele>794.40002441406</ele>
        <time>2015-12-06T04:31:56.000Z</time>
      </trkpt>
      <trkpt lat="45.63944" lon="4.60365">
        <ele>793.79998779297</ele>
        <time>2015-12-06T04:32:03.000Z</time>
      </trkpt>
      <trkpt lat="45.63953" lon="4.60371">
        <ele>793.40002441406</ele>
        <time>2015-12-06T04:32:07.000Z</time>
      </trkpt>
      <trkpt lat="45.6397" lon="4.60377">
        <ele>792.59997558594</ele>
        <time>2015-12-06T04:32:15.000Z</time>
      </trkpt>
      <trkpt lat="45.63981" lon="4.60384">
        <ele>791.59997558594</ele>
        <time>2015-12-06T04:32:21.000Z</time>
      </trkpt>
      <trkpt lat="45.63989" lon="4.60389">
        <ele>790.79998779297</ele>
        <time>2015-12-06T04:32:25.000Z</time>
      </trkpt>
      <trkpt lat="45.64005" lon="4.60402">
        <ele>789</ele>
        <time>2015-12-06T04:32:32.000Z</time>
      </trkpt>
      <trkpt lat="45.6402" lon="4.60408">
        <ele>786.79998779297</ele>
        <time>2015-12-06T04:32:39.000Z</time>
      </trkpt>
      <trkpt lat="45.64033" lon="4.60427">
        <ele>785.79998779297</ele>
        <time>2015-12-06T04:32:47.000Z</time>
      </trkpt>
      <trkpt lat="45.64046" lon="4.60444">
        <ele>784.59997558594</ele>
        <time>2015-12-06T04:32:54.000Z</time>
      </trkpt>
      <trkpt lat="45.64057" lon="4.60466">
        <ele>782.40002441406</ele>
        <time>2015-12-06T04:33:02.000Z</time>
      </trkpt>
      <trkpt lat="45.64059" lon="4.60472">
        <ele>782</ele>
        <time>2015-12-06T04:33:04.000Z</time>
      </trkpt>
      <trkpt lat="45.64061" lon="4.60494">
        <ele>780.20001220703</ele>
        <time>2015-12-06T04:33:12.000Z</time>
      </trkpt>
      <trkpt lat="45.64044" lon="4.6051">
        <ele>780.40002441406</ele>
        <time>2015-12-06T04:33:22.000Z</time>
      </trkpt>
      <trkpt lat="45.64026" lon="4.60524">
        <ele>778.59997558594</ele>
        <time>2015-12-06T04:33:31.000Z</time>
      </trkpt>
      <trkpt lat="45.64007" lon="4.60526">
        <ele>777.20001220703</ele>
        <time>2015-12-06T04:33:39.000Z</time>
      </trkpt>
      <trkpt lat="45.63999" lon="4.60527">
        <ele>776.40002441406</ele>
        <time>2015-12-06T04:33:42.000Z</time>
      </trkpt>
      <trkpt lat="45.63993" lon="4.60533">
        <ele>775</ele>
        <time>2015-12-06T04:33:45.000Z</time>
      </trkpt>
      <trkpt lat="45.63984" lon="4.60541">
        <ele>772.59997558594</ele>
        <time>2015-12-06T04:33:49.000Z</time>
      </trkpt>
      <trkpt lat="45.63967" lon="4.60554">
        <ele>768.20001220703</ele>
        <time>2015-12-06T04:33:56.000Z</time>
      </trkpt>
      <trkpt lat="45.63959" lon="4.60555">
        <ele>767</ele>
        <time>2015-12-06T04:33:59.000Z</time>
      </trkpt>
      <trkpt lat="45.63951" lon="4.60558">
        <ele>765.40002441406</ele>
        <time>2015-12-06T04:34:03.000Z</time>
      </trkpt>
      <trkpt lat="45.63933" lon="4.60564">
        <ele>761.79998779297</ele>
        <time>2015-12-06T04:34:16.000Z</time>
      </trkpt>
      <trkpt lat="45.63929" lon="4.60566">
        <ele>760.79998779297</ele>
        <time>2015-12-06T04:34:19.000Z</time>
      </trkpt>
      <trkpt lat="45.6392" lon="4.6057">
        <ele>759</ele>
        <time>2015-12-06T04:34:23.000Z</time>
      </trkpt>
      <trkpt lat="45.63906" lon="4.60574">
        <ele>756.59997558594</ele>
        <time>2015-12-06T04:34:31.000Z</time>
      </trkpt>
      <trkpt lat="45.63899" lon="4.60576">
        <ele>755.40002441406</ele>
        <time>2015-12-06T04:34:35.000Z</time>
      </trkpt>
      <trkpt lat="45.63881" lon="4.60584">
        <ele>752</ele>
        <time>2015-12-06T04:34:45.000Z</time>
      </trkpt>
      <trkpt lat="45.63862" lon="4.60592">
        <ele>749.59997558594</ele>
        <time>2015-12-06T04:34:54.000Z</time>
      </trkpt>
      <trkpt lat="45.63844" lon="4.60593">
        <ele>748.40002441406</ele>
        <time>2015-12-06T04:35:02.000Z</time>
      </trkpt>
      <trkpt lat="45.63827" lon="4.60596">
        <ele>747</ele>
        <time>2015-12-06T04:35:12.000Z</time>
      </trkpt>
      <trkpt lat="45.63821" lon="4.60595">
        <ele>746.79998779297</ele>
        <time>2015-12-06T04:35:15.000Z</time>
      </trkpt>
      <trkpt lat="45.63816" lon="4.60598">
        <ele>745.79998779297</ele>
        <time>2015-12-06T04:35:19.000Z</time>
      </trkpt>
      <trkpt lat="45.63807" lon="4.60617">
        <ele>740.59997558594</ele>
        <time>2015-12-06T04:35:32.000Z</time>
      </trkpt>
      <trkpt lat="45.63804" lon="4.60624">
        <ele>739</ele>
        <time>2015-12-06T04:35:37.000Z</time>
      </trkpt>
      <trkpt lat="45.63801" lon="4.60634">
        <ele>736.59997558594</ele>
        <time>2015-12-06T04:35:43.000Z</time>
      </trkpt>
      <trkpt lat="45.63796" lon="4.60646">
        <ele>734</ele>
        <time>2015-12-06T04:35:50.000Z</time>
      </trkpt>
      <trkpt lat="45.63794" lon="4.60649">
        <ele>733.40002441406</ele>
        <time>2015-12-06T04:35:52.000Z</time>
      </trkpt>
      <trkpt lat="45.63784" lon="4.60672">
        <ele>728.40002441406</ele>
        <time>2015-12-06T04:36:10.000Z</time>
      </trkpt>
      <trkpt lat="45.63781" lon="4.60698">
        <ele>725.40002441406</ele>
        <time>2015-12-06T04:36:27.000Z</time>
      </trkpt>
      <trkpt lat="45.63781" lon="4.60724">
        <ele>721.79998779297</ele>
        <time>2015-12-06T04:36:42.000Z</time>
      </trkpt>
      <trkpt lat="45.63782" lon="4.60751">
        <ele>717.79998779297</ele>
        <time>2015-12-06T04:36:58.000Z</time>
      </trkpt>
      <trkpt lat="45.63782" lon="4.60778">
        <ele>714.59997558594</ele>
        <time>2015-12-06T04:37:15.000Z</time>
      </trkpt>
      <trkpt lat="45.63785" lon="4.60803">
        <ele>709.40002441406</ele>
        <time>2015-12-06T04:37:31.000Z</time>
      </trkpt>
      <trkpt lat="45.63788" lon="4.6083">
        <ele>703.59997558594</ele>
        <time>2015-12-06T04:37:49.000Z</time>
      </trkpt>
      <trkpt lat="45.63791" lon="4.60855">
        <ele>697.59997558594</ele>
        <time>2015-12-06T04:38:06.000Z</time>
      </trkpt>
      <trkpt lat="45.63792" lon="4.60882">
        <ele>693.59997558594</ele>
        <time>2015-12-06T04:38:27.000Z</time>
      </trkpt>
      <trkpt lat="45.63795" lon="4.60903">
        <ele>690</ele>
        <time>2015-12-06T04:38:41.000Z</time>
      </trkpt>
      <trkpt lat="45.638" lon="4.60928">
        <ele>685.59997558594</ele>
        <time>2015-12-06T04:39:01.000Z</time>
      </trkpt>
      <trkpt lat="45.63803" lon="4.6094">
        <ele>683.40002441406</ele>
        <time>2015-12-06T04:39:12.000Z</time>
      </trkpt>
      <trkpt lat="45.63805" lon="4.60966">
        <ele>679.59997558594</ele>
        <time>2015-12-06T04:39:31.000Z</time>
      </trkpt>
      <trkpt lat="45.63812" lon="4.6099">
        <ele>675</ele>
        <time>2015-12-06T04:39:48.000Z</time>
      </trkpt>
      <trkpt lat="45.6382" lon="4.61016">
        <ele>669.59997558594</ele>
        <time>2015-12-06T04:40:01.000Z</time>
      </trkpt>
      <trkpt lat="45.63824" lon="4.61035">
        <ele>666.20001220703</ele>
        <time>2015-12-06T04:40:12.000Z</time>
      </trkpt>
      <trkpt lat="45.6383" lon="4.61059">
        <ele>662.40002441406</ele>
        <time>2015-12-06T04:40:26.000Z</time>
      </trkpt>
      <trkpt lat="45.6383" lon="4.61061">
        <ele>662.20001220703</ele>
        <time>2015-12-06T04:40:27.000Z</time>
      </trkpt>
      <trkpt lat="45.63834" lon="4.6107">
        <ele>660.20001220703</ele>
        <time>2015-12-06T04:40:31.000Z</time>
      </trkpt>
      <trkpt lat="45.63834" lon="4.61072">
        <ele>660</ele>
        <time>2015-12-06T04:40:32.000Z</time>
      </trkpt>
      <trkpt lat="45.63834" lon="4.61077">
        <ele>659.79998779297</ele>
        <time>2015-12-06T04:40:35.000Z</time>
      </trkpt>
      <trkpt lat="45.63845" lon="4.61098">
        <ele>654.79998779297</ele>
        <time>2015-12-06T04:40:48.000Z</time>
      </trkpt>
      <trkpt lat="45.63853" lon="4.6111">
        <ele>651.40002441406</ele>
        <time>2015-12-06T04:40:54.000Z</time>
      </trkpt>
      <trkpt lat="45.63862" lon="4.61127">
        <ele>648.20001220703</ele>
        <time>2015-12-06T04:41:03.000Z</time>
      </trkpt>
      <trkpt lat="45.63867" lon="4.61131">
        <ele>647</ele>
        <time>2015-12-06T04:41:07.000Z</time>
      </trkpt>
      <trkpt lat="45.63869" lon="4.61132">
        <ele>646.20001220703</ele>
        <time>2015-12-06T04:41:09.000Z</time>
      </trkpt>
      <trkpt lat="45.63869" lon="4.61117">
        <ele>645.59997558594</ele>
        <time>2015-12-06T04:41:16.000Z</time>
      </trkpt>
      <trkpt lat="45.63872" lon="4.61099">
        <ele>646</ele>
        <time>2015-12-06T04:41:23.000Z</time>
      </trkpt>
      <trkpt lat="45.63887" lon="4.61098">
        <ele>641.40002441406</ele>
        <time>2015-12-06T04:41:30.000Z</time>
      </trkpt>
      <trkpt lat="45.63896" lon="4.61123">
        <ele>637.20001220703</ele>
        <time>2015-12-06T04:41:39.000Z</time>
      </trkpt>
      <trkpt lat="45.63906" lon="4.61147">
        <ele>633.79998779297</ele>
        <time>2015-12-06T04:41:49.000Z</time>
      </trkpt>
      <trkpt lat="45.63916" lon="4.6117">
        <ele>630.59997558594</ele>
        <time>2015-12-06T04:41:57.000Z</time>
      </trkpt>
      <trkpt lat="45.63924" lon="4.61196">
        <ele>629</ele>
        <time>2015-12-06T04:42:05.000Z</time>
      </trkpt>
      <trkpt lat="45.63926" lon="4.61224">
        <ele>628.20001220703</ele>
        <time>2015-12-06T04:42:13.000Z</time>
      </trkpt>
      <trkpt lat="45.63919" lon="4.61249">
        <ele>630</ele>
        <time>2015-12-06T04:42:20.000Z</time>
      </trkpt>
      <trkpt lat="45.63912" lon="4.61273">
        <ele>630.79998779297</ele>
        <time>2015-12-06T04:42:27.000Z</time>
      </trkpt>
      <trkpt lat="45.63905" lon="4.61298">
        <ele>632.20001220703</ele>
        <time>2015-12-06T04:42:35.000Z</time>
      </trkpt>
      <trkpt lat="45.63897" lon="4.61324">
        <ele>631.20001220703</ele>
        <time>2015-12-06T04:42:43.000Z</time>
      </trkpt>
      <trkpt lat="45.6389" lon="4.61351">
        <ele>629.40002441406</ele>
        <time>2015-12-06T04:42:52.000Z</time>
      </trkpt>
      <trkpt lat="45.63882" lon="4.61376">
        <ele>628.20001220703</ele>
        <time>2015-12-06T04:43:00.000Z</time>
      </trkpt>
      <trkpt lat="45.63879" lon="4.61404">
        <ele>627.79998779297</ele>
        <time>2015-12-06T04:43:08.000Z</time>
      </trkpt>
      <trkpt lat="45.63879" lon="4.61431">
        <ele>626.79998779297</ele>
        <time>2015-12-06T04:43:16.000Z</time>
      </trkpt>
      <trkpt lat="45.63883" lon="4.61457">
        <ele>625.20001220703</ele>
        <time>2015-12-06T04:43:29.000Z</time>
      </trkpt>
      <trkpt lat="45.63885" lon="4.61477">
        <ele>625.59997558594</ele>
        <time>2015-12-06T04:43:39.000Z</time>
      </trkpt>
      <trkpt lat="45.63886" lon="4.61501">
        <ele>626.20001220703</ele>
        <time>2015-12-06T04:43:51.000Z</time>
      </trkpt>
      <trkpt lat="45.63889" lon="4.61528">
        <ele>626.79998779297</ele>
        <time>2015-12-06T04:44:04.000Z</time>
      </trkpt>
      <trkpt lat="45.63895" lon="4.61553">
        <ele>628.79998779297</ele>
        <time>2015-12-06T04:44:18.000Z</time>
      </trkpt>
      <trkpt lat="45.63903" lon="4.61578">
        <ele>630.79998779297</ele>
        <time>2015-12-06T04:44:32.000Z</time>
      </trkpt>
      <trkpt lat="45.6391" lon="4.61602">
        <ele>632.79998779297</ele>
        <time>2015-12-06T04:44:45.000Z</time>
      </trkpt>
      <trkpt lat="45.63913" lon="4.61627">
        <ele>635.20001220703</ele>
        <time>2015-12-06T04:44:58.000Z</time>
      </trkpt>
      <trkpt lat="45.63913" lon="4.61632">
        <ele>636</ele>
        <time>2015-12-06T04:45:01.000Z</time>
      </trkpt>
      <trkpt lat="45.63908" lon="4.61647">
        <ele>637.40002441406</ele>
        <time>2015-12-06T04:45:09.000Z</time>
      </trkpt>
      <trkpt lat="45.63902" lon="4.61671">
        <ele>637.79998779297</ele>
        <time>2015-12-06T04:45:17.000Z</time>
      </trkpt>
      <trkpt lat="45.63897" lon="4.61698">
        <ele>638.59997558594</ele>
        <time>2015-12-06T04:45:26.000Z</time>
      </trkpt>
      <trkpt lat="45.63894" lon="4.61726">
        <ele>640.40002441406</ele>
        <time>2015-12-06T04:45:35.000Z</time>
      </trkpt>
      <trkpt lat="45.63889" lon="4.61754">
        <ele>641</ele>
        <time>2015-12-06T04:45:44.000Z</time>
      </trkpt>
      <trkpt lat="45.63884" lon="4.61781">
        <ele>641.40002441406</ele>
        <time>2015-12-06T04:45:54.000Z</time>
      </trkpt>
      <trkpt lat="45.63879" lon="4.61808">
        <ele>641.40002441406</ele>
        <time>2015-12-06T04:46:04.000Z</time>
      </trkpt>
      <trkpt lat="45.63873" lon="4.61835">
        <ele>641.20001220703</ele>
        <time>2015-12-06T04:46:13.000Z</time>
      </trkpt>
      <trkpt lat="45.63866" lon="4.61862">
        <ele>641.59997558594</ele>
        <time>2015-12-06T04:46:22.000Z</time>
      </trkpt>
      <trkpt lat="45.63865" lon="4.61888">
        <ele>641.20001220703</ele>
        <time>2015-12-06T04:46:30.000Z</time>
      </trkpt>
      <trkpt lat="45.63875" lon="4.61913">
        <ele>641.79998779297</ele>
        <time>2015-12-06T04:46:41.000Z</time>
      </trkpt>
      <trkpt lat="45.63886" lon="4.61936">
        <ele>642.79998779297</ele>
        <time>2015-12-06T04:46:50.000Z</time>
      </trkpt>
      <trkpt lat="45.63894" lon="4.61961">
        <ele>643.20001220703</ele>
        <time>2015-12-06T04:46:59.000Z</time>
      </trkpt>
      <trkpt lat="45.63897" lon="4.61989">
        <ele>641.59997558594</ele>
        <time>2015-12-06T04:47:08.000Z</time>
      </trkpt>
      <trkpt lat="45.63893" lon="4.62015">
        <ele>638.59997558594</ele>
        <time>2015-12-06T04:47:16.000Z</time>
      </trkpt>
      <trkpt lat="45.63883" lon="4.62036">
        <ele>634.40002441406</ele>
        <time>2015-12-06T04:47:24.000Z</time>
      </trkpt>
      <trkpt lat="45.63873" lon="4.62058">
        <ele>635.59997558594</ele>
        <time>2015-12-06T04:47:33.000Z</time>
      </trkpt>
      <trkpt lat="45.63861" lon="4.62081">
        <ele>636.40002441406</ele>
        <time>2015-12-06T04:47:42.000Z</time>
      </trkpt>
      <trkpt lat="45.63848" lon="4.62098">
        <ele>635</ele>
        <time>2015-12-06T04:47:50.000Z</time>
      </trkpt>
      <trkpt lat="45.63835" lon="4.62116">
        <ele>633.20001220703</ele>
        <time>2015-12-06T04:47:58.000Z</time>
      </trkpt>
      <trkpt lat="45.63822" lon="4.62135">
        <ele>632.40002441406</ele>
        <time>2015-12-06T04:48:06.000Z</time>
      </trkpt>
      <trkpt lat="45.6381" lon="4.62158">
        <ele>632</ele>
        <time>2015-12-06T04:48:15.000Z</time>
      </trkpt>
      <trkpt lat="45.638" lon="4.6218">
        <ele>632</ele>
        <time>2015-12-06T04:48:22.000Z</time>
      </trkpt>
      <trkpt lat="45.63789" lon="4.62203">
        <ele>632</ele>
        <time>2015-12-06T04:48:30.000Z</time>
      </trkpt>
      <trkpt lat="45.63778" lon="4.62226">
        <ele>630.40002441406</ele>
        <time>2015-12-06T04:48:39.000Z</time>
      </trkpt>
      <trkpt lat="45.63767" lon="4.62246">
        <ele>628.79998779297</ele>
        <time>2015-12-06T04:48:49.000Z</time>
      </trkpt>
      <trkpt lat="45.63755" lon="4.62269">
        <ele>629</ele>
        <time>2015-12-06T04:48:58.000Z</time>
      </trkpt>
      <trkpt lat="45.63741" lon="4.62288">
        <ele>628.59997558594</ele>
        <time>2015-12-06T04:49:06.000Z</time>
      </trkpt>
      <trkpt lat="45.63729" lon="4.62311">
        <ele>627.20001220703</ele>
        <time>2015-12-06T04:49:15.000Z</time>
      </trkpt>
      <trkpt lat="45.6372" lon="4.62336">
        <ele>626.40002441406</ele>
        <time>2015-12-06T04:49:24.000Z</time>
      </trkpt>
      <trkpt lat="45.63718" lon="4.62362">
        <ele>627.40002441406</ele>
        <time>2015-12-06T04:49:32.000Z</time>
      </trkpt>
      <trkpt lat="45.63729" lon="4.62385">
        <ele>630.20001220703</ele>
        <time>2015-12-06T04:49:41.000Z</time>
      </trkpt>
      <trkpt lat="45.63737" lon="4.62406">
        <ele>631.59997558594</ele>
        <time>2015-12-06T04:49:53.000Z</time>
      </trkpt>
      <trkpt lat="45.63741" lon="4.62428">
        <ele>631.40002441406</ele>
        <time>2015-12-06T04:50:33.000Z</time>
      </trkpt>
      <trkpt lat="45.63742" lon="4.62437">
        <ele>631</ele>
        <time>2015-12-06T04:51:44.000Z</time>
      </trkpt>
      <trkpt lat="45.63735" lon="4.62438">
        <ele>628.79998779297</ele>
        <time>2015-12-06T04:52:52.000Z</time>
      </trkpt>
      <trkpt lat="45.63738" lon="4.62455">
        <ele>628.79998779297</ele>
        <time>2015-12-06T04:54:02.000Z</time>
      </trkpt>
      <trkpt lat="45.63738" lon="4.62462">
        <ele>629</ele>
        <time>2015-12-06T04:54:55.000Z</time>
      </trkpt>
      <trkpt lat="45.63731" lon="4.62479">
        <ele>626.59997558594</ele>
        <time>2015-12-06T04:55:42.000Z</time>
      </trkpt>
      <trkpt lat="45.63717" lon="4.62496">
        <ele>622.40002441406</ele>
        <time>2015-12-06T04:56:01.000Z</time>
      </trkpt>
      <trkpt lat="45.63713" lon="4.62498">
        <ele>621.20001220703</ele>
        <time>2015-12-06T04:56:08.000Z</time>
      </trkpt>
      <trkpt lat="45.63697" lon="4.62508">
        <ele>616.59997558594</ele>
        <time>2015-12-06T04:56:28.000Z</time>
      </trkpt>
      <trkpt lat="45.63688" lon="4.6253">
        <ele>615.79998779297</ele>
        <time>2015-12-06T04:56:47.000Z</time>
      </trkpt>
      <trkpt lat="45.63683" lon="4.62555">
        <ele>617.40002441406</ele>
        <time>2015-12-06T04:57:03.000Z</time>
      </trkpt>
      <trkpt lat="45.63675" lon="4.62578">
        <ele>618.40002441406</ele>
        <time>2015-12-06T04:57:19.000Z</time>
      </trkpt>
      <trkpt lat="45.63665" lon="4.62601">
        <ele>617.79998779297</ele>
        <time>2015-12-06T04:57:34.000Z</time>
      </trkpt>
      <trkpt lat="45.63662" lon="4.62607">
        <ele>617.79998779297</ele>
        <time>2015-12-06T04:57:38.000Z</time>
      </trkpt>
      <trkpt lat="45.63659" lon="4.62614">
        <ele>617.59997558594</ele>
        <time>2015-12-06T04:57:43.000Z</time>
      </trkpt>
      <trkpt lat="45.6365" lon="4.62638">
        <ele>617</ele>
        <time>2015-12-06T04:58:02.000Z</time>
      </trkpt>
      <trkpt lat="45.63643" lon="4.62663">
        <ele>615.79998779297</ele>
        <time>2015-12-06T04:58:18.000Z</time>
      </trkpt>
      <trkpt lat="45.63635" lon="4.62686">
        <ele>614.20001220703</ele>
        <time>2015-12-06T04:58:33.000Z</time>
      </trkpt>
      <trkpt lat="45.63634" lon="4.62688">
        <ele>614</ele>
        <time>2015-12-06T04:58:35.000Z</time>
      </trkpt>
      <trkpt lat="45.63624" lon="4.62711">
        <ele>611.59997558594</ele>
        <time>2015-12-06T04:58:52.000Z</time>
      </trkpt>
      <trkpt lat="45.63611" lon="4.62729">
        <ele>607.79998779297</ele>
        <time>2015-12-06T04:59:08.000Z</time>
      </trkpt>
      <trkpt lat="45.636" lon="4.62747">
        <ele>604.79998779297</ele>
        <time>2015-12-06T04:59:24.000Z</time>
      </trkpt>
      <trkpt lat="45.63597" lon="4.62751">
        <ele>603.79998779297</ele>
        <time>2015-12-06T04:59:28.000Z</time>
      </trkpt>
      <trkpt lat="45.63585" lon="4.62773">
        <ele>600.40002441406</ele>
        <time>2015-12-06T04:59:40.000Z</time>
      </trkpt>
      <trkpt lat="45.63578" lon="4.62798">
        <ele>597.40002441406</ele>
        <time>2015-12-06T04:59:50.000Z</time>
      </trkpt>
      <trkpt lat="45.63577" lon="4.62825">
        <ele>595.40002441406</ele>
        <time>2015-12-06T05:00:00.000Z</time>
      </trkpt>
      <trkpt lat="45.63578" lon="4.62852">
        <ele>594.79998779297</ele>
        <time>2015-12-06T05:00:09.000Z</time>
      </trkpt>
      <trkpt lat="45.63572" lon="4.62876">
        <ele>591.59997558594</ele>
        <time>2015-12-06T05:00:18.000Z</time>
      </trkpt>
      <trkpt lat="45.63562" lon="4.62898">
        <ele>587.20001220703</ele>
        <time>2015-12-06T05:00:26.000Z</time>
      </trkpt>
      <trkpt lat="45.63552" lon="4.62922">
        <ele>583.40002441406</ele>
        <time>2015-12-06T05:00:35.000Z</time>
      </trkpt>
      <trkpt lat="45.63547" lon="4.62936">
        <ele>581.40002441406</ele>
        <time>2015-12-06T05:00:40.000Z</time>
      </trkpt>
      <trkpt lat="45.63562" lon="4.6295">
        <ele>583</ele>
        <time>2015-12-06T05:00:51.000Z</time>
      </trkpt>
      <trkpt lat="45.63582" lon="4.62955">
        <ele>585.40002441406</ele>
        <time>2015-12-06T05:01:02.000Z</time>
      </trkpt>
      <trkpt lat="45.63601" lon="4.62956">
        <ele>588.79998779297</ele>
        <time>2015-12-06T05:01:14.000Z</time>
      </trkpt>
      <trkpt lat="45.63615" lon="4.62956">
        <ele>591.20001220703</ele>
        <time>2015-12-06T05:01:23.000Z</time>
      </trkpt>
      <trkpt lat="45.63622" lon="4.62955">
        <ele>592.79998779297</ele>
        <time>2015-12-06T05:01:27.000Z</time>
      </trkpt>
      <trkpt lat="45.6364" lon="4.62953">
        <ele>596.59997558594</ele>
        <time>2015-12-06T05:01:37.000Z</time>
      </trkpt>
      <trkpt lat="45.6366" lon="4.6295">
        <ele>600</ele>
        <time>2015-12-06T05:01:47.000Z</time>
      </trkpt>
      <trkpt lat="45.63677" lon="4.62953">
        <ele>602.40002441406</ele>
        <time>2015-12-06T05:01:57.000Z</time>
      </trkpt>
      <trkpt lat="45.63689" lon="4.62954">
        <ele>604</ele>
        <time>2015-12-06T05:02:05.000Z</time>
      </trkpt>
      <trkpt lat="45.63706" lon="4.62963">
        <ele>604.79998779297</ele>
        <time>2015-12-06T05:02:15.000Z</time>
      </trkpt>
      <trkpt lat="45.63724" lon="4.62972">
        <ele>606.40002441406</ele>
        <time>2015-12-06T05:02:24.000Z</time>
      </trkpt>
      <trkpt lat="45.6374" lon="4.62983">
        <ele>609</ele>
        <time>2015-12-06T05:02:34.000Z</time>
      </trkpt>
      <trkpt lat="45.63742" lon="4.62987">
        <ele>609</ele>
        <time>2015-12-06T05:02:36.000Z</time>
      </trkpt>
      <trkpt lat="45.63746" lon="4.62996">
        <ele>608</ele>
        <time>2015-12-06T05:02:40.000Z</time>
      </trkpt>
      <trkpt lat="45.63747" lon="4.62997">
        <ele>608</ele>
        <time>2015-12-06T05:02:41.000Z</time>
      </trkpt>
      <trkpt lat="45.63753" lon="4.63008">
        <ele>607.79998779297</ele>
        <time>2015-12-06T05:02:47.000Z</time>
      </trkpt>
      <trkpt lat="45.63762" lon="4.63024">
        <ele>607.40002441406</ele>
        <time>2015-12-06T05:02:59.000Z</time>
      </trkpt>
      <trkpt lat="45.63764" lon="4.63028">
        <ele>607</ele>
        <time>2015-12-06T05:03:03.000Z</time>
      </trkpt>
      <trkpt lat="45.63776" lon="4.63048">
        <ele>608.59997558594</ele>
        <time>2015-12-06T05:03:22.000Z</time>
      </trkpt>
      <trkpt lat="45.63787" lon="4.6307">
        <ele>611.20001220703</ele>
        <time>2015-12-06T05:03:39.000Z</time>
      </trkpt>
      <trkpt lat="45.63797" lon="4.63092">
        <ele>613.40002441406</ele>
        <time>2015-12-06T05:03:54.000Z</time>
      </trkpt>
      <trkpt lat="45.63811" lon="4.63109">
        <ele>615.79998779297</ele>
        <time>2015-12-06T05:04:11.000Z</time>
      </trkpt>
      <trkpt lat="45.63828" lon="4.63106">
        <ele>618.40002441406</ele>
        <time>2015-12-06T05:04:32.000Z</time>
      </trkpt>
      <trkpt lat="45.63845" lon="4.63097">
        <ele>621.40002441406</ele>
        <time>2015-12-06T05:04:53.000Z</time>
      </trkpt>
      <trkpt lat="45.63855" lon="4.63092">
        <ele>623.20001220703</ele>
        <time>2015-12-06T05:05:02.000Z</time>
      </trkpt>
      <trkpt lat="45.63872" lon="4.63083">
        <ele>628.59997558594</ele>
        <time>2015-12-06T05:05:21.000Z</time>
      </trkpt>
      <trkpt lat="45.6389" lon="4.63074">
        <ele>633.59997558594</ele>
        <time>2015-12-06T05:05:41.000Z</time>
      </trkpt>
      <trkpt lat="45.63907" lon="4.63066">
        <ele>635</ele>
        <time>2015-12-06T05:05:57.000Z</time>
      </trkpt>
      <trkpt lat="45.63924" lon="4.63058">
        <ele>637</ele>
        <time>2015-12-06T05:06:13.000Z</time>
      </trkpt>
      <trkpt lat="45.63941" lon="4.63047">
        <ele>640.20001220703</ele>
        <time>2015-12-06T05:06:31.000Z</time>
      </trkpt>
      <trkpt lat="45.63959" lon="4.6304">
        <ele>642.59997558594</ele>
        <time>2015-12-06T05:06:48.000Z</time>
      </trkpt>
      <trkpt lat="45.63977" lon="4.63035">
        <ele>643.40002441406</ele>
        <time>2015-12-06T05:07:04.000Z</time>
      </trkpt>
      <trkpt lat="45.63995" lon="4.63027">
        <ele>642.79998779297</ele>
        <time>2015-12-06T05:07:16.000Z</time>
      </trkpt>
      <trkpt lat="45.64013" lon="4.63019">
        <ele>642.40002441406</ele>
        <time>2015-12-06T05:07:26.000Z</time>
      </trkpt>
      <trkpt lat="45.6403" lon="4.63006">
        <ele>643.20001220703</ele>
        <time>2015-12-06T05:07:35.000Z</time>
      </trkpt>
      <trkpt lat="45.64048" lon="4.62998">
        <ele>643</ele>
        <time>2015-12-06T05:07:44.000Z</time>
      </trkpt>
      <trkpt lat="45.64068" lon="4.6299">
        <ele>641</ele>
        <time>2015-12-06T05:07:52.000Z</time>
      </trkpt>
      <trkpt lat="45.64086" lon="4.62981">
        <ele>639</ele>
        <time>2015-12-06T05:08:00.000Z</time>
      </trkpt>
      <trkpt lat="45.64105" lon="4.62972">
        <ele>637</ele>
        <time>2015-12-06T05:08:08.000Z</time>
      </trkpt>
      <trkpt lat="45.64123" lon="4.62961">
        <ele>635.59997558594</ele>
        <time>2015-12-06T05:08:17.000Z</time>
      </trkpt>
      <trkpt lat="45.6414" lon="4.62951">
        <ele>634.20001220703</ele>
        <time>2015-12-06T05:08:24.000Z</time>
      </trkpt>
      <trkpt lat="45.64158" lon="4.62939">
        <ele>632.40002441406</ele>
        <time>2015-12-06T05:08:34.000Z</time>
      </trkpt>
      <trkpt lat="45.64176" lon="4.62927">
        <ele>630.20001220703</ele>
        <time>2015-12-06T05:08:42.000Z</time>
      </trkpt>
      <trkpt lat="45.64195" lon="4.62917">
        <ele>627.40002441406</ele>
        <time>2015-12-06T05:08:51.000Z</time>
      </trkpt>
      <trkpt lat="45.64213" lon="4.62906">
        <ele>623.59997558594</ele>
        <time>2015-12-06T05:08:59.000Z</time>
      </trkpt>
      <trkpt lat="45.64231" lon="4.62895">
        <ele>621.79998779297</ele>
        <time>2015-12-06T05:09:08.000Z</time>
      </trkpt>
      <trkpt lat="45.64248" lon="4.62885">
        <ele>620.40002441406</ele>
        <time>2015-12-06T05:09:16.000Z</time>
      </trkpt>
      <trkpt lat="45.64266" lon="4.62872">
        <ele>618.20001220703</ele>
        <time>2015-12-06T05:09:25.000Z</time>
      </trkpt>
      <trkpt lat="45.64279" lon="4.62863">
        <ele>616.59997558594</ele>
        <time>2015-12-06T05:09:31.000Z</time>
      </trkpt>
      <trkpt lat="45.64288" lon="4.62878">
        <ele>614.79998779297</ele>
        <time>2015-12-06T05:09:37.000Z</time>
      </trkpt>
      <trkpt lat="45.64295" lon="4.62901">
        <ele>613.20001220703</ele>
        <time>2015-12-06T05:09:45.000Z</time>
      </trkpt>
      <trkpt lat="45.64302" lon="4.62928">
        <ele>611.59997558594</ele>
        <time>2015-12-06T05:09:54.000Z</time>
      </trkpt>
      <trkpt lat="45.6431" lon="4.62953">
        <ele>610.79998779297</ele>
        <time>2015-12-06T05:10:03.000Z</time>
      </trkpt>
      <trkpt lat="45.64318" lon="4.62978">
        <ele>611.59997558594</ele>
        <time>2015-12-06T05:10:12.000Z</time>
      </trkpt>
      <trkpt lat="45.64322" lon="4.63004">
        <ele>612</ele>
        <time>2015-12-06T05:10:21.000Z</time>
      </trkpt>
      <trkpt lat="45.64324" lon="4.63031">
        <ele>612.40002441406</ele>
        <time>2015-12-06T05:10:30.000Z</time>
      </trkpt>
      <trkpt lat="45.64327" lon="4.63057">
        <ele>612.79998779297</ele>
        <time>2015-12-06T05:10:39.000Z</time>
      </trkpt>
      <trkpt lat="45.64335" lon="4.6308">
        <ele>612.79998779297</ele>
        <time>2015-12-06T05:10:49.000Z</time>
      </trkpt>
      <trkpt lat="45.64335" lon="4.63106">
        <ele>612.20001220703</ele>
        <time>2015-12-06T05:10:59.000Z</time>
      </trkpt>
      <trkpt lat="45.6433" lon="4.63133">
        <ele>611.40002441406</ele>
        <time>2015-12-06T05:11:09.000Z</time>
      </trkpt>
      <trkpt lat="45.64327" lon="4.6316">
        <ele>609.40002441406</ele>
        <time>2015-12-06T05:11:18.000Z</time>
      </trkpt>
      <trkpt lat="45.64327" lon="4.63186">
        <ele>606.79998779297</ele>
        <time>2015-12-06T05:11:27.000Z</time>
      </trkpt>
      <trkpt lat="45.6433" lon="4.63212">
        <ele>605</ele>
        <time>2015-12-06T05:11:35.000Z</time>
      </trkpt>
      <trkpt lat="45.64333" lon="4.63237">
        <ele>604</ele>
        <time>2015-12-06T05:11:43.000Z</time>
      </trkpt>
      <trkpt lat="45.64329" lon="4.63264">
        <ele>601.79998779297</ele>
        <time>2015-12-06T05:11:51.000Z</time>
      </trkpt>
      <trkpt lat="45.64326" lon="4.63278">
        <ele>600.59997558594</ele>
        <time>2015-12-06T05:11:56.000Z</time>
      </trkpt>
      <trkpt lat="45.64323" lon="4.63284">
        <ele>599.79998779297</ele>
        <time>2015-12-06T05:12:00.000Z</time>
      </trkpt>
      <trkpt lat="45.64323" lon="4.63311">
        <ele>596.40002441406</ele>
        <time>2015-12-06T05:12:10.000Z</time>
      </trkpt>
      <trkpt lat="45.64326" lon="4.63337">
        <ele>594.40002441406</ele>
        <time>2015-12-06T05:12:18.000Z</time>
      </trkpt>
      <trkpt lat="45.64327" lon="4.63355">
        <ele>593</ele>
        <time>2015-12-06T05:12:24.000Z</time>
      </trkpt>
      <trkpt lat="45.64324" lon="4.63375">
        <ele>590.40002441406</ele>
        <time>2015-12-06T05:12:32.000Z</time>
      </trkpt>
      <trkpt lat="45.64306" lon="4.63384">
        <ele>588</ele>
        <time>2015-12-06T05:12:41.000Z</time>
      </trkpt>
      <trkpt lat="45.64289" lon="4.63393">
        <ele>583.59997558594</ele>
        <time>2015-12-06T05:12:50.000Z</time>
      </trkpt>
      <trkpt lat="45.64288" lon="4.63395">
        <ele>583</ele>
        <time>2015-12-06T05:12:51.000Z</time>
      </trkpt>
      <trkpt lat="45.6428" lon="4.63421">
        <ele>577.79998779297</ele>
        <time>2015-12-06T05:13:01.000Z</time>
      </trkpt>
      <trkpt lat="45.64277" lon="4.63447">
        <ele>575.40002441406</ele>
        <time>2015-12-06T05:13:09.000Z</time>
      </trkpt>
      <trkpt lat="45.64269" lon="4.63473">
        <ele>570.20001220703</ele>
        <time>2015-12-06T05:13:19.000Z</time>
      </trkpt>
      <trkpt lat="45.64267" lon="4.63475">
        <ele>569.59997558594</ele>
        <time>2015-12-06T05:13:20.000Z</time>
      </trkpt>
      <trkpt lat="45.64256" lon="4.63496">
        <ele>564.40002441406</ele>
        <time>2015-12-06T05:13:29.000Z</time>
      </trkpt>
      <trkpt lat="45.64242" lon="4.63517">
        <ele>561.40002441406</ele>
        <time>2015-12-06T05:13:38.000Z</time>
      </trkpt>
      <trkpt lat="45.64229" lon="4.63538">
        <ele>558.20001220703</ele>
        <time>2015-12-06T05:13:46.000Z</time>
      </trkpt>
      <trkpt lat="45.64217" lon="4.63557">
        <ele>553.40002441406</ele>
        <time>2015-12-06T05:13:54.000Z</time>
      </trkpt>
      <trkpt lat="45.64203" lon="4.63576">
        <ele>545.79998779297</ele>
        <time>2015-12-06T05:14:02.000Z</time>
      </trkpt>
      <trkpt lat="45.6419" lon="4.63599">
        <ele>539.40002441406</ele>
        <time>2015-12-06T05:14:10.000Z</time>
      </trkpt>
      <trkpt lat="45.64179" lon="4.63623">
        <ele>536.59997558594</ele>
        <time>2015-12-06T05:14:18.000Z</time>
      </trkpt>
      <trkpt lat="45.64169" lon="4.63644">
        <ele>532.59997558594</ele>
        <time>2015-12-06T05:14:25.000Z</time>
      </trkpt>
      <trkpt lat="45.64153" lon="4.63662">
        <ele>529.59997558594</ele>
        <time>2015-12-06T05:14:33.000Z</time>
      </trkpt>
      <trkpt lat="45.64151" lon="4.63663">
        <ele>529.40002441406</ele>
        <time>2015-12-06T05:14:34.000Z</time>
      </trkpt>
      <trkpt lat="45.64133" lon="4.63664">
        <ele>527.59997558594</ele>
        <time>2015-12-06T05:14:41.000Z</time>
      </trkpt>
      <trkpt lat="45.64116" lon="4.63652">
        <ele>525.20001220703</ele>
        <time>2015-12-06T05:14:49.000Z</time>
      </trkpt>
      <trkpt lat="45.64114" lon="4.6365">
        <ele>524.79998779297</ele>
        <time>2015-12-06T05:14:51.000Z</time>
      </trkpt>
      <trkpt lat="45.64113" lon="4.63669">
        <ele>523</ele>
        <time>2015-12-06T05:14:59.000Z</time>
      </trkpt>
      <trkpt lat="45.64113" lon="4.63677">
        <ele>522.59997558594</ele>
        <time>2015-12-06T05:15:02.000Z</time>
      </trkpt>
      <trkpt lat="45.64127" lon="4.63696">
        <ele>523.79998779297</ele>
        <time>2015-12-06T05:15:12.000Z</time>
      </trkpt>
      <trkpt lat="45.64132" lon="4.63698">
        <ele>524.59997558594</ele>
        <time>2015-12-06T05:15:15.000Z</time>
      </trkpt>
      <trkpt lat="45.64138" lon="4.6372">
        <ele>524.59997558594</ele>
        <time>2015-12-06T05:15:25.000Z</time>
      </trkpt>
      <trkpt lat="45.64131" lon="4.63739">
        <ele>522.40002441406</ele>
        <time>2015-12-06T05:15:33.000Z</time>
      </trkpt>
      <trkpt lat="45.64129" lon="4.63746">
        <ele>521.59997558594</ele>
        <time>2015-12-06T05:15:36.000Z</time>
      </trkpt>
      <trkpt lat="45.64124" lon="4.63774">
        <ele>519.40002441406</ele>
        <time>2015-12-06T05:15:46.000Z</time>
      </trkpt>
      <trkpt lat="45.6412" lon="4.63801">
        <ele>519.20001220703</ele>
        <time>2015-12-06T05:15:56.000Z</time>
      </trkpt>
      <trkpt lat="45.64118" lon="4.63828">
        <ele>521.40002441406</ele>
        <time>2015-12-06T05:16:08.000Z</time>
      </trkpt>
      <trkpt lat="45.64118" lon="4.63833">
        <ele>522</ele>
        <time>2015-12-06T05:16:11.000Z</time>
      </trkpt>
      <trkpt lat="45.6412" lon="4.63841">
        <ele>523</ele>
        <time>2015-12-06T05:16:16.000Z</time>
      </trkpt>
      <trkpt lat="45.6412" lon="4.63842">
        <ele>523.20001220703</ele>
        <time>2015-12-06T05:16:17.000Z</time>
      </trkpt>
      <trkpt lat="45.64121" lon="4.6385">
        <ele>524.20001220703</ele>
        <time>2015-12-06T05:16:22.000Z</time>
      </trkpt>
      <trkpt lat="45.64121" lon="4.63857">
        <ele>524.59997558594</ele>
        <time>2015-12-06T05:16:26.000Z</time>
      </trkpt>
      <trkpt lat="45.64122" lon="4.63869">
        <ele>525</ele>
        <time>2015-12-06T05:16:32.000Z</time>
      </trkpt>
      <trkpt lat="45.64125" lon="4.63895">
        <ele>527.20001220703</ele>
        <time>2015-12-06T05:16:45.000Z</time>
      </trkpt>
      <trkpt lat="45.64128" lon="4.63922">
        <ele>529.40002441406</ele>
        <time>2015-12-06T05:16:59.000Z</time>
      </trkpt>
      <trkpt lat="45.64131" lon="4.63924">
        <ele>530.20001220703</ele>
        <time>2015-12-06T05:17:02.000Z</time>
      </trkpt>
      <trkpt lat="45.64136" lon="4.63915">
        <ele>531.40002441406</ele>
        <time>2015-12-06T05:17:10.000Z</time>
      </trkpt>
      <trkpt lat="45.64145" lon="4.63892">
        <ele>532.20001220703</ele>
        <time>2015-12-06T05:17:25.000Z</time>
      </trkpt>
      <trkpt lat="45.64146" lon="4.63891">
        <ele>532.40002441406</ele>
        <time>2015-12-06T05:17:26.000Z</time>
      </trkpt>
      <trkpt lat="45.64148" lon="4.63883">
        <ele>532.59997558594</ele>
        <time>2015-12-06T05:17:31.000Z</time>
      </trkpt>
      <trkpt lat="45.64159" lon="4.63862">
        <ele>534</ele>
        <time>2015-12-06T05:17:45.000Z</time>
      </trkpt>
      <trkpt lat="45.6417" lon="4.6384">
        <ele>534.59997558594</ele>
        <time>2015-12-06T05:18:00.000Z</time>
      </trkpt>
      <trkpt lat="45.64171" lon="4.63839">
        <ele>534.59997558594</ele>
        <time>2015-12-06T05:18:01.000Z</time>
      </trkpt>
      <trkpt lat="45.64179" lon="4.63836">
        <ele>536.20001220703</ele>
        <time>2015-12-06T05:18:09.000Z</time>
      </trkpt>
      <trkpt lat="45.6418" lon="4.63837">
        <ele>536.59997558594</ele>
        <time>2015-12-06T05:18:10.000Z</time>
      </trkpt>
      <trkpt lat="45.64184" lon="4.63861">
        <ele>539.79998779297</ele>
        <time>2015-12-06T05:18:23.000Z</time>
      </trkpt>
      <trkpt lat="45.64184" lon="4.63888">
        <ele>541.40002441406</ele>
        <time>2015-12-06T05:18:38.000Z</time>
      </trkpt>
      <trkpt lat="45.64187" lon="4.63914">
        <ele>543</ele>
        <time>2015-12-06T05:18:53.000Z</time>
      </trkpt>
      <trkpt lat="45.64192" lon="4.63928">
        <ele>544.59997558594</ele>
        <time>2015-12-06T05:19:01.000Z</time>
      </trkpt>
      <trkpt lat="45.64204" lon="4.63947">
        <ele>548.40002441406</ele>
        <time>2015-12-06T05:19:15.000Z</time>
      </trkpt>
      <trkpt lat="45.6422" lon="4.6396">
        <ele>551.40002441406</ele>
        <time>2015-12-06T05:19:28.000Z</time>
      </trkpt>
      <trkpt lat="45.64237" lon="4.63968">
        <ele>551.79998779297</ele>
        <time>2015-12-06T05:19:40.000Z</time>
      </trkpt>
      <trkpt lat="45.64255" lon="4.63976">
        <ele>552.59997558594</ele>
        <time>2015-12-06T05:19:52.000Z</time>
      </trkpt>
      <trkpt lat="45.64274" lon="4.63981">
        <ele>553.40002441406</ele>
        <time>2015-12-06T05:20:01.000Z</time>
      </trkpt>
      <trkpt lat="45.64293" lon="4.63986">
        <ele>554.59997558594</ele>
        <time>2015-12-06T05:20:10.000Z</time>
      </trkpt>
      <trkpt lat="45.64313" lon="4.6399">
        <ele>555</ele>
        <time>2015-12-06T05:20:20.000Z</time>
      </trkpt>
      <trkpt lat="45.64333" lon="4.63991">
        <ele>554.79998779297</ele>
        <time>2015-12-06T05:20:29.000Z</time>
      </trkpt>
      <trkpt lat="45.64352" lon="4.63994">
        <ele>554.59997558594</ele>
        <time>2015-12-06T05:20:38.000Z</time>
      </trkpt>
      <trkpt lat="45.6437" lon="4.63995">
        <ele>554.79998779297</ele>
        <time>2015-12-06T05:20:46.000Z</time>
      </trkpt>
      <trkpt lat="45.64389" lon="4.63994">
        <ele>555</ele>
        <time>2015-12-06T05:20:55.000Z</time>
      </trkpt>
      <trkpt lat="45.64407" lon="4.63996">
        <ele>555.20001220703</ele>
        <time>2015-12-06T05:21:03.000Z</time>
      </trkpt>
      <trkpt lat="45.64427" lon="4.63998">
        <ele>555.40002441406</ele>
        <time>2015-12-06T05:21:11.000Z</time>
      </trkpt>
      <trkpt lat="45.64445" lon="4.64004">
        <ele>555.20001220703</ele>
        <time>2015-12-06T05:21:19.000Z</time>
      </trkpt>
      <trkpt lat="45.64462" lon="4.64012">
        <ele>554.79998779297</ele>
        <time>2015-12-06T05:21:27.000Z</time>
      </trkpt>
      <trkpt lat="45.6448" lon="4.64019">
        <ele>553.79998779297</ele>
        <time>2015-12-06T05:21:36.000Z</time>
      </trkpt>
      <trkpt lat="45.64493" lon="4.6404">
        <ele>551.40002441406</ele>
        <time>2015-12-06T05:21:44.000Z</time>
      </trkpt>
      <trkpt lat="45.64498" lon="4.64067">
        <ele>549</ele>
        <time>2015-12-06T05:21:52.000Z</time>
      </trkpt>
      <trkpt lat="45.64499" lon="4.64095">
        <ele>546.59997558594</ele>
        <time>2015-12-06T05:22:00.000Z</time>
      </trkpt>
      <trkpt lat="45.64497" lon="4.64123">
        <ele>544.40002441406</ele>
        <time>2015-12-06T05:22:09.000Z</time>
      </trkpt>
      <trkpt lat="45.64495" lon="4.6415">
        <ele>542.79998779297</ele>
        <time>2015-12-06T05:22:18.000Z</time>
      </trkpt>
      <trkpt lat="45.64492" lon="4.64177">
        <ele>541.59997558594</ele>
        <time>2015-12-06T05:22:27.000Z</time>
      </trkpt>
      <trkpt lat="45.64489" lon="4.64203">
        <ele>540.59997558594</ele>
        <time>2015-12-06T05:22:36.000Z</time>
      </trkpt>
      <trkpt lat="45.64487" lon="4.64231">
        <ele>540.40002441406</ele>
        <time>2015-12-06T05:22:45.000Z</time>
      </trkpt>
      <trkpt lat="45.64483" lon="4.64258">
        <ele>541</ele>
        <time>2015-12-06T05:22:54.000Z</time>
      </trkpt>
      <trkpt lat="45.64466" lon="4.6427">
        <ele>541.40002441406</ele>
        <time>2015-12-06T05:23:02.000Z</time>
      </trkpt>
      <trkpt lat="45.6445" lon="4.64284">
        <ele>539</ele>
        <time>2015-12-06T05:23:10.000Z</time>
      </trkpt>
      <trkpt lat="45.64433" lon="4.64296">
        <ele>536.20001220703</ele>
        <time>2015-12-06T05:23:18.000Z</time>
      </trkpt>
      <trkpt lat="45.64416" lon="4.64306">
        <ele>533.40002441406</ele>
        <time>2015-12-06T05:23:26.000Z</time>
      </trkpt>
      <trkpt lat="45.64398" lon="4.64317">
        <ele>532</ele>
        <time>2015-12-06T05:23:34.000Z</time>
      </trkpt>
      <trkpt lat="45.64381" lon="4.64327">
        <ele>530.59997558594</ele>
        <time>2015-12-06T05:23:42.000Z</time>
      </trkpt>
      <trkpt lat="45.64364" lon="4.64336">
        <ele>528.20001220703</ele>
        <time>2015-12-06T05:23:49.000Z</time>
      </trkpt>
      <trkpt lat="45.64345" lon="4.64349">
        <ele>526</ele>
        <time>2015-12-06T05:23:57.000Z</time>
      </trkpt>
      <trkpt lat="45.64327" lon="4.64359">
        <ele>524</ele>
        <time>2015-12-06T05:24:05.000Z</time>
      </trkpt>
      <trkpt lat="45.6431" lon="4.64367">
        <ele>522</ele>
        <time>2015-12-06T05:24:12.000Z</time>
      </trkpt>
      <trkpt lat="45.64291" lon="4.64372">
        <ele>519.40002441406</ele>
        <time>2015-12-06T05:24:19.000Z</time>
      </trkpt>
      <trkpt lat="45.64272" lon="4.64374">
        <ele>516.40002441406</ele>
        <time>2015-12-06T05:24:26.000Z</time>
      </trkpt>
      <trkpt lat="45.64253" lon="4.64373">
        <ele>513.59997558594</ele>
        <time>2015-12-06T05:24:33.000Z</time>
      </trkpt>
      <trkpt lat="45.64235" lon="4.64373">
        <ele>510.60000610352</ele>
        <time>2015-12-06T05:24:40.000Z</time>
      </trkpt>
      <trkpt lat="45.64217" lon="4.64375">
        <ele>508</ele>
        <time>2015-12-06T05:24:47.000Z</time>
      </trkpt>
      <trkpt lat="45.64198" lon="4.64381">
        <ele>505.39999389648</ele>
        <time>2015-12-06T05:24:54.000Z</time>
      </trkpt>
      <trkpt lat="45.64178" lon="4.64383">
        <ele>502.60000610352</ele>
        <time>2015-12-06T05:25:02.000Z</time>
      </trkpt>
      <trkpt lat="45.64159" lon="4.64387">
        <ele>499.79998779297</ele>
        <time>2015-12-06T05:25:09.000Z</time>
      </trkpt>
      <trkpt lat="45.64141" lon="4.6439">
        <ele>497</ele>
        <time>2015-12-06T05:25:16.000Z</time>
      </trkpt>
      <trkpt lat="45.64122" lon="4.64395">
        <ele>494</ele>
        <time>2015-12-06T05:25:24.000Z</time>
      </trkpt>
      <trkpt lat="45.64106" lon="4.64409">
        <ele>491.79998779297</ele>
        <time>2015-12-06T05:25:31.000Z</time>
      </trkpt>
      <trkpt lat="45.64105" lon="4.64437">
        <ele>492.79998779297</ele>
        <time>2015-12-06T05:25:39.000Z</time>
      </trkpt>
      <trkpt lat="45.64111" lon="4.64463">
        <ele>494.39999389648</ele>
        <time>2015-12-06T05:25:48.000Z</time>
      </trkpt>
      <trkpt lat="45.64121" lon="4.64484">
        <ele>496.20001220703</ele>
        <time>2015-12-06T05:25:57.000Z</time>
      </trkpt>
      <trkpt lat="45.64134" lon="4.64502">
        <ele>498.79998779297</ele>
        <time>2015-12-06T05:26:06.000Z</time>
      </trkpt>
      <trkpt lat="45.64151" lon="4.64515">
        <ele>501</ele>
        <time>2015-12-06T05:26:16.000Z</time>
      </trkpt>
      <trkpt lat="45.64169" lon="4.64527">
        <ele>503.39999389648</ele>
        <time>2015-12-06T05:26:25.000Z</time>
      </trkpt>
      <trkpt lat="45.64187" lon="4.64534">
        <ele>505.79998779297</ele>
        <time>2015-12-06T05:26:34.000Z</time>
      </trkpt>
      <trkpt lat="45.64203" lon="4.64545">
        <ele>507.20001220703</ele>
        <time>2015-12-06T05:26:43.000Z</time>
      </trkpt>
      <trkpt lat="45.6422" lon="4.64556">
        <ele>508.60000610352</ele>
        <time>2015-12-06T05:26:53.000Z</time>
      </trkpt>
      <trkpt lat="45.64238" lon="4.64569">
        <ele>510</ele>
        <time>2015-12-06T05:27:03.000Z</time>
      </trkpt>
      <trkpt lat="45.64255" lon="4.6458">
        <ele>511.39999389648</ele>
        <time>2015-12-06T05:27:12.000Z</time>
      </trkpt>
      <trkpt lat="45.64271" lon="4.64596">
        <ele>512.59997558594</ele>
        <time>2015-12-06T05:27:21.000Z</time>
      </trkpt>
      <trkpt lat="45.64285" lon="4.64612">
        <ele>513.20001220703</ele>
        <time>2015-12-06T05:27:29.000Z</time>
      </trkpt>
      <trkpt lat="45.64287" lon="4.6463">
        <ele>512.40002441406</ele>
        <time>2015-12-06T05:27:37.000Z</time>
      </trkpt>
      <trkpt lat="45.64273" lon="4.64647">
        <ele>509.79998779297</ele>
        <time>2015-12-06T05:27:46.000Z</time>
      </trkpt>
      <trkpt lat="45.64264" lon="4.6467">
        <ele>507.60000610352</ele>
        <time>2015-12-06T05:27:54.000Z</time>
      </trkpt>
      <trkpt lat="45.64253" lon="4.64694">
        <ele>505.39999389648</ele>
        <time>2015-12-06T05:28:03.000Z</time>
      </trkpt>
      <trkpt lat="45.64241" lon="4.64715">
        <ele>502.60000610352</ele>
        <time>2015-12-06T05:28:11.000Z</time>
      </trkpt>
      <trkpt lat="45.64231" lon="4.64737">
        <ele>500.79998779297</ele>
        <time>2015-12-06T05:28:19.000Z</time>
      </trkpt>
      <trkpt lat="45.64224" lon="4.64762">
        <ele>499.79998779297</ele>
        <time>2015-12-06T05:28:28.000Z</time>
      </trkpt>
      <trkpt lat="45.64219" lon="4.64788">
        <ele>499</ele>
        <time>2015-12-06T05:28:37.000Z</time>
      </trkpt>
      <trkpt lat="45.64214" lon="4.64815">
        <ele>497.79998779297</ele>
        <time>2015-12-06T05:28:46.000Z</time>
      </trkpt>
      <trkpt lat="45.64211" lon="4.64841">
        <ele>497</ele>
        <time>2015-12-06T05:28:54.000Z</time>
      </trkpt>
      <trkpt lat="45.64209" lon="4.64867">
        <ele>496.39999389648</ele>
        <time>2015-12-06T05:29:02.000Z</time>
      </trkpt>
      <trkpt lat="45.64204" lon="4.64891">
        <ele>496.20001220703</ele>
        <time>2015-12-06T05:29:10.000Z</time>
      </trkpt>
      <trkpt lat="45.64195" lon="4.64916">
        <ele>495.79998779297</ele>
        <time>2015-12-06T05:29:19.000Z</time>
      </trkpt>
      <trkpt lat="45.64182" lon="4.64937">
        <ele>496</ele>
        <time>2015-12-06T05:29:29.000Z</time>
      </trkpt>
      <trkpt lat="45.64168" lon="4.64956">
        <ele>496.20001220703</ele>
        <time>2015-12-06T05:29:38.000Z</time>
      </trkpt>
      <trkpt lat="45.64156" lon="4.64976">
        <ele>494.79998779297</ele>
        <time>2015-12-06T05:29:46.000Z</time>
      </trkpt>
      <trkpt lat="45.64146" lon="4.65">
        <ele>495.79998779297</ele>
        <time>2015-12-06T05:29:55.000Z</time>
      </trkpt>
      <trkpt lat="45.64136" lon="4.65023">
        <ele>496.79998779297</ele>
        <time>2015-12-06T05:30:04.000Z</time>
      </trkpt>
      <trkpt lat="45.64126" lon="4.65045">
        <ele>495.39999389648</ele>
        <time>2015-12-06T05:30:12.000Z</time>
      </trkpt>
      <trkpt lat="45.64115" lon="4.65067">
        <ele>492.39999389648</ele>
        <time>2015-12-06T05:30:20.000Z</time>
      </trkpt>
      <trkpt lat="45.64105" lon="4.6509">
        <ele>489.60000610352</ele>
        <time>2015-12-06T05:30:28.000Z</time>
      </trkpt>
      <trkpt lat="45.64095" lon="4.65114">
        <ele>488.60000610352</ele>
        <time>2015-12-06T05:30:36.000Z</time>
      </trkpt>
      <trkpt lat="45.64087" lon="4.65139">
        <ele>486.39999389648</ele>
        <time>2015-12-06T05:30:44.000Z</time>
      </trkpt>
      <trkpt lat="45.64088" lon="4.65166">
        <ele>484.39999389648</ele>
        <time>2015-12-06T05:30:52.000Z</time>
      </trkpt>
      <trkpt lat="45.64094" lon="4.65192">
        <ele>483.39999389648</ele>
        <time>2015-12-06T05:31:00.000Z</time>
      </trkpt>
      <trkpt lat="45.64094" lon="4.65218">
        <ele>481.39999389648</ele>
        <time>2015-12-06T05:31:08.000Z</time>
      </trkpt>
      <trkpt lat="45.6409" lon="4.65245">
        <ele>478.60000610352</ele>
        <time>2015-12-06T05:31:16.000Z</time>
      </trkpt>
      <trkpt lat="45.64087" lon="4.65273">
        <ele>476.79998779297</ele>
        <time>2015-12-06T05:31:25.000Z</time>
      </trkpt>
      <trkpt lat="45.64083" lon="4.65297">
        <ele>474.79998779297</ele>
        <time>2015-12-06T05:31:33.000Z</time>
      </trkpt>
      <trkpt lat="45.64075" lon="4.65323">
        <ele>472.39999389648</ele>
        <time>2015-12-06T05:31:41.000Z</time>
      </trkpt>
      <trkpt lat="45.64076" lon="4.65342">
        <ele>470.39999389648</ele>
        <time>2015-12-06T05:31:47.000Z</time>
      </trkpt>
      <trkpt lat="45.64084" lon="4.65346">
        <ele>469.20001220703</ele>
        <time>2015-12-06T05:31:51.000Z</time>
      </trkpt>
      <trkpt lat="45.64096" lon="4.65345">
        <ele>468.39999389648</ele>
        <time>2015-12-06T05:31:57.000Z</time>
      </trkpt>
      <trkpt lat="45.64111" lon="4.65347">
        <ele>467.20001220703</ele>
        <time>2015-12-06T05:32:04.000Z</time>
      </trkpt>
      <trkpt lat="45.64129" lon="4.65351">
        <ele>465.60000610352</ele>
        <time>2015-12-06T05:32:12.000Z</time>
      </trkpt>
      <trkpt lat="45.64148" lon="4.65353">
        <ele>464.20001220703</ele>
        <time>2015-12-06T05:32:21.000Z</time>
      </trkpt>
      <trkpt lat="45.64167" lon="4.65356">
        <ele>463.20001220703</ele>
        <time>2015-12-06T05:32:30.000Z</time>
      </trkpt>
      <trkpt lat="45.64185" lon="4.65361">
        <ele>461.60000610352</ele>
        <time>2015-12-06T05:32:38.000Z</time>
      </trkpt>
      <trkpt lat="45.64194" lon="4.65384">
        <ele>460.60000610352</ele>
        <time>2015-12-06T05:32:46.000Z</time>
      </trkpt>
      <trkpt lat="45.64189" lon="4.6541">
        <ele>461.39999389648</ele>
        <time>2015-12-06T05:32:56.000Z</time>
      </trkpt>
      <trkpt lat="45.64186" lon="4.6542">
        <ele>461.79998779297</ele>
        <time>2015-12-06T05:33:02.000Z</time>
      </trkpt>
      <trkpt lat="45.64181" lon="4.65438">
        <ele>459.39999389648</ele>
        <time>2015-12-06T05:33:14.000Z</time>
      </trkpt>
      <trkpt lat="45.6418" lon="4.65445">
        <ele>458.60000610352</ele>
        <time>2015-12-06T05:33:19.000Z</time>
      </trkpt>
      <trkpt lat="45.64179" lon="4.65457">
        <ele>458.20001220703</ele>
        <time>2015-12-06T05:33:27.000Z</time>
      </trkpt>
      <trkpt lat="45.64177" lon="4.6548">
        <ele>460.79998779297</ele>
        <time>2015-12-06T05:33:43.000Z</time>
      </trkpt>
      <trkpt lat="45.64179" lon="4.65507">
        <ele>463.60000610352</ele>
        <time>2015-12-06T05:34:01.000Z</time>
      </trkpt>
      <trkpt lat="45.6418" lon="4.65533">
        <ele>465.60000610352</ele>
        <time>2015-12-06T05:34:18.000Z</time>
      </trkpt>
      <trkpt lat="45.6418" lon="4.65535">
        <ele>465.79998779297</ele>
        <time>2015-12-06T05:34:19.000Z</time>
      </trkpt>
      <trkpt lat="45.64183" lon="4.65542">
        <ele>467</ele>
        <time>2015-12-06T05:34:26.000Z</time>
      </trkpt>
      <trkpt lat="45.642" lon="4.65534">
        <ele>468.39999389648</ele>
        <time>2015-12-06T05:34:42.000Z</time>
      </trkpt>
      <trkpt lat="45.64217" lon="4.65525">
        <ele>469.60000610352</ele>
        <time>2015-12-06T05:34:56.000Z</time>
      </trkpt>
      <trkpt lat="45.64221" lon="4.65525">
        <ele>469.79998779297</ele>
        <time>2015-12-06T05:34:59.000Z</time>
      </trkpt>
      <trkpt lat="45.64228" lon="4.65524">
        <ele>470</ele>
        <time>2015-12-06T05:35:05.000Z</time>
      </trkpt>
      <trkpt lat="45.64246" lon="4.65528">
        <ele>471</ele>
        <time>2015-12-06T05:35:21.000Z</time>
      </trkpt>
      <trkpt lat="45.64264" lon="4.65533">
        <ele>472.20001220703</ele>
        <time>2015-12-06T05:35:34.000Z</time>
      </trkpt>
      <trkpt lat="45.64278" lon="4.65541">
        <ele>473.60000610352</ele>
        <time>2015-12-06T05:35:45.000Z</time>
      </trkpt>
      <trkpt lat="45.64295" lon="4.65554">
        <ele>475.20001220703</ele>
        <time>2015-12-06T05:35:59.000Z</time>
      </trkpt>
      <trkpt lat="45.64309" lon="4.6557">
        <ele>477.20001220703</ele>
        <time>2015-12-06T05:36:14.000Z</time>
      </trkpt>
      <trkpt lat="45.64324" lon="4.65586">
        <ele>479.39999389648</ele>
        <time>2015-12-06T05:36:29.000Z</time>
      </trkpt>
      <trkpt lat="45.6433" lon="4.65592">
        <ele>480.39999389648</ele>
        <time>2015-12-06T05:36:36.000Z</time>
      </trkpt>
      <trkpt lat="45.64346" lon="4.65605">
        <ele>482.39999389648</ele>
        <time>2015-12-06T05:36:49.000Z</time>
      </trkpt>
      <trkpt lat="45.6435" lon="4.65608">
        <ele>482.79998779297</ele>
        <time>2015-12-06T05:36:53.000Z</time>
      </trkpt>
      <trkpt lat="45.64363" lon="4.65615">
        <ele>484.39999389648</ele>
        <time>2015-12-06T05:37:04.000Z</time>
      </trkpt>
      <trkpt lat="45.64366" lon="4.65617">
        <ele>484.60000610352</ele>
        <time>2015-12-06T05:37:07.000Z</time>
      </trkpt>
      <trkpt lat="45.6437" lon="4.6562">
        <ele>485.20001220703</ele>
        <time>2015-12-06T05:37:11.000Z</time>
      </trkpt>
      <trkpt lat="45.64387" lon="4.65635">
        <ele>487.79998779297</ele>
        <time>2015-12-06T05:37:25.000Z</time>
      </trkpt>
      <trkpt lat="45.64396" lon="4.65644">
        <ele>489</ele>
        <time>2015-12-06T05:37:33.000Z</time>
      </trkpt>
      <trkpt lat="45.644" lon="4.6565">
        <ele>489.60000610352</ele>
        <time>2015-12-06T05:37:39.000Z</time>
      </trkpt>
      <trkpt lat="45.64416" lon="4.65663">
        <ele>491.20001220703</ele>
        <time>2015-12-06T05:37:54.000Z</time>
      </trkpt>
      <trkpt lat="45.64432" lon="4.65678">
        <ele>493</ele>
        <time>2015-12-06T05:38:08.000Z</time>
      </trkpt>
      <trkpt lat="45.64446" lon="4.65695">
        <ele>495</ele>
        <time>2015-12-06T05:38:21.000Z</time>
      </trkpt>
      <trkpt lat="45.6446" lon="4.65712">
        <ele>497</ele>
        <time>2015-12-06T05:38:35.000Z</time>
      </trkpt>
      <trkpt lat="45.64473" lon="4.65732">
        <ele>498.79998779297</ele>
        <time>2015-12-06T05:38:49.000Z</time>
      </trkpt>
      <trkpt lat="45.64486" lon="4.65749">
        <ele>500</ele>
        <time>2015-12-06T05:39:04.000Z</time>
      </trkpt>
      <trkpt lat="45.64501" lon="4.65765">
        <ele>501.20001220703</ele>
        <time>2015-12-06T05:39:17.000Z</time>
      </trkpt>
      <trkpt lat="45.6451" lon="4.65776">
        <ele>502</ele>
        <time>2015-12-06T05:39:25.000Z</time>
      </trkpt>
      <trkpt lat="45.64514" lon="4.65779">
        <ele>502.20001220703</ele>
        <time>2015-12-06T05:39:28.000Z</time>
      </trkpt>
      <trkpt lat="45.64523" lon="4.65786">
        <ele>502.79998779297</ele>
        <time>2015-12-06T05:39:36.000Z</time>
      </trkpt>
      <trkpt lat="45.64539" lon="4.658">
        <ele>503.79998779297</ele>
        <time>2015-12-06T05:39:51.000Z</time>
      </trkpt>
      <trkpt lat="45.64554" lon="4.65814">
        <ele>505</ele>
        <time>2015-12-06T05:40:06.000Z</time>
      </trkpt>
      <trkpt lat="45.64557" lon="4.65818">
        <ele>505.39999389648</ele>
        <time>2015-12-06T05:40:10.000Z</time>
      </trkpt>
      <trkpt lat="45.64572" lon="4.65833">
        <ele>506.39999389648</ele>
        <time>2015-12-06T05:40:25.000Z</time>
      </trkpt>
      <trkpt lat="45.64588" lon="4.65848">
        <ele>507.39999389648</ele>
        <time>2015-12-06T05:40:38.000Z</time>
      </trkpt>
      <trkpt lat="45.64603" lon="4.65862">
        <ele>508.39999389648</ele>
        <time>2015-12-06T05:40:50.000Z</time>
      </trkpt>
      <trkpt lat="45.64619" lon="4.65877">
        <ele>509.60000610352</ele>
        <time>2015-12-06T05:41:03.000Z</time>
      </trkpt>
      <trkpt lat="45.64635" lon="4.65892">
        <ele>510.79998779297</ele>
        <time>2015-12-06T05:41:16.000Z</time>
      </trkpt>
      <trkpt lat="45.6465" lon="4.65907">
        <ele>512.59997558594</ele>
        <time>2015-12-06T05:41:29.000Z</time>
      </trkpt>
      <trkpt lat="45.64666" lon="4.65921">
        <ele>514.20001220703</ele>
        <time>2015-12-06T05:41:42.000Z</time>
      </trkpt>
      <trkpt lat="45.64682" lon="4.65934">
        <ele>515.79998779297</ele>
        <time>2015-12-06T05:41:56.000Z</time>
      </trkpt>
      <trkpt lat="45.647" lon="4.65945">
        <ele>517</ele>
        <time>2015-12-06T05:42:10.000Z</time>
      </trkpt>
      <trkpt lat="45.64718" lon="4.65952">
        <ele>518</ele>
        <time>2015-12-06T05:42:24.000Z</time>
      </trkpt>
      <trkpt lat="45.64736" lon="4.65958">
        <ele>519.59997558594</ele>
        <time>2015-12-06T05:42:37.000Z</time>
      </trkpt>
      <trkpt lat="45.64754" lon="4.65965">
        <ele>521.20001220703</ele>
        <time>2015-12-06T05:42:51.000Z</time>
      </trkpt>
      <trkpt lat="45.64771" lon="4.65971">
        <ele>522.79998779297</ele>
        <time>2015-12-06T05:43:04.000Z</time>
      </trkpt>
      <trkpt lat="45.64789" lon="4.65976">
        <ele>524.40002441406</ele>
        <time>2015-12-06T05:43:18.000Z</time>
      </trkpt>
      <trkpt lat="45.64807" lon="4.65984">
        <ele>526</ele>
        <time>2015-12-06T05:43:33.000Z</time>
      </trkpt>
      <trkpt lat="45.64825" lon="4.65987">
        <ele>526.79998779297</ele>
        <time>2015-12-06T05:43:45.000Z</time>
      </trkpt>
      <trkpt lat="45.64844" lon="4.65988">
        <ele>527.79998779297</ele>
        <time>2015-12-06T05:43:58.000Z</time>
      </trkpt>
      <trkpt lat="45.64863" lon="4.65988">
        <ele>529</ele>
        <time>2015-12-06T05:44:11.000Z</time>
      </trkpt>
      <trkpt lat="45.64881" lon="4.65989">
        <ele>530</ele>
        <time>2015-12-06T05:44:24.000Z</time>
      </trkpt>
      <trkpt lat="45.649" lon="4.65989">
        <ele>530.79998779297</ele>
        <time>2015-12-06T05:44:37.000Z</time>
      </trkpt>
      <trkpt lat="45.64919" lon="4.65989">
        <ele>531.40002441406</ele>
        <time>2015-12-06T05:44:51.000Z</time>
      </trkpt>
      <trkpt lat="45.64938" lon="4.65991">
        <ele>532.59997558594</ele>
        <time>2015-12-06T05:45:04.000Z</time>
      </trkpt>
      <trkpt lat="45.64956" lon="4.65992">
        <ele>533.59997558594</ele>
        <time>2015-12-06T05:45:17.000Z</time>
      </trkpt>
      <trkpt lat="45.64975" lon="4.65988">
        <ele>534</ele>
        <time>2015-12-06T05:45:31.000Z</time>
      </trkpt>
      <trkpt lat="45.64992" lon="4.6598">
        <ele>532.59997558594</ele>
        <time>2015-12-06T05:45:44.000Z</time>
      </trkpt>
      <trkpt lat="45.65008" lon="4.65993">
        <ele>531.59997558594</ele>
        <time>2015-12-06T05:45:57.000Z</time>
      </trkpt>
      <trkpt lat="45.65009" lon="4.65995">
        <ele>531.59997558594</ele>
        <time>2015-12-06T05:45:58.000Z</time>
      </trkpt>
      <trkpt lat="45.65009" lon="4.66005">
        <ele>531.79998779297</ele>
        <time>2015-12-06T05:46:03.000Z</time>
      </trkpt>
      <trkpt lat="45.65003" lon="4.66032">
        <ele>532.59997558594</ele>
        <time>2015-12-06T05:46:13.000Z</time>
      </trkpt>
      <trkpt lat="45.6499" lon="4.66052">
        <ele>533.40002441406</ele>
        <time>2015-12-06T05:46:22.000Z</time>
      </trkpt>
      <trkpt lat="45.64977" lon="4.66071">
        <ele>534.20001220703</ele>
        <time>2015-12-06T05:46:31.000Z</time>
      </trkpt>
      <trkpt lat="45.64962" lon="4.6609">
        <ele>534.20001220703</ele>
        <time>2015-12-06T05:46:40.000Z</time>
      </trkpt>
      <trkpt lat="45.64949" lon="4.6611">
        <ele>533.79998779297</ele>
        <time>2015-12-06T05:46:49.000Z</time>
      </trkpt>
      <trkpt lat="45.64935" lon="4.66129">
        <ele>533.79998779297</ele>
        <time>2015-12-06T05:46:58.000Z</time>
      </trkpt>
      <trkpt lat="45.64922" lon="4.66149">
        <ele>533.59997558594</ele>
        <time>2015-12-06T05:47:07.000Z</time>
      </trkpt>
      <trkpt lat="45.64909" lon="4.6617">
        <ele>534</ele>
        <time>2015-12-06T05:47:16.000Z</time>
      </trkpt>
      <trkpt lat="45.64904" lon="4.66195">
        <ele>534.40002441406</ele>
        <time>2015-12-06T05:47:25.000Z</time>
      </trkpt>
      <trkpt lat="45.64919" lon="4.66213">
        <ele>534</ele>
        <time>2015-12-06T05:47:34.000Z</time>
      </trkpt>
      <trkpt lat="45.64935" lon="4.6623">
        <ele>533.20001220703</ele>
        <time>2015-12-06T05:47:43.000Z</time>
      </trkpt>
      <trkpt lat="45.64953" lon="4.66242">
        <ele>532.40002441406</ele>
        <time>2015-12-06T05:47:52.000Z</time>
      </trkpt>
      <trkpt lat="45.64971" lon="4.66252">
        <ele>531.59997558594</ele>
        <time>2015-12-06T05:48:01.000Z</time>
      </trkpt>
      <trkpt lat="45.64988" lon="4.66261">
        <ele>530</ele>
        <time>2015-12-06T05:48:09.000Z</time>
      </trkpt>
      <trkpt lat="45.65005" lon="4.6627">
        <ele>528.40002441406</ele>
        <time>2015-12-06T05:48:17.000Z</time>
      </trkpt>
      <trkpt lat="45.65021" lon="4.66276">
        <ele>527</ele>
        <time>2015-12-06T05:48:25.000Z</time>
      </trkpt>
      <trkpt lat="45.65038" lon="4.66261">
        <ele>526</ele>
        <time>2015-12-06T05:48:34.000Z</time>
      </trkpt>
      <trkpt lat="45.65053" lon="4.66245">
        <ele>525.40002441406</ele>
        <time>2015-12-06T05:48:42.000Z</time>
      </trkpt>
      <trkpt lat="45.65066" lon="4.66225">
        <ele>524.59997558594</ele>
        <time>2015-12-06T05:48:50.000Z</time>
      </trkpt>
      <trkpt lat="45.6508" lon="4.6621">
        <ele>524.40002441406</ele>
        <time>2015-12-06T05:48:58.000Z</time>
      </trkpt>
      <trkpt lat="45.65098" lon="4.66196">
        <ele>524</ele>
        <time>2015-12-06T05:49:07.000Z</time>
      </trkpt>
      <trkpt lat="45.65115" lon="4.66184">
        <ele>523</ele>
        <time>2015-12-06T05:49:16.000Z</time>
      </trkpt>
      <trkpt lat="45.65134" lon="4.66176">
        <ele>521.40002441406</ele>
        <time>2015-12-06T05:49:26.000Z</time>
      </trkpt>
      <trkpt lat="45.65153" lon="4.66174">
        <ele>519.59997558594</ele>
        <time>2015-12-06T05:49:35.000Z</time>
      </trkpt>
      <trkpt lat="45.65172" lon="4.66172">
        <ele>518</ele>
        <time>2015-12-06T05:49:44.000Z</time>
      </trkpt>
      <trkpt lat="45.65187" lon="4.66177">
        <ele>516.40002441406</ele>
        <time>2015-12-06T05:49:52.000Z</time>
      </trkpt>
      <trkpt lat="45.65197" lon="4.66183">
        <ele>515.40002441406</ele>
        <time>2015-12-06T05:49:57.000Z</time>
      </trkpt>
      <trkpt lat="45.65217" lon="4.66186">
        <ele>512.40002441406</ele>
        <time>2015-12-06T05:50:06.000Z</time>
      </trkpt>
      <trkpt lat="45.65235" lon="4.66182">
        <ele>508.79998779297</ele>
        <time>2015-12-06T05:50:14.000Z</time>
      </trkpt>
      <trkpt lat="45.65254" lon="4.66177">
        <ele>505.20001220703</ele>
        <time>2015-12-06T05:50:21.000Z</time>
      </trkpt>
      <trkpt lat="45.65269" lon="4.66166">
        <ele>501.60000610352</ele>
        <time>2015-12-06T05:50:29.000Z</time>
      </trkpt>
      <trkpt lat="45.65276" lon="4.66163">
        <ele>499.79998779297</ele>
        <time>2015-12-06T05:50:33.000Z</time>
      </trkpt>
      <trkpt lat="45.65293" lon="4.66154">
        <ele>495.39999389648</ele>
        <time>2015-12-06T05:50:42.000Z</time>
      </trkpt>
      <trkpt lat="45.65311" lon="4.66149">
        <ele>491.39999389648</ele>
        <time>2015-12-06T05:50:51.000Z</time>
      </trkpt>
      <trkpt lat="45.65329" lon="4.66149">
        <ele>488.39999389648</ele>
        <time>2015-12-06T05:50:59.000Z</time>
      </trkpt>
      <trkpt lat="45.65348" lon="4.66161">
        <ele>486.39999389648</ele>
        <time>2015-12-06T05:51:07.000Z</time>
      </trkpt>
      <trkpt lat="45.65362" lon="4.66177">
        <ele>485.60000610352</ele>
        <time>2015-12-06T05:51:14.000Z</time>
      </trkpt>
      <trkpt lat="45.65378" lon="4.66195">
        <ele>484.60000610352</ele>
        <time>2015-12-06T05:51:22.000Z</time>
      </trkpt>
      <trkpt lat="45.65392" lon="4.66212">
        <ele>483</ele>
        <time>2015-12-06T05:51:30.000Z</time>
      </trkpt>
      <trkpt lat="45.65398" lon="4.66237">
        <ele>482</ele>
        <time>2015-12-06T05:51:38.000Z</time>
      </trkpt>
      <trkpt lat="45.65406" lon="4.66262">
        <ele>480.60000610352</ele>
        <time>2015-12-06T05:51:45.000Z</time>
      </trkpt>
      <trkpt lat="45.65418" lon="4.66284">
        <ele>478.60000610352</ele>
        <time>2015-12-06T05:51:52.000Z</time>
      </trkpt>
      <trkpt lat="45.6543" lon="4.66307">
        <ele>476.60000610352</ele>
        <time>2015-12-06T05:51:59.000Z</time>
      </trkpt>
      <trkpt lat="45.6544" lon="4.66329">
        <ele>474.79998779297</ele>
        <time>2015-12-06T05:52:07.000Z</time>
      </trkpt>
      <trkpt lat="45.6545" lon="4.66354">
        <ele>473</ele>
        <time>2015-12-06T05:52:15.000Z</time>
      </trkpt>
      <trkpt lat="45.65463" lon="4.66377">
        <ele>470.60000610352</ele>
        <time>2015-12-06T05:52:22.000Z</time>
      </trkpt>
      <trkpt lat="45.65477" lon="4.66394">
        <ele>467.39999389648</ele>
        <time>2015-12-06T05:52:29.000Z</time>
      </trkpt>
      <trkpt lat="45.65489" lon="4.66414">
        <ele>463.60000610352</ele>
        <time>2015-12-06T05:52:36.000Z</time>
      </trkpt>
      <trkpt lat="45.6549" lon="4.66417">
        <ele>463.39999389648</ele>
        <time>2015-12-06T05:52:37.000Z</time>
      </trkpt>
      <trkpt lat="45.6549" lon="4.66439">
        <ele>462.60000610352</ele>
        <time>2015-12-06T05:52:47.000Z</time>
      </trkpt>
      <trkpt lat="45.65493" lon="4.66446">
        <ele>461.60000610352</ele>
        <time>2015-12-06T05:52:50.000Z</time>
      </trkpt>
      <trkpt lat="45.65501" lon="4.6647">
        <ele>458.79998779297</ele>
        <time>2015-12-06T05:52:58.000Z</time>
      </trkpt>
      <trkpt lat="45.65508" lon="4.66497">
        <ele>456.20001220703</ele>
        <time>2015-12-06T05:53:05.000Z</time>
      </trkpt>
      <trkpt lat="45.65518" lon="4.66518">
        <ele>452.60000610352</ele>
        <time>2015-12-06T05:53:13.000Z</time>
      </trkpt>
      <trkpt lat="45.65531" lon="4.66537">
        <ele>448.60000610352</ele>
        <time>2015-12-06T05:53:25.000Z</time>
      </trkpt>
      <trkpt lat="45.65545" lon="4.66554">
        <ele>445.20001220703</ele>
        <time>2015-12-06T05:53:33.000Z</time>
      </trkpt>
      <trkpt lat="45.65549" lon="4.66569">
        <ele>443.60000610352</ele>
        <time>2015-12-06T05:53:39.000Z</time>
      </trkpt>
      <trkpt lat="45.65556" lon="4.66593">
        <ele>441.20001220703</ele>
        <time>2015-12-06T05:53:47.000Z</time>
      </trkpt>
      <trkpt lat="45.65563" lon="4.66619">
        <ele>439.20001220703</ele>
        <time>2015-12-06T05:53:57.000Z</time>
      </trkpt>
      <trkpt lat="45.65567" lon="4.66635">
        <ele>439.20001220703</ele>
        <time>2015-12-06T05:54:04.000Z</time>
      </trkpt>
      <trkpt lat="45.65566" lon="4.66646">
        <ele>438.39999389648</ele>
        <time>2015-12-06T05:54:07.000Z</time>
      </trkpt>
      <trkpt lat="45.65572" lon="4.66658">
        <ele>437.60000610352</ele>
        <time>2015-12-06T05:54:12.000Z</time>
      </trkpt>
      <trkpt lat="45.65574" lon="4.66662">
        <ele>437.39999389648</ele>
        <time>2015-12-06T05:54:15.000Z</time>
      </trkpt>
      <trkpt lat="45.65585" lon="4.66684">
        <ele>436.20001220703</ele>
        <time>2015-12-06T05:54:28.000Z</time>
      </trkpt>
      <trkpt lat="45.65587" lon="4.66686">
        <ele>436</ele>
        <time>2015-12-06T05:54:30.000Z</time>
      </trkpt>
      <trkpt lat="45.65595" lon="4.66696">
        <ele>435.39999389648</ele>
        <time>2015-12-06T05:54:36.000Z</time>
      </trkpt>
      <trkpt lat="45.65597" lon="4.667">
        <ele>435.20001220703</ele>
        <time>2015-12-06T05:54:38.000Z</time>
      </trkpt>
      <trkpt lat="45.65611" lon="4.66718">
        <ele>436.39999389648</ele>
        <time>2015-12-06T05:55:02.000Z</time>
      </trkpt>
      <trkpt lat="45.6561" lon="4.66743">
        <ele>438.39999389648</ele>
        <time>2015-12-06T05:55:18.000Z</time>
      </trkpt>
      <trkpt lat="45.65606" lon="4.66769">
        <ele>438.60000610352</ele>
        <time>2015-12-06T05:55:32.000Z</time>
      </trkpt>
      <trkpt lat="45.65603" lon="4.66796">
        <ele>437.79998779297</ele>
        <time>2015-12-06T05:55:46.000Z</time>
      </trkpt>
      <trkpt lat="45.65599" lon="4.66821">
        <ele>437.60000610352</ele>
        <time>2015-12-06T05:56:00.000Z</time>
      </trkpt>
      <trkpt lat="45.65599" lon="4.66848">
        <ele>437.20001220703</ele>
        <time>2015-12-06T05:56:16.000Z</time>
      </trkpt>
      <trkpt lat="45.65612" lon="4.66866">
        <ele>438.79998779297</ele>
        <time>2015-12-06T05:56:29.000Z</time>
      </trkpt>
      <trkpt lat="45.65628" lon="4.66874">
        <ele>441.20001220703</ele>
        <time>2015-12-06T05:56:48.000Z</time>
      </trkpt>
      <trkpt lat="45.65631" lon="4.66877">
        <ele>441.60000610352</ele>
        <time>2015-12-06T05:56:52.000Z</time>
      </trkpt>
      <trkpt lat="45.65634" lon="4.66879">
        <ele>442</ele>
        <time>2015-12-06T05:56:55.000Z</time>
      </trkpt>
      <trkpt lat="45.65642" lon="4.66883">
        <ele>443.20001220703</ele>
        <time>2015-12-06T05:57:01.000Z</time>
      </trkpt>
      <trkpt lat="45.6566" lon="4.6689">
        <ele>445.39999389648</ele>
        <time>2015-12-06T05:57:14.000Z</time>
      </trkpt>
      <trkpt lat="45.65678" lon="4.66892">
        <ele>447</ele>
        <time>2015-12-06T05:57:29.000Z</time>
      </trkpt>
      <trkpt lat="45.65696" lon="4.66896">
        <ele>448.79998779297</ele>
        <time>2015-12-06T05:57:42.000Z</time>
      </trkpt>
      <trkpt lat="45.65708" lon="4.66898">
        <ele>449.79998779297</ele>
        <time>2015-12-06T05:57:51.000Z</time>
      </trkpt>
      <trkpt lat="45.65717" lon="4.669">
        <ele>450.79998779297</ele>
        <time>2015-12-06T05:57:58.000Z</time>
      </trkpt>
      <trkpt lat="45.65722" lon="4.669">
        <ele>451.20001220703</ele>
        <time>2015-12-06T05:58:02.000Z</time>
      </trkpt>
      <trkpt lat="45.6574" lon="4.66906">
        <ele>452</ele>
        <time>2015-12-06T05:58:16.000Z</time>
      </trkpt>
      <trkpt lat="45.65758" lon="4.66907">
        <ele>453</ele>
        <time>2015-12-06T05:58:32.000Z</time>
      </trkpt>
      <trkpt lat="45.65776" lon="4.6691">
        <ele>454.60000610352</ele>
        <time>2015-12-06T05:58:47.000Z</time>
      </trkpt>
      <trkpt lat="45.65795" lon="4.66916">
        <ele>456</ele>
        <time>2015-12-06T05:59:04.000Z</time>
      </trkpt>
      <trkpt lat="45.65808" lon="4.66919">
        <ele>456.79998779297</ele>
        <time>2015-12-06T05:59:14.000Z</time>
      </trkpt>
      <trkpt lat="45.65816" lon="4.6692">
        <ele>456.79998779297</ele>
        <time>2015-12-06T05:59:20.000Z</time>
      </trkpt>
      <trkpt lat="45.65835" lon="4.66924">
        <ele>457.20001220703</ele>
        <time>2015-12-06T05:59:36.000Z</time>
      </trkpt>
      <trkpt lat="45.65852" lon="4.66935">
        <ele>457</ele>
        <time>2015-12-06T05:59:50.000Z</time>
      </trkpt>
      <trkpt lat="45.65868" lon="4.66948">
        <ele>456.79998779297</ele>
        <time>2015-12-06T06:00:03.000Z</time>
      </trkpt>
      <trkpt lat="45.65883" lon="4.66962">
        <ele>456.79998779297</ele>
        <time>2015-12-06T06:00:12.000Z</time>
      </trkpt>
      <trkpt lat="45.65899" lon="4.66976">
        <ele>456</ele>
        <time>2015-12-06T06:00:20.000Z</time>
      </trkpt>
      <trkpt lat="45.65915" lon="4.6699">
        <ele>454.79998779297</ele>
        <time>2015-12-06T06:00:28.000Z</time>
      </trkpt>
      <trkpt lat="45.65931" lon="4.67006">
        <ele>453.60000610352</ele>
        <time>2015-12-06T06:00:36.000Z</time>
      </trkpt>
      <trkpt lat="45.65948" lon="4.6702">
        <ele>452.39999389648</ele>
        <time>2015-12-06T06:00:44.000Z</time>
      </trkpt>
      <trkpt lat="45.65963" lon="4.67034">
        <ele>451.39999389648</ele>
        <time>2015-12-06T06:00:52.000Z</time>
      </trkpt>
      <trkpt lat="45.6598" lon="4.67048">
        <ele>450.39999389648</ele>
        <time>2015-12-06T06:01:01.000Z</time>
      </trkpt>
      <trkpt lat="45.65996" lon="4.67061">
        <ele>449.79998779297</ele>
        <time>2015-12-06T06:01:09.000Z</time>
      </trkpt>
      <trkpt lat="45.66011" lon="4.67075">
        <ele>449</ele>
        <time>2015-12-06T06:01:17.000Z</time>
      </trkpt>
      <trkpt lat="45.66028" lon="4.67087">
        <ele>448.20001220703</ele>
        <time>2015-12-06T06:01:25.000Z</time>
      </trkpt>
      <trkpt lat="45.66046" lon="4.67093">
        <ele>447.60000610352</ele>
        <time>2015-12-06T06:01:33.000Z</time>
      </trkpt>
      <trkpt lat="45.66066" lon="4.67099">
        <ele>447</ele>
        <time>2015-12-06T06:01:42.000Z</time>
      </trkpt>
      <trkpt lat="45.66085" lon="4.67104">
        <ele>446.79998779297</ele>
        <time>2015-12-06T06:01:51.000Z</time>
      </trkpt>
      <trkpt lat="45.66103" lon="4.67108">
        <ele>446.60000610352</ele>
        <time>2015-12-06T06:02:00.000Z</time>
      </trkpt>
      <trkpt lat="45.6612" lon="4.67108">
        <ele>446.39999389648</ele>
        <time>2015-12-06T06:02:08.000Z</time>
      </trkpt>
      <trkpt lat="45.66119" lon="4.67127">
        <ele>446</ele>
        <time>2015-12-06T06:02:14.000Z</time>
      </trkpt>
      <trkpt lat="45.66112" lon="4.67152">
        <ele>445.20001220703</ele>
        <time>2015-12-06T06:02:22.000Z</time>
      </trkpt>
      <trkpt lat="45.66102" lon="4.67176">
        <ele>444.60000610352</ele>
        <time>2015-12-06T06:02:30.000Z</time>
      </trkpt>
      <trkpt lat="45.66095" lon="4.67201">
        <ele>444.60000610352</ele>
        <time>2015-12-06T06:02:38.000Z</time>
      </trkpt>
      <trkpt lat="45.66087" lon="4.67228">
        <ele>443.60000610352</ele>
        <time>2015-12-06T06:02:47.000Z</time>
      </trkpt>
      <trkpt lat="45.66081" lon="4.67255">
        <ele>442.79998779297</ele>
        <time>2015-12-06T06:02:56.000Z</time>
      </trkpt>
      <trkpt lat="45.66074" lon="4.67281">
        <ele>442.20001220703</ele>
        <time>2015-12-06T06:03:05.000Z</time>
      </trkpt>
      <trkpt lat="45.66067" lon="4.67308">
        <ele>442.20001220703</ele>
        <time>2015-12-06T06:03:14.000Z</time>
      </trkpt>
      <trkpt lat="45.66061" lon="4.67335">
        <ele>441.60000610352</ele>
        <time>2015-12-06T06:03:23.000Z</time>
      </trkpt>
      <trkpt lat="45.66056" lon="4.67362">
        <ele>441.20001220703</ele>
        <time>2015-12-06T06:03:32.000Z</time>
      </trkpt>
      <trkpt lat="45.66051" lon="4.67389">
        <ele>440.79998779297</ele>
        <time>2015-12-06T06:03:41.000Z</time>
      </trkpt>
      <trkpt lat="45.66047" lon="4.67417">
        <ele>440.39999389648</ele>
        <time>2015-12-06T06:03:50.000Z</time>
      </trkpt>
      <trkpt lat="45.66053" lon="4.6744">
        <ele>440.20001220703</ele>
        <time>2015-12-06T06:03:58.000Z</time>
      </trkpt>
      <trkpt lat="45.66063" lon="4.67463">
        <ele>440.20001220703</ele>
        <time>2015-12-06T06:04:07.000Z</time>
      </trkpt>
      <trkpt lat="45.66073" lon="4.67486">
        <ele>440.39999389648</ele>
        <time>2015-12-06T06:04:16.000Z</time>
      </trkpt>
      <trkpt lat="45.66084" lon="4.67507">
        <ele>440.39999389648</ele>
        <time>2015-12-06T06:04:25.000Z</time>
      </trkpt>
      <trkpt lat="45.66095" lon="4.6753">
        <ele>440.60000610352</ele>
        <time>2015-12-06T06:04:35.000Z</time>
      </trkpt>
      <trkpt lat="45.66106" lon="4.67551">
        <ele>440.60000610352</ele>
        <time>2015-12-06T06:04:44.000Z</time>
      </trkpt>
      <trkpt lat="45.66117" lon="4.67573">
        <ele>440.39999389648</ele>
        <time>2015-12-06T06:04:53.000Z</time>
      </trkpt>
      <trkpt lat="45.66128" lon="4.67593">
        <ele>440.39999389648</ele>
        <time>2015-12-06T06:05:01.000Z</time>
      </trkpt>
      <trkpt lat="45.6614" lon="4.67615">
        <ele>440</ele>
        <time>2015-12-06T06:05:10.000Z</time>
      </trkpt>
      <trkpt lat="45.66151" lon="4.67636">
        <ele>439.20001220703</ele>
        <time>2015-12-06T06:05:18.000Z</time>
      </trkpt>
      <trkpt lat="45.66162" lon="4.67658">
        <ele>438.39999389648</ele>
        <time>2015-12-06T06:05:27.000Z</time>
      </trkpt>
      <trkpt lat="45.66174" lon="4.67678">
        <ele>437.60000610352</ele>
        <time>2015-12-06T06:05:35.000Z</time>
      </trkpt>
      <trkpt lat="45.66187" lon="4.67699">
        <ele>436.79998779297</ele>
        <time>2015-12-06T06:05:43.000Z</time>
      </trkpt>
      <trkpt lat="45.66201" lon="4.6772">
        <ele>435.79998779297</ele>
        <time>2015-12-06T06:05:51.000Z</time>
      </trkpt>
      <trkpt lat="45.66214" lon="4.67739">
        <ele>434.79998779297</ele>
        <time>2015-12-06T06:05:59.000Z</time>
      </trkpt>
      <trkpt lat="45.66229" lon="4.67756">
        <ele>433.39999389648</ele>
        <time>2015-12-06T06:06:07.000Z</time>
      </trkpt>
      <trkpt lat="45.66246" lon="4.67774">
        <ele>431.60000610352</ele>
        <time>2015-12-06T06:06:16.000Z</time>
      </trkpt>
      <trkpt lat="45.66262" lon="4.6779">
        <ele>429.79998779297</ele>
        <time>2015-12-06T06:06:24.000Z</time>
      </trkpt>
      <trkpt lat="45.66278" lon="4.67805">
        <ele>428.39999389648</ele>
        <time>2015-12-06T06:06:32.000Z</time>
      </trkpt>
      <trkpt lat="45.66293" lon="4.67823">
        <ele>426.79998779297</ele>
        <time>2015-12-06T06:06:41.000Z</time>
      </trkpt>
      <trkpt lat="45.66308" lon="4.67841">
        <ele>425.39999389648</ele>
        <time>2015-12-06T06:06:49.000Z</time>
      </trkpt>
      <trkpt lat="45.66322" lon="4.67858">
        <ele>424.39999389648</ele>
        <time>2015-12-06T06:06:57.000Z</time>
      </trkpt>
      <trkpt lat="45.66336" lon="4.67876">
        <ele>423.20001220703</ele>
        <time>2015-12-06T06:07:05.000Z</time>
      </trkpt>
      <trkpt lat="45.6635" lon="4.67892">
        <ele>422</ele>
        <time>2015-12-06T06:07:13.000Z</time>
      </trkpt>
      <trkpt lat="45.66365" lon="4.67911">
        <ele>420.60000610352</ele>
        <time>2015-12-06T06:07:22.000Z</time>
      </trkpt>
      <trkpt lat="45.66379" lon="4.67928">
        <ele>419.20001220703</ele>
        <time>2015-12-06T06:07:35.000Z</time>
      </trkpt>
      <trkpt lat="45.66393" lon="4.67947">
        <ele>417.79998779297</ele>
        <time>2015-12-06T06:07:44.000Z</time>
      </trkpt>
      <trkpt lat="45.66405" lon="4.67969">
        <ele>416.60000610352</ele>
        <time>2015-12-06T06:07:53.000Z</time>
      </trkpt>
      <trkpt lat="45.66405" lon="4.67973">
        <ele>416.39999389648</ele>
        <time>2015-12-06T06:07:54.000Z</time>
      </trkpt>
      <trkpt lat="45.66393" lon="4.67992">
        <ele>416.20001220703</ele>
        <time>2015-12-06T06:08:02.000Z</time>
      </trkpt>
      <trkpt lat="45.66377" lon="4.68006">
        <ele>416.60000610352</ele>
        <time>2015-12-06T06:08:10.000Z</time>
      </trkpt>
      <trkpt lat="45.6636" lon="4.68019">
        <ele>416.60000610352</ele>
        <time>2015-12-06T06:08:19.000Z</time>
      </trkpt>
      <trkpt lat="45.66354" lon="4.68026">
        <ele>416.20001220703</ele>
        <time>2015-12-06T06:08:23.000Z</time>
      </trkpt>
      <trkpt lat="45.66363" lon="4.68037">
        <ele>415.20001220703</ele>
        <time>2015-12-06T06:08:29.000Z</time>
      </trkpt>
      <trkpt lat="45.66379" lon="4.68049">
        <ele>414.39999389648</ele>
        <time>2015-12-06T06:08:37.000Z</time>
      </trkpt>
      <trkpt lat="45.66393" lon="4.68067">
        <ele>413.39999389648</ele>
        <time>2015-12-06T06:08:46.000Z</time>
      </trkpt>
      <trkpt lat="45.66408" lon="4.68086">
        <ele>412.79998779297</ele>
        <time>2015-12-06T06:08:55.000Z</time>
      </trkpt>
      <trkpt lat="45.66422" lon="4.68101">
        <ele>412.39999389648</ele>
        <time>2015-12-06T06:09:03.000Z</time>
      </trkpt>
      <trkpt lat="45.66436" lon="4.68118">
        <ele>412</ele>
        <time>2015-12-06T06:09:11.000Z</time>
      </trkpt>
      <trkpt lat="45.66448" lon="4.68141">
        <ele>411.20001220703</ele>
        <time>2015-12-06T06:09:20.000Z</time>
      </trkpt>
      <trkpt lat="45.66459" lon="4.68162">
        <ele>410.60000610352</ele>
        <time>2015-12-06T06:09:28.000Z</time>
      </trkpt>
      <trkpt lat="45.66472" lon="4.68183">
        <ele>409.79998779297</ele>
        <time>2015-12-06T06:09:37.000Z</time>
      </trkpt>
      <trkpt lat="45.66481" lon="4.68193">
        <ele>408.79998779297</ele>
        <time>2015-12-06T06:09:44.000Z</time>
      </trkpt>
      <trkpt lat="45.66495" lon="4.68209">
        <ele>407.20001220703</ele>
        <time>2015-12-06T06:09:58.000Z</time>
      </trkpt>
      <trkpt lat="45.66512" lon="4.68224">
        <ele>405.60000610352</ele>
        <time>2015-12-06T06:10:10.000Z</time>
      </trkpt>
      <trkpt lat="45.66531" lon="4.68234">
        <ele>404.20001220703</ele>
        <time>2015-12-06T06:10:19.000Z</time>
      </trkpt>
      <trkpt lat="45.66548" lon="4.68244">
        <ele>402.79998779297</ele>
        <time>2015-12-06T06:10:27.000Z</time>
      </trkpt>
      <trkpt lat="45.66566" lon="4.68255">
        <ele>401.60000610352</ele>
        <time>2015-12-06T06:10:35.000Z</time>
      </trkpt>
      <trkpt lat="45.66584" lon="4.68267">
        <ele>400.60000610352</ele>
        <time>2015-12-06T06:10:44.000Z</time>
      </trkpt>
      <trkpt lat="45.66601" lon="4.6828">
        <ele>399.60000610352</ele>
        <time>2015-12-06T06:10:52.000Z</time>
      </trkpt>
      <trkpt lat="45.66618" lon="4.68293">
        <ele>398.60000610352</ele>
        <time>2015-12-06T06:11:00.000Z</time>
      </trkpt>
      <trkpt lat="45.66638" lon="4.68303">
        <ele>397.60000610352</ele>
        <time>2015-12-06T06:11:09.000Z</time>
      </trkpt>
      <trkpt lat="45.66655" lon="4.68312">
        <ele>396.39999389648</ele>
        <time>2015-12-06T06:11:17.000Z</time>
      </trkpt>
      <trkpt lat="45.66674" lon="4.6832">
        <ele>395</ele>
        <time>2015-12-06T06:11:25.000Z</time>
      </trkpt>
      <trkpt lat="45.66692" lon="4.6833">
        <ele>393.60000610352</ele>
        <time>2015-12-06T06:11:33.000Z</time>
      </trkpt>
      <trkpt lat="45.6671" lon="4.6834">
        <ele>392.20001220703</ele>
        <time>2015-12-06T06:11:41.000Z</time>
      </trkpt>
      <trkpt lat="45.66729" lon="4.68346">
        <ele>391.20001220703</ele>
        <time>2015-12-06T06:11:49.000Z</time>
      </trkpt>
      <trkpt lat="45.66748" lon="4.68352">
        <ele>390</ele>
        <time>2015-12-06T06:11:57.000Z</time>
      </trkpt>
      <trkpt lat="45.66765" lon="4.68361">
        <ele>389</ele>
        <time>2015-12-06T06:12:05.000Z</time>
      </trkpt>
      <trkpt lat="45.66783" lon="4.68374">
        <ele>387.79998779297</ele>
        <time>2015-12-06T06:12:14.000Z</time>
      </trkpt>
      <trkpt lat="45.668" lon="4.68385">
        <ele>387</ele>
        <time>2015-12-06T06:12:22.000Z</time>
      </trkpt>
      <trkpt lat="45.66817" lon="4.68392">
        <ele>385.79998779297</ele>
        <time>2015-12-06T06:12:29.000Z</time>
      </trkpt>
      <trkpt lat="45.66836" lon="4.68399">
        <ele>384.39999389648</ele>
        <time>2015-12-06T06:12:37.000Z</time>
      </trkpt>
      <trkpt lat="45.66854" lon="4.68403">
        <ele>383.20001220703</ele>
        <time>2015-12-06T06:12:45.000Z</time>
      </trkpt>
      <trkpt lat="45.66874" lon="4.68407">
        <ele>381.79998779297</ele>
        <time>2015-12-06T06:12:53.000Z</time>
      </trkpt>
      <trkpt lat="45.66893" lon="4.68412">
        <ele>381</ele>
        <time>2015-12-06T06:13:01.000Z</time>
      </trkpt>
      <trkpt lat="45.66913" lon="4.68416">
        <ele>380.60000610352</ele>
        <time>2015-12-06T06:13:09.000Z</time>
      </trkpt>
      <trkpt lat="45.66932" lon="4.68423">
        <ele>380.20001220703</ele>
        <time>2015-12-06T06:13:17.000Z</time>
      </trkpt>
      <trkpt lat="45.6695" lon="4.68422">
        <ele>380</ele>
        <time>2015-12-06T06:13:25.000Z</time>
      </trkpt>
      <trkpt lat="45.66966" lon="4.68409">
        <ele>380.20001220703</ele>
        <time>2015-12-06T06:13:33.000Z</time>
      </trkpt>
      <trkpt lat="45.66984" lon="4.68401">
        <ele>380.20001220703</ele>
        <time>2015-12-06T06:13:41.000Z</time>
      </trkpt>
      <trkpt lat="45.67003" lon="4.68397">
        <ele>380.39999389648</ele>
        <time>2015-12-06T06:13:50.000Z</time>
      </trkpt>
      <trkpt lat="45.67022" lon="4.68393">
        <ele>380.79998779297</ele>
        <time>2015-12-06T06:13:59.000Z</time>
      </trkpt>
      <trkpt lat="45.67039" lon="4.68384">
        <ele>381.39999389648</ele>
        <time>2015-12-06T06:14:08.000Z</time>
      </trkpt>
      <trkpt lat="45.67055" lon="4.6837">
        <ele>382</ele>
        <time>2015-12-06T06:14:17.000Z</time>
      </trkpt>
      <trkpt lat="45.67069" lon="4.68351">
        <ele>382</ele>
        <time>2015-12-06T06:14:26.000Z</time>
      </trkpt>
      <trkpt lat="45.67071" lon="4.6835">
        <ele>382</ele>
        <time>2015-12-06T06:14:27.000Z</time>
      </trkpt>
      <trkpt lat="45.67082" lon="4.68357">
        <ele>382</ele>
        <time>2015-12-06T06:14:32.000Z</time>
      </trkpt>
      <trkpt lat="45.67095" lon="4.68377">
        <ele>381.79998779297</ele>
        <time>2015-12-06T06:14:40.000Z</time>
      </trkpt>
      <trkpt lat="45.67109" lon="4.68393">
        <ele>381.39999389648</ele>
        <time>2015-12-06T06:14:48.000Z</time>
      </trkpt>
      <trkpt lat="45.67127" lon="4.68405">
        <ele>381.20001220703</ele>
        <time>2015-12-06T06:14:56.000Z</time>
      </trkpt>
      <trkpt lat="45.67143" lon="4.68418">
        <ele>380.79998779297</ele>
        <time>2015-12-06T06:15:04.000Z</time>
      </trkpt>
      <trkpt lat="45.6716" lon="4.68432">
        <ele>380.20001220703</ele>
        <time>2015-12-06T06:15:13.000Z</time>
      </trkpt>
      <trkpt lat="45.67176" lon="4.68445">
        <ele>379.79998779297</ele>
        <time>2015-12-06T06:15:21.000Z</time>
      </trkpt>
      <trkpt lat="45.67195" lon="4.68458">
        <ele>379.20001220703</ele>
        <time>2015-12-06T06:15:30.000Z</time>
      </trkpt>
      <trkpt lat="45.67211" lon="4.68469">
        <ele>378.60000610352</ele>
        <time>2015-12-06T06:15:38.000Z</time>
      </trkpt>
      <trkpt lat="45.67228" lon="4.68482">
        <ele>377.79998779297</ele>
        <time>2015-12-06T06:15:46.000Z</time>
      </trkpt>
      <trkpt lat="45.67241" lon="4.685">
        <ele>377</ele>
        <time>2015-12-06T06:15:54.000Z</time>
      </trkpt>
      <trkpt lat="45.67255" lon="4.68517">
        <ele>376.20001220703</ele>
        <time>2015-12-06T06:16:02.000Z</time>
      </trkpt>
      <trkpt lat="45.67273" lon="4.68528">
        <ele>375.60000610352</ele>
        <time>2015-12-06T06:16:10.000Z</time>
      </trkpt>
      <trkpt lat="45.67293" lon="4.68537">
        <ele>375.20001220703</ele>
        <time>2015-12-06T06:16:18.000Z</time>
      </trkpt>
      <trkpt lat="45.6731" lon="4.6855">
        <ele>375</ele>
        <time>2015-12-06T06:16:26.000Z</time>
      </trkpt>
      <trkpt lat="45.67323" lon="4.6857">
        <ele>374.79998779297</ele>
        <time>2015-12-06T06:16:34.000Z</time>
      </trkpt>
      <trkpt lat="45.67331" lon="4.68595">
        <ele>374.60000610352</ele>
        <time>2015-12-06T06:16:42.000Z</time>
      </trkpt>
      <trkpt lat="45.6734" lon="4.68619">
        <ele>374.60000610352</ele>
        <time>2015-12-06T06:16:50.000Z</time>
      </trkpt>
      <trkpt lat="45.6735" lon="4.68642">
        <ele>374.39999389648</ele>
        <time>2015-12-06T06:16:58.000Z</time>
      </trkpt>
      <trkpt lat="45.6736" lon="4.68664">
        <ele>374.39999389648</ele>
        <time>2015-12-06T06:17:06.000Z</time>
      </trkpt>
      <trkpt lat="45.67368" lon="4.68688">
        <ele>374.20001220703</ele>
        <time>2015-12-06T06:17:14.000Z</time>
      </trkpt>
      <trkpt lat="45.67378" lon="4.68713">
        <ele>374.20001220703</ele>
        <time>2015-12-06T06:17:23.000Z</time>
      </trkpt>
      <trkpt lat="45.67387" lon="4.68738">
        <ele>374.39999389648</ele>
        <time>2015-12-06T06:17:32.000Z</time>
      </trkpt>
      <trkpt lat="45.67396" lon="4.68763">
        <ele>374.39999389648</ele>
        <time>2015-12-06T06:17:41.000Z</time>
      </trkpt>
      <trkpt lat="45.67405" lon="4.68787">
        <ele>374.39999389648</ele>
        <time>2015-12-06T06:17:50.000Z</time>
      </trkpt>
      <trkpt lat="45.67415" lon="4.68811">
        <ele>374.60000610352</ele>
        <time>2015-12-06T06:17:59.000Z</time>
      </trkpt>
      <trkpt lat="45.67422" lon="4.68837">
        <ele>375</ele>
        <time>2015-12-06T06:18:08.000Z</time>
      </trkpt>
      <trkpt lat="45.67426" lon="4.68864">
        <ele>375.79998779297</ele>
        <time>2015-12-06T06:18:17.000Z</time>
      </trkpt>
      <trkpt lat="45.67428" lon="4.6889">
        <ele>376.79998779297</ele>
        <time>2015-12-06T06:18:26.000Z</time>
      </trkpt>
      <trkpt lat="45.67433" lon="4.68917">
        <ele>377.39999389648</ele>
        <time>2015-12-06T06:18:35.000Z</time>
      </trkpt>
      <trkpt lat="45.6744" lon="4.68943">
        <ele>377.79998779297</ele>
        <time>2015-12-06T06:18:44.000Z</time>
      </trkpt>
      <trkpt lat="45.67447" lon="4.6897">
        <ele>378</ele>
        <time>2015-12-06T06:18:53.000Z</time>
      </trkpt>
      <trkpt lat="45.67455" lon="4.68997">
        <ele>378</ele>
        <time>2015-12-06T06:19:02.000Z</time>
      </trkpt>
      <trkpt lat="45.67465" lon="4.69022">
        <ele>378</ele>
        <time>2015-12-06T06:19:11.000Z</time>
      </trkpt>
      <trkpt lat="45.67478" lon="4.69041">
        <ele>377.79998779297</ele>
        <time>2015-12-06T06:19:19.000Z</time>
      </trkpt>
      <trkpt lat="45.67493" lon="4.69057">
        <ele>377.60000610352</ele>
        <time>2015-12-06T06:19:27.000Z</time>
      </trkpt>
      <trkpt lat="45.67508" lon="4.69072">
        <ele>377.60000610352</ele>
        <time>2015-12-06T06:19:35.000Z</time>
      </trkpt>
      <trkpt lat="45.67524" lon="4.69089">
        <ele>377.39999389648</ele>
        <time>2015-12-06T06:19:44.000Z</time>
      </trkpt>
      <trkpt lat="45.67541" lon="4.69104">
        <ele>377</ele>
        <time>2015-12-06T06:19:52.000Z</time>
      </trkpt>
      <trkpt lat="45.67557" lon="4.69118">
        <ele>376.79998779297</ele>
        <time>2015-12-06T06:20:00.000Z</time>
      </trkpt>
      <trkpt lat="45.67573" lon="4.69131">
        <ele>375.79998779297</ele>
        <time>2015-12-06T06:20:08.000Z</time>
      </trkpt>
      <trkpt lat="45.6759" lon="4.69145">
        <ele>375</ele>
        <time>2015-12-06T06:20:16.000Z</time>
      </trkpt>
      <trkpt lat="45.67608" lon="4.69156">
        <ele>374</ele>
        <time>2015-12-06T06:20:24.000Z</time>
      </trkpt>
      <trkpt lat="45.67626" lon="4.69167">
        <ele>373</ele>
        <time>2015-12-06T06:20:32.000Z</time>
      </trkpt>
      <trkpt lat="45.67644" lon="4.69176">
        <ele>371.79998779297</ele>
        <time>2015-12-06T06:20:40.000Z</time>
      </trkpt>
      <trkpt lat="45.67662" lon="4.69187">
        <ele>370.39999389648</ele>
        <time>2015-12-06T06:20:48.000Z</time>
      </trkpt>
      <trkpt lat="45.67678" lon="4.69198">
        <ele>369</ele>
        <time>2015-12-06T06:20:55.000Z</time>
      </trkpt>
      <trkpt lat="45.67693" lon="4.69215">
        <ele>368</ele>
        <time>2015-12-06T06:21:03.000Z</time>
      </trkpt>
      <trkpt lat="45.67708" lon="4.69234">
        <ele>367.20001220703</ele>
        <time>2015-12-06T06:21:11.000Z</time>
      </trkpt>
      <trkpt lat="45.67722" lon="4.69255">
        <ele>366.60000610352</ele>
        <time>2015-12-06T06:21:19.000Z</time>
      </trkpt>
      <trkpt lat="45.67734" lon="4.69276">
        <ele>366.60000610352</ele>
        <time>2015-12-06T06:21:27.000Z</time>
      </trkpt>
      <trkpt lat="45.67743" lon="4.693">
        <ele>366.79998779297</ele>
        <time>2015-12-06T06:21:34.000Z</time>
      </trkpt>
      <trkpt lat="45.67749" lon="4.69324">
        <ele>367</ele>
        <time>2015-12-06T06:21:42.000Z</time>
      </trkpt>
      <trkpt lat="45.67763" lon="4.69345">
        <ele>367</ele>
        <time>2015-12-06T06:21:50.000Z</time>
      </trkpt>
      <trkpt lat="45.67773" lon="4.69369">
        <ele>367</ele>
        <time>2015-12-06T06:21:58.000Z</time>
      </trkpt>
      <trkpt lat="45.67779" lon="4.69394">
        <ele>367.20001220703</ele>
        <time>2015-12-06T06:22:06.000Z</time>
      </trkpt>
      <trkpt lat="45.6778" lon="4.69421">
        <ele>367.60000610352</ele>
        <time>2015-12-06T06:22:14.000Z</time>
      </trkpt>
      <trkpt lat="45.67781" lon="4.69448">
        <ele>367.79998779297</ele>
        <time>2015-12-06T06:22:22.000Z</time>
      </trkpt>
      <trkpt lat="45.67782" lon="4.69476">
        <ele>367.39999389648</ele>
        <time>2015-12-06T06:22:30.000Z</time>
      </trkpt>
      <trkpt lat="45.67784" lon="4.69502">
        <ele>367.20001220703</ele>
        <time>2015-12-06T06:22:37.000Z</time>
      </trkpt>
      <trkpt lat="45.67787" lon="4.6953">
        <ele>366.79998779297</ele>
        <time>2015-12-06T06:22:47.000Z</time>
      </trkpt>
      <trkpt lat="45.67787" lon="4.69537">
        <ele>366.60000610352</ele>
        <time>2015-12-06T06:22:49.000Z</time>
      </trkpt>
      <trkpt lat="45.67769" lon="4.69539">
        <ele>366.20001220703</ele>
        <time>2015-12-06T06:22:59.000Z</time>
      </trkpt>
      <trkpt lat="45.67766" lon="4.69538">
        <ele>366</ele>
        <time>2015-12-06T06:23:02.000Z</time>
      </trkpt>
      <trkpt lat="45.67761" lon="4.69538">
        <ele>366</ele>
        <time>2015-12-06T06:23:06.000Z</time>
      </trkpt>
      <trkpt lat="45.67755" lon="4.69543">
        <ele>365.60000610352</ele>
        <time>2015-12-06T06:23:12.000Z</time>
      </trkpt>
      <trkpt lat="45.6774" lon="4.69558">
        <ele>365</ele>
        <time>2015-12-06T06:23:27.000Z</time>
      </trkpt>
      <trkpt lat="45.67733" lon="4.69567">
        <ele>364.79998779297</ele>
        <time>2015-12-06T06:23:34.000Z</time>
      </trkpt>
      <trkpt lat="45.67733" lon="4.6957">
        <ele>364.79998779297</ele>
        <time>2015-12-06T06:23:36.000Z</time>
      </trkpt>
      <trkpt lat="45.67734" lon="4.69578">
        <ele>364.60000610352</ele>
        <time>2015-12-06T06:23:40.000Z</time>
      </trkpt>
      <trkpt lat="45.6774" lon="4.696">
        <ele>364.39999389648</ele>
        <time>2015-12-06T06:23:54.000Z</time>
      </trkpt>
      <trkpt lat="45.67757" lon="4.69595">
        <ele>364.79998779297</ele>
        <time>2015-12-06T06:24:26.000Z</time>
      </trkpt>
      <trkpt lat="45.67766" lon="4.69589">
        <ele>365</ele>
        <time>2015-12-06T06:25:41.000Z</time>
      </trkpt>
      <trkpt lat="45.67763" lon="4.69585">
        <ele>365</ele>
        <time>2015-12-06T06:27:01.000Z</time>
      </trkpt>
      <trkpt lat="45.67755" lon="4.69587">
        <ele>364.79998779297</ele>
        <time>2015-12-06T06:27:42.000Z</time>
      </trkpt>
      <trkpt lat="45.67755" lon="4.69586">
        <ele>364.79998779297</ele>
        <time>2015-12-06T06:27:44.000Z</time>
      </trkpt>
      <trkpt lat="45.67757" lon="4.6959">
        <ele>364.79998779297</ele>
        <time>2015-12-06T06:29:17.000Z</time>
      </trkpt>
      <trkpt lat="45.6776" lon="4.69591">
        <ele>364.79998779297</ele>
        <time>2015-12-06T06:30:54.000Z</time>
      </trkpt>
      <trkpt lat="45.67755" lon="4.69589">
        <ele>364.79998779297</ele>
        <time>2015-12-06T06:32:16.000Z</time>
      </trkpt>
      <trkpt lat="45.67759" lon="4.69589">
        <ele>364.79998779297</ele>
        <time>2015-12-06T06:33:42.000Z</time>
      </trkpt>
      <trkpt lat="45.67758" lon="4.69587">
        <ele>364.79998779297</ele>
        <time>2015-12-06T06:35:08.000Z</time>
      </trkpt>
      <trkpt lat="45.67759" lon="4.69589">
        <ele>364.79998779297</ele>
        <time>2015-12-06T06:36:37.000Z</time>
      </trkpt>
      <trkpt lat="45.67759" lon="4.69582">
        <ele>365</ele>
        <time>2015-12-06T06:38:25.000Z</time>
      </trkpt>
      <trkpt lat="45.67771" lon="4.6958">
        <ele>365.20001220703</ele>
        <time>2015-12-06T06:39:42.000Z</time>
      </trkpt>
      <trkpt lat="45.67774" lon="4.69568">
        <ele>365.60000610352</ele>
        <time>2015-12-06T06:40:24.000Z</time>
      </trkpt>
      <trkpt lat="45.67773" lon="4.69562">
        <ele>365.60000610352</ele>
        <time>2015-12-06T06:40:29.000Z</time>
      </trkpt>
      <trkpt lat="45.67789" lon="4.69561">
        <ele>366</ele>
        <time>2015-12-06T06:40:49.000Z</time>
      </trkpt>
      <trkpt lat="45.67791" lon="4.69562">
        <ele>366.20001220703</ele>
        <time>2015-12-06T06:40:52.000Z</time>
      </trkpt>
      <trkpt lat="45.67792" lon="4.69567">
        <ele>366</ele>
        <time>2015-12-06T06:40:56.000Z</time>
      </trkpt>
      <trkpt lat="45.678" lon="4.69589">
        <ele>365.60000610352</ele>
        <time>2015-12-06T06:41:15.000Z</time>
      </trkpt>
      <trkpt lat="45.67812" lon="4.69609">
        <ele>365.39999389648</ele>
        <time>2015-12-06T06:41:31.000Z</time>
      </trkpt>
      <trkpt lat="45.67821" lon="4.69632">
        <ele>365.20001220703</ele>
        <time>2015-12-06T06:41:44.000Z</time>
      </trkpt>
      <trkpt lat="45.67827" lon="4.69657">
        <ele>364.79998779297</ele>
        <time>2015-12-06T06:41:54.000Z</time>
      </trkpt>
      <trkpt lat="45.67834" lon="4.69682">
        <ele>364.60000610352</ele>
        <time>2015-12-06T06:42:04.000Z</time>
      </trkpt>
      <trkpt lat="45.67837" lon="4.69695">
        <ele>364.39999389648</ele>
        <time>2015-12-06T06:42:12.000Z</time>
      </trkpt>
      <trkpt lat="45.67838" lon="4.69704">
        <ele>364.39999389648</ele>
        <time>2015-12-06T06:42:19.000Z</time>
      </trkpt>
      <trkpt lat="45.67841" lon="4.6973">
        <ele>363.79998779297</ele>
        <time>2015-12-06T06:42:36.000Z</time>
      </trkpt>
      <trkpt lat="45.67839" lon="4.69757">
        <ele>363</ele>
        <time>2015-12-06T06:42:46.000Z</time>
      </trkpt>
      <trkpt lat="45.67841" lon="4.69783">
        <ele>362</ele>
        <time>2015-12-06T06:42:54.000Z</time>
      </trkpt>
      <trkpt lat="45.67843" lon="4.69811">
        <ele>361.39999389648</ele>
        <time>2015-12-06T06:43:03.000Z</time>
      </trkpt>
      <trkpt lat="45.67843" lon="4.69839">
        <ele>360.60000610352</ele>
        <time>2015-12-06T06:43:12.000Z</time>
      </trkpt>
      <trkpt lat="45.67843" lon="4.69868">
        <ele>359.60000610352</ele>
        <time>2015-12-06T06:43:21.000Z</time>
      </trkpt>
      <trkpt lat="45.67844" lon="4.69896">
        <ele>358.20001220703</ele>
        <time>2015-12-06T06:43:30.000Z</time>
      </trkpt>
      <trkpt lat="45.67848" lon="4.69923">
        <ele>357.20001220703</ele>
        <time>2015-12-06T06:43:39.000Z</time>
      </trkpt>
      <trkpt lat="45.67855" lon="4.69948">
        <ele>356.39999389648</ele>
        <time>2015-12-06T06:43:49.000Z</time>
      </trkpt>
      <trkpt lat="45.67862" lon="4.69973">
        <ele>355.60000610352</ele>
        <time>2015-12-06T06:43:58.000Z</time>
      </trkpt>
      <trkpt lat="45.67867" lon="4.7">
        <ele>354.79998779297</ele>
        <time>2015-12-06T06:44:07.000Z</time>
      </trkpt>
      <trkpt lat="45.67882" lon="4.70013">
        <ele>354.79998779297</ele>
        <time>2015-12-06T06:44:16.000Z</time>
      </trkpt>
      <trkpt lat="45.67901" lon="4.70016">
        <ele>355</ele>
        <time>2015-12-06T06:44:25.000Z</time>
      </trkpt>
      <trkpt lat="45.67918" lon="4.70021">
        <ele>355</ele>
        <time>2015-12-06T06:44:34.000Z</time>
      </trkpt>
      <trkpt lat="45.67936" lon="4.70026">
        <ele>355</ele>
        <time>2015-12-06T06:44:43.000Z</time>
      </trkpt>
      <trkpt lat="45.67955" lon="4.70028">
        <ele>355.20001220703</ele>
        <time>2015-12-06T06:44:53.000Z</time>
      </trkpt>
      <trkpt lat="45.67966" lon="4.70008">
        <ele>356.60000610352</ele>
        <time>2015-12-06T06:45:03.000Z</time>
      </trkpt>
      <trkpt lat="45.67972" lon="4.69982">
        <ele>358.20001220703</ele>
        <time>2015-12-06T06:45:13.000Z</time>
      </trkpt>
      <trkpt lat="45.67977" lon="4.69955">
        <ele>359.79998779297</ele>
        <time>2015-12-06T06:45:23.000Z</time>
      </trkpt>
      <trkpt lat="45.67983" lon="4.69929">
        <ele>360.60000610352</ele>
        <time>2015-12-06T06:45:32.000Z</time>
      </trkpt>
      <trkpt lat="45.6799" lon="4.69903">
        <ele>361.39999389648</ele>
        <time>2015-12-06T06:45:41.000Z</time>
      </trkpt>
      <trkpt lat="45.67996" lon="4.69877">
        <ele>362.20001220703</ele>
        <time>2015-12-06T06:45:50.000Z</time>
      </trkpt>
      <trkpt lat="45.68002" lon="4.69851">
        <ele>363</ele>
        <time>2015-12-06T06:45:59.000Z</time>
      </trkpt>
      <trkpt lat="45.68014" lon="4.69829">
        <ele>363.39999389648</ele>
        <time>2015-12-06T06:46:08.000Z</time>
      </trkpt>
      <trkpt lat="45.68024" lon="4.69807">
        <ele>363.60000610352</ele>
        <time>2015-12-06T06:46:17.000Z</time>
      </trkpt>
      <trkpt lat="45.68036" lon="4.69783">
        <ele>363.60000610352</ele>
        <time>2015-12-06T06:46:26.000Z</time>
      </trkpt>
      <trkpt lat="45.68046" lon="4.69763">
        <ele>363</ele>
        <time>2015-12-06T06:46:34.000Z</time>
      </trkpt>
      <trkpt lat="45.68056" lon="4.6974">
        <ele>362.39999389648</ele>
        <time>2015-12-06T06:46:42.000Z</time>
      </trkpt>
      <trkpt lat="45.68068" lon="4.69721">
        <ele>361.60000610352</ele>
        <time>2015-12-06T06:46:51.000Z</time>
      </trkpt>
      <trkpt lat="45.68073" lon="4.69715">
        <ele>361.39999389648</ele>
        <time>2015-12-06T06:46:54.000Z</time>
      </trkpt>
      <trkpt lat="45.6809" lon="4.69726">
        <ele>361</ele>
        <time>2015-12-06T06:47:01.000Z</time>
      </trkpt>
      <trkpt lat="45.68107" lon="4.69737">
        <ele>360.60000610352</ele>
        <time>2015-12-06T06:47:09.000Z</time>
      </trkpt>
      <trkpt lat="45.68125" lon="4.69751">
        <ele>360</ele>
        <time>2015-12-06T06:47:16.000Z</time>
      </trkpt>
      <trkpt lat="45.68141" lon="4.69764">
        <ele>359.20001220703</ele>
        <time>2015-12-06T06:47:24.000Z</time>
      </trkpt>
      <trkpt lat="45.68158" lon="4.69777">
        <ele>357.60000610352</ele>
        <time>2015-12-06T06:47:33.000Z</time>
      </trkpt>
      <trkpt lat="45.68175" lon="4.69788">
        <ele>356.20001220703</ele>
        <time>2015-12-06T06:47:41.000Z</time>
      </trkpt>
      <trkpt lat="45.68191" lon="4.698">
        <ele>355.20001220703</ele>
        <time>2015-12-06T06:47:49.000Z</time>
      </trkpt>
      <trkpt lat="45.68207" lon="4.69814">
        <ele>354.20001220703</ele>
        <time>2015-12-06T06:47:57.000Z</time>
      </trkpt>
      <trkpt lat="45.68224" lon="4.69829">
        <ele>353.20001220703</ele>
        <time>2015-12-06T06:48:06.000Z</time>
      </trkpt>
      <trkpt lat="45.68242" lon="4.69844">
        <ele>352.60000610352</ele>
        <time>2015-12-06T06:48:14.000Z</time>
      </trkpt>
      <trkpt lat="45.68258" lon="4.69858">
        <ele>352</ele>
        <time>2015-12-06T06:48:22.000Z</time>
      </trkpt>
      <trkpt lat="45.68273" lon="4.69874">
        <ele>351.60000610352</ele>
        <time>2015-12-06T06:48:29.000Z</time>
      </trkpt>
      <trkpt lat="45.68288" lon="4.69891">
        <ele>351.20001220703</ele>
        <time>2015-12-06T06:48:37.000Z</time>
      </trkpt>
      <trkpt lat="45.68301" lon="4.6991">
        <ele>351</ele>
        <time>2015-12-06T06:48:45.000Z</time>
      </trkpt>
      <trkpt lat="45.68314" lon="4.6993">
        <ele>351.39999389648</ele>
        <time>2015-12-06T06:48:53.000Z</time>
      </trkpt>
      <trkpt lat="45.68327" lon="4.69947">
        <ele>351.60000610352</ele>
        <time>2015-12-06T06:49:01.000Z</time>
      </trkpt>
      <trkpt lat="45.6834" lon="4.69969">
        <ele>351.79998779297</ele>
        <time>2015-12-06T06:49:10.000Z</time>
      </trkpt>
      <trkpt lat="45.68348" lon="4.69994">
        <ele>352</ele>
        <time>2015-12-06T06:49:19.000Z</time>
      </trkpt>
      <trkpt lat="45.68344" lon="4.7002">
        <ele>352.39999389648</ele>
        <time>2015-12-06T06:49:27.000Z</time>
      </trkpt>
      <trkpt lat="45.68339" lon="4.70046">
        <ele>352.39999389648</ele>
        <time>2015-12-06T06:49:36.000Z</time>
      </trkpt>
      <trkpt lat="45.68335" lon="4.70071">
        <ele>351.79998779297</ele>
        <time>2015-12-06T06:49:45.000Z</time>
      </trkpt>
      <trkpt lat="45.68325" lon="4.70093">
        <ele>351.79998779297</ele>
        <time>2015-12-06T06:49:53.000Z</time>
      </trkpt>
      <trkpt lat="45.68312" lon="4.70114">
        <ele>351.79998779297</ele>
        <time>2015-12-06T06:50:01.000Z</time>
      </trkpt>
      <trkpt lat="45.683" lon="4.70135">
        <ele>351.79998779297</ele>
        <time>2015-12-06T06:50:09.000Z</time>
      </trkpt>
      <trkpt lat="45.68292" lon="4.70158">
        <ele>351.20001220703</ele>
        <time>2015-12-06T06:50:17.000Z</time>
      </trkpt>
      <trkpt lat="45.68284" lon="4.70181">
        <ele>350.79998779297</ele>
        <time>2015-12-06T06:50:25.000Z</time>
      </trkpt>
      <trkpt lat="45.68285" lon="4.70207">
        <ele>350.39999389648</ele>
        <time>2015-12-06T06:50:32.000Z</time>
      </trkpt>
      <trkpt lat="45.68283" lon="4.70233">
        <ele>349.79998779297</ele>
        <time>2015-12-06T06:50:40.000Z</time>
      </trkpt>
      <trkpt lat="45.68277" lon="4.70259">
        <ele>349</ele>
        <time>2015-12-06T06:50:48.000Z</time>
      </trkpt>
      <trkpt lat="45.68271" lon="4.70285">
        <ele>348.60000610352</ele>
        <time>2015-12-06T06:50:56.000Z</time>
      </trkpt>
      <trkpt lat="45.68263" lon="4.70311">
        <ele>347.60000610352</ele>
        <time>2015-12-06T06:51:04.000Z</time>
      </trkpt>
      <trkpt lat="45.68261" lon="4.70314">
        <ele>347.60000610352</ele>
        <time>2015-12-06T06:51:05.000Z</time>
      </trkpt>
      <trkpt lat="45.68245" lon="4.70331">
        <ele>346.39999389648</ele>
        <time>2015-12-06T06:51:13.000Z</time>
      </trkpt>
      <trkpt lat="45.68242" lon="4.70354">
        <ele>345.20001220703</ele>
        <time>2015-12-06T06:51:21.000Z</time>
      </trkpt>
      <trkpt lat="45.68254" lon="4.70374">
        <ele>344.79998779297</ele>
        <time>2015-12-06T06:51:29.000Z</time>
      </trkpt>
      <trkpt lat="45.68269" lon="4.7039">
        <ele>345.20001220703</ele>
        <time>2015-12-06T06:51:38.000Z</time>
      </trkpt>
      <trkpt lat="45.68284" lon="4.70406">
        <ele>345.60000610352</ele>
        <time>2015-12-06T06:51:47.000Z</time>
      </trkpt>
      <trkpt lat="45.68298" lon="4.70424">
        <ele>345.79998779297</ele>
        <time>2015-12-06T06:51:56.000Z</time>
      </trkpt>
      <trkpt lat="45.68311" lon="4.70443">
        <ele>346</ele>
        <time>2015-12-06T06:52:05.000Z</time>
      </trkpt>
      <trkpt lat="45.68324" lon="4.70462">
        <ele>346.39999389648</ele>
        <time>2015-12-06T06:52:14.000Z</time>
      </trkpt>
      <trkpt lat="45.68336" lon="4.70484">
        <ele>347.20001220703</ele>
        <time>2015-12-06T06:52:23.000Z</time>
      </trkpt>
      <trkpt lat="45.68347" lon="4.70507">
        <ele>347.39999389648</ele>
        <time>2015-12-06T06:52:32.000Z</time>
      </trkpt>
      <trkpt lat="45.6836" lon="4.70525">
        <ele>347.79998779297</ele>
        <time>2015-12-06T06:52:41.000Z</time>
      </trkpt>
      <trkpt lat="45.68374" lon="4.70542">
        <ele>348.20001220703</ele>
        <time>2015-12-06T06:52:49.000Z</time>
      </trkpt>
      <trkpt lat="45.68389" lon="4.70557">
        <ele>348</ele>
        <time>2015-12-06T06:52:57.000Z</time>
      </trkpt>
      <trkpt lat="45.68404" lon="4.70575">
        <ele>346</ele>
        <time>2015-12-06T06:53:05.000Z</time>
      </trkpt>
      <trkpt lat="45.68418" lon="4.70593">
        <ele>344</ele>
        <time>2015-12-06T06:53:13.000Z</time>
      </trkpt>
      <trkpt lat="45.68431" lon="4.70614">
        <ele>342</ele>
        <time>2015-12-06T06:53:22.000Z</time>
      </trkpt>
      <trkpt lat="45.68444" lon="4.70634">
        <ele>340.20001220703</ele>
        <time>2015-12-06T06:53:31.000Z</time>
      </trkpt>
      <trkpt lat="45.68459" lon="4.70649">
        <ele>338.39999389648</ele>
        <time>2015-12-06T06:53:39.000Z</time>
      </trkpt>
      <trkpt lat="45.68469" lon="4.7067">
        <ele>337</ele>
        <time>2015-12-06T06:53:47.000Z</time>
      </trkpt>
      <trkpt lat="45.68481" lon="4.7069">
        <ele>335.60000610352</ele>
        <time>2015-12-06T06:53:55.000Z</time>
      </trkpt>
      <trkpt lat="45.68496" lon="4.70708">
        <ele>334.39999389648</ele>
        <time>2015-12-06T06:54:03.000Z</time>
      </trkpt>
      <trkpt lat="45.6851" lon="4.70728">
        <ele>333.20001220703</ele>
        <time>2015-12-06T06:54:12.000Z</time>
      </trkpt>
      <trkpt lat="45.68524" lon="4.70747">
        <ele>332.20001220703</ele>
        <time>2015-12-06T06:54:21.000Z</time>
      </trkpt>
      <trkpt lat="45.68537" lon="4.70766">
        <ele>331.20001220703</ele>
        <time>2015-12-06T06:54:29.000Z</time>
      </trkpt>
      <trkpt lat="45.68551" lon="4.70785">
        <ele>330.20001220703</ele>
        <time>2015-12-06T06:54:37.000Z</time>
      </trkpt>
      <trkpt lat="45.68564" lon="4.70804">
        <ele>329.39999389648</ele>
        <time>2015-12-06T06:54:45.000Z</time>
      </trkpt>
      <trkpt lat="45.68578" lon="4.70822">
        <ele>328.79998779297</ele>
        <time>2015-12-06T06:54:53.000Z</time>
      </trkpt>
      <trkpt lat="45.68594" lon="4.70839">
        <ele>328.20001220703</ele>
        <time>2015-12-06T06:55:01.000Z</time>
      </trkpt>
      <trkpt lat="45.6861" lon="4.70854">
        <ele>327.79998779297</ele>
        <time>2015-12-06T06:55:10.000Z</time>
      </trkpt>
      <trkpt lat="45.68626" lon="4.70869">
        <ele>327.20001220703</ele>
        <time>2015-12-06T06:55:26.000Z</time>
      </trkpt>
      <trkpt lat="45.68642" lon="4.70885">
        <ele>326.39999389648</ele>
        <time>2015-12-06T06:55:39.000Z</time>
      </trkpt>
      <trkpt lat="45.68657" lon="4.709">
        <ele>325.79998779297</ele>
        <time>2015-12-06T06:55:47.000Z</time>
      </trkpt>
      <trkpt lat="45.68673" lon="4.70913">
        <ele>325</ele>
        <time>2015-12-06T06:55:55.000Z</time>
      </trkpt>
      <trkpt lat="45.68689" lon="4.70926">
        <ele>324.39999389648</ele>
        <time>2015-12-06T06:56:03.000Z</time>
      </trkpt>
      <trkpt lat="45.68704" lon="4.70941">
        <ele>323.60000610352</ele>
        <time>2015-12-06T06:56:11.000Z</time>
      </trkpt>
      <trkpt lat="45.68714" lon="4.70963">
        <ele>323</ele>
        <time>2015-12-06T06:56:19.000Z</time>
      </trkpt>
      <trkpt lat="45.68711" lon="4.70991">
        <ele>322.39999389648</ele>
        <time>2015-12-06T06:56:28.000Z</time>
      </trkpt>
      <trkpt lat="45.68712" lon="4.71016">
        <ele>321.60000610352</ele>
        <time>2015-12-06T06:56:36.000Z</time>
      </trkpt>
      <trkpt lat="45.68717" lon="4.71041">
        <ele>321</ele>
        <time>2015-12-06T06:56:44.000Z</time>
      </trkpt>
      <trkpt lat="45.68724" lon="4.71065">
        <ele>320.20001220703</ele>
        <time>2015-12-06T06:56:52.000Z</time>
      </trkpt>
      <trkpt lat="45.68731" lon="4.71092">
        <ele>319.39999389648</ele>
        <time>2015-12-06T06:57:01.000Z</time>
      </trkpt>
      <trkpt lat="45.68738" lon="4.71116">
        <ele>318.60000610352</ele>
        <time>2015-12-06T06:57:09.000Z</time>
      </trkpt>
      <trkpt lat="45.68745" lon="4.7114">
        <ele>318.39999389648</ele>
        <time>2015-12-06T06:57:17.000Z</time>
      </trkpt>
      <trkpt lat="45.68752" lon="4.71164">
        <ele>317.60000610352</ele>
        <time>2015-12-06T06:57:25.000Z</time>
      </trkpt>
      <trkpt lat="45.68759" lon="4.71191">
        <ele>316.60000610352</ele>
        <time>2015-12-06T06:57:34.000Z</time>
      </trkpt>
      <trkpt lat="45.68766" lon="4.71216">
        <ele>315.39999389648</ele>
        <time>2015-12-06T06:57:43.000Z</time>
      </trkpt>
      <trkpt lat="45.68773" lon="4.71243">
        <ele>313.79998779297</ele>
        <time>2015-12-06T06:57:52.000Z</time>
      </trkpt>
      <trkpt lat="45.68781" lon="4.7127">
        <ele>312.39999389648</ele>
        <time>2015-12-06T06:58:01.000Z</time>
      </trkpt>
      <trkpt lat="45.6879" lon="4.71292">
        <ele>311</ele>
        <time>2015-12-06T06:58:09.000Z</time>
      </trkpt>
      <trkpt lat="45.68802" lon="4.71314">
        <ele>309.60000610352</ele>
        <time>2015-12-06T06:58:18.000Z</time>
      </trkpt>
      <trkpt lat="45.68817" lon="4.71331">
        <ele>308.60000610352</ele>
        <time>2015-12-06T06:58:27.000Z</time>
      </trkpt>
      <trkpt lat="45.68834" lon="4.71344">
        <ele>308</ele>
        <time>2015-12-06T06:58:36.000Z</time>
      </trkpt>
      <trkpt lat="45.68852" lon="4.71356">
        <ele>307.39999389648</ele>
        <time>2015-12-06T06:58:44.000Z</time>
      </trkpt>
      <trkpt lat="45.6887" lon="4.71369">
        <ele>306.60000610352</ele>
        <time>2015-12-06T06:58:53.000Z</time>
      </trkpt>
      <trkpt lat="45.68885" lon="4.71384">
        <ele>306.20001220703</ele>
        <time>2015-12-06T06:59:01.000Z</time>
      </trkpt>
      <trkpt lat="45.68902" lon="4.71398">
        <ele>305.79998779297</ele>
        <time>2015-12-06T06:59:09.000Z</time>
      </trkpt>
      <trkpt lat="45.68919" lon="4.71411">
        <ele>305.60000610352</ele>
        <time>2015-12-06T06:59:18.000Z</time>
      </trkpt>
      <trkpt lat="45.68935" lon="4.71423">
        <ele>305.60000610352</ele>
        <time>2015-12-06T06:59:26.000Z</time>
      </trkpt>
      <trkpt lat="45.68947" lon="4.71436">
        <ele>305.20001220703</ele>
        <time>2015-12-06T06:59:33.000Z</time>
      </trkpt>
      <trkpt lat="45.68945" lon="4.71464">
        <ele>303.20001220703</ele>
        <time>2015-12-06T06:59:43.000Z</time>
      </trkpt>
      <trkpt lat="45.68944" lon="4.71474">
        <ele>302</ele>
        <time>2015-12-06T06:59:48.000Z</time>
      </trkpt>
      <trkpt lat="45.68944" lon="4.71481">
        <ele>301.39999389648</ele>
        <time>2015-12-06T06:59:52.000Z</time>
      </trkpt>
      <trkpt lat="45.68943" lon="4.71507">
        <ele>298.79998779297</ele>
        <time>2015-12-06T07:00:08.000Z</time>
      </trkpt>
      <trkpt lat="45.68942" lon="4.71517">
        <ele>298</ele>
        <time>2015-12-06T07:00:14.000Z</time>
      </trkpt>
      <trkpt lat="45.68942" lon="4.71521">
        <ele>297.39999389648</ele>
        <time>2015-12-06T07:00:17.000Z</time>
      </trkpt>
      <trkpt lat="45.68943" lon="4.71526">
        <ele>297.20001220703</ele>
        <time>2015-12-06T07:00:20.000Z</time>
      </trkpt>
      <trkpt lat="45.68943" lon="4.71532">
        <ele>296.60000610352</ele>
        <time>2015-12-06T07:00:24.000Z</time>
      </trkpt>
      <trkpt lat="45.6894" lon="4.71557">
        <ele>293.79998779297</ele>
        <time>2015-12-06T07:00:38.000Z</time>
      </trkpt>
      <trkpt lat="45.68942" lon="4.71584">
        <ele>291</ele>
        <time>2015-12-06T07:00:56.000Z</time>
      </trkpt>
      <trkpt lat="45.68941" lon="4.7161">
        <ele>288.60000610352</ele>
        <time>2015-12-06T07:01:08.000Z</time>
      </trkpt>
      <trkpt lat="45.68934" lon="4.71634">
        <ele>285.60000610352</ele>
        <time>2015-12-06T07:01:18.000Z</time>
      </trkpt>
      <trkpt lat="45.68919" lon="4.71651">
        <ele>283</ele>
        <time>2015-12-06T07:01:29.000Z</time>
      </trkpt>
      <trkpt lat="45.68902" lon="4.71659">
        <ele>281.60000610352</ele>
        <time>2015-12-06T07:01:39.000Z</time>
      </trkpt>
      <trkpt lat="45.68898" lon="4.71662">
        <ele>281.20001220703</ele>
        <time>2015-12-06T07:01:41.000Z</time>
      </trkpt>
      <trkpt lat="45.68888" lon="4.71669">
        <ele>280</ele>
        <time>2015-12-06T07:01:46.000Z</time>
      </trkpt>
      <trkpt lat="45.68877" lon="4.71664">
        <ele>279.20001220703</ele>
        <time>2015-12-06T07:01:52.000Z</time>
      </trkpt>
      <trkpt lat="45.68869" lon="4.71639">
        <ele>281.60000610352</ele>
        <time>2015-12-06T07:02:04.000Z</time>
      </trkpt>
      <trkpt lat="45.68859" lon="4.71629">
        <ele>281.60000610352</ele>
        <time>2015-12-06T07:02:11.000Z</time>
      </trkpt>
      <trkpt lat="45.68844" lon="4.71614">
        <ele>281.39999389648</ele>
        <time>2015-12-06T07:02:21.000Z</time>
      </trkpt>
      <trkpt lat="45.68829" lon="4.71598">
        <ele>281.20001220703</ele>
        <time>2015-12-06T07:02:30.000Z</time>
      </trkpt>
      <trkpt lat="45.68811" lon="4.7159">
        <ele>279.60000610352</ele>
        <time>2015-12-06T07:02:40.000Z</time>
      </trkpt>
      <trkpt lat="45.6881" lon="4.71591">
        <ele>279.20001220703</ele>
        <time>2015-12-06T07:02:41.000Z</time>
      </trkpt>
      <trkpt lat="45.68803" lon="4.71614">
        <ele>274.79998779297</ele>
        <time>2015-12-06T07:02:55.000Z</time>
      </trkpt>
      <trkpt lat="45.68795" lon="4.71632">
        <ele>271.39999389648</ele>
        <time>2015-12-06T07:03:09.000Z</time>
      </trkpt>
      <trkpt lat="45.6878" lon="4.71648">
        <ele>267.79998779297</ele>
        <time>2015-12-06T07:03:27.000Z</time>
      </trkpt>
      <trkpt lat="45.68768" lon="4.71667">
        <ele>264</ele>
        <time>2015-12-06T07:03:49.000Z</time>
      </trkpt>
      <trkpt lat="45.68752" lon="4.7168">
        <ele>265.79998779297</ele>
        <time>2015-12-06T07:04:09.000Z</time>
      </trkpt>
      <trkpt lat="45.68736" lon="4.71694">
        <ele>268</ele>
        <time>2015-12-06T07:04:28.000Z</time>
      </trkpt>
      <trkpt lat="45.68718" lon="4.71701">
        <ele>270</ele>
        <time>2015-12-06T07:04:47.000Z</time>
      </trkpt>
      <trkpt lat="45.68701" lon="4.71714">
        <ele>272.39999389648</ele>
        <time>2015-12-06T07:05:07.000Z</time>
      </trkpt>
      <trkpt lat="45.68689" lon="4.71732">
        <ele>275</ele>
        <time>2015-12-06T07:05:25.000Z</time>
      </trkpt>
      <trkpt lat="45.6868" lon="4.71756">
        <ele>277.79998779297</ele>
        <time>2015-12-06T07:05:42.000Z</time>
      </trkpt>
      <trkpt lat="45.68671" lon="4.71778">
        <ele>280.79998779297</ele>
        <time>2015-12-06T07:05:57.000Z</time>
      </trkpt>
      <trkpt lat="45.68667" lon="4.71789">
        <ele>282.20001220703</ele>
        <time>2015-12-06T07:06:04.000Z</time>
      </trkpt>
      <trkpt lat="45.68661" lon="4.71805">
        <ele>284.39999389648</ele>
        <time>2015-12-06T07:06:15.000Z</time>
      </trkpt>
      <trkpt lat="45.68657" lon="4.71816">
        <ele>285.79998779297</ele>
        <time>2015-12-06T07:06:23.000Z</time>
      </trkpt>
      <trkpt lat="45.68654" lon="4.71828">
        <ele>287</ele>
        <time>2015-12-06T07:06:32.000Z</time>
      </trkpt>
      <trkpt lat="45.68654" lon="4.71844">
        <ele>288.39999389648</ele>
        <time>2015-12-06T07:06:42.000Z</time>
      </trkpt>
      <trkpt lat="45.68655" lon="4.71851">
        <ele>288.79998779297</ele>
        <time>2015-12-06T07:06:46.000Z</time>
      </trkpt>
      <trkpt lat="45.68648" lon="4.71872">
        <ele>291</ele>
        <time>2015-12-06T07:06:59.000Z</time>
      </trkpt>
      <trkpt lat="45.6864" lon="4.71897">
        <ele>293.20001220703</ele>
        <time>2015-12-06T07:07:14.000Z</time>
      </trkpt>
      <trkpt lat="45.68632" lon="4.7192">
        <ele>295.39999389648</ele>
        <time>2015-12-06T07:07:25.000Z</time>
      </trkpt>
      <trkpt lat="45.68624" lon="4.71944">
        <ele>297.39999389648</ele>
        <time>2015-12-06T07:07:34.000Z</time>
      </trkpt>
      <trkpt lat="45.68617" lon="4.71968">
        <ele>298.20001220703</ele>
        <time>2015-12-06T07:07:43.000Z</time>
      </trkpt>
      <trkpt lat="45.68607" lon="4.71991">
        <ele>298.60000610352</ele>
        <time>2015-12-06T07:07:52.000Z</time>
      </trkpt>
      <trkpt lat="45.68591" lon="4.71994">
        <ele>299.79998779297</ele>
        <time>2015-12-06T07:08:03.000Z</time>
      </trkpt>
      <trkpt lat="45.68574" lon="4.71983">
        <ele>301.20001220703</ele>
        <time>2015-12-06T07:08:14.000Z</time>
      </trkpt>
      <trkpt lat="45.68571" lon="4.71983">
        <ele>301.60000610352</ele>
        <time>2015-12-06T07:08:16.000Z</time>
      </trkpt>
      <trkpt lat="45.68568" lon="4.72">
        <ele>301.79998779297</ele>
        <time>2015-12-06T07:08:23.000Z</time>
      </trkpt>
      <trkpt lat="45.68568" lon="4.72027">
        <ele>301.79998779297</ele>
        <time>2015-12-06T07:08:33.000Z</time>
      </trkpt>
      <trkpt lat="45.68573" lon="4.72053">
        <ele>301.60000610352</ele>
        <time>2015-12-06T07:08:43.000Z</time>
      </trkpt>
      <trkpt lat="45.68584" lon="4.72073">
        <ele>300.79998779297</ele>
        <time>2015-12-06T07:08:52.000Z</time>
      </trkpt>
      <trkpt lat="45.68596" lon="4.72095">
        <ele>300.20001220703</ele>
        <time>2015-12-06T07:09:02.000Z</time>
      </trkpt>
      <trkpt lat="45.68603" lon="4.7212">
        <ele>299.79998779297</ele>
        <time>2015-12-06T07:09:12.000Z</time>
      </trkpt>
      <trkpt lat="45.68608" lon="4.72145">
        <ele>301.39999389648</ele>
        <time>2015-12-06T07:09:22.000Z</time>
      </trkpt>
      <trkpt lat="45.68613" lon="4.7217">
        <ele>303.20001220703</ele>
        <time>2015-12-06T07:09:32.000Z</time>
      </trkpt>
      <trkpt lat="45.6862" lon="4.72195">
        <ele>304.60000610352</ele>
        <time>2015-12-06T07:09:42.000Z</time>
      </trkpt>
      <trkpt lat="45.68627" lon="4.72219">
        <ele>305.60000610352</ele>
        <time>2015-12-06T07:09:51.000Z</time>
      </trkpt>
      <trkpt lat="45.68634" lon="4.72244">
        <ele>306.60000610352</ele>
        <time>2015-12-06T07:10:00.000Z</time>
      </trkpt>
      <trkpt lat="45.68641" lon="4.72268">
        <ele>307.60000610352</ele>
        <time>2015-12-06T07:10:09.000Z</time>
      </trkpt>
      <trkpt lat="45.68649" lon="4.72294">
        <ele>308.39999389648</ele>
        <time>2015-12-06T07:10:19.000Z</time>
      </trkpt>
      <trkpt lat="45.68656" lon="4.7232">
        <ele>308.60000610352</ele>
        <time>2015-12-06T07:10:29.000Z</time>
      </trkpt>
      <trkpt lat="45.68661" lon="4.72346">
        <ele>309</ele>
        <time>2015-12-06T07:10:39.000Z</time>
      </trkpt>
      <trkpt lat="45.68655" lon="4.72371">
        <ele>309.79998779297</ele>
        <time>2015-12-06T07:10:48.000Z</time>
      </trkpt>
      <trkpt lat="45.68652" lon="4.72397">
        <ele>310</ele>
        <time>2015-12-06T07:10:58.000Z</time>
      </trkpt>
      <trkpt lat="45.68655" lon="4.72422">
        <ele>310</ele>
        <time>2015-12-06T07:11:07.000Z</time>
      </trkpt>
      <trkpt lat="45.68664" lon="4.72446">
        <ele>309.60000610352</ele>
        <time>2015-12-06T07:11:15.000Z</time>
      </trkpt>
      <trkpt lat="45.68673" lon="4.72459">
        <ele>308.79998779297</ele>
        <time>2015-12-06T07:11:22.000Z</time>
      </trkpt>
      <trkpt lat="45.68691" lon="4.72466">
        <ele>307.20001220703</ele>
        <time>2015-12-06T07:11:31.000Z</time>
      </trkpt>
      <trkpt lat="45.68709" lon="4.72473">
        <ele>305.60000610352</ele>
        <time>2015-12-06T07:11:40.000Z</time>
      </trkpt>
      <trkpt lat="45.68729" lon="4.72475">
        <ele>303.60000610352</ele>
        <time>2015-12-06T07:11:49.000Z</time>
      </trkpt>
      <trkpt lat="45.68747" lon="4.72477">
        <ele>301.60000610352</ele>
        <time>2015-12-06T07:11:57.000Z</time>
      </trkpt>
      <trkpt lat="45.68766" lon="4.72482">
        <ele>299.79998779297</ele>
        <time>2015-12-06T07:12:05.000Z</time>
      </trkpt>
      <trkpt lat="45.68784" lon="4.72485">
        <ele>298.20001220703</ele>
        <time>2015-12-06T07:12:14.000Z</time>
      </trkpt>
      <trkpt lat="45.68803" lon="4.72488">
        <ele>296.39999389648</ele>
        <time>2015-12-06T07:12:23.000Z</time>
      </trkpt>
      <trkpt lat="45.68823" lon="4.72489">
        <ele>294.79998779297</ele>
        <time>2015-12-06T07:12:32.000Z</time>
      </trkpt>
      <trkpt lat="45.68841" lon="4.72493">
        <ele>293.39999389648</ele>
        <time>2015-12-06T07:12:40.000Z</time>
      </trkpt>
      <trkpt lat="45.6886" lon="4.72502">
        <ele>291.79998779297</ele>
        <time>2015-12-06T07:12:50.000Z</time>
      </trkpt>
      <trkpt lat="45.68879" lon="4.72508">
        <ele>290.20001220703</ele>
        <time>2015-12-06T07:12:59.000Z</time>
      </trkpt>
      <trkpt lat="45.68896" lon="4.72518">
        <ele>288.39999389648</ele>
        <time>2015-12-06T07:13:08.000Z</time>
      </trkpt>
      <trkpt lat="45.68914" lon="4.72532">
        <ele>286</ele>
        <time>2015-12-06T07:13:18.000Z</time>
      </trkpt>
      <trkpt lat="45.68932" lon="4.72539">
        <ele>284.20001220703</ele>
        <time>2015-12-06T07:13:27.000Z</time>
      </trkpt>
      <trkpt lat="45.6894" lon="4.72546">
        <ele>283.79998779297</ele>
        <time>2015-12-06T07:13:33.000Z</time>
      </trkpt>
      <trkpt lat="45.68945" lon="4.72549">
        <ele>283.39999389648</ele>
        <time>2015-12-06T07:13:37.000Z</time>
      </trkpt>
      <trkpt lat="45.68947" lon="4.7255">
        <ele>283.20001220703</ele>
        <time>2015-12-06T07:13:38.000Z</time>
      </trkpt>
      <trkpt lat="45.68964" lon="4.72561">
        <ele>282</ele>
        <time>2015-12-06T07:13:46.000Z</time>
      </trkpt>
      <trkpt lat="45.68985" lon="4.72565">
        <ele>278</ele>
        <time>2015-12-06T07:13:54.000Z</time>
      </trkpt>
      <trkpt lat="45.69004" lon="4.72571">
        <ele>273.20001220703</ele>
        <time>2015-12-06T07:14:02.000Z</time>
      </trkpt>
      <trkpt lat="45.69023" lon="4.7258">
        <ele>270.20001220703</ele>
        <time>2015-12-06T07:14:10.000Z</time>
      </trkpt>
      <trkpt lat="45.6903" lon="4.72587">
        <ele>268.60000610352</ele>
        <time>2015-12-06T07:14:14.000Z</time>
      </trkpt>
      <trkpt lat="45.69041" lon="4.72606">
        <ele>265</ele>
        <time>2015-12-06T07:14:23.000Z</time>
      </trkpt>
      <trkpt lat="45.69042" lon="4.72609">
        <ele>264.60000610352</ele>
        <time>2015-12-06T07:14:24.000Z</time>
      </trkpt>
      <trkpt lat="45.69045" lon="4.72626">
        <ele>264</ele>
        <time>2015-12-06T07:14:31.000Z</time>
      </trkpt>
      <trkpt lat="45.69045" lon="4.72649">
        <ele>263.60000610352</ele>
        <time>2015-12-06T07:14:38.000Z</time>
      </trkpt>
      <trkpt lat="45.69037" lon="4.72673">
        <ele>265.39999389648</ele>
        <time>2015-12-06T07:14:47.000Z</time>
      </trkpt>
      <trkpt lat="45.69028" lon="4.72699">
        <ele>269.60000610352</ele>
        <time>2015-12-06T07:14:57.000Z</time>
      </trkpt>
      <trkpt lat="45.69017" lon="4.72722">
        <ele>272</ele>
        <time>2015-12-06T07:15:06.000Z</time>
      </trkpt>
      <trkpt lat="45.69009" lon="4.72744">
        <ele>272.79998779297</ele>
        <time>2015-12-06T07:15:15.000Z</time>
      </trkpt>
      <trkpt lat="45.69008" lon="4.72766">
        <ele>272</ele>
        <time>2015-12-06T07:15:24.000Z</time>
      </trkpt>
      <trkpt lat="45.69022" lon="4.72769">
        <ele>265.79998779297</ele>
        <time>2015-12-06T07:15:34.000Z</time>
      </trkpt>
      <trkpt lat="45.69038" lon="4.72753">
        <ele>261.20001220703</ele>
        <time>2015-12-06T07:15:46.000Z</time>
      </trkpt>
      <trkpt lat="45.69055" lon="4.72742">
        <ele>256.39999389648</ele>
        <time>2015-12-06T07:15:57.000Z</time>
      </trkpt>
      <trkpt lat="45.69057" lon="4.72742">
        <ele>256</ele>
        <time>2015-12-06T07:15:58.000Z</time>
      </trkpt>
      <trkpt lat="45.69067" lon="4.72739">
        <ele>253.60000610352</ele>
        <time>2015-12-06T07:16:03.000Z</time>
      </trkpt>
      <trkpt lat="45.69076" lon="4.72731">
        <ele>252</ele>
        <time>2015-12-06T07:16:09.000Z</time>
      </trkpt>
      <trkpt lat="45.6908" lon="4.72724">
        <ele>251.39999389648</ele>
        <time>2015-12-06T07:16:14.000Z</time>
      </trkpt>
      <trkpt lat="45.69092" lon="4.72702">
        <ele>249</ele>
        <time>2015-12-06T07:16:27.000Z</time>
      </trkpt>
      <trkpt lat="45.69104" lon="4.72683">
        <ele>245.39999389648</ele>
        <time>2015-12-06T07:16:37.000Z</time>
      </trkpt>
      <trkpt lat="45.69117" lon="4.72662">
        <ele>246.60000610352</ele>
        <time>2015-12-06T07:16:50.000Z</time>
      </trkpt>
      <trkpt lat="45.69122" lon="4.72639">
        <ele>251.80000305176</ele>
        <time>2015-12-06T07:17:08.000Z</time>
      </trkpt>
      <trkpt lat="45.69145" lon="4.7267">
        <ele>243.19999694824</ele>
        <time>2015-12-06T07:17:40.000Z</time>
      </trkpt>
      <trkpt lat="45.69148" lon="4.72672">
        <ele>242.60000610352</ele>
        <time>2015-12-06T07:17:45.000Z</time>
      </trkpt>
      <trkpt lat="45.69149" lon="4.72673">
        <ele>242.19999694824</ele>
        <time>2015-12-06T07:17:46.000Z</time>
      </trkpt>
      <trkpt lat="45.6915" lon="4.72676">
        <ele>241.39999389648</ele>
        <time>2015-12-06T07:17:49.000Z</time>
      </trkpt>
      <trkpt lat="45.69161" lon="4.72684">
        <ele>239.39999389648</ele>
        <time>2015-12-06T07:17:58.000Z</time>
      </trkpt>
      <trkpt lat="45.69175" lon="4.72696">
        <ele>236.39999389648</ele>
        <time>2015-12-06T07:18:11.000Z</time>
      </trkpt>
      <trkpt lat="45.69183" lon="4.72705">
        <ele>234.39999389648</ele>
        <time>2015-12-06T07:18:18.000Z</time>
      </trkpt>
      <trkpt lat="45.69196" lon="4.72724">
        <ele>234.19999694824</ele>
        <time>2015-12-06T07:18:33.000Z</time>
      </trkpt>
      <trkpt lat="45.69198" lon="4.72726">
        <ele>234.19999694824</ele>
        <time>2015-12-06T07:18:35.000Z</time>
      </trkpt>
      <trkpt lat="45.69215" lon="4.72731">
        <ele>234</ele>
        <time>2015-12-06T07:18:52.000Z</time>
      </trkpt>
      <trkpt lat="45.69234" lon="4.72734">
        <ele>235.39999389648</ele>
        <time>2015-12-06T07:19:08.000Z</time>
      </trkpt>
      <trkpt lat="45.6925" lon="4.72721">
        <ele>235.39999389648</ele>
        <time>2015-12-06T07:19:23.000Z</time>
      </trkpt>
      <trkpt lat="45.69267" lon="4.7271">
        <ele>234.19999694824</ele>
        <time>2015-12-06T07:19:39.000Z</time>
      </trkpt>
      <trkpt lat="45.69283" lon="4.72696">
        <ele>234.39999389648</ele>
        <time>2015-12-06T07:19:53.000Z</time>
      </trkpt>
      <trkpt lat="45.693" lon="4.72684">
        <ele>233.80000305176</ele>
        <time>2015-12-06T07:20:03.000Z</time>
      </trkpt>
      <trkpt lat="45.69317" lon="4.72672">
        <ele>234.60000610352</ele>
        <time>2015-12-06T07:20:13.000Z</time>
      </trkpt>
      <trkpt lat="45.69332" lon="4.72655">
        <ele>236.39999389648</ele>
        <time>2015-12-06T07:20:23.000Z</time>
      </trkpt>
      <trkpt lat="45.69337" lon="4.72651">
        <ele>236.39999389648</ele>
        <time>2015-12-06T07:20:27.000Z</time>
      </trkpt>
      <trkpt lat="45.69354" lon="4.72635">
        <ele>234.80000305176</ele>
        <time>2015-12-06T07:20:40.000Z</time>
      </trkpt>
      <trkpt lat="45.69357" lon="4.72632">
        <ele>234.39999389648</ele>
        <time>2015-12-06T07:20:44.000Z</time>
      </trkpt>
      <trkpt lat="45.69375" lon="4.72621">
        <ele>233.19999694824</ele>
        <time>2015-12-06T07:20:58.000Z</time>
      </trkpt>
      <trkpt lat="45.69391" lon="4.72609">
        <ele>233.60000610352</ele>
        <time>2015-12-06T07:21:12.000Z</time>
      </trkpt>
      <trkpt lat="45.69404" lon="4.72611">
        <ele>235.60000610352</ele>
        <time>2015-12-06T07:21:48.000Z</time>
      </trkpt>
      <trkpt lat="45.6942" lon="4.72609">
        <ele>238.19999694824</ele>
        <time>2015-12-06T07:22:07.000Z</time>
      </trkpt>
      <trkpt lat="45.69425" lon="4.72609">
        <ele>239</ele>
        <time>2015-12-06T07:22:12.000Z</time>
      </trkpt>
      <trkpt lat="45.69432" lon="4.72634">
        <ele>243.39999389648</ele>
        <time>2015-12-06T07:22:32.000Z</time>
      </trkpt>
      <trkpt lat="45.69432" lon="4.72661">
        <ele>249.80000305176</ele>
        <time>2015-12-06T07:22:49.000Z</time>
      </trkpt>
      <trkpt lat="45.69425" lon="4.72685">
        <ele>250.80000305176</ele>
        <time>2015-12-06T07:23:08.000Z</time>
      </trkpt>
      <trkpt lat="45.6942" lon="4.7271">
        <ele>252</ele>
        <time>2015-12-06T07:23:29.000Z</time>
      </trkpt>
      <trkpt lat="45.69415" lon="4.72735">
        <ele>254.80000305176</ele>
        <time>2015-12-06T07:23:52.000Z</time>
      </trkpt>
      <trkpt lat="45.69415" lon="4.72763">
        <ele>259</ele>
        <time>2015-12-06T07:24:14.000Z</time>
      </trkpt>
      <trkpt lat="45.69413" lon="4.72788">
        <ele>262.39999389648</ele>
        <time>2015-12-06T07:24:34.000Z</time>
      </trkpt>
      <trkpt lat="45.69411" lon="4.72815">
        <ele>265</ele>
        <time>2015-12-06T07:24:54.000Z</time>
      </trkpt>
      <trkpt lat="45.69403" lon="4.72837">
        <ele>267.60000610352</ele>
        <time>2015-12-06T07:25:16.000Z</time>
      </trkpt>
      <trkpt lat="45.69387" lon="4.72848">
        <ele>266.60000610352</ele>
        <time>2015-12-06T07:25:34.000Z</time>
      </trkpt>
      <trkpt lat="45.6937" lon="4.72859">
        <ele>266.39999389648</ele>
        <time>2015-12-06T07:25:59.000Z</time>
      </trkpt>
      <trkpt lat="45.69353" lon="4.72868">
        <ele>266</ele>
        <time>2015-12-06T07:26:22.000Z</time>
      </trkpt>
      <trkpt lat="45.69337" lon="4.72881">
        <ele>265.79998779297</ele>
        <time>2015-12-06T07:26:46.000Z</time>
      </trkpt>
      <trkpt lat="45.69325" lon="4.72899">
        <ele>266.79998779297</ele>
        <time>2015-12-06T07:27:11.000Z</time>
      </trkpt>
      <trkpt lat="45.69313" lon="4.72913">
        <ele>268.39999389648</ele>
        <time>2015-12-06T07:27:55.000Z</time>
      </trkpt>
      <trkpt lat="45.69294" lon="4.72916">
        <ele>266.79998779297</ele>
        <time>2015-12-06T07:28:19.000Z</time>
      </trkpt>
      <trkpt lat="45.69289" lon="4.72914">
        <ele>265.39999389648</ele>
        <time>2015-12-06T07:28:24.000Z</time>
      </trkpt>
      <trkpt lat="45.69292" lon="4.7289">
        <ele>261.79998779297</ele>
        <time>2015-12-06T07:28:39.000Z</time>
      </trkpt>
      <trkpt lat="45.69299" lon="4.72883">
        <ele>261.79998779297</ele>
        <time>2015-12-06T07:28:44.000Z</time>
      </trkpt>
      <trkpt lat="45.69293" lon="4.72867">
        <ele>258</ele>
        <time>2015-12-06T07:28:54.000Z</time>
      </trkpt>
      <trkpt lat="45.69288" lon="4.72877">
        <ele>258.79998779297</ele>
        <time>2015-12-06T07:28:58.000Z</time>
      </trkpt>
      <trkpt lat="45.69275" lon="4.72896">
        <ele>260.20001220703</ele>
        <time>2015-12-06T07:29:25.000Z</time>
      </trkpt>
      <trkpt lat="45.69264" lon="4.72916">
        <ele>262.20001220703</ele>
        <time>2015-12-06T07:29:50.000Z</time>
      </trkpt>
      <trkpt lat="45.6925" lon="4.72934">
        <ele>263.20001220703</ele>
        <time>2015-12-06T07:30:04.000Z</time>
      </trkpt>
      <trkpt lat="45.69237" lon="4.72952">
        <ele>264.39999389648</ele>
        <time>2015-12-06T07:30:14.000Z</time>
      </trkpt>
      <trkpt lat="45.69221" lon="4.72962">
        <ele>262</ele>
        <time>2015-12-06T07:30:24.000Z</time>
      </trkpt>
      <trkpt lat="45.69222" lon="4.72947">
        <ele>261</ele>
        <time>2015-12-06T07:30:29.000Z</time>
      </trkpt>
      <trkpt lat="45.69233" lon="4.72926">
        <ele>259</ele>
        <time>2015-12-06T07:30:38.000Z</time>
      </trkpt>
      <trkpt lat="45.69244" lon="4.72903">
        <ele>256.60000610352</ele>
        <time>2015-12-06T07:30:48.000Z</time>
      </trkpt>
      <trkpt lat="45.69251" lon="4.72878">
        <ele>253.19999694824</ele>
        <time>2015-12-06T07:30:57.000Z</time>
      </trkpt>
      <trkpt lat="45.6926" lon="4.72855">
        <ele>250.80000305176</ele>
        <time>2015-12-06T07:31:05.000Z</time>
      </trkpt>
      <trkpt lat="45.69272" lon="4.72833">
        <ele>249</ele>
        <time>2015-12-06T07:31:14.000Z</time>
      </trkpt>
      <trkpt lat="45.69275" lon="4.72825">
        <ele>247.60000610352</ele>
        <time>2015-12-06T07:31:18.000Z</time>
      </trkpt>
      <trkpt lat="45.69263" lon="4.72833">
        <ele>247.80000305176</ele>
        <time>2015-12-06T07:31:28.000Z</time>
      </trkpt>
      <trkpt lat="45.69252" lon="4.72857">
        <ele>250</ele>
        <time>2015-12-06T07:31:37.000Z</time>
      </trkpt>
      <trkpt lat="45.6924" lon="4.72878">
        <ele>251.39999389648</ele>
        <time>2015-12-06T07:31:47.000Z</time>
      </trkpt>
      <trkpt lat="45.69227" lon="4.72898">
        <ele>253</ele>
        <time>2015-12-06T07:31:58.000Z</time>
      </trkpt>
      <trkpt lat="45.69225" lon="4.729">
        <ele>253.19999694824</ele>
        <time>2015-12-06T07:31:59.000Z</time>
      </trkpt>
      <trkpt lat="45.6921" lon="4.72917">
        <ele>253.19999694824</ele>
        <time>2015-12-06T07:32:09.000Z</time>
      </trkpt>
      <trkpt lat="45.69206" lon="4.72919">
        <ele>252.80000305176</ele>
        <time>2015-12-06T07:32:11.000Z</time>
      </trkpt>
      <trkpt lat="45.69193" lon="4.72931">
        <ele>251.80000305176</ele>
        <time>2015-12-06T07:32:19.000Z</time>
      </trkpt>
      <trkpt lat="45.69179" lon="4.72952">
        <ele>250.60000610352</ele>
        <time>2015-12-06T07:32:28.000Z</time>
      </trkpt>
      <trkpt lat="45.69171" lon="4.72976">
        <ele>248.60000610352</ele>
        <time>2015-12-06T07:32:36.000Z</time>
      </trkpt>
      <trkpt lat="45.69165" lon="4.73002">
        <ele>247.80000305176</ele>
        <time>2015-12-06T07:32:45.000Z</time>
      </trkpt>
      <trkpt lat="45.69159" lon="4.73028">
        <ele>247.60000610352</ele>
        <time>2015-12-06T07:32:54.000Z</time>
      </trkpt>
      <trkpt lat="45.6915" lon="4.73052">
        <ele>244.60000610352</ele>
        <time>2015-12-06T07:33:03.000Z</time>
      </trkpt>
      <trkpt lat="45.69146" lon="4.73077">
        <ele>242.80000305176</ele>
        <time>2015-12-06T07:33:12.000Z</time>
      </trkpt>
      <trkpt lat="45.69146" lon="4.7308">
        <ele>242.80000305176</ele>
        <time>2015-12-06T07:33:13.000Z</time>
      </trkpt>
      <trkpt lat="45.69157" lon="4.73101">
        <ele>243.60000610352</ele>
        <time>2015-12-06T07:33:22.000Z</time>
      </trkpt>
      <trkpt lat="45.69169" lon="4.73121">
        <ele>244.80000305176</ele>
        <time>2015-12-06T07:33:31.000Z</time>
      </trkpt>
      <trkpt lat="45.69182" lon="4.73141">
        <ele>246.60000610352</ele>
        <time>2015-12-06T07:33:40.000Z</time>
      </trkpt>
      <trkpt lat="45.69191" lon="4.73164">
        <ele>247.19999694824</ele>
        <time>2015-12-06T07:33:49.000Z</time>
      </trkpt>
      <trkpt lat="45.692" lon="4.73189">
        <ele>247.60000610352</ele>
        <time>2015-12-06T07:33:58.000Z</time>
      </trkpt>
      <trkpt lat="45.69211" lon="4.73213">
        <ele>247.39999389648</ele>
        <time>2015-12-06T07:34:07.000Z</time>
      </trkpt>
      <trkpt lat="45.69217" lon="4.73229">
        <ele>246.60000610352</ele>
        <time>2015-12-06T07:34:13.000Z</time>
      </trkpt>
      <trkpt lat="45.69225" lon="4.73255">
        <ele>245</ele>
        <time>2015-12-06T07:34:22.000Z</time>
      </trkpt>
      <trkpt lat="45.69225" lon="4.73262">
        <ele>244</ele>
        <time>2015-12-06T07:34:24.000Z</time>
      </trkpt>
      <trkpt lat="45.69224" lon="4.7329">
        <ele>239.60000610352</ele>
        <time>2015-12-06T07:34:32.000Z</time>
      </trkpt>
      <trkpt lat="45.69218" lon="4.73316">
        <ele>235.60000610352</ele>
        <time>2015-12-06T07:34:41.000Z</time>
      </trkpt>
      <trkpt lat="45.6921" lon="4.7333">
        <ele>232.80000305176</ele>
        <time>2015-12-06T07:34:47.000Z</time>
      </trkpt>
      <trkpt lat="45.69205" lon="4.73355">
        <ele>229.39999389648</ele>
        <time>2015-12-06T07:34:55.000Z</time>
      </trkpt>
      <trkpt lat="45.692" lon="4.73379">
        <ele>228.80000305176</ele>
        <time>2015-12-06T07:35:06.000Z</time>
      </trkpt>
      <trkpt lat="45.69196" lon="4.73403">
        <ele>228.60000610352</ele>
        <time>2015-12-06T07:35:20.000Z</time>
      </trkpt>
      <trkpt lat="45.69193" lon="4.73428">
        <ele>228.39999389648</ele>
        <time>2015-12-06T07:35:39.000Z</time>
      </trkpt>
      <trkpt lat="45.69189" lon="4.73441">
        <ele>228.19999694824</ele>
        <time>2015-12-06T07:35:48.000Z</time>
      </trkpt>
      <trkpt lat="45.69185" lon="4.73447">
        <ele>227.80000305176</ele>
        <time>2015-12-06T07:35:53.000Z</time>
      </trkpt>
      <trkpt lat="45.69171" lon="4.73465">
        <ele>228.19999694824</ele>
        <time>2015-12-06T07:36:06.000Z</time>
      </trkpt>
      <trkpt lat="45.69156" lon="4.73483">
        <ele>229</ele>
        <time>2015-12-06T07:36:21.000Z</time>
      </trkpt>
      <trkpt lat="45.69144" lon="4.73503">
        <ele>229.19999694824</ele>
        <time>2015-12-06T07:36:34.000Z</time>
      </trkpt>
      <trkpt lat="45.69137" lon="4.73515">
        <ele>229.39999389648</ele>
        <time>2015-12-06T07:36:41.000Z</time>
      </trkpt>
      <trkpt lat="45.69132" lon="4.73522">
        <ele>229.80000305176</ele>
        <time>2015-12-06T07:36:45.000Z</time>
      </trkpt>
      <trkpt lat="45.69129" lon="4.73533">
        <ele>230.39999389648</ele>
        <time>2015-12-06T07:36:51.000Z</time>
      </trkpt>
      <trkpt lat="45.69126" lon="4.73536">
        <ele>230.19999694824</ele>
        <time>2015-12-06T07:36:55.000Z</time>
      </trkpt>
      <trkpt lat="45.69121" lon="4.73543">
        <ele>230.60000610352</ele>
        <time>2015-12-06T07:37:01.000Z</time>
      </trkpt>
      <trkpt lat="45.69117" lon="4.73554">
        <ele>231.60000610352</ele>
        <time>2015-12-06T07:37:08.000Z</time>
      </trkpt>
      <trkpt lat="45.69106" lon="4.73576">
        <ele>233.39999389648</ele>
        <time>2015-12-06T07:37:21.000Z</time>
      </trkpt>
      <trkpt lat="45.69104" lon="4.73585">
        <ele>234.39999389648</ele>
        <time>2015-12-06T07:37:26.000Z</time>
      </trkpt>
      <trkpt lat="45.69103" lon="4.73606">
        <ele>234.80000305176</ele>
        <time>2015-12-06T07:37:38.000Z</time>
      </trkpt>
      <trkpt lat="45.691" lon="4.73632">
        <ele>236.39999389648</ele>
        <time>2015-12-06T07:37:52.000Z</time>
      </trkpt>
      <trkpt lat="45.69092" lon="4.73655">
        <ele>238.80000305176</ele>
        <time>2015-12-06T07:38:07.000Z</time>
      </trkpt>
      <trkpt lat="45.69089" lon="4.73661">
        <ele>238.80000305176</ele>
        <time>2015-12-06T07:38:12.000Z</time>
      </trkpt>
      <trkpt lat="45.69088" lon="4.73662">
        <ele>238.60000610352</ele>
        <time>2015-12-06T07:38:13.000Z</time>
      </trkpt>
      <trkpt lat="45.69083" lon="4.73671">
        <ele>238.19999694824</ele>
        <time>2015-12-06T07:38:19.000Z</time>
      </trkpt>
      <trkpt lat="45.69074" lon="4.73693">
        <ele>237.39999389648</ele>
        <time>2015-12-06T07:38:33.000Z</time>
      </trkpt>
      <trkpt lat="45.69064" lon="4.73716">
        <ele>237.80000305176</ele>
        <time>2015-12-06T07:38:46.000Z</time>
      </trkpt>
      <trkpt lat="45.69057" lon="4.7374">
        <ele>238.39999389648</ele>
        <time>2015-12-06T07:39:00.000Z</time>
      </trkpt>
      <trkpt lat="45.69055" lon="4.73767">
        <ele>241</ele>
        <time>2015-12-06T07:39:15.000Z</time>
      </trkpt>
      <trkpt lat="45.69055" lon="4.73782">
        <ele>243</ele>
        <time>2015-12-06T07:39:23.000Z</time>
      </trkpt>
      <trkpt lat="45.69054" lon="4.7381">
        <ele>243</ele>
        <time>2015-12-06T07:39:38.000Z</time>
      </trkpt>
      <trkpt lat="45.69055" lon="4.73821">
        <ele>243.19999694824</ele>
        <time>2015-12-06T07:39:44.000Z</time>
      </trkpt>
      <trkpt lat="45.69057" lon="4.73835">
        <ele>243.39999389648</ele>
        <time>2015-12-06T07:39:53.000Z</time>
      </trkpt>
      <trkpt lat="45.69053" lon="4.73861">
        <ele>242.19999694824</ele>
        <time>2015-12-06T07:40:09.000Z</time>
      </trkpt>
      <trkpt lat="45.69048" lon="4.73886">
        <ele>242</ele>
        <time>2015-12-06T07:40:23.000Z</time>
      </trkpt>
      <trkpt lat="45.69041" lon="4.73911">
        <ele>242.60000610352</ele>
        <time>2015-12-06T07:40:37.000Z</time>
      </trkpt>
      <trkpt lat="45.69036" lon="4.73935">
        <ele>243.19999694824</ele>
        <time>2015-12-06T07:40:49.000Z</time>
      </trkpt>
      <trkpt lat="45.6903" lon="4.73961">
        <ele>243.19999694824</ele>
        <time>2015-12-06T07:41:03.000Z</time>
      </trkpt>
      <trkpt lat="45.69026" lon="4.73972">
        <ele>244</ele>
        <time>2015-12-06T07:41:10.000Z</time>
      </trkpt>
      <trkpt lat="45.69022" lon="4.73976">
        <ele>243.39999389648</ele>
        <time>2015-12-06T07:41:14.000Z</time>
      </trkpt>
      <trkpt lat="45.69008" lon="4.73996">
        <ele>242.39999389648</ele>
        <time>2015-12-06T07:41:27.000Z</time>
      </trkpt>
      <trkpt lat="45.68999" lon="4.74018">
        <ele>240.60000610352</ele>
        <time>2015-12-06T07:41:36.000Z</time>
      </trkpt>
      <trkpt lat="45.68989" lon="4.74041">
        <ele>239</ele>
        <time>2015-12-06T07:41:45.000Z</time>
      </trkpt>
      <trkpt lat="45.68982" lon="4.74064">
        <ele>238.39999389648</ele>
        <time>2015-12-06T07:41:54.000Z</time>
      </trkpt>
      <trkpt lat="45.68972" lon="4.74087">
        <ele>236.80000305176</ele>
        <time>2015-12-06T07:42:03.000Z</time>
      </trkpt>
      <trkpt lat="45.68963" lon="4.74109">
        <ele>237</ele>
        <time>2015-12-06T07:42:12.000Z</time>
      </trkpt>
      <trkpt lat="45.68952" lon="4.74132">
        <ele>237.60000610352</ele>
        <time>2015-12-06T07:42:22.000Z</time>
      </trkpt>
      <trkpt lat="45.6894" lon="4.74154">
        <ele>239.80000305176</ele>
        <time>2015-12-06T07:42:32.000Z</time>
      </trkpt>
      <trkpt lat="45.68936" lon="4.74163">
        <ele>240.60000610352</ele>
        <time>2015-12-06T07:42:37.000Z</time>
      </trkpt>
      <trkpt lat="45.68935" lon="4.74157">
        <ele>239.19999694824</ele>
        <time>2015-12-06T07:42:42.000Z</time>
      </trkpt>
      <trkpt lat="45.68923" lon="4.74145">
        <ele>234.39999389648</ele>
        <time>2015-12-06T07:43:20.000Z</time>
      </trkpt>
      <trkpt lat="45.68913" lon="4.74145">
        <ele>232.39999389648</ele>
        <time>2015-12-06T07:43:34.000Z</time>
      </trkpt>
      <trkpt lat="45.68918" lon="4.74168">
        <ele>236.60000610352</ele>
        <time>2015-12-06T07:43:57.000Z</time>
      </trkpt>
      <trkpt lat="45.68908" lon="4.7419">
        <ele>235.80000305176</ele>
        <time>2015-12-06T07:44:08.000Z</time>
      </trkpt>
      <trkpt lat="45.689" lon="4.74215">
        <ele>236.80000305176</ele>
        <time>2015-12-06T07:44:18.000Z</time>
      </trkpt>
      <trkpt lat="45.68894" lon="4.74238">
        <ele>238.19999694824</ele>
        <time>2015-12-06T07:44:27.000Z</time>
      </trkpt>
      <trkpt lat="45.68888" lon="4.74265">
        <ele>239.39999389648</ele>
        <time>2015-12-06T07:44:36.000Z</time>
      </trkpt>
      <trkpt lat="45.68883" lon="4.74292">
        <ele>241.39999389648</ele>
        <time>2015-12-06T07:44:45.000Z</time>
      </trkpt>
      <trkpt lat="45.68875" lon="4.74315">
        <ele>241</ele>
        <time>2015-12-06T07:44:54.000Z</time>
      </trkpt>
      <trkpt lat="45.68869" lon="4.74339">
        <ele>241.19999694824</ele>
        <time>2015-12-06T07:45:02.000Z</time>
      </trkpt>
      <trkpt lat="45.68859" lon="4.74361">
        <ele>239</ele>
        <time>2015-12-06T07:45:11.000Z</time>
      </trkpt>
      <trkpt lat="45.68846" lon="4.74382">
        <ele>234.60000610352</ele>
        <time>2015-12-06T07:45:19.000Z</time>
      </trkpt>
      <trkpt lat="45.68833" lon="4.74402">
        <ele>230</ele>
        <time>2015-12-06T07:45:26.000Z</time>
      </trkpt>
      <trkpt lat="45.68823" lon="4.74427">
        <ele>228</ele>
        <time>2015-12-06T07:45:35.000Z</time>
      </trkpt>
      <trkpt lat="45.68819" lon="4.74454">
        <ele>227.80000305176</ele>
        <time>2015-12-06T07:45:44.000Z</time>
      </trkpt>
      <trkpt lat="45.68818" lon="4.74475">
        <ele>228.19999694824</ele>
        <time>2015-12-06T07:45:51.000Z</time>
      </trkpt>
      <trkpt lat="45.68819" lon="4.74504">
        <ele>230.39999389648</ele>
        <time>2015-12-06T07:46:00.000Z</time>
      </trkpt>
      <trkpt lat="45.6882" lon="4.74531">
        <ele>232.19999694824</ele>
        <time>2015-12-06T07:46:09.000Z</time>
      </trkpt>
      <trkpt lat="45.68817" lon="4.74557">
        <ele>233.19999694824</ele>
        <time>2015-12-06T07:46:18.000Z</time>
      </trkpt>
      <trkpt lat="45.68809" lon="4.74581">
        <ele>231.60000610352</ele>
        <time>2015-12-06T07:46:27.000Z</time>
      </trkpt>
      <trkpt lat="45.68801" lon="4.74605">
        <ele>230</ele>
        <time>2015-12-06T07:46:37.000Z</time>
      </trkpt>
      <trkpt lat="45.68791" lon="4.74629">
        <ele>230</ele>
        <time>2015-12-06T07:46:48.000Z</time>
      </trkpt>
      <trkpt lat="45.68778" lon="4.74643">
        <ele>229.60000610352</ele>
        <time>2015-12-06T07:46:59.000Z</time>
      </trkpt>
      <trkpt lat="45.68795" lon="4.74656">
        <ele>234.39999389648</ele>
        <time>2015-12-06T07:47:20.000Z</time>
      </trkpt>
      <trkpt lat="45.68812" lon="4.74661">
        <ele>238.80000305176</ele>
        <time>2015-12-06T07:47:41.000Z</time>
      </trkpt>
      <trkpt lat="45.68831" lon="4.74661">
        <ele>243</ele>
        <time>2015-12-06T07:48:03.000Z</time>
      </trkpt>
      <trkpt lat="45.68849" lon="4.74656">
        <ele>247.19999694824</ele>
        <time>2015-12-06T07:48:27.000Z</time>
      </trkpt>
      <trkpt lat="45.68866" lon="4.7465">
        <ele>252.39999389648</ele>
        <time>2015-12-06T07:48:47.000Z</time>
      </trkpt>
      <trkpt lat="45.6887" lon="4.74651">
        <ele>253.80000305176</ele>
        <time>2015-12-06T07:48:52.000Z</time>
      </trkpt>
      <trkpt lat="45.68888" lon="4.74658">
        <ele>259.60000610352</ele>
        <time>2015-12-06T07:49:08.000Z</time>
      </trkpt>
      <trkpt lat="45.68906" lon="4.74662">
        <ele>262.20001220703</ele>
        <time>2015-12-06T07:49:28.000Z</time>
      </trkpt>
      <trkpt lat="45.68924" lon="4.74668">
        <ele>265.20001220703</ele>
        <time>2015-12-06T07:49:47.000Z</time>
      </trkpt>
      <trkpt lat="45.68939" lon="4.74677">
        <ele>268</ele>
        <time>2015-12-06T07:50:05.000Z</time>
      </trkpt>
      <trkpt lat="45.68954" lon="4.74682">
        <ele>270.60000610352</ele>
        <time>2015-12-06T07:50:21.000Z</time>
      </trkpt>
      <trkpt lat="45.68963" lon="4.74684">
        <ele>272.39999389648</ele>
        <time>2015-12-06T07:50:38.000Z</time>
      </trkpt>
      <trkpt lat="45.6898" lon="4.74694">
        <ele>274.60000610352</ele>
        <time>2015-12-06T07:50:59.000Z</time>
      </trkpt>
      <trkpt lat="45.68997" lon="4.74698">
        <ele>276.20001220703</ele>
        <time>2015-12-06T07:51:26.000Z</time>
      </trkpt>
      <trkpt lat="45.69015" lon="4.74704">
        <ele>277.79998779297</ele>
        <time>2015-12-06T07:51:42.000Z</time>
      </trkpt>
      <trkpt lat="45.69033" lon="4.7471">
        <ele>279.60000610352</ele>
        <time>2015-12-06T07:51:59.000Z</time>
      </trkpt>
      <trkpt lat="45.69051" lon="4.74713">
        <ele>281.20001220703</ele>
        <time>2015-12-06T07:52:21.000Z</time>
      </trkpt>
      <trkpt lat="45.69067" lon="4.74701">
        <ele>281.79998779297</ele>
        <time>2015-12-06T07:52:44.000Z</time>
      </trkpt>
      <trkpt lat="45.69079" lon="4.74679">
        <ele>282</ele>
        <time>2015-12-06T07:53:02.000Z</time>
      </trkpt>
      <trkpt lat="45.69084" lon="4.74672">
        <ele>282</ele>
        <time>2015-12-06T07:53:08.000Z</time>
      </trkpt>
      <trkpt lat="45.69101" lon="4.74666">
        <ele>283</ele>
        <time>2015-12-06T07:53:22.000Z</time>
      </trkpt>
      <trkpt lat="45.6912" lon="4.74661">
        <ele>284.79998779297</ele>
        <time>2015-12-06T07:53:37.000Z</time>
      </trkpt>
      <trkpt lat="45.69137" lon="4.74658">
        <ele>286.39999389648</ele>
        <time>2015-12-06T07:53:52.000Z</time>
      </trkpt>
      <trkpt lat="45.69156" lon="4.74656">
        <ele>287.39999389648</ele>
        <time>2015-12-06T07:54:08.000Z</time>
      </trkpt>
      <trkpt lat="45.69174" lon="4.74653">
        <ele>288.39999389648</ele>
        <time>2015-12-06T07:54:25.000Z</time>
      </trkpt>
      <trkpt lat="45.69192" lon="4.74652">
        <ele>290</ele>
        <time>2015-12-06T07:54:35.000Z</time>
      </trkpt>
      <trkpt lat="45.69212" lon="4.74655">
        <ele>291.39999389648</ele>
        <time>2015-12-06T07:54:44.000Z</time>
      </trkpt>
      <trkpt lat="45.69231" lon="4.74658">
        <ele>292.20001220703</ele>
        <time>2015-12-06T07:54:53.000Z</time>
      </trkpt>
      <trkpt lat="45.6925" lon="4.74663">
        <ele>292.39999389648</ele>
        <time>2015-12-06T07:55:02.000Z</time>
      </trkpt>
      <trkpt lat="45.69269" lon="4.74666">
        <ele>292.39999389648</ele>
        <time>2015-12-06T07:55:11.000Z</time>
      </trkpt>
      <trkpt lat="45.69287" lon="4.74671">
        <ele>292.20001220703</ele>
        <time>2015-12-06T07:55:20.000Z</time>
      </trkpt>
      <trkpt lat="45.69305" lon="4.74671">
        <ele>292</ele>
        <time>2015-12-06T07:55:29.000Z</time>
      </trkpt>
      <trkpt lat="45.69324" lon="4.74673">
        <ele>292.20001220703</ele>
        <time>2015-12-06T07:55:38.000Z</time>
      </trkpt>
      <trkpt lat="45.69342" lon="4.74677">
        <ele>292.39999389648</ele>
        <time>2015-12-06T07:55:47.000Z</time>
      </trkpt>
      <trkpt lat="45.69361" lon="4.74681">
        <ele>292.60000610352</ele>
        <time>2015-12-06T07:55:57.000Z</time>
      </trkpt>
      <trkpt lat="45.69381" lon="4.74684">
        <ele>293.20001220703</ele>
        <time>2015-12-06T07:56:07.000Z</time>
      </trkpt>
      <trkpt lat="45.69399" lon="4.74685">
        <ele>293.39999389648</ele>
        <time>2015-12-06T07:56:16.000Z</time>
      </trkpt>
      <trkpt lat="45.69419" lon="4.74681">
        <ele>293.60000610352</ele>
        <time>2015-12-06T07:56:26.000Z</time>
      </trkpt>
      <trkpt lat="45.69438" lon="4.74676">
        <ele>293.60000610352</ele>
        <time>2015-12-06T07:56:36.000Z</time>
      </trkpt>
      <trkpt lat="45.69456" lon="4.74672">
        <ele>294</ele>
        <time>2015-12-06T07:56:45.000Z</time>
      </trkpt>
      <trkpt lat="45.69475" lon="4.74668">
        <ele>294.39999389648</ele>
        <time>2015-12-06T07:56:55.000Z</time>
      </trkpt>
      <trkpt lat="45.69494" lon="4.74664">
        <ele>294.79998779297</ele>
        <time>2015-12-06T07:57:05.000Z</time>
      </trkpt>
      <trkpt lat="45.69512" lon="4.7466">
        <ele>295.20001220703</ele>
        <time>2015-12-06T07:57:14.000Z</time>
      </trkpt>
      <trkpt lat="45.69529" lon="4.74654">
        <ele>295.79998779297</ele>
        <time>2015-12-06T07:57:23.000Z</time>
      </trkpt>
      <trkpt lat="45.69547" lon="4.74649">
        <ele>296.39999389648</ele>
        <time>2015-12-06T07:57:32.000Z</time>
      </trkpt>
      <trkpt lat="45.69564" lon="4.74642">
        <ele>297.39999389648</ele>
        <time>2015-12-06T07:57:41.000Z</time>
      </trkpt>
      <trkpt lat="45.69583" lon="4.74633">
        <ele>298</ele>
        <time>2015-12-06T07:57:51.000Z</time>
      </trkpt>
      <trkpt lat="45.69601" lon="4.74627">
        <ele>298.39999389648</ele>
        <time>2015-12-06T07:58:00.000Z</time>
      </trkpt>
      <trkpt lat="45.69619" lon="4.74619">
        <ele>298.79998779297</ele>
        <time>2015-12-06T07:58:09.000Z</time>
      </trkpt>
      <trkpt lat="45.69637" lon="4.74612">
        <ele>299.39999389648</ele>
        <time>2015-12-06T07:58:18.000Z</time>
      </trkpt>
      <trkpt lat="45.69654" lon="4.74602">
        <ele>300.20001220703</ele>
        <time>2015-12-06T07:58:27.000Z</time>
      </trkpt>
      <trkpt lat="45.69672" lon="4.74595">
        <ele>301</ele>
        <time>2015-12-06T07:58:37.000Z</time>
      </trkpt>
      <trkpt lat="45.6969" lon="4.74584">
        <ele>301.79998779297</ele>
        <time>2015-12-06T07:58:47.000Z</time>
      </trkpt>
      <trkpt lat="45.69708" lon="4.74577">
        <ele>302</ele>
        <time>2015-12-06T07:58:56.000Z</time>
      </trkpt>
      <trkpt lat="45.69726" lon="4.74579">
        <ele>302.20001220703</ele>
        <time>2015-12-06T07:59:05.000Z</time>
      </trkpt>
      <trkpt lat="45.69745" lon="4.74578">
        <ele>303</ele>
        <time>2015-12-06T07:59:14.000Z</time>
      </trkpt>
      <trkpt lat="45.69763" lon="4.74576">
        <ele>303.60000610352</ele>
        <time>2015-12-06T07:59:24.000Z</time>
      </trkpt>
      <trkpt lat="45.69783" lon="4.74579">
        <ele>304.20001220703</ele>
        <time>2015-12-06T07:59:33.000Z</time>
      </trkpt>
      <trkpt lat="45.698" lon="4.74586">
        <ele>304.79998779297</ele>
        <time>2015-12-06T07:59:41.000Z</time>
      </trkpt>
      <trkpt lat="45.69819" lon="4.74598">
        <ele>305</ele>
        <time>2015-12-06T07:59:50.000Z</time>
      </trkpt>
      <trkpt lat="45.69834" lon="4.74615">
        <ele>304.79998779297</ele>
        <time>2015-12-06T07:59:59.000Z</time>
      </trkpt>
      <trkpt lat="45.69847" lon="4.74633">
        <ele>305</ele>
        <time>2015-12-06T08:00:08.000Z</time>
      </trkpt>
      <trkpt lat="45.69861" lon="4.74652">
        <ele>305.39999389648</ele>
        <time>2015-12-06T08:00:18.000Z</time>
      </trkpt>
      <trkpt lat="45.69875" lon="4.74669">
        <ele>305.79998779297</ele>
        <time>2015-12-06T08:00:27.000Z</time>
      </trkpt>
      <trkpt lat="45.69886" lon="4.7469">
        <ele>306</ele>
        <time>2015-12-06T08:00:36.000Z</time>
      </trkpt>
      <trkpt lat="45.69897" lon="4.74711">
        <ele>306</ele>
        <time>2015-12-06T08:00:45.000Z</time>
      </trkpt>
      <trkpt lat="45.6991" lon="4.74731">
        <ele>305.60000610352</ele>
        <time>2015-12-06T08:00:54.000Z</time>
      </trkpt>
      <trkpt lat="45.69913" lon="4.74735">
        <ele>305.60000610352</ele>
        <time>2015-12-06T08:00:56.000Z</time>
      </trkpt>
      <trkpt lat="45.69921" lon="4.7474">
        <ele>305.60000610352</ele>
        <time>2015-12-06T08:01:00.000Z</time>
      </trkpt>
      <trkpt lat="45.69941" lon="4.74736">
        <ele>306.20001220703</ele>
        <time>2015-12-06T08:01:09.000Z</time>
      </trkpt>
      <trkpt lat="45.69959" lon="4.74725">
        <ele>307</ele>
        <time>2015-12-06T08:01:18.000Z</time>
      </trkpt>
      <trkpt lat="45.69977" lon="4.74716">
        <ele>307.79998779297</ele>
        <time>2015-12-06T08:01:27.000Z</time>
      </trkpt>
      <trkpt lat="45.69995" lon="4.74707">
        <ele>309</ele>
        <time>2015-12-06T08:01:36.000Z</time>
      </trkpt>
      <trkpt lat="45.70012" lon="4.74697">
        <ele>310</ele>
        <time>2015-12-06T08:01:45.000Z</time>
      </trkpt>
      <trkpt lat="45.70029" lon="4.74688">
        <ele>310.79998779297</ele>
        <time>2015-12-06T08:01:54.000Z</time>
      </trkpt>
      <trkpt lat="45.70048" lon="4.74677">
        <ele>312</ele>
        <time>2015-12-06T08:02:04.000Z</time>
      </trkpt>
      <trkpt lat="45.70065" lon="4.74664">
        <ele>312.39999389648</ele>
        <time>2015-12-06T08:02:14.000Z</time>
      </trkpt>
      <trkpt lat="45.70082" lon="4.74651">
        <ele>312.20001220703</ele>
        <time>2015-12-06T08:02:24.000Z</time>
      </trkpt>
      <trkpt lat="45.70099" lon="4.74637">
        <ele>313.39999389648</ele>
        <time>2015-12-06T08:02:34.000Z</time>
      </trkpt>
      <trkpt lat="45.70115" lon="4.74623">
        <ele>314.39999389648</ele>
        <time>2015-12-06T08:02:44.000Z</time>
      </trkpt>
      <trkpt lat="45.70133" lon="4.74616">
        <ele>314.79998779297</ele>
        <time>2015-12-06T08:02:53.000Z</time>
      </trkpt>
      <trkpt lat="45.70152" lon="4.74611">
        <ele>315</ele>
        <time>2015-12-06T08:03:02.000Z</time>
      </trkpt>
      <trkpt lat="45.70171" lon="4.74607">
        <ele>314.79998779297</ele>
        <time>2015-12-06T08:03:11.000Z</time>
      </trkpt>
      <trkpt lat="45.70189" lon="4.74603">
        <ele>314.60000610352</ele>
        <time>2015-12-06T08:03:20.000Z</time>
      </trkpt>
      <trkpt lat="45.70207" lon="4.74599">
        <ele>314.39999389648</ele>
        <time>2015-12-06T08:03:28.000Z</time>
      </trkpt>
      <trkpt lat="45.70227" lon="4.74594">
        <ele>314</ele>
        <time>2015-12-06T08:03:37.000Z</time>
      </trkpt>
      <trkpt lat="45.70247" lon="4.7459">
        <ele>313.60000610352</ele>
        <time>2015-12-06T08:03:46.000Z</time>
      </trkpt>
      <trkpt lat="45.70265" lon="4.74587">
        <ele>313.39999389648</ele>
        <time>2015-12-06T08:03:54.000Z</time>
      </trkpt>
      <trkpt lat="45.70285" lon="4.74586">
        <ele>313.20001220703</ele>
        <time>2015-12-06T08:04:02.000Z</time>
      </trkpt>
      <trkpt lat="45.70304" lon="4.74584">
        <ele>313</ele>
        <time>2015-12-06T08:04:10.000Z</time>
      </trkpt>
      <trkpt lat="45.70323" lon="4.74584">
        <ele>312.79998779297</ele>
        <time>2015-12-06T08:04:18.000Z</time>
      </trkpt>
      <trkpt lat="45.70342" lon="4.74583">
        <ele>312.60000610352</ele>
        <time>2015-12-06T08:04:26.000Z</time>
      </trkpt>
      <trkpt lat="45.70361" lon="4.74582">
        <ele>312.39999389648</ele>
        <time>2015-12-06T08:04:35.000Z</time>
      </trkpt>
      <trkpt lat="45.70379" lon="4.7458">
        <ele>312.39999389648</ele>
        <time>2015-12-06T08:04:43.000Z</time>
      </trkpt>
      <trkpt lat="45.70398" lon="4.74582">
        <ele>312.39999389648</ele>
        <time>2015-12-06T08:04:50.000Z</time>
      </trkpt>
      <trkpt lat="45.70417" lon="4.7458">
        <ele>312.20001220703</ele>
        <time>2015-12-06T08:04:57.000Z</time>
      </trkpt>
      <trkpt lat="45.70437" lon="4.74581">
        <ele>311.79998779297</ele>
        <time>2015-12-06T08:05:05.000Z</time>
      </trkpt>
      <trkpt lat="45.70456" lon="4.74588">
        <ele>311.20001220703</ele>
        <time>2015-12-06T08:05:14.000Z</time>
      </trkpt>
      <trkpt lat="45.70473" lon="4.74594">
        <ele>310.60000610352</ele>
        <time>2015-12-06T08:05:22.000Z</time>
      </trkpt>
      <trkpt lat="45.7049" lon="4.74603">
        <ele>310</ele>
        <time>2015-12-06T08:05:30.000Z</time>
      </trkpt>
      <trkpt lat="45.70508" lon="4.7461">
        <ele>309.39999389648</ele>
        <time>2015-12-06T08:05:38.000Z</time>
      </trkpt>
      <trkpt lat="45.70527" lon="4.7462">
        <ele>309</ele>
        <time>2015-12-06T08:05:47.000Z</time>
      </trkpt>
      <trkpt lat="45.70544" lon="4.74631">
        <ele>308.20001220703</ele>
        <time>2015-12-06T08:05:56.000Z</time>
      </trkpt>
      <trkpt lat="45.70545" lon="4.74633">
        <ele>308.20001220703</ele>
        <time>2015-12-06T08:05:57.000Z</time>
      </trkpt>
      <trkpt lat="45.70546" lon="4.74639">
        <ele>308</ele>
        <time>2015-12-06T08:05:59.000Z</time>
      </trkpt>
      <trkpt lat="45.70543" lon="4.74666">
        <ele>307.79998779297</ele>
        <time>2015-12-06T08:06:07.000Z</time>
      </trkpt>
      <trkpt lat="45.70546" lon="4.74692">
        <ele>307.39999389648</ele>
        <time>2015-12-06T08:06:15.000Z</time>
      </trkpt>
      <trkpt lat="45.70549" lon="4.7472">
        <ele>306</ele>
        <time>2015-12-06T08:06:23.000Z</time>
      </trkpt>
      <trkpt lat="45.70554" lon="4.74748">
        <ele>304.39999389648</ele>
        <time>2015-12-06T08:06:31.000Z</time>
      </trkpt>
      <trkpt lat="45.70556" lon="4.74775">
        <ele>302.79998779297</ele>
        <time>2015-12-06T08:06:38.000Z</time>
      </trkpt>
      <trkpt lat="45.70559" lon="4.74801">
        <ele>301.39999389648</ele>
        <time>2015-12-06T08:06:45.000Z</time>
      </trkpt>
      <trkpt lat="45.70562" lon="4.74827">
        <ele>300.39999389648</ele>
        <time>2015-12-06T08:06:52.000Z</time>
      </trkpt>
      <trkpt lat="45.70569" lon="4.74853">
        <ele>299.39999389648</ele>
        <time>2015-12-06T08:07:00.000Z</time>
      </trkpt>
      <trkpt lat="45.70585" lon="4.74869">
        <ele>298.60000610352</ele>
        <time>2015-12-06T08:07:08.000Z</time>
      </trkpt>
      <trkpt lat="45.70603" lon="4.7488">
        <ele>297.60000610352</ele>
        <time>2015-12-06T08:07:16.000Z</time>
      </trkpt>
      <trkpt lat="45.70622" lon="4.74889">
        <ele>296.60000610352</ele>
        <time>2015-12-06T08:07:24.000Z</time>
      </trkpt>
      <trkpt lat="45.70641" lon="4.74891">
        <ele>296.20001220703</ele>
        <time>2015-12-06T08:07:32.000Z</time>
      </trkpt>
      <trkpt lat="45.7066" lon="4.74892">
        <ele>295.60000610352</ele>
        <time>2015-12-06T08:07:40.000Z</time>
      </trkpt>
      <trkpt lat="45.70678" lon="4.74898">
        <ele>294.60000610352</ele>
        <time>2015-12-06T08:07:48.000Z</time>
      </trkpt>
      <trkpt lat="45.70693" lon="4.74907">
        <ele>293.39999389648</ele>
        <time>2015-12-06T08:07:55.000Z</time>
      </trkpt>
      <trkpt lat="45.70701" lon="4.74902">
        <ele>293.39999389648</ele>
        <time>2015-12-06T08:07:59.000Z</time>
      </trkpt>
      <trkpt lat="45.70718" lon="4.74887">
        <ele>294</ele>
        <time>2015-12-06T08:08:07.000Z</time>
      </trkpt>
      <trkpt lat="45.70736" lon="4.7488">
        <ele>294.60000610352</ele>
        <time>2015-12-06T08:08:15.000Z</time>
      </trkpt>
      <trkpt lat="45.70753" lon="4.7487">
        <ele>295</ele>
        <time>2015-12-06T08:08:24.000Z</time>
      </trkpt>
      <trkpt lat="45.70766" lon="4.74852">
        <ele>296.20001220703</ele>
        <time>2015-12-06T08:08:32.000Z</time>
      </trkpt>
      <trkpt lat="45.70782" lon="4.74837">
        <ele>296.79998779297</ele>
        <time>2015-12-06T08:08:40.000Z</time>
      </trkpt>
      <trkpt lat="45.70799" lon="4.74826">
        <ele>296.79998779297</ele>
        <time>2015-12-06T08:08:47.000Z</time>
      </trkpt>
      <trkpt lat="45.70811" lon="4.74827">
        <ele>296.60000610352</ele>
        <time>2015-12-06T08:08:54.000Z</time>
      </trkpt>
      <trkpt lat="45.70825" lon="4.74829">
        <ele>296.60000610352</ele>
        <time>2015-12-06T08:10:05.000Z</time>
      </trkpt>
      <trkpt lat="45.70838" lon="4.74821">
        <ele>296.79998779297</ele>
        <time>2015-12-06T08:11:14.000Z</time>
      </trkpt>
      <trkpt lat="45.70852" lon="4.7482">
        <ele>296.39999389648</ele>
        <time>2015-12-06T08:12:01.000Z</time>
      </trkpt>
      <trkpt lat="45.70859" lon="4.74814">
        <ele>296.39999389648</ele>
        <time>2015-12-06T08:12:06.000Z</time>
      </trkpt>
      <trkpt lat="45.70864" lon="4.74817">
        <ele>296.20001220703</ele>
        <time>2015-12-06T08:12:11.000Z</time>
      </trkpt>
      <trkpt lat="45.70882" lon="4.74813">
        <ele>295.79998779297</ele>
        <time>2015-12-06T08:12:28.000Z</time>
      </trkpt>
      <trkpt lat="45.70886" lon="4.74813">
        <ele>295.79998779297</ele>
        <time>2015-12-06T08:12:33.000Z</time>
      </trkpt>
      <trkpt lat="45.70888" lon="4.74813">
        <ele>295.79998779297</ele>
        <time>2015-12-06T08:12:35.000Z</time>
      </trkpt>
      <trkpt lat="45.70906" lon="4.7481">
        <ele>296.39999389648</ele>
        <time>2015-12-06T08:12:53.000Z</time>
      </trkpt>
      <trkpt lat="45.70925" lon="4.74808">
        <ele>297.39999389648</ele>
        <time>2015-12-06T08:13:06.000Z</time>
      </trkpt>
      <trkpt lat="45.70943" lon="4.74804">
        <ele>298.39999389648</ele>
        <time>2015-12-06T08:13:15.000Z</time>
      </trkpt>
      <trkpt lat="45.70962" lon="4.74809">
        <ele>299</ele>
        <time>2015-12-06T08:13:25.000Z</time>
      </trkpt>
      <trkpt lat="45.70979" lon="4.74821">
        <ele>299.39999389648</ele>
        <time>2015-12-06T08:13:35.000Z</time>
      </trkpt>
      <trkpt lat="45.70987" lon="4.74843">
        <ele>299</ele>
        <time>2015-12-06T08:13:44.000Z</time>
      </trkpt>
      <trkpt lat="45.70987" lon="4.74848">
        <ele>299</ele>
        <time>2015-12-06T08:13:46.000Z</time>
      </trkpt>
      <trkpt lat="45.70973" lon="4.74864">
        <ele>298.20001220703</ele>
        <time>2015-12-06T08:13:56.000Z</time>
      </trkpt>
      <trkpt lat="45.70956" lon="4.74873">
        <ele>297.60000610352</ele>
        <time>2015-12-06T08:14:05.000Z</time>
      </trkpt>
      <trkpt lat="45.70937" lon="4.74882">
        <ele>297.39999389648</ele>
        <time>2015-12-06T08:14:14.000Z</time>
      </trkpt>
      <trkpt lat="45.70919" lon="4.74888">
        <ele>297</ele>
        <time>2015-12-06T08:14:21.000Z</time>
      </trkpt>
      <trkpt lat="45.7091" lon="4.74891">
        <ele>296.79998779297</ele>
        <time>2015-12-06T08:14:25.000Z</time>
      </trkpt>
      <trkpt lat="45.70892" lon="4.74899">
        <ele>296.60000610352</ele>
        <time>2015-12-06T08:14:34.000Z</time>
      </trkpt>
      <trkpt lat="45.70874" lon="4.74908">
        <ele>296.79998779297</ele>
        <time>2015-12-06T08:14:43.000Z</time>
      </trkpt>
      <trkpt lat="45.70856" lon="4.74916">
        <ele>297.20001220703</ele>
        <time>2015-12-06T08:14:52.000Z</time>
      </trkpt>
      <trkpt lat="45.70838" lon="4.74925">
        <ele>296</ele>
        <time>2015-12-06T08:15:00.000Z</time>
      </trkpt>
      <trkpt lat="45.70819" lon="4.74934">
        <ele>294</ele>
        <time>2015-12-06T08:15:09.000Z</time>
      </trkpt>
      <trkpt lat="45.70804" lon="4.74949">
        <ele>292.20001220703</ele>
        <time>2015-12-06T08:15:18.000Z</time>
      </trkpt>
      <trkpt lat="45.70791" lon="4.74969">
        <ele>293.20001220703</ele>
        <time>2015-12-06T08:15:27.000Z</time>
      </trkpt>
      <trkpt lat="45.70779" lon="4.74992">
        <ele>295.20001220703</ele>
        <time>2015-12-06T08:15:37.000Z</time>
      </trkpt>
      <trkpt lat="45.70766" lon="4.7501">
        <ele>295.20001220703</ele>
        <time>2015-12-06T08:15:44.000Z</time>
      </trkpt>
      <trkpt lat="45.70761" lon="4.75035">
        <ele>293.39999389648</ele>
        <time>2015-12-06T08:15:52.000Z</time>
      </trkpt>
      <trkpt lat="45.70761" lon="4.75062">
        <ele>293</ele>
        <time>2015-12-06T08:16:01.000Z</time>
      </trkpt>
      <trkpt lat="45.70762" lon="4.75088">
        <ele>293</ele>
        <time>2015-12-06T08:16:10.000Z</time>
      </trkpt>
      <trkpt lat="45.70763" lon="4.75116">
        <ele>292.60000610352</ele>
        <time>2015-12-06T08:16:20.000Z</time>
      </trkpt>
      <trkpt lat="45.70747" lon="4.75125">
        <ele>289.60000610352</ele>
        <time>2015-12-06T08:16:29.000Z</time>
      </trkpt>
      <trkpt lat="45.70728" lon="4.7513">
        <ele>286.20001220703</ele>
        <time>2015-12-06T08:16:38.000Z</time>
      </trkpt>
      <trkpt lat="45.70708" lon="4.75135">
        <ele>285.79998779297</ele>
        <time>2015-12-06T08:16:46.000Z</time>
      </trkpt>
      <trkpt lat="45.7069" lon="4.75141">
        <ele>285.60000610352</ele>
        <time>2015-12-06T08:16:54.000Z</time>
      </trkpt>
      <trkpt lat="45.70682" lon="4.75145">
        <ele>285.60000610352</ele>
        <time>2015-12-06T08:16:58.000Z</time>
      </trkpt>
      <trkpt lat="45.70663" lon="4.75147">
        <ele>285.20001220703</ele>
        <time>2015-12-06T08:17:06.000Z</time>
      </trkpt>
      <trkpt lat="45.70645" lon="4.75146">
        <ele>284.20001220703</ele>
        <time>2015-12-06T08:17:13.000Z</time>
      </trkpt>
      <trkpt lat="45.7064" lon="4.75147">
        <ele>284</ele>
        <time>2015-12-06T08:17:15.000Z</time>
      </trkpt>
      <trkpt lat="45.70621" lon="4.75153">
        <ele>284</ele>
        <time>2015-12-06T08:17:24.000Z</time>
      </trkpt>
      <trkpt lat="45.70604" lon="4.75166">
        <ele>284.39999389648</ele>
        <time>2015-12-06T08:17:34.000Z</time>
      </trkpt>
      <trkpt lat="45.70596" lon="4.75176">
        <ele>283.79998779297</ele>
        <time>2015-12-06T08:17:39.000Z</time>
      </trkpt>
      <trkpt lat="45.70594" lon="4.75177">
        <ele>283.39999389648</ele>
        <time>2015-12-06T08:17:40.000Z</time>
      </trkpt>
      <trkpt lat="45.70588" lon="4.75182">
        <ele>282.79998779297</ele>
        <time>2015-12-06T08:17:43.000Z</time>
      </trkpt>
      <trkpt lat="45.7058" lon="4.75193">
        <ele>281.39999389648</ele>
        <time>2015-12-06T08:17:48.000Z</time>
      </trkpt>
      <trkpt lat="45.70566" lon="4.75213">
        <ele>280.39999389648</ele>
        <time>2015-12-06T08:17:57.000Z</time>
      </trkpt>
      <trkpt lat="45.70553" lon="4.75234">
        <ele>280.39999389648</ele>
        <time>2015-12-06T08:18:05.000Z</time>
      </trkpt>
      <trkpt lat="45.70541" lon="4.75254">
        <ele>282</ele>
        <time>2015-12-06T08:18:13.000Z</time>
      </trkpt>
      <trkpt lat="45.70539" lon="4.75256">
        <ele>282</ele>
        <time>2015-12-06T08:18:14.000Z</time>
      </trkpt>
      <trkpt lat="45.70527" lon="4.75276">
        <ele>281.60000610352</ele>
        <time>2015-12-06T08:18:21.000Z</time>
      </trkpt>
      <trkpt lat="45.70515" lon="4.75297">
        <ele>279.79998779297</ele>
        <time>2015-12-06T08:18:29.000Z</time>
      </trkpt>
      <trkpt lat="45.70504" lon="4.75321">
        <ele>279</ele>
        <time>2015-12-06T08:18:38.000Z</time>
      </trkpt>
      <trkpt lat="45.70491" lon="4.75341">
        <ele>277.60000610352</ele>
        <time>2015-12-06T08:18:46.000Z</time>
      </trkpt>
      <trkpt lat="45.70488" lon="4.75345">
        <ele>277.20001220703</ele>
        <time>2015-12-06T08:18:48.000Z</time>
      </trkpt>
      <trkpt lat="45.7048" lon="4.75352">
        <ele>276</ele>
        <time>2015-12-06T08:18:52.000Z</time>
      </trkpt>
      <trkpt lat="45.70462" lon="4.75363">
        <ele>274.60000610352</ele>
        <time>2015-12-06T08:18:59.000Z</time>
      </trkpt>
      <trkpt lat="45.70446" lon="4.75376">
        <ele>273.20001220703</ele>
        <time>2015-12-06T08:19:08.000Z</time>
      </trkpt>
      <trkpt lat="45.70434" lon="4.75396">
        <ele>273.39999389648</ele>
        <time>2015-12-06T08:19:17.000Z</time>
      </trkpt>
      <trkpt lat="45.70433" lon="4.75406">
        <ele>274</ele>
        <time>2015-12-06T08:19:21.000Z</time>
      </trkpt>
      <trkpt lat="45.70437" lon="4.75432">
        <ele>276.20001220703</ele>
        <time>2015-12-06T08:19:33.000Z</time>
      </trkpt>
      <trkpt lat="45.70443" lon="4.75457">
        <ele>278.60000610352</ele>
        <time>2015-12-06T08:19:48.000Z</time>
      </trkpt>
      <trkpt lat="45.70451" lon="4.75481">
        <ele>281</ele>
        <time>2015-12-06T08:20:11.000Z</time>
      </trkpt>
      <trkpt lat="45.70457" lon="4.75505">
        <ele>283.39999389648</ele>
        <time>2015-12-06T08:20:35.000Z</time>
      </trkpt>
      <trkpt lat="45.70474" lon="4.75513">
        <ele>285.39999389648</ele>
        <time>2015-12-06T08:20:52.000Z</time>
      </trkpt>
      <trkpt lat="45.70494" lon="4.75513">
        <ele>287.20001220703</ele>
        <time>2015-12-06T08:21:03.000Z</time>
      </trkpt>
      <trkpt lat="45.70513" lon="4.75513">
        <ele>289.20001220703</ele>
        <time>2015-12-06T08:21:13.000Z</time>
      </trkpt>
      <trkpt lat="45.70532" lon="4.75514">
        <ele>291</ele>
        <time>2015-12-06T08:21:23.000Z</time>
      </trkpt>
      <trkpt lat="45.7055" lon="4.75523">
        <ele>293.79998779297</ele>
        <time>2015-12-06T08:21:33.000Z</time>
      </trkpt>
      <trkpt lat="45.70563" lon="4.75543">
        <ele>295.60000610352</ele>
        <time>2015-12-06T08:21:43.000Z</time>
      </trkpt>
      <trkpt lat="45.70572" lon="4.75565">
        <ele>297.39999389648</ele>
        <time>2015-12-06T08:21:53.000Z</time>
      </trkpt>
      <trkpt lat="45.70578" lon="4.75591">
        <ele>299.20001220703</ele>
        <time>2015-12-06T08:22:04.000Z</time>
      </trkpt>
      <trkpt lat="45.70582" lon="4.75616">
        <ele>300.79998779297</ele>
        <time>2015-12-06T08:22:14.000Z</time>
      </trkpt>
      <trkpt lat="45.70583" lon="4.75643">
        <ele>302.39999389648</ele>
        <time>2015-12-06T08:22:25.000Z</time>
      </trkpt>
      <trkpt lat="45.70583" lon="4.75647">
        <ele>302.60000610352</ele>
        <time>2015-12-06T08:22:27.000Z</time>
      </trkpt>
      <trkpt lat="45.70586" lon="4.75672">
        <ele>303.60000610352</ele>
        <time>2015-12-06T08:22:40.000Z</time>
      </trkpt>
      <trkpt lat="45.70588" lon="4.75698">
        <ele>304.39999389648</ele>
        <time>2015-12-06T08:22:54.000Z</time>
      </trkpt>
      <trkpt lat="45.70596" lon="4.75723">
        <ele>305</ele>
        <time>2015-12-06T08:23:07.000Z</time>
      </trkpt>
      <trkpt lat="45.70603" lon="4.75749">
        <ele>305.60000610352</ele>
        <time>2015-12-06T08:23:16.000Z</time>
      </trkpt>
      <trkpt lat="45.70612" lon="4.75773">
        <ele>306.60000610352</ele>
        <time>2015-12-06T08:23:25.000Z</time>
      </trkpt>
      <trkpt lat="45.70623" lon="4.75793">
        <ele>307.60000610352</ele>
        <time>2015-12-06T08:23:34.000Z</time>
      </trkpt>
      <trkpt lat="45.70624" lon="4.75803">
        <ele>307.79998779297</ele>
        <time>2015-12-06T08:23:37.000Z</time>
      </trkpt>
      <trkpt lat="45.70623" lon="4.75831">
        <ele>308</ele>
        <time>2015-12-06T08:23:46.000Z</time>
      </trkpt>
      <trkpt lat="45.70628" lon="4.75858">
        <ele>308.60000610352</ele>
        <time>2015-12-06T08:23:54.000Z</time>
      </trkpt>
      <trkpt lat="45.70631" lon="4.75884">
        <ele>308.60000610352</ele>
        <time>2015-12-06T08:24:02.000Z</time>
      </trkpt>
      <trkpt lat="45.70634" lon="4.75911">
        <ele>308.79998779297</ele>
        <time>2015-12-06T08:24:10.000Z</time>
      </trkpt>
      <trkpt lat="45.70639" lon="4.75936">
        <ele>309.20001220703</ele>
        <time>2015-12-06T08:24:18.000Z</time>
      </trkpt>
      <trkpt lat="45.70643" lon="4.75964">
        <ele>309</ele>
        <time>2015-12-06T08:24:27.000Z</time>
      </trkpt>
      <trkpt lat="45.70641" lon="4.75991">
        <ele>307.20001220703</ele>
        <time>2015-12-06T08:24:36.000Z</time>
      </trkpt>
      <trkpt lat="45.70638" lon="4.76017">
        <ele>305.39999389648</ele>
        <time>2015-12-06T08:24:44.000Z</time>
      </trkpt>
      <trkpt lat="45.70636" lon="4.76043">
        <ele>303.60000610352</ele>
        <time>2015-12-06T08:24:52.000Z</time>
      </trkpt>
      <trkpt lat="45.70634" lon="4.7607">
        <ele>302.20001220703</ele>
        <time>2015-12-06T08:25:00.000Z</time>
      </trkpt>
      <trkpt lat="45.70633" lon="4.76096">
        <ele>300.60000610352</ele>
        <time>2015-12-06T08:25:09.000Z</time>
      </trkpt>
      <trkpt lat="45.70636" lon="4.76104">
        <ele>300.60000610352</ele>
        <time>2015-12-06T08:25:12.000Z</time>
      </trkpt>
      <trkpt lat="45.70643" lon="4.76107">
        <ele>301</ele>
        <time>2015-12-06T08:25:16.000Z</time>
      </trkpt>
      <trkpt lat="45.70662" lon="4.76107">
        <ele>301.79998779297</ele>
        <time>2015-12-06T08:25:26.000Z</time>
      </trkpt>
      <trkpt lat="45.7068" lon="4.76106">
        <ele>302.79998779297</ele>
        <time>2015-12-06T08:25:36.000Z</time>
      </trkpt>
      <trkpt lat="45.70699" lon="4.76109">
        <ele>303.60000610352</ele>
        <time>2015-12-06T08:25:46.000Z</time>
      </trkpt>
      <trkpt lat="45.70718" lon="4.76108">
        <ele>304.79998779297</ele>
        <time>2015-12-06T08:25:56.000Z</time>
      </trkpt>
      <trkpt lat="45.70736" lon="4.76111">
        <ele>305.79998779297</ele>
        <time>2015-12-06T08:26:06.000Z</time>
      </trkpt>
      <trkpt lat="45.70754" lon="4.7611">
        <ele>306.79998779297</ele>
        <time>2015-12-06T08:26:16.000Z</time>
      </trkpt>
      <trkpt lat="45.70774" lon="4.76112">
        <ele>307.79998779297</ele>
        <time>2015-12-06T08:26:26.000Z</time>
      </trkpt>
      <trkpt lat="45.70794" lon="4.76112">
        <ele>309</ele>
        <time>2015-12-06T08:26:36.000Z</time>
      </trkpt>
      <trkpt lat="45.70812" lon="4.76103">
        <ele>310.60000610352</ele>
        <time>2015-12-06T08:26:45.000Z</time>
      </trkpt>
      <trkpt lat="45.70829" lon="4.76092">
        <ele>312.60000610352</ele>
        <time>2015-12-06T08:26:54.000Z</time>
      </trkpt>
      <trkpt lat="45.70846" lon="4.76083">
        <ele>314.39999389648</ele>
        <time>2015-12-06T08:27:03.000Z</time>
      </trkpt>
      <trkpt lat="45.70865" lon="4.76079">
        <ele>315.20001220703</ele>
        <time>2015-12-06T08:27:13.000Z</time>
      </trkpt>
      <trkpt lat="45.70884" lon="4.76085">
        <ele>315.79998779297</ele>
        <time>2015-12-06T08:27:23.000Z</time>
      </trkpt>
      <trkpt lat="45.70902" lon="4.76091">
        <ele>316.20001220703</ele>
        <time>2015-12-06T08:27:32.000Z</time>
      </trkpt>
      <trkpt lat="45.70908" lon="4.76093">
        <ele>316.39999389648</ele>
        <time>2015-12-06T08:27:35.000Z</time>
      </trkpt>
      <trkpt lat="45.7091" lon="4.7611">
        <ele>316</ele>
        <time>2015-12-06T08:27:40.000Z</time>
      </trkpt>
      <trkpt lat="45.7091" lon="4.76138">
        <ele>315.20001220703</ele>
        <time>2015-12-06T08:27:47.000Z</time>
      </trkpt>
      <trkpt lat="45.70909" lon="4.76164">
        <ele>313.79998779297</ele>
        <time>2015-12-06T08:27:54.000Z</time>
      </trkpt>
      <trkpt lat="45.70908" lon="4.76192">
        <ele>312</ele>
        <time>2015-12-06T08:28:02.000Z</time>
      </trkpt>
      <trkpt lat="45.70907" lon="4.76219">
        <ele>309.60000610352</ele>
        <time>2015-12-06T08:28:09.000Z</time>
      </trkpt>
      <trkpt lat="45.70906" lon="4.76247">
        <ele>307.39999389648</ele>
        <time>2015-12-06T08:28:17.000Z</time>
      </trkpt>
      <trkpt lat="45.70904" lon="4.76274">
        <ele>305.39999389648</ele>
        <time>2015-12-06T08:28:25.000Z</time>
      </trkpt>
      <trkpt lat="45.70901" lon="4.76301">
        <ele>302.79998779297</ele>
        <time>2015-12-06T08:28:33.000Z</time>
      </trkpt>
      <trkpt lat="45.70898" lon="4.76329">
        <ele>300</ele>
        <time>2015-12-06T08:28:41.000Z</time>
      </trkpt>
      <trkpt lat="45.70894" lon="4.76351">
        <ele>297.79998779297</ele>
        <time>2015-12-06T08:28:48.000Z</time>
      </trkpt>
      <trkpt lat="45.70909" lon="4.76366">
        <ele>296.39999389648</ele>
        <time>2015-12-06T08:29:06.000Z</time>
      </trkpt>
      <trkpt lat="45.70924" lon="4.76368">
        <ele>296.39999389648</ele>
        <time>2015-12-06T08:29:20.000Z</time>
      </trkpt>
      <trkpt lat="45.70942" lon="4.76368">
        <ele>296.20001220703</ele>
        <time>2015-12-06T08:29:34.000Z</time>
      </trkpt>
      <trkpt lat="45.70961" lon="4.76369">
        <ele>296.20001220703</ele>
        <time>2015-12-06T08:29:47.000Z</time>
      </trkpt>
      <trkpt lat="45.70981" lon="4.76367">
        <ele>297.20001220703</ele>
        <time>2015-12-06T08:29:56.000Z</time>
      </trkpt>
      <trkpt lat="45.71" lon="4.76362">
        <ele>299.20001220703</ele>
        <time>2015-12-06T08:30:04.000Z</time>
      </trkpt>
      <trkpt lat="45.71017" lon="4.7635">
        <ele>302</ele>
        <time>2015-12-06T08:30:13.000Z</time>
      </trkpt>
      <trkpt lat="45.71027" lon="4.76342">
        <ele>303.39999389648</ele>
        <time>2015-12-06T08:30:20.000Z</time>
      </trkpt>
      <trkpt lat="45.71025" lon="4.76367">
        <ele>300.39999389648</ele>
        <time>2015-12-06T08:30:28.000Z</time>
      </trkpt>
      <trkpt lat="45.71024" lon="4.76393">
        <ele>297</ele>
        <time>2015-12-06T08:30:36.000Z</time>
      </trkpt>
      <trkpt lat="45.71018" lon="4.76418">
        <ele>293.20001220703</ele>
        <time>2015-12-06T08:30:44.000Z</time>
      </trkpt>
      <trkpt lat="45.71015" lon="4.76431">
        <ele>290.60000610352</ele>
        <time>2015-12-06T08:30:48.000Z</time>
      </trkpt>
      <trkpt lat="45.71018" lon="4.76456">
        <ele>286.60000610352</ele>
        <time>2015-12-06T08:30:56.000Z</time>
      </trkpt>
      <trkpt lat="45.71025" lon="4.76467">
        <ele>285.79998779297</ele>
        <time>2015-12-06T08:31:02.000Z</time>
      </trkpt>
      <trkpt lat="45.71019" lon="4.76493">
        <ele>281.79998779297</ele>
        <time>2015-12-06T08:31:12.000Z</time>
      </trkpt>
      <trkpt lat="45.71014" lon="4.76499">
        <ele>280.39999389648</ele>
        <time>2015-12-06T08:31:15.000Z</time>
      </trkpt>
      <trkpt lat="45.71" lon="4.76518">
        <ele>274.60000610352</ele>
        <time>2015-12-06T08:31:26.000Z</time>
      </trkpt>
      <trkpt lat="45.70999" lon="4.76526">
        <ele>273</ele>
        <time>2015-12-06T08:31:29.000Z</time>
      </trkpt>
      <trkpt lat="45.71008" lon="4.76549">
        <ele>270.60000610352</ele>
        <time>2015-12-06T08:31:37.000Z</time>
      </trkpt>
      <trkpt lat="45.71016" lon="4.76572">
        <ele>268</ele>
        <time>2015-12-06T08:31:44.000Z</time>
      </trkpt>
      <trkpt lat="45.71028" lon="4.76594">
        <ele>266.39999389648</ele>
        <time>2015-12-06T08:31:52.000Z</time>
      </trkpt>
      <trkpt lat="45.71041" lon="4.76616">
        <ele>265</ele>
        <time>2015-12-06T08:32:00.000Z</time>
      </trkpt>
      <trkpt lat="45.7105" lon="4.76636">
        <ele>262.60000610352</ele>
        <time>2015-12-06T08:32:07.000Z</time>
      </trkpt>
      <trkpt lat="45.71057" lon="4.76661">
        <ele>258.79998779297</ele>
        <time>2015-12-06T08:32:15.000Z</time>
      </trkpt>
      <trkpt lat="45.71065" lon="4.76684">
        <ele>255.19999694824</ele>
        <time>2015-12-06T08:32:23.000Z</time>
      </trkpt>
      <trkpt lat="45.71072" lon="4.76708">
        <ele>251.39999389648</ele>
        <time>2015-12-06T08:32:32.000Z</time>
      </trkpt>
      <trkpt lat="45.71077" lon="4.76734">
        <ele>248.19999694824</ele>
        <time>2015-12-06T08:32:41.000Z</time>
      </trkpt>
      <trkpt lat="45.71082" lon="4.76763">
        <ele>246.60000610352</ele>
        <time>2015-12-06T08:32:50.000Z</time>
      </trkpt>
      <trkpt lat="45.71085" lon="4.76779">
        <ele>245.60000610352</ele>
        <time>2015-12-06T08:32:55.000Z</time>
      </trkpt>
      <trkpt lat="45.71094" lon="4.76807">
        <ele>243.39999389648</ele>
        <time>2015-12-06T08:33:04.000Z</time>
      </trkpt>
      <trkpt lat="45.71097" lon="4.7682">
        <ele>242.39999389648</ele>
        <time>2015-12-06T08:33:08.000Z</time>
      </trkpt>
      <trkpt lat="45.71103" lon="4.76848">
        <ele>240.19999694824</ele>
        <time>2015-12-06T08:33:17.000Z</time>
      </trkpt>
      <trkpt lat="45.71111" lon="4.76876">
        <ele>238.60000610352</ele>
        <time>2015-12-06T08:33:26.000Z</time>
      </trkpt>
      <trkpt lat="45.7112" lon="4.769">
        <ele>237.60000610352</ele>
        <time>2015-12-06T08:33:34.000Z</time>
      </trkpt>
      <trkpt lat="45.71127" lon="4.76925">
        <ele>237</ele>
        <time>2015-12-06T08:33:42.000Z</time>
      </trkpt>
      <trkpt lat="45.71135" lon="4.76951">
        <ele>236.19999694824</ele>
        <time>2015-12-06T08:33:50.000Z</time>
      </trkpt>
      <trkpt lat="45.71145" lon="4.76976">
        <ele>236</ele>
        <time>2015-12-06T08:33:58.000Z</time>
      </trkpt>
      <trkpt lat="45.71156" lon="4.76997">
        <ele>236.19999694824</ele>
        <time>2015-12-06T08:34:07.000Z</time>
      </trkpt>
      <trkpt lat="45.71166" lon="4.76999">
        <ele>236.39999389648</ele>
        <time>2015-12-06T08:34:12.000Z</time>
      </trkpt>
      <trkpt lat="45.71183" lon="4.77003">
        <ele>237</ele>
        <time>2015-12-06T08:34:22.000Z</time>
      </trkpt>
      <trkpt lat="45.71189" lon="4.77004">
        <ele>237.19999694824</ele>
        <time>2015-12-06T08:34:25.000Z</time>
      </trkpt>
      <trkpt lat="45.71199" lon="4.77001">
        <ele>237.39999389648</ele>
        <time>2015-12-06T08:34:31.000Z</time>
      </trkpt>
      <trkpt lat="45.71217" lon="4.77">
        <ele>238</ele>
        <time>2015-12-06T08:34:42.000Z</time>
      </trkpt>
      <trkpt lat="45.71236" lon="4.77">
        <ele>237.80000305176</ele>
        <time>2015-12-06T08:34:59.000Z</time>
      </trkpt>
      <trkpt lat="45.71254" lon="4.76998">
        <ele>237.60000610352</ele>
        <time>2015-12-06T08:35:12.000Z</time>
      </trkpt>
      <trkpt lat="45.71273" lon="4.77003">
        <ele>237.60000610352</ele>
        <time>2015-12-06T08:35:24.000Z</time>
      </trkpt>
      <trkpt lat="45.71291" lon="4.77004">
        <ele>238</ele>
        <time>2015-12-06T08:35:36.000Z</time>
      </trkpt>
      <trkpt lat="45.71306" lon="4.77">
        <ele>238.60000610352</ele>
        <time>2015-12-06T08:35:44.000Z</time>
      </trkpt>
      <trkpt lat="45.71325" lon="4.76996">
        <ele>239.80000305176</ele>
        <time>2015-12-06T08:35:53.000Z</time>
      </trkpt>
      <trkpt lat="45.71345" lon="4.76992">
        <ele>241.19999694824</ele>
        <time>2015-12-06T08:36:02.000Z</time>
      </trkpt>
      <trkpt lat="45.71364" lon="4.76988">
        <ele>243.80000305176</ele>
        <time>2015-12-06T08:36:11.000Z</time>
      </trkpt>
      <trkpt lat="45.71384" lon="4.76985">
        <ele>246.19999694824</ele>
        <time>2015-12-06T08:36:20.000Z</time>
      </trkpt>
      <trkpt lat="45.71403" lon="4.76982">
        <ele>247.60000610352</ele>
        <time>2015-12-06T08:36:28.000Z</time>
      </trkpt>
      <trkpt lat="45.71422" lon="4.76977">
        <ele>248.60000610352</ele>
        <time>2015-12-06T08:36:37.000Z</time>
      </trkpt>
      <trkpt lat="45.7144" lon="4.76975">
        <ele>248.80000305176</ele>
        <time>2015-12-06T08:36:46.000Z</time>
      </trkpt>
      <trkpt lat="45.71459" lon="4.7697">
        <ele>249.19999694824</ele>
        <time>2015-12-06T08:36:55.000Z</time>
      </trkpt>
      <trkpt lat="45.71477" lon="4.7697">
        <ele>249.60000610352</ele>
        <time>2015-12-06T08:37:04.000Z</time>
      </trkpt>
      <trkpt lat="45.71495" lon="4.76966">
        <ele>250.39999389648</ele>
        <time>2015-12-06T08:37:13.000Z</time>
      </trkpt>
      <trkpt lat="45.71513" lon="4.7696">
        <ele>251.39999389648</ele>
        <time>2015-12-06T08:37:22.000Z</time>
      </trkpt>
      <trkpt lat="45.71532" lon="4.76956">
        <ele>252.19999694824</ele>
        <time>2015-12-06T08:37:33.000Z</time>
      </trkpt>
      <trkpt lat="45.7155" lon="4.76951">
        <ele>253</ele>
        <time>2015-12-06T08:37:47.000Z</time>
      </trkpt>
      <trkpt lat="45.71568" lon="4.76942">
        <ele>253.60000610352</ele>
        <time>2015-12-06T08:38:01.000Z</time>
      </trkpt>
      <trkpt lat="45.71586" lon="4.76937">
        <ele>253.60000610352</ele>
        <time>2015-12-06T08:38:11.000Z</time>
      </trkpt>
      <trkpt lat="45.71605" lon="4.76932">
        <ele>253.80000305176</ele>
        <time>2015-12-06T08:38:21.000Z</time>
      </trkpt>
      <trkpt lat="45.71612" lon="4.76949">
        <ele>252.60000610352</ele>
        <time>2015-12-06T08:38:27.000Z</time>
      </trkpt>
      <trkpt lat="45.71612" lon="4.76977">
        <ele>250.60000610352</ele>
        <time>2015-12-06T08:38:36.000Z</time>
      </trkpt>
      <trkpt lat="45.71616" lon="4.76992">
        <ele>249.60000610352</ele>
        <time>2015-12-06T08:38:42.000Z</time>
      </trkpt>
      <trkpt lat="45.71622" lon="4.76994">
        <ele>249.39999389648</ele>
        <time>2015-12-06T08:38:46.000Z</time>
      </trkpt>
      <trkpt lat="45.71633" lon="4.76995">
        <ele>249.19999694824</ele>
        <time>2015-12-06T08:38:56.000Z</time>
      </trkpt>
      <trkpt lat="45.71652" lon="4.77001">
        <ele>249</ele>
        <time>2015-12-06T08:39:09.000Z</time>
      </trkpt>
      <trkpt lat="45.7167" lon="4.77006">
        <ele>249</ele>
        <time>2015-12-06T08:39:18.000Z</time>
      </trkpt>
      <trkpt lat="45.71688" lon="4.77012">
        <ele>249.19999694824</ele>
        <time>2015-12-06T08:39:27.000Z</time>
      </trkpt>
      <trkpt lat="45.71706" lon="4.77015">
        <ele>249</ele>
        <time>2015-12-06T08:39:36.000Z</time>
      </trkpt>
      <trkpt lat="45.71725" lon="4.77022">
        <ele>248.60000610352</ele>
        <time>2015-12-06T08:39:48.000Z</time>
      </trkpt>
      <trkpt lat="45.71739" lon="4.77037">
        <ele>247.80000305176</ele>
        <time>2015-12-06T08:40:01.000Z</time>
      </trkpt>
      <trkpt lat="45.71742" lon="4.77051">
        <ele>246.80000305176</ele>
        <time>2015-12-06T08:40:08.000Z</time>
      </trkpt>
      <trkpt lat="45.7175" lon="4.77064">
        <ele>245.80000305176</ele>
        <time>2015-12-06T08:40:17.000Z</time>
      </trkpt>
      <trkpt lat="45.71759" lon="4.77064">
        <ele>245.60000610352</ele>
        <time>2015-12-06T08:40:24.000Z</time>
      </trkpt>
      <trkpt lat="45.71777" lon="4.7706">
        <ele>245.60000610352</ele>
        <time>2015-12-06T08:40:40.000Z</time>
      </trkpt>
      <trkpt lat="45.71796" lon="4.77056">
        <ele>245.80000305176</ele>
        <time>2015-12-06T08:40:55.000Z</time>
      </trkpt>
      <trkpt lat="45.71815" lon="4.77054">
        <ele>246.39999389648</ele>
        <time>2015-12-06T08:41:10.000Z</time>
      </trkpt>
      <trkpt lat="45.71833" lon="4.7706">
        <ele>246.60000610352</ele>
        <time>2015-12-06T08:41:20.000Z</time>
      </trkpt>
      <trkpt lat="45.71851" lon="4.77066">
        <ele>246.60000610352</ele>
        <time>2015-12-06T08:41:29.000Z</time>
      </trkpt>
      <trkpt lat="45.7187" lon="4.77072">
        <ele>246.60000610352</ele>
        <time>2015-12-06T08:41:38.000Z</time>
      </trkpt>
      <trkpt lat="45.71889" lon="4.77073">
        <ele>246.80000305176</ele>
        <time>2015-12-06T08:41:50.000Z</time>
      </trkpt>
      <trkpt lat="45.71907" lon="4.77079">
        <ele>247.80000305176</ele>
        <time>2015-12-06T08:42:01.000Z</time>
      </trkpt>
      <trkpt lat="45.71924" lon="4.77087">
        <ele>248.39999389648</ele>
        <time>2015-12-06T08:42:17.000Z</time>
      </trkpt>
      <trkpt lat="45.71934" lon="4.7711">
        <ele>248.19999694824</ele>
        <time>2015-12-06T08:42:32.000Z</time>
      </trkpt>
      <trkpt lat="45.71938" lon="4.77136">
        <ele>246.60000610352</ele>
        <time>2015-12-06T08:42:48.000Z</time>
      </trkpt>
      <trkpt lat="45.71937" lon="4.77151">
        <ele>245.19999694824</ele>
        <time>2015-12-06T08:42:56.000Z</time>
      </trkpt>
      <trkpt lat="45.71926" lon="4.77174">
        <ele>243</ele>
        <time>2015-12-06T08:43:05.000Z</time>
      </trkpt>
      <trkpt lat="45.7192" lon="4.772">
        <ele>241.60000610352</ele>
        <time>2015-12-06T08:43:14.000Z</time>
      </trkpt>
      <trkpt lat="45.71924" lon="4.77226">
        <ele>241</ele>
        <time>2015-12-06T08:43:22.000Z</time>
      </trkpt>
      <trkpt lat="45.71929" lon="4.77254">
        <ele>240.39999389648</ele>
        <time>2015-12-06T08:43:31.000Z</time>
      </trkpt>
      <trkpt lat="45.71943" lon="4.77268">
        <ele>240.19999694824</ele>
        <time>2015-12-06T08:43:41.000Z</time>
      </trkpt>
      <trkpt lat="45.71961" lon="4.77261">
        <ele>240.60000610352</ele>
        <time>2015-12-06T08:43:51.000Z</time>
      </trkpt>
      <trkpt lat="45.71979" lon="4.77252">
        <ele>240.80000305176</ele>
        <time>2015-12-06T08:44:00.000Z</time>
      </trkpt>
      <trkpt lat="45.71997" lon="4.77244">
        <ele>241</ele>
        <time>2015-12-06T08:44:10.000Z</time>
      </trkpt>
      <trkpt lat="45.72016" lon="4.77238">
        <ele>241.60000610352</ele>
        <time>2015-12-06T08:44:20.000Z</time>
      </trkpt>
      <trkpt lat="45.72035" lon="4.77239">
        <ele>242.19999694824</ele>
        <time>2015-12-06T08:44:29.000Z</time>
      </trkpt>
      <trkpt lat="45.72047" lon="4.77261">
        <ele>241.39999389648</ele>
        <time>2015-12-06T08:44:36.000Z</time>
      </trkpt>
      <trkpt lat="45.72056" lon="4.77285">
        <ele>240.19999694824</ele>
        <time>2015-12-06T08:44:44.000Z</time>
      </trkpt>
      <trkpt lat="45.72061" lon="4.7731">
        <ele>239.60000610352</ele>
        <time>2015-12-06T08:44:52.000Z</time>
      </trkpt>
      <trkpt lat="45.72068" lon="4.77334">
        <ele>239</ele>
        <time>2015-12-06T08:45:00.000Z</time>
      </trkpt>
      <trkpt lat="45.72074" lon="4.7736">
        <ele>238.60000610352</ele>
        <time>2015-12-06T08:45:08.000Z</time>
      </trkpt>
      <trkpt lat="45.72074" lon="4.77366">
        <ele>238.60000610352</ele>
        <time>2015-12-06T08:45:10.000Z</time>
      </trkpt>
      <trkpt lat="45.72067" lon="4.7739">
        <ele>237.80000305176</ele>
        <time>2015-12-06T08:45:18.000Z</time>
      </trkpt>
      <trkpt lat="45.72061" lon="4.77417">
        <ele>236.60000610352</ele>
        <time>2015-12-06T08:45:26.000Z</time>
      </trkpt>
      <trkpt lat="45.72072" lon="4.77437">
        <ele>235.39999389648</ele>
        <time>2015-12-06T08:45:34.000Z</time>
      </trkpt>
      <trkpt lat="45.72089" lon="4.77447">
        <ele>234.39999389648</ele>
        <time>2015-12-06T08:45:41.000Z</time>
      </trkpt>
      <trkpt lat="45.72106" lon="4.77455">
        <ele>233.60000610352</ele>
        <time>2015-12-06T08:45:49.000Z</time>
      </trkpt>
      <trkpt lat="45.72125" lon="4.77463">
        <ele>232.19999694824</ele>
        <time>2015-12-06T08:45:57.000Z</time>
      </trkpt>
      <trkpt lat="45.72143" lon="4.77472">
        <ele>230.19999694824</ele>
        <time>2015-12-06T08:46:05.000Z</time>
      </trkpt>
      <trkpt lat="45.7216" lon="4.77481">
        <ele>227.60000610352</ele>
        <time>2015-12-06T08:46:12.000Z</time>
      </trkpt>
      <trkpt lat="45.72178" lon="4.77492">
        <ele>224.60000610352</ele>
        <time>2015-12-06T08:46:20.000Z</time>
      </trkpt>
      <trkpt lat="45.72196" lon="4.77504">
        <ele>221.39999389648</ele>
        <time>2015-12-06T08:46:28.000Z</time>
      </trkpt>
      <trkpt lat="45.72213" lon="4.7751">
        <ele>219</ele>
        <time>2015-12-06T08:46:36.000Z</time>
      </trkpt>
      <trkpt lat="45.72231" lon="4.77518">
        <ele>217.19999694824</ele>
        <time>2015-12-06T08:46:44.000Z</time>
      </trkpt>
      <trkpt lat="45.72248" lon="4.7753">
        <ele>215.60000610352</ele>
        <time>2015-12-06T08:46:54.000Z</time>
      </trkpt>
      <trkpt lat="45.72265" lon="4.77546">
        <ele>214</ele>
        <time>2015-12-06T08:47:03.000Z</time>
      </trkpt>
      <trkpt lat="45.72282" lon="4.77558">
        <ele>213.19999694824</ele>
        <time>2015-12-06T08:47:11.000Z</time>
      </trkpt>
      <trkpt lat="45.72299" lon="4.77573">
        <ele>212.39999389648</ele>
        <time>2015-12-06T08:47:19.000Z</time>
      </trkpt>
      <trkpt lat="45.72314" lon="4.77588">
        <ele>211.19999694824</ele>
        <time>2015-12-06T08:47:26.000Z</time>
      </trkpt>
      <trkpt lat="45.72329" lon="4.77606">
        <ele>209.80000305176</ele>
        <time>2015-12-06T08:47:33.000Z</time>
      </trkpt>
      <trkpt lat="45.72344" lon="4.77621">
        <ele>208.60000610352</ele>
        <time>2015-12-06T08:47:40.000Z</time>
      </trkpt>
      <trkpt lat="45.72361" lon="4.77632">
        <ele>207.19999694824</ele>
        <time>2015-12-06T08:47:48.000Z</time>
      </trkpt>
      <trkpt lat="45.7238" lon="4.77634">
        <ele>206.39999389648</ele>
        <time>2015-12-06T08:47:56.000Z</time>
      </trkpt>
      <trkpt lat="45.72399" lon="4.77636">
        <ele>205.80000305176</ele>
        <time>2015-12-06T08:48:04.000Z</time>
      </trkpt>
      <trkpt lat="45.72417" lon="4.77631">
        <ele>206.19999694824</ele>
        <time>2015-12-06T08:48:12.000Z</time>
      </trkpt>
      <trkpt lat="45.72435" lon="4.7762">
        <ele>207</ele>
        <time>2015-12-06T08:48:21.000Z</time>
      </trkpt>
      <trkpt lat="45.72449" lon="4.77602">
        <ele>207.39999389648</ele>
        <time>2015-12-06T08:48:30.000Z</time>
      </trkpt>
      <trkpt lat="45.72459" lon="4.7758">
        <ele>207.19999694824</ele>
        <time>2015-12-06T08:48:39.000Z</time>
      </trkpt>
      <trkpt lat="45.7247" lon="4.77558">
        <ele>207</ele>
        <time>2015-12-06T08:48:48.000Z</time>
      </trkpt>
      <trkpt lat="45.72485" lon="4.77541">
        <ele>207.39999389648</ele>
        <time>2015-12-06T08:48:57.000Z</time>
      </trkpt>
      <trkpt lat="45.72504" lon="4.77532">
        <ele>208.19999694824</ele>
        <time>2015-12-06T08:49:06.000Z</time>
      </trkpt>
      <trkpt lat="45.72521" lon="4.77521">
        <ele>209</ele>
        <time>2015-12-06T08:49:15.000Z</time>
      </trkpt>
      <trkpt lat="45.72539" lon="4.77514">
        <ele>209.60000610352</ele>
        <time>2015-12-06T08:49:24.000Z</time>
      </trkpt>
      <trkpt lat="45.72558" lon="4.77508">
        <ele>210</ele>
        <time>2015-12-06T08:49:34.000Z</time>
      </trkpt>
      <trkpt lat="45.72565" lon="4.77508">
        <ele>209.80000305176</ele>
        <time>2015-12-06T08:49:37.000Z</time>
      </trkpt>
      <trkpt lat="45.72571" lon="4.77521">
        <ele>209.60000610352</ele>
        <time>2015-12-06T08:49:41.000Z</time>
      </trkpt>
      <trkpt lat="45.72578" lon="4.77545">
        <ele>209</ele>
        <time>2015-12-06T08:49:49.000Z</time>
      </trkpt>
      <trkpt lat="45.72583" lon="4.77561">
        <ele>208.19999694824</ele>
        <time>2015-12-06T08:49:53.000Z</time>
      </trkpt>
      <trkpt lat="45.72589" lon="4.77587">
        <ele>207</ele>
        <time>2015-12-06T08:50:00.000Z</time>
      </trkpt>
      <trkpt lat="45.72589" lon="4.77614">
        <ele>206</ele>
        <time>2015-12-06T08:50:08.000Z</time>
      </trkpt>
      <trkpt lat="45.7259" lon="4.77643">
        <ele>204.39999389648</ele>
        <time>2015-12-06T08:50:17.000Z</time>
      </trkpt>
      <trkpt lat="45.72594" lon="4.7767">
        <ele>202.80000305176</ele>
        <time>2015-12-06T08:50:25.000Z</time>
      </trkpt>
      <trkpt lat="45.72601" lon="4.77695">
        <ele>201.19999694824</ele>
        <time>2015-12-06T08:50:32.000Z</time>
      </trkpt>
      <trkpt lat="45.72606" lon="4.7772">
        <ele>199.60000610352</ele>
        <time>2015-12-06T08:50:38.000Z</time>
      </trkpt>
      <trkpt lat="45.7261" lon="4.77747">
        <ele>197.80000305176</ele>
        <time>2015-12-06T08:50:44.000Z</time>
      </trkpt>
      <trkpt lat="45.72615" lon="4.77774">
        <ele>195.39999389648</ele>
        <time>2015-12-06T08:50:50.000Z</time>
      </trkpt>
      <trkpt lat="45.72618" lon="4.77801">
        <ele>191.80000305176</ele>
        <time>2015-12-06T08:50:56.000Z</time>
      </trkpt>
      <trkpt lat="45.72624" lon="4.77828">
        <ele>187.60000610352</ele>
        <time>2015-12-06T08:51:02.000Z</time>
      </trkpt>
      <trkpt lat="45.72628" lon="4.77855">
        <ele>183.39999389648</ele>
        <time>2015-12-06T08:51:08.000Z</time>
      </trkpt>
      <trkpt lat="45.72633" lon="4.77881">
        <ele>180.60000610352</ele>
        <time>2015-12-06T08:51:14.000Z</time>
      </trkpt>
      <trkpt lat="45.72636" lon="4.77908">
        <ele>179.19999694824</ele>
        <time>2015-12-06T08:51:21.000Z</time>
      </trkpt>
      <trkpt lat="45.7264" lon="4.77935">
        <ele>178</ele>
        <time>2015-12-06T08:51:28.000Z</time>
      </trkpt>
      <trkpt lat="45.7264" lon="4.77962">
        <ele>177.19999694824</ele>
        <time>2015-12-06T08:51:35.000Z</time>
      </trkpt>
      <trkpt lat="45.72644" lon="4.77989">
        <ele>177.60000610352</ele>
        <time>2015-12-06T08:51:43.000Z</time>
      </trkpt>
      <trkpt lat="45.72649" lon="4.78013">
        <ele>178</ele>
        <time>2015-12-06T08:51:55.000Z</time>
      </trkpt>
      <trkpt lat="45.72651" lon="4.7804">
        <ele>178.39999389648</ele>
        <time>2015-12-06T08:52:11.000Z</time>
      </trkpt>
      <trkpt lat="45.72655" lon="4.78066">
        <ele>182.80000305176</ele>
        <time>2015-12-06T08:52:27.000Z</time>
      </trkpt>
      <trkpt lat="45.72655" lon="4.78076">
        <ele>184.19999694824</ele>
        <time>2015-12-06T08:52:33.000Z</time>
      </trkpt>
      <trkpt lat="45.72658" lon="4.78102">
        <ele>188.19999694824</ele>
        <time>2015-12-06T08:52:49.000Z</time>
      </trkpt>
      <trkpt lat="45.72659" lon="4.78128">
        <ele>192.39999389648</ele>
        <time>2015-12-06T08:53:06.000Z</time>
      </trkpt>
      <trkpt lat="45.72648" lon="4.78147">
        <ele>194.19999694824</ele>
        <time>2015-12-06T08:53:22.000Z</time>
      </trkpt>
      <trkpt lat="45.72643" lon="4.78152">
        <ele>194.19999694824</ele>
        <time>2015-12-06T08:53:26.000Z</time>
      </trkpt>
      <trkpt lat="45.72637" lon="4.78168">
        <ele>195.80000305176</ele>
        <time>2015-12-06T08:53:36.000Z</time>
      </trkpt>
      <trkpt lat="45.72635" lon="4.78192">
        <ele>199</ele>
        <time>2015-12-06T08:53:52.000Z</time>
      </trkpt>
      <trkpt lat="45.72634" lon="4.78203">
        <ele>200.39999389648</ele>
        <time>2015-12-06T08:54:00.000Z</time>
      </trkpt>
      <trkpt lat="45.72634" lon="4.78217">
        <ele>202.80000305176</ele>
        <time>2015-12-06T08:54:09.000Z</time>
      </trkpt>
      <trkpt lat="45.72633" lon="4.78235">
        <ele>205.80000305176</ele>
        <time>2015-12-06T08:54:20.000Z</time>
      </trkpt>
      <trkpt lat="45.72637" lon="4.78248">
        <ele>208.60000610352</ele>
        <time>2015-12-06T08:54:29.000Z</time>
      </trkpt>
      <trkpt lat="45.7264" lon="4.78258">
        <ele>211</ele>
        <time>2015-12-06T08:54:36.000Z</time>
      </trkpt>
      <trkpt lat="45.72642" lon="4.78268">
        <ele>213</ele>
        <time>2015-12-06T08:54:43.000Z</time>
      </trkpt>
      <trkpt lat="45.72645" lon="4.78294">
        <ele>217.60000610352</ele>
        <time>2015-12-06T08:54:58.000Z</time>
      </trkpt>
      <trkpt lat="45.72649" lon="4.78304">
        <ele>219</ele>
        <time>2015-12-06T08:55:05.000Z</time>
      </trkpt>
      <trkpt lat="45.7265" lon="4.78308">
        <ele>219.39999389648</ele>
        <time>2015-12-06T08:55:08.000Z</time>
      </trkpt>
      <trkpt lat="45.7265" lon="4.78311">
        <ele>219.80000305176</ele>
        <time>2015-12-06T08:55:10.000Z</time>
      </trkpt>
      <trkpt lat="45.7266" lon="4.78333">
        <ele>223.39999389648</ele>
        <time>2015-12-06T08:55:26.000Z</time>
      </trkpt>
      <trkpt lat="45.72667" lon="4.78348">
        <ele>225.60000610352</ele>
        <time>2015-12-06T08:55:37.000Z</time>
      </trkpt>
      <trkpt lat="45.72673" lon="4.78373">
        <ele>229</ele>
        <time>2015-12-06T08:55:52.000Z</time>
      </trkpt>
      <trkpt lat="45.72679" lon="4.78398">
        <ele>231.39999389648</ele>
        <time>2015-12-06T08:56:08.000Z</time>
      </trkpt>
      <trkpt lat="45.72679" lon="4.78404">
        <ele>231.80000305176</ele>
        <time>2015-12-06T08:56:12.000Z</time>
      </trkpt>
      <trkpt lat="45.72682" lon="4.78422">
        <ele>233.60000610352</ele>
        <time>2015-12-06T08:56:23.000Z</time>
      </trkpt>
      <trkpt lat="45.72687" lon="4.78447">
        <ele>236</ele>
        <time>2015-12-06T08:56:38.000Z</time>
      </trkpt>
      <trkpt lat="45.72692" lon="4.78473">
        <ele>238.60000610352</ele>
        <time>2015-12-06T08:56:53.000Z</time>
      </trkpt>
      <trkpt lat="45.72695" lon="4.78486">
        <ele>239.80000305176</ele>
        <time>2015-12-06T08:57:01.000Z</time>
      </trkpt>
      <trkpt lat="45.72694" lon="4.785">
        <ele>240.80000305176</ele>
        <time>2015-12-06T08:57:09.000Z</time>
      </trkpt>
      <trkpt lat="45.72702" lon="4.78525">
        <ele>243.39999389648</ele>
        <time>2015-12-06T08:57:24.000Z</time>
      </trkpt>
      <trkpt lat="45.72705" lon="4.78551">
        <ele>245.39999389648</ele>
        <time>2015-12-06T08:57:38.000Z</time>
      </trkpt>
      <trkpt lat="45.72709" lon="4.78577">
        <ele>247.39999389648</ele>
        <time>2015-12-06T08:57:53.000Z</time>
      </trkpt>
      <trkpt lat="45.72711" lon="4.78591">
        <ele>248.39999389648</ele>
        <time>2015-12-06T08:58:01.000Z</time>
      </trkpt>
      <trkpt lat="45.72712" lon="4.78617">
        <ele>250</ele>
        <time>2015-12-06T08:58:16.000Z</time>
      </trkpt>
      <trkpt lat="45.72713" lon="4.78642">
        <ele>251.80000305176</ele>
        <time>2015-12-06T08:58:31.000Z</time>
      </trkpt>
      <trkpt lat="45.72699" lon="4.78657">
        <ele>251.60000610352</ele>
        <time>2015-12-06T08:58:46.000Z</time>
      </trkpt>
      <trkpt lat="45.72681" lon="4.78663">
        <ele>250.60000610352</ele>
        <time>2015-12-06T08:58:56.000Z</time>
      </trkpt>
      <trkpt lat="45.72663" lon="4.78671">
        <ele>250.60000610352</ele>
        <time>2015-12-06T08:59:05.000Z</time>
      </trkpt>
      <trkpt lat="45.72646" lon="4.78682">
        <ele>251.19999694824</ele>
        <time>2015-12-06T08:59:14.000Z</time>
      </trkpt>
      <trkpt lat="45.72633" lon="4.78701">
        <ele>252.60000610352</ele>
        <time>2015-12-06T08:59:23.000Z</time>
      </trkpt>
      <trkpt lat="45.72623" lon="4.78724">
        <ele>256</ele>
        <time>2015-12-06T08:59:33.000Z</time>
      </trkpt>
      <trkpt lat="45.72617" lon="4.78748">
        <ele>259.60000610352</ele>
        <time>2015-12-06T08:59:43.000Z</time>
      </trkpt>
      <trkpt lat="45.72619" lon="4.78775">
        <ele>262.79998779297</ele>
        <time>2015-12-06T08:59:55.000Z</time>
      </trkpt>
      <trkpt lat="45.72628" lon="4.78798">
        <ele>265.39999389648</ele>
        <time>2015-12-06T09:00:08.000Z</time>
      </trkpt>
      <trkpt lat="45.72633" lon="4.78823">
        <ele>268</ele>
        <time>2015-12-06T09:00:23.000Z</time>
      </trkpt>
      <trkpt lat="45.7264" lon="4.78849">
        <ele>270.79998779297</ele>
        <time>2015-12-06T09:00:38.000Z</time>
      </trkpt>
      <trkpt lat="45.72644" lon="4.78869">
        <ele>273</ele>
        <time>2015-12-06T09:00:49.000Z</time>
      </trkpt>
      <trkpt lat="45.72651" lon="4.78883">
        <ele>274.39999389648</ele>
        <time>2015-12-06T09:00:58.000Z</time>
      </trkpt>
      <trkpt lat="45.72663" lon="4.78902">
        <ele>276</ele>
        <time>2015-12-06T09:01:12.000Z</time>
      </trkpt>
      <trkpt lat="45.72677" lon="4.7892">
        <ele>277.79998779297</ele>
        <time>2015-12-06T09:01:25.000Z</time>
      </trkpt>
      <trkpt lat="45.72691" lon="4.78939">
        <ele>279.39999389648</ele>
        <time>2015-12-06T09:01:38.000Z</time>
      </trkpt>
      <trkpt lat="45.72707" lon="4.78953">
        <ele>281.20001220703</ele>
        <time>2015-12-06T09:01:47.000Z</time>
      </trkpt>
      <trkpt lat="45.72723" lon="4.78967">
        <ele>281.79998779297</ele>
        <time>2015-12-06T09:01:56.000Z</time>
      </trkpt>
      <trkpt lat="45.72739" lon="4.78982">
        <ele>282</ele>
        <time>2015-12-06T09:02:06.000Z</time>
      </trkpt>
      <trkpt lat="45.72755" lon="4.78998">
        <ele>282</ele>
        <time>2015-12-06T09:02:16.000Z</time>
      </trkpt>
      <trkpt lat="45.72758" lon="4.79002">
        <ele>281.79998779297</ele>
        <time>2015-12-06T09:02:18.000Z</time>
      </trkpt>
      <trkpt lat="45.72754" lon="4.79012">
        <ele>281.79998779297</ele>
        <time>2015-12-06T09:02:22.000Z</time>
      </trkpt>
      <trkpt lat="45.7274" lon="4.79031">
        <ele>281.39999389648</ele>
        <time>2015-12-06T09:02:31.000Z</time>
      </trkpt>
      <trkpt lat="45.72726" lon="4.7905">
        <ele>281</ele>
        <time>2015-12-06T09:02:40.000Z</time>
      </trkpt>
      <trkpt lat="45.72712" lon="4.79069">
        <ele>279</ele>
        <time>2015-12-06T09:02:48.000Z</time>
      </trkpt>
      <trkpt lat="45.72697" lon="4.79085">
        <ele>277</ele>
        <time>2015-12-06T09:02:56.000Z</time>
      </trkpt>
      <trkpt lat="45.72689" lon="4.79091">
        <ele>276.20001220703</ele>
        <time>2015-12-06T09:03:00.000Z</time>
      </trkpt>
      <trkpt lat="45.72677" lon="4.79089">
        <ele>275</ele>
        <time>2015-12-06T09:03:07.000Z</time>
      </trkpt>
      <trkpt lat="45.72672" lon="4.79089">
        <ele>274.20001220703</ele>
        <time>2015-12-06T09:03:10.000Z</time>
      </trkpt>
      <trkpt lat="45.72663" lon="4.79088">
        <ele>273.20001220703</ele>
        <time>2015-12-06T09:03:19.000Z</time>
      </trkpt>
      <trkpt lat="45.72645" lon="4.79089">
        <ele>271</ele>
        <time>2015-12-06T09:03:37.000Z</time>
      </trkpt>
      <trkpt lat="45.72638" lon="4.79087">
        <ele>270.39999389648</ele>
        <time>2015-12-06T09:03:41.000Z</time>
      </trkpt>
      <trkpt lat="45.72629" lon="4.79084">
        <ele>268</ele>
        <time>2015-12-06T09:03:49.000Z</time>
      </trkpt>
      <trkpt lat="45.72629" lon="4.79084">
        <ele>267.79998779297</ele>
        <time>2015-12-06T09:03:50.000Z</time>
      </trkpt>
      <trkpt lat="45.72614" lon="4.79101">
        <ele>261.60000610352</ele>
        <time>2015-12-06T09:04:06.000Z</time>
      </trkpt>
      <trkpt lat="45.72614" lon="4.79103">
        <ele>261.20001220703</ele>
        <time>2015-12-06T09:04:07.000Z</time>
      </trkpt>
      <trkpt lat="45.72613" lon="4.79112">
        <ele>260.39999389648</ele>
        <time>2015-12-06T09:04:11.000Z</time>
      </trkpt>
      <trkpt lat="45.72612" lon="4.79121">
        <ele>259.20001220703</ele>
        <time>2015-12-06T09:04:15.000Z</time>
      </trkpt>
      <trkpt lat="45.72612" lon="4.79136">
        <ele>258.39999389648</ele>
        <time>2015-12-06T09:04:22.000Z</time>
      </trkpt>
      <trkpt lat="45.72613" lon="4.79147">
        <ele>258.39999389648</ele>
        <time>2015-12-06T09:04:29.000Z</time>
      </trkpt>
      <trkpt lat="45.72617" lon="4.79174">
        <ele>258.20001220703</ele>
        <time>2015-12-06T09:04:41.000Z</time>
      </trkpt>
      <trkpt lat="45.72608" lon="4.792">
        <ele>254.60000610352</ele>
        <time>2015-12-06T09:04:50.000Z</time>
      </trkpt>
      <trkpt lat="45.72607" lon="4.79202">
        <ele>254</ele>
        <time>2015-12-06T09:04:51.000Z</time>
      </trkpt>
      <trkpt lat="45.72598" lon="4.79226">
        <ele>250.60000610352</ele>
        <time>2015-12-06T09:04:59.000Z</time>
      </trkpt>
      <trkpt lat="45.72592" lon="4.79251">
        <ele>248.39999389648</ele>
        <time>2015-12-06T09:05:07.000Z</time>
      </trkpt>
      <trkpt lat="45.72596" lon="4.79276">
        <ele>249.60000610352</ele>
        <time>2015-12-06T09:05:15.000Z</time>
      </trkpt>
      <trkpt lat="45.72598" lon="4.79288">
        <ele>250.19999694824</ele>
        <time>2015-12-06T09:05:20.000Z</time>
      </trkpt>
      <trkpt lat="45.72588" lon="4.79284">
        <ele>247.60000610352</ele>
        <time>2015-12-06T09:05:26.000Z</time>
      </trkpt>
      <trkpt lat="45.72574" lon="4.79268">
        <ele>243.39999389648</ele>
        <time>2015-12-06T09:05:35.000Z</time>
      </trkpt>
      <trkpt lat="45.7257" lon="4.79252">
        <ele>242.39999389648</ele>
        <time>2015-12-06T09:05:41.000Z</time>
      </trkpt>
      <trkpt lat="45.72573" lon="4.79237">
        <ele>243.39999389648</ele>
        <time>2015-12-06T09:05:46.000Z</time>
      </trkpt>
      <trkpt lat="45.72581" lon="4.79213">
        <ele>246</ele>
        <time>2015-12-06T09:05:54.000Z</time>
      </trkpt>
      <trkpt lat="45.72587" lon="4.79188">
        <ele>248.60000610352</ele>
        <time>2015-12-06T09:06:03.000Z</time>
      </trkpt>
      <trkpt lat="45.72583" lon="4.79162">
        <ele>248.19999694824</ele>
        <time>2015-12-06T09:06:12.000Z</time>
      </trkpt>
      <trkpt lat="45.72572" lon="4.7914">
        <ele>245.80000305176</ele>
        <time>2015-12-06T09:06:21.000Z</time>
      </trkpt>
      <trkpt lat="45.72562" lon="4.79117">
        <ele>243.80000305176</ele>
        <time>2015-12-06T09:06:30.000Z</time>
      </trkpt>
      <trkpt lat="45.72557" lon="4.7911">
        <ele>243</ele>
        <time>2015-12-06T09:06:33.000Z</time>
      </trkpt>
      <trkpt lat="45.72556" lon="4.79122">
        <ele>241.60000610352</ele>
        <time>2015-12-06T09:06:40.000Z</time>
      </trkpt>
      <trkpt lat="45.72559" lon="4.7913">
        <ele>242.39999389648</ele>
        <time>2015-12-06T09:06:44.000Z</time>
      </trkpt>
      <trkpt lat="45.72565" lon="4.79143">
        <ele>243.60000610352</ele>
        <time>2015-12-06T09:06:50.000Z</time>
      </trkpt>
      <trkpt lat="45.72567" lon="4.7915">
        <ele>244</ele>
        <time>2015-12-06T09:06:53.000Z</time>
      </trkpt>
      <trkpt lat="45.72567" lon="4.79166">
        <ele>243.19999694824</ele>
        <time>2015-12-06T09:06:59.000Z</time>
      </trkpt>
      <trkpt lat="45.72559" lon="4.79193">
        <ele>240</ele>
        <time>2015-12-06T09:07:08.000Z</time>
      </trkpt>
      <trkpt lat="45.72553" lon="4.79219">
        <ele>237.80000305176</ele>
        <time>2015-12-06T09:07:17.000Z</time>
      </trkpt>
      <trkpt lat="45.72552" lon="4.79247">
        <ele>237.39999389648</ele>
        <time>2015-12-06T09:07:26.000Z</time>
      </trkpt>
      <trkpt lat="45.7255" lon="4.79273">
        <ele>236.80000305176</ele>
        <time>2015-12-06T09:07:37.000Z</time>
      </trkpt>
      <trkpt lat="45.72551" lon="4.793">
        <ele>237.19999694824</ele>
        <time>2015-12-06T09:07:52.000Z</time>
      </trkpt>
      <trkpt lat="45.72554" lon="4.79326">
        <ele>238</ele>
        <time>2015-12-06T09:08:08.000Z</time>
      </trkpt>
      <trkpt lat="45.7255" lon="4.79354">
        <ele>236.80000305176</ele>
        <time>2015-12-06T09:08:21.000Z</time>
      </trkpt>
      <trkpt lat="45.72548" lon="4.79369">
        <ele>236.39999389648</ele>
        <time>2015-12-06T09:08:29.000Z</time>
      </trkpt>
      <trkpt lat="45.7255" lon="4.79374">
        <ele>237</ele>
        <time>2015-12-06T09:08:33.000Z</time>
      </trkpt>
      <trkpt lat="45.7255" lon="4.79375">
        <ele>237</ele>
        <time>2015-12-06T09:08:34.000Z</time>
      </trkpt>
      <trkpt lat="45.72554" lon="4.79392">
        <ele>238.39999389648</ele>
        <time>2015-12-06T09:08:47.000Z</time>
      </trkpt>
      <trkpt lat="45.72557" lon="4.79418">
        <ele>239</ele>
        <time>2015-12-06T09:09:08.000Z</time>
      </trkpt>
      <trkpt lat="45.72564" lon="4.79442">
        <ele>240.80000305176</ele>
        <time>2015-12-06T09:09:26.000Z</time>
      </trkpt>
      <trkpt lat="45.72576" lon="4.7946">
        <ele>243.60000610352</ele>
        <time>2015-12-06T09:09:47.000Z</time>
      </trkpt>
      <trkpt lat="45.72592" lon="4.79472">
        <ele>247.19999694824</ele>
        <time>2015-12-06T09:10:08.000Z</time>
      </trkpt>
      <trkpt lat="45.72601" lon="4.79495">
        <ele>250</ele>
        <time>2015-12-06T09:10:27.000Z</time>
      </trkpt>
      <trkpt lat="45.72604" lon="4.79521">
        <ele>251.19999694824</ele>
        <time>2015-12-06T09:10:44.000Z</time>
      </trkpt>
      <trkpt lat="45.72608" lon="4.79547">
        <ele>252.60000610352</ele>
        <time>2015-12-06T09:11:00.000Z</time>
      </trkpt>
      <trkpt lat="45.72615" lon="4.79571">
        <ele>254.19999694824</ele>
        <time>2015-12-06T09:11:15.000Z</time>
      </trkpt>
      <trkpt lat="45.72624" lon="4.79595">
        <ele>256.60000610352</ele>
        <time>2015-12-06T09:11:29.000Z</time>
      </trkpt>
      <trkpt lat="45.72631" lon="4.7962">
        <ele>258.60000610352</ele>
        <time>2015-12-06T09:11:43.000Z</time>
      </trkpt>
      <trkpt lat="45.72636" lon="4.79647">
        <ele>259.60000610352</ele>
        <time>2015-12-06T09:11:57.000Z</time>
      </trkpt>
      <trkpt lat="45.72638" lon="4.79663">
        <ele>260.20001220703</ele>
        <time>2015-12-06T09:12:06.000Z</time>
      </trkpt>
      <trkpt lat="45.72639" lon="4.79671">
        <ele>260.39999389648</ele>
        <time>2015-12-06T09:12:10.000Z</time>
      </trkpt>
      <trkpt lat="45.7264" lon="4.7968">
        <ele>260.39999389648</ele>
        <time>2015-12-06T09:12:15.000Z</time>
      </trkpt>
      <trkpt lat="45.72639" lon="4.79701">
        <ele>260.39999389648</ele>
        <time>2015-12-06T09:12:27.000Z</time>
      </trkpt>
      <trkpt lat="45.72639" lon="4.7971">
        <ele>260.60000610352</ele>
        <time>2015-12-06T09:12:34.000Z</time>
      </trkpt>
      <trkpt lat="45.72628" lon="4.79718">
        <ele>259.20001220703</ele>
        <time>2015-12-06T09:12:44.000Z</time>
      </trkpt>
      <trkpt lat="45.72622" lon="4.79721">
        <ele>258.20001220703</ele>
        <time>2015-12-06T09:12:48.000Z</time>
      </trkpt>
      <trkpt lat="45.72613" lon="4.79736">
        <ele>257.39999389648</ele>
        <time>2015-12-06T09:12:54.000Z</time>
      </trkpt>
      <trkpt lat="45.72615" lon="4.79762">
        <ele>259</ele>
        <time>2015-12-06T09:13:03.000Z</time>
      </trkpt>
      <trkpt lat="45.72618" lon="4.79789">
        <ele>260.79998779297</ele>
        <time>2015-12-06T09:13:12.000Z</time>
      </trkpt>
      <trkpt lat="45.72622" lon="4.79814">
        <ele>260.60000610352</ele>
        <time>2015-12-06T09:13:21.000Z</time>
      </trkpt>
      <trkpt lat="45.72627" lon="4.79839">
        <ele>260.39999389648</ele>
        <time>2015-12-06T09:13:30.000Z</time>
      </trkpt>
      <trkpt lat="45.72631" lon="4.79864">
        <ele>260.20001220703</ele>
        <time>2015-12-06T09:13:40.000Z</time>
      </trkpt>
      <trkpt lat="45.7263" lon="4.79893">
        <ele>259</ele>
        <time>2015-12-06T09:13:47.000Z</time>
      </trkpt>
      <trkpt lat="45.72631" lon="4.79922">
        <ele>258</ele>
        <time>2015-12-06T09:13:54.000Z</time>
      </trkpt>
      <trkpt lat="45.72632" lon="4.79948">
        <ele>257.20001220703</ele>
        <time>2015-12-06T09:14:02.000Z</time>
      </trkpt>
      <trkpt lat="45.72634" lon="4.79976">
        <ele>257</ele>
        <time>2015-12-06T09:14:11.000Z</time>
      </trkpt>
      <trkpt lat="45.72635" lon="4.80002">
        <ele>256.60000610352</ele>
        <time>2015-12-06T09:14:20.000Z</time>
      </trkpt>
      <trkpt lat="45.72641" lon="4.80027">
        <ele>257</ele>
        <time>2015-12-06T09:14:29.000Z</time>
      </trkpt>
      <trkpt lat="45.7265" lon="4.80052">
        <ele>257.39999389648</ele>
        <time>2015-12-06T09:14:38.000Z</time>
      </trkpt>
      <trkpt lat="45.72657" lon="4.80078">
        <ele>257.39999389648</ele>
        <time>2015-12-06T09:14:48.000Z</time>
      </trkpt>
      <trkpt lat="45.72668" lon="4.80101">
        <ele>258.20001220703</ele>
        <time>2015-12-06T09:14:57.000Z</time>
      </trkpt>
      <trkpt lat="45.72675" lon="4.80126">
        <ele>258</ele>
        <time>2015-12-06T09:15:06.000Z</time>
      </trkpt>
      <trkpt lat="45.72674" lon="4.80154">
        <ele>255</ele>
        <time>2015-12-06T09:15:15.000Z</time>
      </trkpt>
      <trkpt lat="45.7267" lon="4.8018">
        <ele>253.80000305176</ele>
        <time>2015-12-06T09:15:23.000Z</time>
      </trkpt>
      <trkpt lat="45.72665" lon="4.80205">
        <ele>252.60000610352</ele>
        <time>2015-12-06T09:15:31.000Z</time>
      </trkpt>
      <trkpt lat="45.72659" lon="4.8023">
        <ele>251.60000610352</ele>
        <time>2015-12-06T09:15:39.000Z</time>
      </trkpt>
      <trkpt lat="45.72654" lon="4.80255">
        <ele>250.80000305176</ele>
        <time>2015-12-06T09:15:48.000Z</time>
      </trkpt>
      <trkpt lat="45.7265" lon="4.80282">
        <ele>250.19999694824</ele>
        <time>2015-12-06T09:15:57.000Z</time>
      </trkpt>
      <trkpt lat="45.72646" lon="4.80312">
        <ele>248.60000610352</ele>
        <time>2015-12-06T09:16:06.000Z</time>
      </trkpt>
      <trkpt lat="45.72639" lon="4.80341">
        <ele>247.19999694824</ele>
        <time>2015-12-06T09:16:15.000Z</time>
      </trkpt>
      <trkpt lat="45.72632" lon="4.80369">
        <ele>245.60000610352</ele>
        <time>2015-12-06T09:16:24.000Z</time>
      </trkpt>
      <trkpt lat="45.72621" lon="4.80398">
        <ele>242</ele>
        <time>2015-12-06T09:16:34.000Z</time>
      </trkpt>
      <trkpt lat="45.72614" lon="4.80422">
        <ele>239.39999389648</ele>
        <time>2015-12-06T09:16:42.000Z</time>
      </trkpt>
      <trkpt lat="45.72617" lon="4.80443">
        <ele>237.60000610352</ele>
        <time>2015-12-06T09:16:48.000Z</time>
      </trkpt>
      <trkpt lat="45.72616" lon="4.80472">
        <ele>234.80000305176</ele>
        <time>2015-12-06T09:16:57.000Z</time>
      </trkpt>
      <trkpt lat="45.72608" lon="4.80487">
        <ele>232.60000610352</ele>
        <time>2015-12-06T09:17:03.000Z</time>
      </trkpt>
      <trkpt lat="45.72606" lon="4.80513">
        <ele>230.39999389648</ele>
        <time>2015-12-06T09:17:13.000Z</time>
      </trkpt>
      <trkpt lat="45.72612" lon="4.80536">
        <ele>230.19999694824</ele>
        <time>2015-12-06T09:17:23.000Z</time>
      </trkpt>
      <trkpt lat="45.72624" lon="4.80548">
        <ele>230.80000305176</ele>
        <time>2015-12-06T09:17:32.000Z</time>
      </trkpt>
      <trkpt lat="45.72633" lon="4.8057">
        <ele>231</ele>
        <time>2015-12-06T09:17:42.000Z</time>
      </trkpt>
      <trkpt lat="45.72629" lon="4.80594">
        <ele>230</ele>
        <time>2015-12-06T09:17:52.000Z</time>
      </trkpt>
      <trkpt lat="45.72632" lon="4.80617">
        <ele>229.80000305176</ele>
        <time>2015-12-06T09:18:02.000Z</time>
      </trkpt>
      <trkpt lat="45.72634" lon="4.80634">
        <ele>230.19999694824</ele>
        <time>2015-12-06T09:18:15.000Z</time>
      </trkpt>
      <trkpt lat="45.72617" lon="4.80651">
        <ele>229.80000305176</ele>
        <time>2015-12-06T09:18:25.000Z</time>
      </trkpt>
      <trkpt lat="45.726" lon="4.80661">
        <ele>229.19999694824</ele>
        <time>2015-12-06T09:18:34.000Z</time>
      </trkpt>
      <trkpt lat="45.72587" lon="4.80678">
        <ele>230</ele>
        <time>2015-12-06T09:18:43.000Z</time>
      </trkpt>
      <trkpt lat="45.72574" lon="4.80699">
        <ele>231.60000610352</ele>
        <time>2015-12-06T09:18:51.000Z</time>
      </trkpt>
      <trkpt lat="45.72562" lon="4.80719">
        <ele>232.39999389648</ele>
        <time>2015-12-06T09:18:59.000Z</time>
      </trkpt>
      <trkpt lat="45.72557" lon="4.80723">
        <ele>233.19999694824</ele>
        <time>2015-12-06T09:19:02.000Z</time>
      </trkpt>
      <trkpt lat="45.72538" lon="4.80722">
        <ele>232.80000305176</ele>
        <time>2015-12-06T09:19:11.000Z</time>
      </trkpt>
      <trkpt lat="45.72541" lon="4.80744">
        <ele>234.39999389648</ele>
        <time>2015-12-06T09:19:21.000Z</time>
      </trkpt>
      <trkpt lat="45.72545" lon="4.80749">
        <ele>235</ele>
        <time>2015-12-06T09:19:24.000Z</time>
      </trkpt>
      <trkpt lat="45.72557" lon="4.80769">
        <ele>236.39999389648</ele>
        <time>2015-12-06T09:19:34.000Z</time>
      </trkpt>
      <trkpt lat="45.7256" lon="4.80775">
        <ele>236.60000610352</ele>
        <time>2015-12-06T09:19:37.000Z</time>
      </trkpt>
      <trkpt lat="45.72574" lon="4.80793">
        <ele>237.19999694824</ele>
        <time>2015-12-06T09:19:47.000Z</time>
      </trkpt>
      <trkpt lat="45.72586" lon="4.80813">
        <ele>237.80000305176</ele>
        <time>2015-12-06T09:19:57.000Z</time>
      </trkpt>
      <trkpt lat="45.726" lon="4.80832">
        <ele>238.39999389648</ele>
        <time>2015-12-06T09:20:06.000Z</time>
      </trkpt>
      <trkpt lat="45.72615" lon="4.8085">
        <ele>238.80000305176</ele>
        <time>2015-12-06T09:20:16.000Z</time>
      </trkpt>
      <trkpt lat="45.72627" lon="4.8087">
        <ele>239</ele>
        <time>2015-12-06T09:20:24.000Z</time>
      </trkpt>
      <trkpt lat="45.72638" lon="4.80892">
        <ele>238.39999389648</ele>
        <time>2015-12-06T09:20:33.000Z</time>
      </trkpt>
      <trkpt lat="45.72651" lon="4.80913">
        <ele>238.60000610352</ele>
        <time>2015-12-06T09:20:42.000Z</time>
      </trkpt>
      <trkpt lat="45.72666" lon="4.80929">
        <ele>239</ele>
        <time>2015-12-06T09:20:51.000Z</time>
      </trkpt>
      <trkpt lat="45.72685" lon="4.80934">
        <ele>240.19999694824</ele>
        <time>2015-12-06T09:21:00.000Z</time>
      </trkpt>
      <trkpt lat="45.72704" lon="4.80934">
        <ele>241.19999694824</ele>
        <time>2015-12-06T09:21:10.000Z</time>
      </trkpt>
      <trkpt lat="45.72723" lon="4.80931">
        <ele>240.80000305176</ele>
        <time>2015-12-06T09:21:20.000Z</time>
      </trkpt>
      <trkpt lat="45.72741" lon="4.80928">
        <ele>240.39999389648</ele>
        <time>2015-12-06T09:21:30.000Z</time>
      </trkpt>
      <trkpt lat="45.72758" lon="4.80925">
        <ele>240</ele>
        <time>2015-12-06T09:21:39.000Z</time>
      </trkpt>
      <trkpt lat="45.72773" lon="4.8094">
        <ele>240.60000610352</ele>
        <time>2015-12-06T09:21:48.000Z</time>
      </trkpt>
      <trkpt lat="45.7279" lon="4.80952">
        <ele>241</ele>
        <time>2015-12-06T09:21:56.000Z</time>
      </trkpt>
      <trkpt lat="45.72808" lon="4.80963">
        <ele>241.19999694824</ele>
        <time>2015-12-06T09:22:04.000Z</time>
      </trkpt>
      <trkpt lat="45.72822" lon="4.80983">
        <ele>241.80000305176</ele>
        <time>2015-12-06T09:22:12.000Z</time>
      </trkpt>
      <trkpt lat="45.72835" lon="4.81006">
        <ele>242.60000610352</ele>
        <time>2015-12-06T09:22:21.000Z</time>
      </trkpt>
      <trkpt lat="45.72848" lon="4.81025">
        <ele>243.19999694824</ele>
        <time>2015-12-06T09:22:30.000Z</time>
      </trkpt>
      <trkpt lat="45.72863" lon="4.81031">
        <ele>243.60000610352</ele>
        <time>2015-12-06T09:22:38.000Z</time>
      </trkpt>
      <trkpt lat="45.72868" lon="4.81032">
        <ele>243.60000610352</ele>
        <time>2015-12-06T09:22:43.000Z</time>
      </trkpt>
      <trkpt lat="45.72886" lon="4.81036">
        <ele>243.80000305176</ele>
        <time>2015-12-06T09:22:58.000Z</time>
      </trkpt>
      <trkpt lat="45.72903" lon="4.81046">
        <ele>242.60000610352</ele>
        <time>2015-12-06T09:23:12.000Z</time>
      </trkpt>
      <trkpt lat="45.72908" lon="4.81051">
        <ele>242.19999694824</ele>
        <time>2015-12-06T09:23:17.000Z</time>
      </trkpt>
      <trkpt lat="45.72918" lon="4.81073">
        <ele>241</ele>
        <time>2015-12-06T09:23:32.000Z</time>
      </trkpt>
      <trkpt lat="45.7293" lon="4.81093">
        <ele>239.60000610352</ele>
        <time>2015-12-06T09:23:43.000Z</time>
      </trkpt>
      <trkpt lat="45.72937" lon="4.81119">
        <ele>238.60000610352</ele>
        <time>2015-12-06T09:23:53.000Z</time>
      </trkpt>
      <trkpt lat="45.72947" lon="4.81141">
        <ele>237.19999694824</ele>
        <time>2015-12-06T09:24:02.000Z</time>
      </trkpt>
      <trkpt lat="45.72957" lon="4.81162">
        <ele>236</ele>
        <time>2015-12-06T09:24:11.000Z</time>
      </trkpt>
      <trkpt lat="45.72967" lon="4.81184">
        <ele>234.80000305176</ele>
        <time>2015-12-06T09:24:20.000Z</time>
      </trkpt>
      <trkpt lat="45.72978" lon="4.81208">
        <ele>233</ele>
        <time>2015-12-06T09:24:29.000Z</time>
      </trkpt>
      <trkpt lat="45.72989" lon="4.81231">
        <ele>228.80000305176</ele>
        <time>2015-12-06T09:24:38.000Z</time>
      </trkpt>
      <trkpt lat="45.72997" lon="4.81248">
        <ele>226</ele>
        <time>2015-12-06T09:24:49.000Z</time>
      </trkpt>
      <trkpt lat="45.72998" lon="4.81256">
        <ele>224.80000305176</ele>
        <time>2015-12-06T09:24:53.000Z</time>
      </trkpt>
      <trkpt lat="45.72998" lon="4.81283">
        <ele>222</ele>
        <time>2015-12-06T09:25:04.000Z</time>
      </trkpt>
      <trkpt lat="45.73004" lon="4.8131">
        <ele>216.80000305176</ele>
        <time>2015-12-06T09:25:13.000Z</time>
      </trkpt>
      <trkpt lat="45.73011" lon="4.81337">
        <ele>211.19999694824</ele>
        <time>2015-12-06T09:25:21.000Z</time>
      </trkpt>
      <trkpt lat="45.73022" lon="4.81357">
        <ele>206.60000610352</ele>
        <time>2015-12-06T09:25:29.000Z</time>
      </trkpt>
      <trkpt lat="45.73031" lon="4.81363">
        <ele>204.19999694824</ele>
        <time>2015-12-06T09:25:35.000Z</time>
      </trkpt>
      <trkpt lat="45.73039" lon="4.81371">
        <ele>201.60000610352</ele>
        <time>2015-12-06T09:25:45.000Z</time>
      </trkpt>
      <trkpt lat="45.7305" lon="4.81391">
        <ele>194.80000305176</ele>
        <time>2015-12-06T09:26:03.000Z</time>
      </trkpt>
      <trkpt lat="45.73061" lon="4.81411">
        <ele>188</ele>
        <time>2015-12-06T09:26:20.000Z</time>
      </trkpt>
      <trkpt lat="45.73071" lon="4.81433">
        <ele>180.80000305176</ele>
        <time>2015-12-06T09:26:39.000Z</time>
      </trkpt>
      <trkpt lat="45.73081" lon="4.81446">
        <ele>176</ele>
        <time>2015-12-06T09:26:47.000Z</time>
      </trkpt>
      <trkpt lat="45.73098" lon="4.81437">
        <ele>175.80000305176</ele>
        <time>2015-12-06T09:26:56.000Z</time>
      </trkpt>
      <trkpt lat="45.73109" lon="4.8142">
        <ele>178.60000610352</ele>
        <time>2015-12-06T09:27:05.000Z</time>
      </trkpt>
      <trkpt lat="45.73117" lon="4.81404">
        <ele>183</ele>
        <time>2015-12-06T09:27:41.000Z</time>
      </trkpt>
      <trkpt lat="45.73127" lon="4.81381">
        <ele>189</ele>
        <time>2015-12-06T09:27:52.000Z</time>
      </trkpt>
      <trkpt lat="45.73141" lon="4.81361">
        <ele>191.80000305176</ele>
        <time>2015-12-06T09:28:02.000Z</time>
      </trkpt>
      <trkpt lat="45.73157" lon="4.81348">
        <ele>191.19999694824</ele>
        <time>2015-12-06T09:28:12.000Z</time>
      </trkpt>
      <trkpt lat="45.73173" lon="4.81336">
        <ele>190.60000610352</ele>
        <time>2015-12-06T09:28:22.000Z</time>
      </trkpt>
      <trkpt lat="45.73191" lon="4.81326">
        <ele>189.39999389648</ele>
        <time>2015-12-06T09:28:32.000Z</time>
      </trkpt>
      <trkpt lat="45.73209" lon="4.81317">
        <ele>188.19999694824</ele>
        <time>2015-12-06T09:28:41.000Z</time>
      </trkpt>
      <trkpt lat="45.73227" lon="4.81309">
        <ele>186.39999389648</ele>
        <time>2015-12-06T09:28:50.000Z</time>
      </trkpt>
      <trkpt lat="45.73232" lon="4.81308">
        <ele>185.60000610352</ele>
        <time>2015-12-06T09:28:53.000Z</time>
      </trkpt>
      <trkpt lat="45.73232" lon="4.81317">
        <ele>184.60000610352</ele>
        <time>2015-12-06T09:28:58.000Z</time>
      </trkpt>
      <trkpt lat="45.73231" lon="4.81319">
        <ele>184.39999389648</ele>
        <time>2015-12-06T09:28:59.000Z</time>
      </trkpt>
      <trkpt lat="45.73223" lon="4.8133">
        <ele>184.60000610352</ele>
        <time>2015-12-06T09:29:05.000Z</time>
      </trkpt>
      <trkpt lat="45.73207" lon="4.81344">
        <ele>185</ele>
        <time>2015-12-06T09:29:14.000Z</time>
      </trkpt>
      <trkpt lat="45.7319" lon="4.81356">
        <ele>186</ele>
        <time>2015-12-06T09:29:23.000Z</time>
      </trkpt>
      <trkpt lat="45.73173" lon="4.81364">
        <ele>187.19999694824</ele>
        <time>2015-12-06T09:29:32.000Z</time>
      </trkpt>
      <trkpt lat="45.73156" lon="4.81375">
        <ele>188</ele>
        <time>2015-12-06T09:29:41.000Z</time>
      </trkpt>
      <trkpt lat="45.73138" lon="4.81386">
        <ele>186.60000610352</ele>
        <time>2015-12-06T09:29:51.000Z</time>
      </trkpt>
      <trkpt lat="45.73125" lon="4.81403">
        <ele>182.60000610352</ele>
        <time>2015-12-06T09:30:00.000Z</time>
      </trkpt>
      <trkpt lat="45.73112" lon="4.81425">
        <ele>176.80000305176</ele>
        <time>2015-12-06T09:30:10.000Z</time>
      </trkpt>
      <trkpt lat="45.73101" lon="4.81447">
        <ele>172.60000610352</ele>
        <time>2015-12-06T09:30:21.000Z</time>
      </trkpt>
      <trkpt lat="45.73098" lon="4.81452">
        <ele>171.80000305176</ele>
        <time>2015-12-06T09:30:24.000Z</time>
      </trkpt>
      <trkpt lat="45.73095" lon="4.8146">
        <ele>171.60000610352</ele>
        <time>2015-12-06T09:30:29.000Z</time>
      </trkpt>
      <trkpt lat="45.73085" lon="4.81483">
        <ele>173</ele>
        <time>2015-12-06T09:30:44.000Z</time>
      </trkpt>
      <trkpt lat="45.73077" lon="4.81505">
        <ele>170.19999694824</ele>
        <time>2015-12-06T09:31:00.000Z</time>
      </trkpt>
      <trkpt lat="45.73078" lon="4.81508">
        <ele>169.80000305176</ele>
        <time>2015-12-06T09:31:04.000Z</time>
      </trkpt>
      <trkpt lat="45.73095" lon="4.81531">
        <ele>166.19999694824</ele>
        <time>2015-12-06T09:31:23.000Z</time>
      </trkpt>
      <trkpt lat="45.73096" lon="4.81534">
        <ele>165.60000610352</ele>
        <time>2015-12-06T09:31:25.000Z</time>
      </trkpt>
      <trkpt lat="45.73094" lon="4.81537">
        <ele>165.19999694824</ele>
        <time>2015-12-06T09:31:27.000Z</time>
      </trkpt>
      <trkpt lat="45.73093" lon="4.81547">
        <ele>165</ele>
        <time>2015-12-06T09:31:31.000Z</time>
      </trkpt>
      <trkpt lat="45.73091" lon="4.81552">
        <ele>165</ele>
        <time>2015-12-06T09:31:33.000Z</time>
      </trkpt>
      <trkpt lat="45.73085" lon="4.81562">
        <ele>165</ele>
        <time>2015-12-06T09:31:37.000Z</time>
      </trkpt>
      <trkpt lat="45.73053" lon="4.81569">
        <ele>165.19999694824</ele>
        <time>2015-12-06T09:31:43.000Z</time>
      </trkpt>
      <trkpt lat="45.73035" lon="4.81577">
        <ele>167.80000305176</ele>
        <time>2015-12-06T09:31:50.000Z</time>
      </trkpt>
      <trkpt lat="45.73029" lon="4.81581">
        <ele>168.80000305176</ele>
        <time>2015-12-06T09:31:55.000Z</time>
      </trkpt>
      <trkpt lat="45.73026" lon="4.81584">
        <ele>169.39999389648</ele>
        <time>2015-12-06T09:32:00.000Z</time>
      </trkpt>
      <trkpt lat="45.73026" lon="4.81578">
        <ele>169.19999694824</ele>
        <time>2015-12-06T09:32:15.000Z</time>
      </trkpt>
      <trkpt lat="45.73029" lon="4.8157">
        <ele>168.80000305176</ele>
        <time>2015-12-06T09:32:49.000Z</time>
      </trkpt>
      <trkpt lat="45.73048" lon="4.81565">
        <ele>165.80000305176</ele>
        <time>2015-12-06T09:33:00.000Z</time>
      </trkpt>
      <trkpt lat="45.73067" lon="4.81567">
        <ele>165</ele>
        <time>2015-12-06T09:33:09.000Z</time>
      </trkpt>
      <trkpt lat="45.73084" lon="4.81576">
        <ele>165</ele>
        <time>2015-12-06T09:33:18.000Z</time>
      </trkpt>
      <trkpt lat="45.73101" lon="4.8159">
        <ele>165</ele>
        <time>2015-12-06T09:33:27.000Z</time>
      </trkpt>
      <trkpt lat="45.73118" lon="4.81604">
        <ele>165</ele>
        <time>2015-12-06T09:33:36.000Z</time>
      </trkpt>
      <trkpt lat="45.73134" lon="4.81618">
        <ele>165</ele>
        <time>2015-12-06T09:33:45.000Z</time>
      </trkpt>
      <trkpt lat="45.7315" lon="4.81632">
        <ele>165.60000610352</ele>
        <time>2015-12-06T09:33:54.000Z</time>
      </trkpt>
      <trkpt lat="45.73166" lon="4.81647">
        <ele>166.39999389648</ele>
        <time>2015-12-06T09:34:03.000Z</time>
      </trkpt>
      <trkpt lat="45.73184" lon="4.81661">
        <ele>167.39999389648</ele>
        <time>2015-12-06T09:34:12.000Z</time>
      </trkpt>
      <trkpt lat="45.73199" lon="4.81676">
        <ele>168.19999694824</ele>
        <time>2015-12-06T09:34:20.000Z</time>
      </trkpt>
      <trkpt lat="45.73214" lon="4.81691">
        <ele>169.19999694824</ele>
        <time>2015-12-06T09:34:28.000Z</time>
      </trkpt>
      <trkpt lat="45.73229" lon="4.8171">
        <ele>169.80000305176</ele>
        <time>2015-12-06T09:34:37.000Z</time>
      </trkpt>
      <trkpt lat="45.73244" lon="4.81726">
        <ele>169.60000610352</ele>
        <time>2015-12-06T09:34:46.000Z</time>
      </trkpt>
      <trkpt lat="45.73261" lon="4.8174">
        <ele>169.39999389648</ele>
        <time>2015-12-06T09:34:56.000Z</time>
      </trkpt>
      <trkpt lat="45.73278" lon="4.81754">
        <ele>169</ele>
        <time>2015-12-06T09:35:06.000Z</time>
      </trkpt>
      <trkpt lat="45.73295" lon="4.81767">
        <ele>168.80000305176</ele>
        <time>2015-12-06T09:35:15.000Z</time>
      </trkpt>
      <trkpt lat="45.7331" lon="4.81789">
        <ele>169</ele>
        <time>2015-12-06T09:35:22.000Z</time>
      </trkpt>
      <trkpt lat="45.73327" lon="4.81805">
        <ele>169</ele>
        <time>2015-12-06T09:35:31.000Z</time>
      </trkpt>
      <trkpt lat="45.7334" lon="4.81823">
        <ele>169</ele>
        <time>2015-12-06T09:35:39.000Z</time>
      </trkpt>
      <trkpt lat="45.73353" lon="4.81843">
        <ele>169</ele>
        <time>2015-12-06T09:35:48.000Z</time>
      </trkpt>
      <trkpt lat="45.73359" lon="4.8187">
        <ele>168.60000610352</ele>
        <time>2015-12-06T09:35:57.000Z</time>
      </trkpt>
      <trkpt lat="45.73356" lon="4.81898">
        <ele>167.80000305176</ele>
        <time>2015-12-06T09:36:06.000Z</time>
      </trkpt>
      <trkpt lat="45.73351" lon="4.81925">
        <ele>166.60000610352</ele>
        <time>2015-12-06T09:36:15.000Z</time>
      </trkpt>
      <trkpt lat="45.73344" lon="4.81949">
        <ele>165.19999694824</ele>
        <time>2015-12-06T09:36:23.000Z</time>
      </trkpt>
      <trkpt lat="45.7333" lon="4.81969">
        <ele>164.39999389648</ele>
        <time>2015-12-06T09:36:32.000Z</time>
      </trkpt>
      <trkpt lat="45.73316" lon="4.81986">
        <ele>164</ele>
        <time>2015-12-06T09:36:41.000Z</time>
      </trkpt>
      <trkpt lat="45.73301" lon="4.82003">
        <ele>164</ele>
        <time>2015-12-06T09:36:50.000Z</time>
      </trkpt>
      <trkpt lat="45.73286" lon="4.82021">
        <ele>164</ele>
        <time>2015-12-06T09:37:00.000Z</time>
      </trkpt>
      <trkpt lat="45.73272" lon="4.8204">
        <ele>164</ele>
        <time>2015-12-06T09:37:09.000Z</time>
      </trkpt>
      <trkpt lat="45.73258" lon="4.8206">
        <ele>164</ele>
        <time>2015-12-06T09:37:18.000Z</time>
      </trkpt>
      <trkpt lat="45.73243" lon="4.82079">
        <ele>164</ele>
        <time>2015-12-06T09:37:27.000Z</time>
      </trkpt>
      <trkpt lat="45.73229" lon="4.82096">
        <ele>164</ele>
        <time>2015-12-06T09:37:35.000Z</time>
      </trkpt>
      <trkpt lat="45.73215" lon="4.82115">
        <ele>164</ele>
        <time>2015-12-06T09:37:43.000Z</time>
      </trkpt>
      <trkpt lat="45.73201" lon="4.82134">
        <ele>164.19999694824</ele>
        <time>2015-12-06T09:37:51.000Z</time>
      </trkpt>
      <trkpt lat="45.73191" lon="4.82159">
        <ele>164.39999389648</ele>
        <time>2015-12-06T09:37:59.000Z</time>
      </trkpt>
      <trkpt lat="45.73188" lon="4.82186">
        <ele>165</ele>
        <time>2015-12-06T09:38:07.000Z</time>
      </trkpt>
      <trkpt lat="45.73184" lon="4.82213">
        <ele>165.80000305176</ele>
        <time>2015-12-06T09:38:15.000Z</time>
      </trkpt>
      <trkpt lat="45.73177" lon="4.82241">
        <ele>167.19999694824</ele>
        <time>2015-12-06T09:38:23.000Z</time>
      </trkpt>
      <trkpt lat="45.73172" lon="4.82266">
        <ele>167.60000610352</ele>
        <time>2015-12-06T09:38:30.000Z</time>
      </trkpt>
      <trkpt lat="45.73169" lon="4.82292">
        <ele>168</ele>
        <time>2015-12-06T09:38:37.000Z</time>
      </trkpt>
      <trkpt lat="45.73166" lon="4.82319">
        <ele>169</ele>
        <time>2015-12-06T09:38:44.000Z</time>
      </trkpt>
      <trkpt lat="45.73164" lon="4.82346">
        <ele>168.60000610352</ele>
        <time>2015-12-06T09:38:51.000Z</time>
      </trkpt>
      <trkpt lat="45.73165" lon="4.82374">
        <ele>168.19999694824</ele>
        <time>2015-12-06T09:38:58.000Z</time>
      </trkpt>
      <trkpt lat="45.73161" lon="4.824">
        <ele>166.19999694824</ele>
        <time>2015-12-06T09:39:05.000Z</time>
      </trkpt>
      <trkpt lat="45.73158" lon="4.82426">
        <ele>165</ele>
        <time>2015-12-06T09:39:12.000Z</time>
      </trkpt>
      <trkpt lat="45.73154" lon="4.82435">
        <ele>164.60000610352</ele>
        <time>2015-12-06T09:39:15.000Z</time>
      </trkpt>
      <trkpt lat="45.73138" lon="4.82435">
        <ele>163.80000305176</ele>
        <time>2015-12-06T09:39:21.000Z</time>
      </trkpt>
      <trkpt lat="45.7312" lon="4.82435">
        <ele>164</ele>
        <time>2015-12-06T09:39:28.000Z</time>
      </trkpt>
      <trkpt lat="45.73101" lon="4.82438">
        <ele>164.80000305176</ele>
        <time>2015-12-06T09:39:36.000Z</time>
      </trkpt>
      <trkpt lat="45.73083" lon="4.82439">
        <ele>165.60000610352</ele>
        <time>2015-12-06T09:39:43.000Z</time>
      </trkpt>
      <trkpt lat="45.73071" lon="4.82438">
        <ele>166.19999694824</ele>
        <time>2015-12-06T09:39:47.000Z</time>
      </trkpt>
      <trkpt lat="45.73051" lon="4.82437">
        <ele>167</ele>
        <time>2015-12-06T09:39:54.000Z</time>
      </trkpt>
      <trkpt lat="45.73032" lon="4.82436">
        <ele>166.80000305176</ele>
        <time>2015-12-06T09:40:01.000Z</time>
      </trkpt>
      <trkpt lat="45.73013" lon="4.82434">
        <ele>167.39999389648</ele>
        <time>2015-12-06T09:40:08.000Z</time>
      </trkpt>
      <trkpt lat="45.73" lon="4.82437">
        <ele>168</ele>
        <time>2015-12-06T09:40:13.000Z</time>
      </trkpt>
      <trkpt lat="45.72992" lon="4.82462">
        <ele>169.39999389648</ele>
        <time>2015-12-06T09:40:22.000Z</time>
      </trkpt>
      <trkpt lat="45.72998" lon="4.8248">
        <ele>169.60000610352</ele>
        <time>2015-12-06T09:40:30.000Z</time>
      </trkpt>
      <trkpt lat="45.73011" lon="4.82495">
        <ele>169.39999389648</ele>
        <time>2015-12-06T09:41:01.000Z</time>
      </trkpt>
      <trkpt lat="45.73015" lon="4.82497">
        <ele>169.39999389648</ele>
        <time>2015-12-06T09:41:05.000Z</time>
      </trkpt>
      <trkpt lat="45.73034" lon="4.82529">
        <ele>169.80000305176</ele>
        <time>2015-12-06T09:41:59.000Z</time>
      </trkpt>
      <trkpt lat="45.73024" lon="4.82537">
        <ele>171</ele>
        <time>2015-12-06T09:42:17.000Z</time>
      </trkpt>
      <trkpt lat="45.73019" lon="4.82537">
        <ele>171.39999389648</ele>
        <time>2015-12-06T09:42:29.000Z</time>
      </trkpt>
      <trkpt lat="45.73018" lon="4.82532">
        <ele>171.19999694824</ele>
        <time>2015-12-06T09:42:42.000Z</time>
      </trkpt>
      <trkpt lat="45.73018" lon="4.82544">
        <ele>171.39999389648</ele>
        <time>2015-12-06T09:43:01.000Z</time>
      </trkpt>
      <trkpt lat="45.73013" lon="4.8254">
        <ele>172</ele>
        <time>2015-12-06T09:43:49.000Z</time>
      </trkpt>
      <trkpt lat="45.73013" lon="4.82542">
        <ele>171.80000305176</ele>
        <time>2015-12-06T09:44:05.000Z</time>
      </trkpt>
      <trkpt lat="45.73014" lon="4.82544">
        <ele>171.80000305176</ele>
        <time>2015-12-06T09:44:53.000Z</time>
      </trkpt>
      <trkpt lat="45.73013" lon="4.8254">
        <ele>172</ele>
        <time>2015-12-06T09:45:25.000Z</time>
      </trkpt>
      <trkpt lat="45.73028" lon="4.8254">
        <ele>170.80000305176</ele>
        <time>2015-12-06T09:46:04.000Z</time>
      </trkpt>
      <trkpt lat="45.73029" lon="4.82541">
        <ele>170.60000610352</ele>
        <time>2015-12-06T09:46:05.000Z</time>
      </trkpt>
    </trkseg>
  </trk>
</gpx>